<?xml version="1.0" encoding="UTF-8" standalone="no" ?>
<gpx xmlns="http://www.topografix.com/GPX/1/1" xmlns:xsi="http://www.w3.org/2001/XMLSchema-instance" xsi:schemaLocation="http://www.topografix.com/GPX/1/1 http://www.topografix.com/GPX/1/1/gpx.xsd" version="1.1" creator="VisuGPX - https://www.visugpx.com">
  <metadata>
    <name>L'Ultr'Arverne Etape2 217km 4205D+</name>
  </metadata>
  <trk>
    <name><![CDATA[13906400-L'Ultr'Arverne 12 000 2022]]></name>
    <trkseg>
      <trkpt lat="45.5512" lon="2.74359">
        <ele>1241</ele>
        <time>2022-01-27T19:49:15Z</time>
      </trkpt>
      <trkpt lat="45.55106" lon="2.7435">
        <ele>1240</ele>
        <time>2022-01-27T19:49:18Z</time>
      </trkpt>
      <trkpt lat="45.55092" lon="2.74345">
        <ele>1240</ele>
        <time>2022-01-27T19:49:20Z</time>
      </trkpt>
      <trkpt lat="45.55061" lon="2.74356">
        <ele>1242</ele>
        <time>2022-01-27T19:49:26Z</time>
      </trkpt>
      <trkpt lat="45.5505" lon="2.74354">
        <ele>1242</ele>
        <time>2022-01-27T19:49:28Z</time>
      </trkpt>
      <trkpt lat="45.5504" lon="2.74345">
        <ele>1241</ele>
        <time>2022-01-27T19:49:30Z</time>
      </trkpt>
      <trkpt lat="45.55033" lon="2.74331">
        <ele>1239</ele>
        <time>2022-01-27T19:49:32Z</time>
      </trkpt>
      <trkpt lat="45.55025" lon="2.74306">
        <ele>1237</ele>
        <time>2022-01-27T19:49:35Z</time>
      </trkpt>
      <trkpt lat="45.55018" lon="2.74299">
        <ele>1236</ele>
        <time>2022-01-27T19:49:37Z</time>
      </trkpt>
      <trkpt lat="45.5501" lon="2.74295">
        <ele>1236</ele>
        <time>2022-01-27T19:49:38Z</time>
      </trkpt>
      <trkpt lat="45.5498" lon="2.74295">
        <ele>1238</ele>
        <time>2022-01-27T19:49:44Z</time>
      </trkpt>
      <trkpt lat="45.54952" lon="2.74292">
        <ele>1239</ele>
        <time>2022-01-27T19:49:49Z</time>
      </trkpt>
      <trkpt lat="45.54944" lon="2.74285">
        <ele>1239</ele>
        <time>2022-01-27T19:49:50Z</time>
      </trkpt>
      <trkpt lat="45.54938" lon="2.74276">
        <ele>1238</ele>
        <time>2022-01-27T19:49:52Z</time>
      </trkpt>
      <trkpt lat="45.54922" lon="2.74236">
        <ele>1235</ele>
        <time>2022-01-27T19:49:58Z</time>
      </trkpt>
      <trkpt lat="45.54917" lon="2.74227">
        <ele>1234</ele>
        <time>2022-01-27T19:49:59Z</time>
      </trkpt>
      <trkpt lat="45.5489" lon="2.74208">
        <ele>1235</ele>
        <time>2022-01-27T19:50:05Z</time>
      </trkpt>
      <trkpt lat="45.54872" lon="2.742">
        <ele>1236</ele>
        <time>2022-01-27T19:50:08Z</time>
      </trkpt>
      <trkpt lat="45.54861" lon="2.74191">
        <ele>1236</ele>
        <time>2022-01-27T19:50:10Z</time>
      </trkpt>
      <trkpt lat="45.54851" lon="2.74177">
        <ele>1236</ele>
        <time>2022-01-27T19:50:13Z</time>
      </trkpt>
      <trkpt lat="45.54803" lon="2.74073">
        <ele>1234</ele>
        <time>2022-01-27T19:50:28Z</time>
      </trkpt>
      <trkpt lat="45.54777" lon="2.74027">
        <ele>1232</ele>
        <time>2022-01-27T19:50:36Z</time>
      </trkpt>
      <trkpt lat="45.54765" lon="2.74002">
        <ele>1230</ele>
        <time>2022-01-27T19:50:39Z</time>
      </trkpt>
      <trkpt lat="45.54754" lon="2.73985">
        <ele>1229</ele>
        <time>2022-01-27T19:50:42Z</time>
      </trkpt>
      <trkpt lat="45.54741" lon="2.73972">
        <ele>1229</ele>
        <time>2022-01-27T19:50:45Z</time>
      </trkpt>
      <trkpt lat="45.54722" lon="2.73964">
        <ele>1230</ele>
        <time>2022-01-27T19:50:49Z</time>
      </trkpt>
      <trkpt lat="45.54712" lon="2.73954">
        <ele>1230</ele>
        <time>2022-01-27T19:50:51Z</time>
      </trkpt>
      <trkpt lat="45.5468" lon="2.7389">
        <ele>1228</ele>
        <time>2022-01-27T19:51:00Z</time>
      </trkpt>
      <trkpt lat="45.54664" lon="2.73871">
        <ele>1228</ele>
        <time>2022-01-27T19:51:04Z</time>
      </trkpt>
      <trkpt lat="45.54637" lon="2.73845">
        <ele>1225</ele>
        <time>2022-01-27T19:51:10Z</time>
      </trkpt>
      <trkpt lat="45.54604" lon="2.73871">
        <ele>1226</ele>
        <time>2022-01-27T19:51:17Z</time>
      </trkpt>
      <trkpt lat="45.54596" lon="2.73882">
        <ele>1226</ele>
        <time>2022-01-27T19:51:19Z</time>
      </trkpt>
      <trkpt lat="45.54592" lon="2.73899">
        <ele>1227</ele>
        <time>2022-01-27T19:51:21Z</time>
      </trkpt>
      <trkpt lat="45.54594" lon="2.73952">
        <ele>1230</ele>
        <time>2022-01-27T19:51:28Z</time>
      </trkpt>
      <trkpt lat="45.54593" lon="2.73995">
        <ele>1232</ele>
        <time>2022-01-27T19:51:33Z</time>
      </trkpt>
      <trkpt lat="45.54592" lon="2.7401">
        <ele>1233</ele>
        <time>2022-01-27T19:51:35Z</time>
      </trkpt>
      <trkpt lat="45.54587" lon="2.74023">
        <ele>1234</ele>
        <time>2022-01-27T19:51:37Z</time>
      </trkpt>
      <trkpt lat="45.54561" lon="2.74078">
        <ele>1235</ele>
        <time>2022-01-27T19:51:45Z</time>
      </trkpt>
      <trkpt lat="45.54556" lon="2.74101">
        <ele>1236</ele>
        <time>2022-01-27T19:51:48Z</time>
      </trkpt>
      <trkpt lat="45.54523" lon="2.7431">
        <ele>1248</ele>
        <time>2022-01-27T19:52:15Z</time>
      </trkpt>
      <trkpt lat="45.54489" lon="2.745">
        <ele>1255</ele>
        <time>2022-01-27T19:52:39Z</time>
      </trkpt>
      <trkpt lat="45.54475" lon="2.74565">
        <ele>1254</ele>
        <time>2022-01-27T19:52:47Z</time>
      </trkpt>
      <trkpt lat="45.54471" lon="2.74592">
        <ele>1254</ele>
        <time>2022-01-27T19:52:51Z</time>
      </trkpt>
      <trkpt lat="45.54471" lon="2.74619">
        <ele>1254</ele>
        <time>2022-01-27T19:52:54Z</time>
      </trkpt>
      <trkpt lat="45.54496" lon="2.74783">
        <ele>1256</ele>
        <time>2022-01-27T19:53:15Z</time>
      </trkpt>
      <trkpt lat="45.54495" lon="2.74799">
        <ele>1256</ele>
        <time>2022-01-27T19:53:17Z</time>
      </trkpt>
      <trkpt lat="45.54492" lon="2.74819">
        <ele>1256</ele>
        <time>2022-01-27T19:53:20Z</time>
      </trkpt>
      <trkpt lat="45.54476" lon="2.7489">
        <ele>1256</ele>
        <time>2022-01-27T19:53:29Z</time>
      </trkpt>
      <trkpt lat="45.54466" lon="2.74929">
        <ele>1256</ele>
        <time>2022-01-27T19:53:34Z</time>
      </trkpt>
      <trkpt lat="45.54455" lon="2.74962">
        <ele>1256</ele>
        <time>2022-01-27T19:53:39Z</time>
      </trkpt>
      <trkpt lat="45.54434" lon="2.75">
        <ele>1253</ele>
        <time>2022-01-27T19:53:45Z</time>
      </trkpt>
      <trkpt lat="45.54363" lon="2.751">
        <ele>1248</ele>
        <time>2022-01-27T19:54:03Z</time>
      </trkpt>
      <trkpt lat="45.54299" lon="2.75194">
        <ele>1245</ele>
        <time>2022-01-27T19:54:19Z</time>
      </trkpt>
      <trkpt lat="45.54216" lon="2.75266">
        <ele>1238</ele>
        <time>2022-01-27T19:54:36Z</time>
      </trkpt>
      <trkpt lat="45.54148" lon="2.75298">
        <ele>1234</ele>
        <time>2022-01-27T19:54:49Z</time>
      </trkpt>
      <trkpt lat="45.54131" lon="2.75299">
        <ele>1234</ele>
        <time>2022-01-27T19:54:52Z</time>
      </trkpt>
      <trkpt lat="45.54116" lon="2.75295">
        <ele>1234</ele>
        <time>2022-01-27T19:54:55Z</time>
      </trkpt>
      <trkpt lat="45.5409" lon="2.75266">
        <ele>1232</ele>
        <time>2022-01-27T19:55:01Z</time>
      </trkpt>
      <trkpt lat="45.54072" lon="2.7524">
        <ele>1231</ele>
        <time>2022-01-27T19:55:05Z</time>
      </trkpt>
      <trkpt lat="45.54057" lon="2.75227">
        <ele>1230</ele>
        <time>2022-01-27T19:55:08Z</time>
      </trkpt>
      <trkpt lat="45.54043" lon="2.75218">
        <ele>1230</ele>
        <time>2022-01-27T19:55:11Z</time>
      </trkpt>
      <trkpt lat="45.54025" lon="2.75215">
        <ele>1230</ele>
        <time>2022-01-27T19:55:14Z</time>
      </trkpt>
      <trkpt lat="45.54009" lon="2.75218">
        <ele>1230</ele>
        <time>2022-01-27T19:55:17Z</time>
      </trkpt>
      <trkpt lat="45.53996" lon="2.75227">
        <ele>1230</ele>
        <time>2022-01-27T19:55:20Z</time>
      </trkpt>
      <trkpt lat="45.53985" lon="2.75241">
        <ele>1230</ele>
        <time>2022-01-27T19:55:22Z</time>
      </trkpt>
      <trkpt lat="45.53976" lon="2.75268">
        <ele>1230</ele>
        <time>2022-01-27T19:55:26Z</time>
      </trkpt>
      <trkpt lat="45.53966" lon="2.75321">
        <ele>1230</ele>
        <time>2022-01-27T19:55:33Z</time>
      </trkpt>
      <trkpt lat="45.53935" lon="2.75433">
        <ele>1230</ele>
        <time>2022-01-27T19:55:48Z</time>
      </trkpt>
      <trkpt lat="45.53917" lon="2.75481">
        <ele>1228</ele>
        <time>2022-01-27T19:55:55Z</time>
      </trkpt>
      <trkpt lat="45.53897" lon="2.75527">
        <ele>1225</ele>
        <time>2022-01-27T19:56:01Z</time>
      </trkpt>
      <trkpt lat="45.53859" lon="2.75641">
        <ele>1220</ele>
        <time>2022-01-27T19:56:17Z</time>
      </trkpt>
      <trkpt lat="45.53822" lon="2.75778">
        <ele>1213</ele>
        <time>2022-01-27T19:56:35Z</time>
      </trkpt>
      <trkpt lat="45.53818" lon="2.75809">
        <ele>1212</ele>
        <time>2022-01-27T19:56:39Z</time>
      </trkpt>
      <trkpt lat="45.53817" lon="2.7584">
        <ele>1212</ele>
        <time>2022-01-27T19:56:43Z</time>
      </trkpt>
      <trkpt lat="45.53822" lon="2.75952">
        <ele>1215</ele>
        <time>2022-01-27T19:56:57Z</time>
      </trkpt>
      <trkpt lat="45.53827" lon="2.76043">
        <ele>1216</ele>
        <time>2022-01-27T19:57:09Z</time>
      </trkpt>
      <trkpt lat="45.53825" lon="2.76061">
        <ele>1216</ele>
        <time>2022-01-27T19:57:11Z</time>
      </trkpt>
      <trkpt lat="45.53818" lon="2.76077">
        <ele>1216</ele>
        <time>2022-01-27T19:57:13Z</time>
      </trkpt>
      <trkpt lat="45.53807" lon="2.76092">
        <ele>1216</ele>
        <time>2022-01-27T19:57:16Z</time>
      </trkpt>
      <trkpt lat="45.53798" lon="2.76104">
        <ele>1217</ele>
        <time>2022-01-27T19:57:18Z</time>
      </trkpt>
      <trkpt lat="45.53785" lon="2.76117">
        <ele>1217</ele>
        <time>2022-01-27T19:57:21Z</time>
      </trkpt>
      <trkpt lat="45.53718" lon="2.7617">
        <ele>1218</ele>
        <time>2022-01-27T19:57:34Z</time>
      </trkpt>
      <trkpt lat="45.53666" lon="2.76203">
        <ele>1222</ele>
        <time>2022-01-27T19:57:45Z</time>
      </trkpt>
      <trkpt lat="45.53655" lon="2.76208">
        <ele>1223</ele>
        <time>2022-01-27T19:57:47Z</time>
      </trkpt>
      <trkpt lat="45.53646" lon="2.7621">
        <ele>1223</ele>
        <time>2022-01-27T19:57:48Z</time>
      </trkpt>
      <trkpt lat="45.53626" lon="2.76209">
        <ele>1222</ele>
        <time>2022-01-27T19:57:52Z</time>
      </trkpt>
      <trkpt lat="45.53549" lon="2.76185">
        <ele>1219</ele>
        <time>2022-01-27T19:58:06Z</time>
      </trkpt>
      <trkpt lat="45.53509" lon="2.7617">
        <ele>1218</ele>
        <time>2022-01-27T19:58:13Z</time>
      </trkpt>
      <trkpt lat="45.53492" lon="2.76156">
        <ele>1216</ele>
        <time>2022-01-27T19:58:17Z</time>
      </trkpt>
      <trkpt lat="45.53475" lon="2.76134">
        <ele>1214</ele>
        <time>2022-01-27T19:58:21Z</time>
      </trkpt>
      <trkpt lat="45.53443" lon="2.76085">
        <ele>1208</ele>
        <time>2022-01-27T19:58:29Z</time>
      </trkpt>
      <trkpt lat="45.53391" lon="2.7598">
        <ele>1198</ele>
        <time>2022-01-27T19:58:45Z</time>
      </trkpt>
      <trkpt lat="45.53357" lon="2.75918">
        <ele>1192</ele>
        <time>2022-01-27T19:58:55Z</time>
      </trkpt>
      <trkpt lat="45.5333" lon="2.75876">
        <ele>1187</ele>
        <time>2022-01-27T19:59:02Z</time>
      </trkpt>
      <trkpt lat="45.53278" lon="2.75669">
        <ele>1167</ele>
        <time>2022-01-27T19:59:30Z</time>
      </trkpt>
      <trkpt lat="45.53227" lon="2.7548">
        <ele>1152</ele>
        <time>2022-01-27T19:59:55Z</time>
      </trkpt>
      <trkpt lat="45.53215" lon="2.75448">
        <ele>1149</ele>
        <time>2022-01-27T19:59:59Z</time>
      </trkpt>
      <trkpt lat="45.53203" lon="2.75424">
        <ele>1148</ele>
        <time>2022-01-27T20:00:03Z</time>
      </trkpt>
      <trkpt lat="45.53169" lon="2.7538">
        <ele>1144</ele>
        <time>2022-01-27T20:00:11Z</time>
      </trkpt>
      <trkpt lat="45.53151" lon="2.75363">
        <ele>1140</ele>
        <time>2022-01-27T20:00:15Z</time>
      </trkpt>
      <trkpt lat="45.53136" lon="2.75355">
        <ele>1139</ele>
        <time>2022-01-27T20:00:18Z</time>
      </trkpt>
      <trkpt lat="45.53047" lon="2.75342">
        <ele>1132</ele>
        <time>2022-01-27T20:00:34Z</time>
      </trkpt>
      <trkpt lat="45.53033" lon="2.75343">
        <ele>1132</ele>
        <time>2022-01-27T20:00:36Z</time>
      </trkpt>
      <trkpt lat="45.53021" lon="2.75348">
        <ele>1131</ele>
        <time>2022-01-27T20:00:38Z</time>
      </trkpt>
      <trkpt lat="45.52989" lon="2.75379">
        <ele>1130</ele>
        <time>2022-01-27T20:00:45Z</time>
      </trkpt>
      <trkpt lat="45.52964" lon="2.75408">
        <ele>1129</ele>
        <time>2022-01-27T20:00:51Z</time>
      </trkpt>
      <trkpt lat="45.52956" lon="2.75424">
        <ele>1128</ele>
        <time>2022-01-27T20:00:54Z</time>
      </trkpt>
      <trkpt lat="45.52952" lon="2.75437">
        <ele>1128</ele>
        <time>2022-01-27T20:00:55Z</time>
      </trkpt>
      <trkpt lat="45.5295" lon="2.75503">
        <ele>1128</ele>
        <time>2022-01-27T20:01:04Z</time>
      </trkpt>
      <trkpt lat="45.52948" lon="2.75519">
        <ele>1128</ele>
        <time>2022-01-27T20:01:06Z</time>
      </trkpt>
      <trkpt lat="45.52934" lon="2.75565">
        <ele>1129</ele>
        <time>2022-01-27T20:01:12Z</time>
      </trkpt>
      <trkpt lat="45.5292" lon="2.75587">
        <ele>1130</ele>
        <time>2022-01-27T20:01:16Z</time>
      </trkpt>
      <trkpt lat="45.52908" lon="2.75594">
        <ele>1131</ele>
        <time>2022-01-27T20:01:18Z</time>
      </trkpt>
      <trkpt lat="45.52895" lon="2.75594">
        <ele>1132</ele>
        <time>2022-01-27T20:01:20Z</time>
      </trkpt>
      <trkpt lat="45.52883" lon="2.7559">
        <ele>1132</ele>
        <time>2022-01-27T20:01:22Z</time>
      </trkpt>
      <trkpt lat="45.52845" lon="2.75567">
        <ele>1132</ele>
        <time>2022-01-27T20:01:30Z</time>
      </trkpt>
      <trkpt lat="45.52784" lon="2.75504">
        <ele>1133</ele>
        <time>2022-01-27T20:01:43Z</time>
      </trkpt>
      <trkpt lat="45.52762" lon="2.75486">
        <ele>1134</ele>
        <time>2022-01-27T20:01:48Z</time>
      </trkpt>
      <trkpt lat="45.52728" lon="2.75474">
        <ele>1143</ele>
        <time>2022-01-27T20:01:54Z</time>
      </trkpt>
      <trkpt lat="45.52723" lon="2.75464">
        <ele>1144</ele>
        <time>2022-01-27T20:01:55Z</time>
      </trkpt>
      <trkpt lat="45.52662" lon="2.75311">
        <ele>1138</ele>
        <time>2022-01-27T20:02:17Z</time>
      </trkpt>
      <trkpt lat="45.52592" lon="2.75202">
        <ele>1143</ele>
        <time>2022-01-27T20:02:36Z</time>
      </trkpt>
      <trkpt lat="45.52588" lon="2.75189">
        <ele>1143</ele>
        <time>2022-01-27T20:02:37Z</time>
      </trkpt>
      <trkpt lat="45.52588" lon="2.75176">
        <ele>1142</ele>
        <time>2022-01-27T20:02:39Z</time>
      </trkpt>
      <trkpt lat="45.52591" lon="2.75151">
        <ele>1141</ele>
        <time>2022-01-27T20:02:42Z</time>
      </trkpt>
      <trkpt lat="45.52609" lon="2.74986">
        <ele>1134</ele>
        <time>2022-01-27T20:03:03Z</time>
      </trkpt>
      <trkpt lat="45.5261" lon="2.74959">
        <ele>1132</ele>
        <time>2022-01-27T20:03:06Z</time>
      </trkpt>
      <trkpt lat="45.52606" lon="2.74934">
        <ele>1130</ele>
        <time>2022-01-27T20:03:10Z</time>
      </trkpt>
      <trkpt lat="45.52595" lon="2.74902">
        <ele>1128</ele>
        <time>2022-01-27T20:03:14Z</time>
      </trkpt>
      <trkpt lat="45.52584" lon="2.74884">
        <ele>1127</ele>
        <time>2022-01-27T20:03:17Z</time>
      </trkpt>
      <trkpt lat="45.52572" lon="2.74874">
        <ele>1126</ele>
        <time>2022-01-27T20:03:20Z</time>
      </trkpt>
      <trkpt lat="45.5252" lon="2.74852">
        <ele>1125</ele>
        <time>2022-01-27T20:03:29Z</time>
      </trkpt>
      <trkpt lat="45.52501" lon="2.74848">
        <ele>1125</ele>
        <time>2022-01-27T20:03:33Z</time>
      </trkpt>
      <trkpt lat="45.52478" lon="2.7485">
        <ele>1128</ele>
        <time>2022-01-27T20:03:37Z</time>
      </trkpt>
      <trkpt lat="45.52466" lon="2.74848">
        <ele>1129</ele>
        <time>2022-01-27T20:03:39Z</time>
      </trkpt>
      <trkpt lat="45.52457" lon="2.74845">
        <ele>1129</ele>
        <time>2022-01-27T20:03:40Z</time>
      </trkpt>
      <trkpt lat="45.52437" lon="2.74822">
        <ele>1129</ele>
        <time>2022-01-27T20:03:45Z</time>
      </trkpt>
      <trkpt lat="45.52431" lon="2.74809">
        <ele>1129</ele>
        <time>2022-01-27T20:03:47Z</time>
      </trkpt>
      <trkpt lat="45.52425" lon="2.74787">
        <ele>1129</ele>
        <time>2022-01-27T20:03:50Z</time>
      </trkpt>
      <trkpt lat="45.52422" lon="2.74751">
        <ele>1129</ele>
        <time>2022-01-27T20:03:54Z</time>
      </trkpt>
      <trkpt lat="45.52419" lon="2.74633">
        <ele>1134</ele>
        <time>2022-01-27T20:04:09Z</time>
      </trkpt>
      <trkpt lat="45.52403" lon="2.74414">
        <ele>1126</ele>
        <time>2022-01-27T20:04:37Z</time>
      </trkpt>
      <trkpt lat="45.52395" lon="2.7437">
        <ele>1122</ele>
        <time>2022-01-27T20:04:42Z</time>
      </trkpt>
      <trkpt lat="45.52359" lon="2.74289">
        <ele>1114</ele>
        <time>2022-01-27T20:04:54Z</time>
      </trkpt>
      <trkpt lat="45.52334" lon="2.74248">
        <ele>1108</ele>
        <time>2022-01-27T20:05:01Z</time>
      </trkpt>
      <trkpt lat="45.52273" lon="2.74202">
        <ele>1107</ele>
        <time>2022-01-27T20:05:13Z</time>
      </trkpt>
      <trkpt lat="45.52229" lon="2.74161">
        <ele>1106</ele>
        <time>2022-01-27T20:05:23Z</time>
      </trkpt>
      <trkpt lat="45.52212" lon="2.74135">
        <ele>1104</ele>
        <time>2022-01-27T20:05:27Z</time>
      </trkpt>
      <trkpt lat="45.52192" lon="2.74117">
        <ele>1103</ele>
        <time>2022-01-27T20:05:31Z</time>
      </trkpt>
      <trkpt lat="45.52143" lon="2.74093">
        <ele>1103</ele>
        <time>2022-01-27T20:05:41Z</time>
      </trkpt>
      <trkpt lat="45.5205" lon="2.74061">
        <ele>1111</ele>
        <time>2022-01-27T20:05:58Z</time>
      </trkpt>
      <trkpt lat="45.52041" lon="2.74051">
        <ele>1110</ele>
        <time>2022-01-27T20:06:00Z</time>
      </trkpt>
      <trkpt lat="45.52" lon="2.73996">
        <ele>1102</ele>
        <time>2022-01-27T20:06:10Z</time>
      </trkpt>
      <trkpt lat="45.51957" lon="2.73946">
        <ele>1102</ele>
        <time>2022-01-27T20:06:19Z</time>
      </trkpt>
      <trkpt lat="45.519" lon="2.73897">
        <ele>1103</ele>
        <time>2022-01-27T20:06:31Z</time>
      </trkpt>
      <trkpt lat="45.51859" lon="2.73857">
        <ele>1101</ele>
        <time>2022-01-27T20:06:40Z</time>
      </trkpt>
      <trkpt lat="45.51802" lon="2.73809">
        <ele>1099</ele>
        <time>2022-01-27T20:06:52Z</time>
      </trkpt>
      <trkpt lat="45.51775" lon="2.73799">
        <ele>1100</ele>
        <time>2022-01-27T20:06:57Z</time>
      </trkpt>
      <trkpt lat="45.51722" lon="2.7375">
        <ele>1094</ele>
        <time>2022-01-27T20:07:08Z</time>
      </trkpt>
      <trkpt lat="45.51701" lon="2.73715">
        <ele>1090</ele>
        <time>2022-01-27T20:07:14Z</time>
      </trkpt>
      <trkpt lat="45.51686" lon="2.73696">
        <ele>1089</ele>
        <time>2022-01-27T20:07:17Z</time>
      </trkpt>
      <trkpt lat="45.51671" lon="2.73656">
        <ele>1088</ele>
        <time>2022-01-27T20:07:23Z</time>
      </trkpt>
      <trkpt lat="45.51647" lon="2.73611">
        <ele>1084</ele>
        <time>2022-01-27T20:07:30Z</time>
      </trkpt>
      <trkpt lat="45.51638" lon="2.73591">
        <ele>1082</ele>
        <time>2022-01-27T20:07:33Z</time>
      </trkpt>
      <trkpt lat="45.51634" lon="2.73572">
        <ele>1080</ele>
        <time>2022-01-27T20:07:36Z</time>
      </trkpt>
      <trkpt lat="45.51608" lon="2.73073">
        <ele>1066</ele>
        <time>2022-01-27T20:08:38Z</time>
      </trkpt>
      <trkpt lat="45.51604" lon="2.73041">
        <ele>1065</ele>
        <time>2022-01-27T20:08:42Z</time>
      </trkpt>
      <trkpt lat="45.51597" lon="2.7301">
        <ele>1063</ele>
        <time>2022-01-27T20:08:46Z</time>
      </trkpt>
      <trkpt lat="45.51585" lon="2.72978">
        <ele>1060</ele>
        <time>2022-01-27T20:08:51Z</time>
      </trkpt>
      <trkpt lat="45.51552" lon="2.72909">
        <ele>1055</ele>
        <time>2022-01-27T20:09:01Z</time>
      </trkpt>
      <trkpt lat="45.5152" lon="2.72832">
        <ele>1051</ele>
        <time>2022-01-27T20:09:12Z</time>
      </trkpt>
      <trkpt lat="45.51513" lon="2.7282">
        <ele>1050</ele>
        <time>2022-01-27T20:09:14Z</time>
      </trkpt>
      <trkpt lat="45.51506" lon="2.72813">
        <ele>1049</ele>
        <time>2022-01-27T20:09:16Z</time>
      </trkpt>
      <trkpt lat="45.51489" lon="2.7281">
        <ele>1047</ele>
        <time>2022-01-27T20:09:19Z</time>
      </trkpt>
      <trkpt lat="45.51477" lon="2.72817">
        <ele>1046</ele>
        <time>2022-01-27T20:09:21Z</time>
      </trkpt>
      <trkpt lat="45.51465" lon="2.72841">
        <ele>1045</ele>
        <time>2022-01-27T20:09:25Z</time>
      </trkpt>
      <trkpt lat="45.51397" lon="2.72986">
        <ele>1040</ele>
        <time>2022-01-27T20:09:46Z</time>
      </trkpt>
      <trkpt lat="45.51364" lon="2.73068">
        <ele>1041</ele>
        <time>2022-01-27T20:09:58Z</time>
      </trkpt>
      <trkpt lat="45.51343" lon="2.73132">
        <ele>1044</ele>
        <time>2022-01-27T20:10:07Z</time>
      </trkpt>
      <trkpt lat="45.51311" lon="2.73204">
        <ele>1046</ele>
        <time>2022-01-27T20:10:18Z</time>
      </trkpt>
      <trkpt lat="45.51302" lon="2.73239">
        <ele>1046</ele>
        <time>2022-01-27T20:10:22Z</time>
      </trkpt>
      <trkpt lat="45.51284" lon="2.73298">
        <ele>1049</ele>
        <time>2022-01-27T20:10:30Z</time>
      </trkpt>
      <trkpt lat="45.51266" lon="2.73345">
        <ele>1052</ele>
        <time>2022-01-27T20:10:37Z</time>
      </trkpt>
      <trkpt lat="45.51243" lon="2.73393">
        <ele>1054</ele>
        <time>2022-01-27T20:10:44Z</time>
      </trkpt>
      <trkpt lat="45.51238" lon="2.734">
        <ele>1053</ele>
        <time>2022-01-27T20:10:45Z</time>
      </trkpt>
      <trkpt lat="45.5123" lon="2.73404">
        <ele>1052</ele>
        <time>2022-01-27T20:10:47Z</time>
      </trkpt>
      <trkpt lat="45.51216" lon="2.73399">
        <ele>1051</ele>
        <time>2022-01-27T20:10:50Z</time>
      </trkpt>
      <trkpt lat="45.51212" lon="2.73395">
        <ele>1050</ele>
        <time>2022-01-27T20:10:50Z</time>
      </trkpt>
      <trkpt lat="45.5121" lon="2.73389">
        <ele>1050</ele>
        <time>2022-01-27T20:10:51Z</time>
      </trkpt>
      <trkpt lat="45.51183" lon="2.7317">
        <ele>1046</ele>
        <time>2022-01-27T20:11:19Z</time>
      </trkpt>
      <trkpt lat="45.51172" lon="2.73092">
        <ele>1045</ele>
        <time>2022-01-27T20:11:29Z</time>
      </trkpt>
      <trkpt lat="45.51166" lon="2.73032">
        <ele>1044</ele>
        <time>2022-01-27T20:11:36Z</time>
      </trkpt>
      <trkpt lat="45.51166" lon="2.72961">
        <ele>1043</ele>
        <time>2022-01-27T20:11:45Z</time>
      </trkpt>
      <trkpt lat="45.51168" lon="2.72889">
        <ele>1043</ele>
        <time>2022-01-27T20:11:54Z</time>
      </trkpt>
      <trkpt lat="45.51174" lon="2.72803">
        <ele>1041</ele>
        <time>2022-01-27T20:12:05Z</time>
      </trkpt>
      <trkpt lat="45.51133" lon="2.72772">
        <ele>1037</ele>
        <time>2022-01-27T20:12:13Z</time>
      </trkpt>
      <trkpt lat="45.51118" lon="2.7274">
        <ele>1035</ele>
        <time>2022-01-27T20:12:18Z</time>
      </trkpt>
      <trkpt lat="45.51105" lon="2.72727">
        <ele>1033</ele>
        <time>2022-01-27T20:12:21Z</time>
      </trkpt>
      <trkpt lat="45.51096" lon="2.72725">
        <ele>1032</ele>
        <time>2022-01-27T20:12:23Z</time>
      </trkpt>
      <trkpt lat="45.51079" lon="2.7273">
        <ele>1032</ele>
        <time>2022-01-27T20:12:26Z</time>
      </trkpt>
      <trkpt lat="45.51047" lon="2.72755">
        <ele>1031</ele>
        <time>2022-01-27T20:12:32Z</time>
      </trkpt>
      <trkpt lat="45.51029" lon="2.7276">
        <ele>1029</ele>
        <time>2022-01-27T20:12:35Z</time>
      </trkpt>
      <trkpt lat="45.50989" lon="2.72752">
        <ele>1025</ele>
        <time>2022-01-27T20:12:43Z</time>
      </trkpt>
      <trkpt lat="45.50941" lon="2.72759">
        <ele>1022</ele>
        <time>2022-01-27T20:12:51Z</time>
      </trkpt>
      <trkpt lat="45.50922" lon="2.72758">
        <ele>1021</ele>
        <time>2022-01-27T20:12:55Z</time>
      </trkpt>
      <trkpt lat="45.50896" lon="2.72744">
        <ele>1020</ele>
        <time>2022-01-27T20:13:00Z</time>
      </trkpt>
      <trkpt lat="45.50873" lon="2.72726">
        <ele>1019</ele>
        <time>2022-01-27T20:13:04Z</time>
      </trkpt>
      <trkpt lat="45.50861" lon="2.72718">
        <ele>1018</ele>
        <time>2022-01-27T20:13:07Z</time>
      </trkpt>
      <trkpt lat="45.50831" lon="2.72687">
        <ele>1017</ele>
        <time>2022-01-27T20:13:13Z</time>
      </trkpt>
      <trkpt lat="45.50787" lon="2.7263">
        <ele>1021</ele>
        <time>2022-01-27T20:13:24Z</time>
      </trkpt>
      <trkpt lat="45.50772" lon="2.72599">
        <ele>1022</ele>
        <time>2022-01-27T20:13:28Z</time>
      </trkpt>
      <trkpt lat="45.5076" lon="2.72552">
        <ele>1022</ele>
        <time>2022-01-27T20:13:35Z</time>
      </trkpt>
      <trkpt lat="45.50748" lon="2.72534">
        <ele>1023</ele>
        <time>2022-01-27T20:13:38Z</time>
      </trkpt>
      <trkpt lat="45.50731" lon="2.72526">
        <ele>1025</ele>
        <time>2022-01-27T20:13:41Z</time>
      </trkpt>
      <trkpt lat="45.50712" lon="2.72527">
        <ele>1028</ele>
        <time>2022-01-27T20:13:44Z</time>
      </trkpt>
      <trkpt lat="45.50686" lon="2.72537">
        <ele>1032</ele>
        <time>2022-01-27T20:13:49Z</time>
      </trkpt>
      <trkpt lat="45.50668" lon="2.72533">
        <ele>1035</ele>
        <time>2022-01-27T20:13:52Z</time>
      </trkpt>
      <trkpt lat="45.50651" lon="2.72523">
        <ele>1036</ele>
        <time>2022-01-27T20:13:56Z</time>
      </trkpt>
      <trkpt lat="45.5062" lon="2.72492">
        <ele>1037</ele>
        <time>2022-01-27T20:14:02Z</time>
      </trkpt>
      <trkpt lat="45.50608" lon="2.72472">
        <ele>1038</ele>
        <time>2022-01-27T20:14:06Z</time>
      </trkpt>
      <trkpt lat="45.50602" lon="2.72447">
        <ele>1039</ele>
        <time>2022-01-27T20:14:09Z</time>
      </trkpt>
      <trkpt lat="45.50595" lon="2.72372">
        <ele>1040</ele>
        <time>2022-01-27T20:14:18Z</time>
      </trkpt>
      <trkpt lat="45.50587" lon="2.72344">
        <ele>1042</ele>
        <time>2022-01-27T20:14:22Z</time>
      </trkpt>
      <trkpt lat="45.50576" lon="2.72318">
        <ele>1043</ele>
        <time>2022-01-27T20:14:26Z</time>
      </trkpt>
      <trkpt lat="45.50463" lon="2.72134">
        <ele>1046</ele>
        <time>2022-01-27T20:14:56Z</time>
      </trkpt>
      <trkpt lat="45.50409" lon="2.72061">
        <ele>1046</ele>
        <time>2022-01-27T20:15:10Z</time>
      </trkpt>
      <trkpt lat="45.50373" lon="2.72006">
        <ele>1045</ele>
        <time>2022-01-27T20:15:19Z</time>
      </trkpt>
      <trkpt lat="45.50325" lon="2.71913">
        <ele>1040</ele>
        <time>2022-01-27T20:15:33Z</time>
      </trkpt>
      <trkpt lat="45.50302" lon="2.71882">
        <ele>1039</ele>
        <time>2022-01-27T20:15:39Z</time>
      </trkpt>
      <trkpt lat="45.50176" lon="2.71733">
        <ele>1037</ele>
        <time>2022-01-27T20:16:08Z</time>
      </trkpt>
      <trkpt lat="45.50162" lon="2.71707">
        <ele>1037</ele>
        <time>2022-01-27T20:16:12Z</time>
      </trkpt>
      <trkpt lat="45.50157" lon="2.71676">
        <ele>1036</ele>
        <time>2022-01-27T20:16:16Z</time>
      </trkpt>
      <trkpt lat="45.49915" lon="2.7168">
        <ele>1041</ele>
        <time>2022-01-27T20:16:59Z</time>
      </trkpt>
      <trkpt lat="45.49842" lon="2.71689">
        <ele>1044</ele>
        <time>2022-01-27T20:17:12Z</time>
      </trkpt>
      <trkpt lat="45.49813" lon="2.71699">
        <ele>1045</ele>
        <time>2022-01-27T20:17:18Z</time>
      </trkpt>
      <trkpt lat="45.49636" lon="2.71779">
        <ele>1052</ele>
        <time>2022-01-27T20:17:51Z</time>
      </trkpt>
      <trkpt lat="45.4951" lon="2.71868">
        <ele>1056</ele>
        <time>2022-01-27T20:18:16Z</time>
      </trkpt>
      <trkpt lat="45.49336" lon="2.72005">
        <ele>1068</ele>
        <time>2022-01-27T20:18:51Z</time>
      </trkpt>
      <trkpt lat="45.4931" lon="2.72023">
        <ele>1069</ele>
        <time>2022-01-27T20:18:56Z</time>
      </trkpt>
      <trkpt lat="45.493" lon="2.71996">
        <ele>1067</ele>
        <time>2022-01-27T20:19:00Z</time>
      </trkpt>
      <trkpt lat="45.49291" lon="2.7198">
        <ele>1067</ele>
        <time>2022-01-27T20:19:03Z</time>
      </trkpt>
      <trkpt lat="45.49281" lon="2.71967">
        <ele>1066</ele>
        <time>2022-01-27T20:19:05Z</time>
      </trkpt>
      <trkpt lat="45.4927" lon="2.71958">
        <ele>1066</ele>
        <time>2022-01-27T20:19:07Z</time>
      </trkpt>
      <trkpt lat="45.49258" lon="2.71952">
        <ele>1066</ele>
        <time>2022-01-27T20:19:10Z</time>
      </trkpt>
      <trkpt lat="45.49178" lon="2.71925">
        <ele>1064</ele>
        <time>2022-01-27T20:19:24Z</time>
      </trkpt>
      <trkpt lat="45.49156" lon="2.7192">
        <ele>1063</ele>
        <time>2022-01-27T20:19:28Z</time>
      </trkpt>
      <trkpt lat="45.49054" lon="2.71906">
        <ele>1063</ele>
        <time>2022-01-27T20:19:46Z</time>
      </trkpt>
      <trkpt lat="45.49036" lon="2.71899">
        <ele>1064</ele>
        <time>2022-01-27T20:19:50Z</time>
      </trkpt>
      <trkpt lat="45.48951" lon="2.71856">
        <ele>1067</ele>
        <time>2022-01-27T20:20:06Z</time>
      </trkpt>
      <trkpt lat="45.48912" lon="2.71834">
        <ele>1069</ele>
        <time>2022-01-27T20:20:13Z</time>
      </trkpt>
      <trkpt lat="45.48891" lon="2.71825">
        <ele>1069</ele>
        <time>2022-01-27T20:20:17Z</time>
      </trkpt>
      <trkpt lat="45.48863" lon="2.71821">
        <ele>1070</ele>
        <time>2022-01-27T20:20:22Z</time>
      </trkpt>
      <trkpt lat="45.48799" lon="2.71829">
        <ele>1068</ele>
        <time>2022-01-27T20:20:34Z</time>
      </trkpt>
      <trkpt lat="45.48706" lon="2.71845">
        <ele>1064</ele>
        <time>2022-01-27T20:20:50Z</time>
      </trkpt>
      <trkpt lat="45.48677" lon="2.71851">
        <ele>1062</ele>
        <time>2022-01-27T20:20:55Z</time>
      </trkpt>
      <trkpt lat="45.48655" lon="2.71864">
        <ele>1061</ele>
        <time>2022-01-27T20:21:00Z</time>
      </trkpt>
      <trkpt lat="45.4857" lon="2.71927">
        <ele>1056</ele>
        <time>2022-01-27T20:21:17Z</time>
      </trkpt>
      <trkpt lat="45.48529" lon="2.71961">
        <ele>1054</ele>
        <time>2022-01-27T20:21:25Z</time>
      </trkpt>
      <trkpt lat="45.48518" lon="2.71975">
        <ele>1052</ele>
        <time>2022-01-27T20:21:28Z</time>
      </trkpt>
      <trkpt lat="45.48506" lon="2.72">
        <ele>1051</ele>
        <time>2022-01-27T20:21:32Z</time>
      </trkpt>
      <trkpt lat="45.48476" lon="2.72048">
        <ele>1048</ele>
        <time>2022-01-27T20:21:40Z</time>
      </trkpt>
      <trkpt lat="45.48444" lon="2.72072">
        <ele>1046</ele>
        <time>2022-01-27T20:21:46Z</time>
      </trkpt>
      <trkpt lat="45.48419" lon="2.72103">
        <ele>1045</ele>
        <time>2022-01-27T20:21:52Z</time>
      </trkpt>
      <trkpt lat="45.48404" lon="2.72158">
        <ele>1043</ele>
        <time>2022-01-27T20:21:59Z</time>
      </trkpt>
      <trkpt lat="45.48384" lon="2.72203">
        <ele>1043</ele>
        <time>2022-01-27T20:22:06Z</time>
      </trkpt>
      <trkpt lat="45.48365" lon="2.72229">
        <ele>1042</ele>
        <time>2022-01-27T20:22:11Z</time>
      </trkpt>
      <trkpt lat="45.48359" lon="2.72233">
        <ele>1042</ele>
        <time>2022-01-27T20:22:12Z</time>
      </trkpt>
      <trkpt lat="45.48347" lon="2.72236">
        <ele>1041</ele>
        <time>2022-01-27T20:22:14Z</time>
      </trkpt>
      <trkpt lat="45.48305" lon="2.72236">
        <ele>1041</ele>
        <time>2022-01-27T20:22:21Z</time>
      </trkpt>
      <trkpt lat="45.48297" lon="2.72233">
        <ele>1042</ele>
        <time>2022-01-27T20:22:23Z</time>
      </trkpt>
      <trkpt lat="45.48283" lon="2.72224">
        <ele>1042</ele>
        <time>2022-01-27T20:22:26Z</time>
      </trkpt>
      <trkpt lat="45.48259" lon="2.72176">
        <ele>1041</ele>
        <time>2022-01-27T20:22:33Z</time>
      </trkpt>
      <trkpt lat="45.48248" lon="2.72166">
        <ele>1040</ele>
        <time>2022-01-27T20:22:35Z</time>
      </trkpt>
      <trkpt lat="45.48237" lon="2.7216">
        <ele>1039</ele>
        <time>2022-01-27T20:22:37Z</time>
      </trkpt>
      <trkpt lat="45.48197" lon="2.72152">
        <ele>1038</ele>
        <time>2022-01-27T20:22:45Z</time>
      </trkpt>
      <trkpt lat="45.48163" lon="2.72127">
        <ele>1035</ele>
        <time>2022-01-27T20:22:51Z</time>
      </trkpt>
      <trkpt lat="45.48139" lon="2.72112">
        <ele>1035</ele>
        <time>2022-01-27T20:22:56Z</time>
      </trkpt>
      <trkpt lat="45.48131" lon="2.72104">
        <ele>1035</ele>
        <time>2022-01-27T20:22:58Z</time>
      </trkpt>
      <trkpt lat="45.48106" lon="2.72066">
        <ele>1034</ele>
        <time>2022-01-27T20:23:04Z</time>
      </trkpt>
      <trkpt lat="45.48038" lon="2.72001">
        <ele>1032</ele>
        <time>2022-01-27T20:23:19Z</time>
      </trkpt>
      <trkpt lat="45.48018" lon="2.7198">
        <ele>1031</ele>
        <time>2022-01-27T20:23:23Z</time>
      </trkpt>
      <trkpt lat="45.47996" lon="2.7196">
        <ele>1030</ele>
        <time>2022-01-27T20:23:28Z</time>
      </trkpt>
      <trkpt lat="45.4798" lon="2.71953">
        <ele>1028</ele>
        <time>2022-01-27T20:23:31Z</time>
      </trkpt>
      <trkpt lat="45.47964" lon="2.7195">
        <ele>1028</ele>
        <time>2022-01-27T20:23:34Z</time>
      </trkpt>
      <trkpt lat="45.47942" lon="2.71955">
        <ele>1028</ele>
        <time>2022-01-27T20:23:38Z</time>
      </trkpt>
      <trkpt lat="45.47905" lon="2.71971">
        <ele>1029</ele>
        <time>2022-01-27T20:23:45Z</time>
      </trkpt>
      <trkpt lat="45.47877" lon="2.72004">
        <ele>1031</ele>
        <time>2022-01-27T20:23:51Z</time>
      </trkpt>
      <trkpt lat="45.4786" lon="2.72016">
        <ele>1031</ele>
        <time>2022-01-27T20:23:54Z</time>
      </trkpt>
      <trkpt lat="45.47849" lon="2.72019">
        <ele>1030</ele>
        <time>2022-01-27T20:23:56Z</time>
      </trkpt>
      <trkpt lat="45.47827" lon="2.72011">
        <ele>1028</ele>
        <time>2022-01-27T20:24:00Z</time>
      </trkpt>
      <trkpt lat="45.47812" lon="2.72009">
        <ele>1026</ele>
        <time>2022-01-27T20:24:03Z</time>
      </trkpt>
      <trkpt lat="45.478" lon="2.72011">
        <ele>1026</ele>
        <time>2022-01-27T20:24:05Z</time>
      </trkpt>
      <trkpt lat="45.47769" lon="2.72026">
        <ele>1025</ele>
        <time>2022-01-27T20:24:11Z</time>
      </trkpt>
      <trkpt lat="45.47721" lon="2.7206">
        <ele>1024</ele>
        <time>2022-01-27T20:24:21Z</time>
      </trkpt>
      <trkpt lat="45.47699" lon="2.72074">
        <ele>1023</ele>
        <time>2022-01-27T20:24:25Z</time>
      </trkpt>
      <trkpt lat="45.47687" lon="2.72076">
        <ele>1022</ele>
        <time>2022-01-27T20:24:27Z</time>
      </trkpt>
      <trkpt lat="45.47675" lon="2.72074">
        <ele>1021</ele>
        <time>2022-01-27T20:24:29Z</time>
      </trkpt>
      <trkpt lat="45.47668" lon="2.7207">
        <ele>1020</ele>
        <time>2022-01-27T20:24:31Z</time>
      </trkpt>
      <trkpt lat="45.47649" lon="2.72053">
        <ele>1018</ele>
        <time>2022-01-27T20:24:35Z</time>
      </trkpt>
      <trkpt lat="45.47623" lon="2.72043">
        <ele>1018</ele>
        <time>2022-01-27T20:24:39Z</time>
      </trkpt>
      <trkpt lat="45.47552" lon="2.72025">
        <ele>1020</ele>
        <time>2022-01-27T20:24:52Z</time>
      </trkpt>
      <trkpt lat="45.47525" lon="2.72024">
        <ele>1020</ele>
        <time>2022-01-27T20:24:57Z</time>
      </trkpt>
      <trkpt lat="45.4749" lon="2.72029">
        <ele>1022</ele>
        <time>2022-01-27T20:25:03Z</time>
      </trkpt>
      <trkpt lat="45.47444" lon="2.72042">
        <ele>1026</ele>
        <time>2022-01-27T20:25:12Z</time>
      </trkpt>
      <trkpt lat="45.47425" lon="2.72045">
        <ele>1027</ele>
        <time>2022-01-27T20:25:15Z</time>
      </trkpt>
      <trkpt lat="45.474" lon="2.72045">
        <ele>1028</ele>
        <time>2022-01-27T20:25:19Z</time>
      </trkpt>
      <trkpt lat="45.4739" lon="2.72043">
        <ele>1029</ele>
        <time>2022-01-27T20:25:21Z</time>
      </trkpt>
      <trkpt lat="45.47382" lon="2.72038">
        <ele>1029</ele>
        <time>2022-01-27T20:25:23Z</time>
      </trkpt>
      <trkpt lat="45.47364" lon="2.72021">
        <ele>1028</ele>
        <time>2022-01-27T20:25:27Z</time>
      </trkpt>
      <trkpt lat="45.47317" lon="2.71986">
        <ele>1029</ele>
        <time>2022-01-27T20:25:36Z</time>
      </trkpt>
      <trkpt lat="45.47246" lon="2.7193">
        <ele>1031</ele>
        <time>2022-01-27T20:25:50Z</time>
      </trkpt>
      <trkpt lat="45.47231" lon="2.71907">
        <ele>1031</ele>
        <time>2022-01-27T20:25:54Z</time>
      </trkpt>
      <trkpt lat="45.47212" lon="2.71867">
        <ele>1030</ele>
        <time>2022-01-27T20:26:00Z</time>
      </trkpt>
      <trkpt lat="45.47203" lon="2.71851">
        <ele>1031</ele>
        <time>2022-01-27T20:26:03Z</time>
      </trkpt>
      <trkpt lat="45.47197" lon="2.71845">
        <ele>1031</ele>
        <time>2022-01-27T20:26:04Z</time>
      </trkpt>
      <trkpt lat="45.47181" lon="2.71837">
        <ele>1031</ele>
        <time>2022-01-27T20:26:07Z</time>
      </trkpt>
      <trkpt lat="45.47058" lon="2.71824">
        <ele>1038</ele>
        <time>2022-01-27T20:26:29Z</time>
      </trkpt>
      <trkpt lat="45.47038" lon="2.71819">
        <ele>1039</ele>
        <time>2022-01-27T20:26:33Z</time>
      </trkpt>
      <trkpt lat="45.4701" lon="2.71802">
        <ele>1040</ele>
        <time>2022-01-27T20:26:38Z</time>
      </trkpt>
      <trkpt lat="45.47004" lon="2.71802">
        <ele>1041</ele>
        <time>2022-01-27T20:26:39Z</time>
      </trkpt>
      <trkpt lat="45.46997" lon="2.71806">
        <ele>1041</ele>
        <time>2022-01-27T20:26:41Z</time>
      </trkpt>
      <trkpt lat="45.46991" lon="2.71812">
        <ele>1042</ele>
        <time>2022-01-27T20:26:42Z</time>
      </trkpt>
      <trkpt lat="45.4698" lon="2.71833">
        <ele>1042</ele>
        <time>2022-01-27T20:26:45Z</time>
      </trkpt>
      <trkpt lat="45.46972" lon="2.71845">
        <ele>1043</ele>
        <time>2022-01-27T20:26:47Z</time>
      </trkpt>
      <trkpt lat="45.46966" lon="2.71849">
        <ele>1043</ele>
        <time>2022-01-27T20:26:49Z</time>
      </trkpt>
      <trkpt lat="45.46957" lon="2.71846">
        <ele>1044</ele>
        <time>2022-01-27T20:26:50Z</time>
      </trkpt>
      <trkpt lat="45.46949" lon="2.71839">
        <ele>1045</ele>
        <time>2022-01-27T20:26:52Z</time>
      </trkpt>
      <trkpt lat="45.46942" lon="2.71836">
        <ele>1045</ele>
        <time>2022-01-27T20:26:53Z</time>
      </trkpt>
      <trkpt lat="45.46933" lon="2.71842">
        <ele>1046</ele>
        <time>2022-01-27T20:26:55Z</time>
      </trkpt>
      <trkpt lat="45.46918" lon="2.71862">
        <ele>1047</ele>
        <time>2022-01-27T20:26:59Z</time>
      </trkpt>
      <trkpt lat="45.4691" lon="2.71866">
        <ele>1047</ele>
        <time>2022-01-27T20:27:00Z</time>
      </trkpt>
      <trkpt lat="45.46892" lon="2.71806">
        <ele>1047</ele>
        <time>2022-01-27T20:27:08Z</time>
      </trkpt>
      <trkpt lat="45.46883" lon="2.71793">
        <ele>1046</ele>
        <time>2022-01-27T20:27:10Z</time>
      </trkpt>
      <trkpt lat="45.46847" lon="2.7175">
        <ele>1046</ele>
        <time>2022-01-27T20:27:19Z</time>
      </trkpt>
      <trkpt lat="45.46757" lon="2.71661">
        <ele>1039</ele>
        <time>2022-01-27T20:27:38Z</time>
      </trkpt>
      <trkpt lat="45.46746" lon="2.71643">
        <ele>1038</ele>
        <time>2022-01-27T20:27:41Z</time>
      </trkpt>
      <trkpt lat="45.46745" lon="2.71603">
        <ele>1034</ele>
        <time>2022-01-27T20:27:46Z</time>
      </trkpt>
      <trkpt lat="45.46742" lon="2.71591">
        <ele>1033</ele>
        <time>2022-01-27T20:27:48Z</time>
      </trkpt>
      <trkpt lat="45.46727" lon="2.7158">
        <ele>1032</ele>
        <time>2022-01-27T20:27:51Z</time>
      </trkpt>
      <trkpt lat="45.46715" lon="2.71581">
        <ele>1032</ele>
        <time>2022-01-27T20:27:53Z</time>
      </trkpt>
      <trkpt lat="45.46705" lon="2.7159">
        <ele>1033</ele>
        <time>2022-01-27T20:27:55Z</time>
      </trkpt>
      <trkpt lat="45.46689" lon="2.71591">
        <ele>1033</ele>
        <time>2022-01-27T20:27:58Z</time>
      </trkpt>
      <trkpt lat="45.46679" lon="2.71581">
        <ele>1032</ele>
        <time>2022-01-27T20:28:00Z</time>
      </trkpt>
      <trkpt lat="45.46671" lon="2.71564">
        <ele>1031</ele>
        <time>2022-01-27T20:28:03Z</time>
      </trkpt>
      <trkpt lat="45.46649" lon="2.71506">
        <ele>1025</ele>
        <time>2022-01-27T20:28:11Z</time>
      </trkpt>
      <trkpt lat="45.46632" lon="2.71491">
        <ele>1023</ele>
        <time>2022-01-27T20:28:14Z</time>
      </trkpt>
      <trkpt lat="45.46618" lon="2.71493">
        <ele>1022</ele>
        <time>2022-01-27T20:28:17Z</time>
      </trkpt>
      <trkpt lat="45.46601" lon="2.71516">
        <ele>1023</ele>
        <time>2022-01-27T20:28:21Z</time>
      </trkpt>
      <trkpt lat="45.46585" lon="2.7153">
        <ele>1023</ele>
        <time>2022-01-27T20:28:25Z</time>
      </trkpt>
      <trkpt lat="45.46571" lon="2.71528">
        <ele>1021</ele>
        <time>2022-01-27T20:28:27Z</time>
      </trkpt>
      <trkpt lat="45.46549" lon="2.71514">
        <ele>1018</ele>
        <time>2022-01-27T20:28:31Z</time>
      </trkpt>
      <trkpt lat="45.46531" lon="2.71511">
        <ele>1015</ele>
        <time>2022-01-27T20:28:35Z</time>
      </trkpt>
      <trkpt lat="45.46518" lon="2.71519">
        <ele>1015</ele>
        <time>2022-01-27T20:28:37Z</time>
      </trkpt>
      <trkpt lat="45.46505" lon="2.71533">
        <ele>1015</ele>
        <time>2022-01-27T20:28:40Z</time>
      </trkpt>
      <trkpt lat="45.46493" lon="2.71536">
        <ele>1014</ele>
        <time>2022-01-27T20:28:42Z</time>
      </trkpt>
      <trkpt lat="45.4646" lon="2.71525">
        <ele>1010</ele>
        <time>2022-01-27T20:28:48Z</time>
      </trkpt>
      <trkpt lat="45.46446" lon="2.71529">
        <ele>1009</ele>
        <time>2022-01-27T20:28:51Z</time>
      </trkpt>
      <trkpt lat="45.46429" lon="2.71546">
        <ele>1009</ele>
        <time>2022-01-27T20:28:54Z</time>
      </trkpt>
      <trkpt lat="45.46413" lon="2.71573">
        <ele>1010</ele>
        <time>2022-01-27T20:28:59Z</time>
      </trkpt>
      <trkpt lat="45.46396" lon="2.71568">
        <ele>1009</ele>
        <time>2022-01-27T20:29:02Z</time>
      </trkpt>
      <trkpt lat="45.46381" lon="2.71561">
        <ele>1008</ele>
        <time>2022-01-27T20:29:05Z</time>
      </trkpt>
      <trkpt lat="45.4636" lon="2.71561">
        <ele>1007</ele>
        <time>2022-01-27T20:29:08Z</time>
      </trkpt>
      <trkpt lat="45.46339" lon="2.71567">
        <ele>1006</ele>
        <time>2022-01-27T20:29:12Z</time>
      </trkpt>
      <trkpt lat="45.46318" lon="2.7158">
        <ele>1007</ele>
        <time>2022-01-27T20:29:16Z</time>
      </trkpt>
      <trkpt lat="45.46261" lon="2.71602">
        <ele>1008</ele>
        <time>2022-01-27T20:29:27Z</time>
      </trkpt>
      <trkpt lat="45.46244" lon="2.71597">
        <ele>1008</ele>
        <time>2022-01-27T20:29:30Z</time>
      </trkpt>
      <trkpt lat="45.46115" lon="2.71455">
        <ele>1001</ele>
        <time>2022-01-27T20:29:59Z</time>
      </trkpt>
      <trkpt lat="45.46083" lon="2.71433">
        <ele>999</ele>
        <time>2022-01-27T20:30:05Z</time>
      </trkpt>
      <trkpt lat="45.46" lon="2.71422">
        <ele>993</ele>
        <time>2022-01-27T20:30:20Z</time>
      </trkpt>
      <trkpt lat="45.45983" lon="2.71409">
        <ele>991</ele>
        <time>2022-01-27T20:30:23Z</time>
      </trkpt>
      <trkpt lat="45.45961" lon="2.71376">
        <ele>990</ele>
        <time>2022-01-27T20:30:29Z</time>
      </trkpt>
      <trkpt lat="45.4595" lon="2.71353">
        <ele>989</ele>
        <time>2022-01-27T20:30:33Z</time>
      </trkpt>
      <trkpt lat="45.45926" lon="2.71258">
        <ele>990</ele>
        <time>2022-01-27T20:30:45Z</time>
      </trkpt>
      <trkpt lat="45.45915" lon="2.71238">
        <ele>990</ele>
        <time>2022-01-27T20:30:48Z</time>
      </trkpt>
      <trkpt lat="45.45864" lon="2.71241">
        <ele>983</ele>
        <time>2022-01-27T20:30:57Z</time>
      </trkpt>
      <trkpt lat="45.45782" lon="2.71257">
        <ele>975</ele>
        <time>2022-01-27T20:31:12Z</time>
      </trkpt>
      <trkpt lat="45.45691" lon="2.71315">
        <ele>973</ele>
        <time>2022-01-27T20:31:30Z</time>
      </trkpt>
      <trkpt lat="45.45624" lon="2.71378">
        <ele>967</ele>
        <time>2022-01-27T20:31:44Z</time>
      </trkpt>
      <trkpt lat="45.45608" lon="2.7138">
        <ele>966</ele>
        <time>2022-01-27T20:31:47Z</time>
      </trkpt>
      <trkpt lat="45.45595" lon="2.71369">
        <ele>966</ele>
        <time>2022-01-27T20:31:50Z</time>
      </trkpt>
      <trkpt lat="45.4557" lon="2.7134">
        <ele>965</ele>
        <time>2022-01-27T20:31:56Z</time>
      </trkpt>
      <trkpt lat="45.45517" lon="2.71305">
        <ele>958</ele>
        <time>2022-01-27T20:32:06Z</time>
      </trkpt>
      <trkpt lat="45.45498" lon="2.71287">
        <ele>956</ele>
        <time>2022-01-27T20:32:10Z</time>
      </trkpt>
      <trkpt lat="45.45474" lon="2.71253">
        <ele>956</ele>
        <time>2022-01-27T20:32:16Z</time>
      </trkpt>
      <trkpt lat="45.45429" lon="2.71221">
        <ele>952</ele>
        <time>2022-01-27T20:32:25Z</time>
      </trkpt>
      <trkpt lat="45.45407" lon="2.71201">
        <ele>951</ele>
        <time>2022-01-27T20:32:30Z</time>
      </trkpt>
      <trkpt lat="45.4538" lon="2.71169">
        <ele>949</ele>
        <time>2022-01-27T20:32:36Z</time>
      </trkpt>
      <trkpt lat="45.45365" lon="2.71155">
        <ele>948</ele>
        <time>2022-01-27T20:32:39Z</time>
      </trkpt>
      <trkpt lat="45.45292" lon="2.71093">
        <ele>941</ele>
        <time>2022-01-27T20:32:54Z</time>
      </trkpt>
      <trkpt lat="45.45275" lon="2.71086">
        <ele>939</ele>
        <time>2022-01-27T20:32:57Z</time>
      </trkpt>
      <trkpt lat="45.45267" lon="2.71085">
        <ele>938</ele>
        <time>2022-01-27T20:32:59Z</time>
      </trkpt>
      <trkpt lat="45.45248" lon="2.71093">
        <ele>935</ele>
        <time>2022-01-27T20:33:02Z</time>
      </trkpt>
      <trkpt lat="45.45237" lon="2.71105">
        <ele>934</ele>
        <time>2022-01-27T20:33:05Z</time>
      </trkpt>
      <trkpt lat="45.45164" lon="2.71171">
        <ele>931</ele>
        <time>2022-01-27T20:33:20Z</time>
      </trkpt>
      <trkpt lat="45.45144" lon="2.7118">
        <ele>934</ele>
        <time>2022-01-27T20:33:24Z</time>
      </trkpt>
      <trkpt lat="45.45133" lon="2.71174">
        <ele>936</ele>
        <time>2022-01-27T20:33:26Z</time>
      </trkpt>
      <trkpt lat="45.45113" lon="2.71145">
        <ele>938</ele>
        <time>2022-01-27T20:33:31Z</time>
      </trkpt>
      <trkpt lat="45.45044" lon="2.71033">
        <ele>941</ele>
        <time>2022-01-27T20:33:50Z</time>
      </trkpt>
      <trkpt lat="45.45021" lon="2.71019">
        <ele>942</ele>
        <time>2022-01-27T20:33:54Z</time>
      </trkpt>
      <trkpt lat="45.44999" lon="2.7103">
        <ele>945</ele>
        <time>2022-01-27T20:33:58Z</time>
      </trkpt>
      <trkpt lat="45.44994" lon="2.71049">
        <ele>946</ele>
        <time>2022-01-27T20:34:01Z</time>
      </trkpt>
      <trkpt lat="45.44993" lon="2.71066">
        <ele>948</ele>
        <time>2022-01-27T20:34:03Z</time>
      </trkpt>
      <trkpt lat="45.45" lon="2.71129">
        <ele>952</ele>
        <time>2022-01-27T20:34:11Z</time>
      </trkpt>
      <trkpt lat="45.44998" lon="2.71152">
        <ele>954</ele>
        <time>2022-01-27T20:34:14Z</time>
      </trkpt>
      <trkpt lat="45.44978" lon="2.71193">
        <ele>956</ele>
        <time>2022-01-27T20:34:20Z</time>
      </trkpt>
      <trkpt lat="45.44961" lon="2.71275">
        <ele>957</ele>
        <time>2022-01-27T20:34:31Z</time>
      </trkpt>
      <trkpt lat="45.44943" lon="2.713">
        <ele>957</ele>
        <time>2022-01-27T20:34:35Z</time>
      </trkpt>
      <trkpt lat="45.44895" lon="2.71326">
        <ele>958</ele>
        <time>2022-01-27T20:34:44Z</time>
      </trkpt>
      <trkpt lat="45.44871" lon="2.71356">
        <ele>962</ele>
        <time>2022-01-27T20:34:50Z</time>
      </trkpt>
      <trkpt lat="45.44864" lon="2.71379">
        <ele>964</ele>
        <time>2022-01-27T20:34:53Z</time>
      </trkpt>
      <trkpt lat="45.44856" lon="2.71415">
        <ele>969</ele>
        <time>2022-01-27T20:34:58Z</time>
      </trkpt>
      <trkpt lat="45.44856" lon="2.71446">
        <ele>968</ele>
        <time>2022-01-27T20:35:02Z</time>
      </trkpt>
      <trkpt lat="45.44849" lon="2.71462">
        <ele>968</ele>
        <time>2022-01-27T20:35:04Z</time>
      </trkpt>
      <trkpt lat="45.44837" lon="2.71471">
        <ele>968</ele>
        <time>2022-01-27T20:35:06Z</time>
      </trkpt>
      <trkpt lat="45.44825" lon="2.71468">
        <ele>969</ele>
        <time>2022-01-27T20:35:09Z</time>
      </trkpt>
      <trkpt lat="45.44815" lon="2.71457">
        <ele>971</ele>
        <time>2022-01-27T20:35:11Z</time>
      </trkpt>
      <trkpt lat="45.448" lon="2.71401">
        <ele>972</ele>
        <time>2022-01-27T20:35:18Z</time>
      </trkpt>
      <trkpt lat="45.44791" lon="2.71382">
        <ele>971</ele>
        <time>2022-01-27T20:35:21Z</time>
      </trkpt>
      <trkpt lat="45.44772" lon="2.71368">
        <ele>971</ele>
        <time>2022-01-27T20:35:25Z</time>
      </trkpt>
      <trkpt lat="45.44753" lon="2.71365">
        <ele>974</ele>
        <time>2022-01-27T20:35:28Z</time>
      </trkpt>
      <trkpt lat="45.44735" lon="2.71371">
        <ele>977</ele>
        <time>2022-01-27T20:35:32Z</time>
      </trkpt>
      <trkpt lat="45.44714" lon="2.71388">
        <ele>983</ele>
        <time>2022-01-27T20:35:36Z</time>
      </trkpt>
      <trkpt lat="45.44699" lon="2.71396">
        <ele>986</ele>
        <time>2022-01-27T20:35:39Z</time>
      </trkpt>
      <trkpt lat="45.44682" lon="2.7139">
        <ele>987</ele>
        <time>2022-01-27T20:35:42Z</time>
      </trkpt>
      <trkpt lat="45.44658" lon="2.71369">
        <ele>986</ele>
        <time>2022-01-27T20:35:47Z</time>
      </trkpt>
      <trkpt lat="45.4455" lon="2.71378">
        <ele>992</ele>
        <time>2022-01-27T20:36:06Z</time>
      </trkpt>
      <trkpt lat="45.44501" lon="2.71373">
        <ele>994</ele>
        <time>2022-01-27T20:36:15Z</time>
      </trkpt>
      <trkpt lat="45.44472" lon="2.7139">
        <ele>993</ele>
        <time>2022-01-27T20:36:20Z</time>
      </trkpt>
      <trkpt lat="45.44342" lon="2.71516">
        <ele>990</ele>
        <time>2022-01-27T20:36:48Z</time>
      </trkpt>
      <trkpt lat="45.44324" lon="2.71516">
        <ele>989</ele>
        <time>2022-01-27T20:36:52Z</time>
      </trkpt>
      <trkpt lat="45.44285" lon="2.7149">
        <ele>989</ele>
        <time>2022-01-27T20:36:59Z</time>
      </trkpt>
      <trkpt lat="45.44259" lon="2.71493">
        <ele>990</ele>
        <time>2022-01-27T20:37:04Z</time>
      </trkpt>
      <trkpt lat="45.44198" lon="2.71535">
        <ele>991</ele>
        <time>2022-01-27T20:37:16Z</time>
      </trkpt>
      <trkpt lat="45.44185" lon="2.71546">
        <ele>991</ele>
        <time>2022-01-27T20:37:19Z</time>
      </trkpt>
      <trkpt lat="45.44173" lon="2.71566">
        <ele>990</ele>
        <time>2022-01-27T20:37:22Z</time>
      </trkpt>
      <trkpt lat="45.44165" lon="2.71594">
        <ele>990</ele>
        <time>2022-01-27T20:37:26Z</time>
      </trkpt>
      <trkpt lat="45.44162" lon="2.71621">
        <ele>989</ele>
        <time>2022-01-27T20:37:29Z</time>
      </trkpt>
      <trkpt lat="45.44163" lon="2.71651">
        <ele>989</ele>
        <time>2022-01-27T20:37:33Z</time>
      </trkpt>
      <trkpt lat="45.44171" lon="2.71684">
        <ele>990</ele>
        <time>2022-01-27T20:37:37Z</time>
      </trkpt>
      <trkpt lat="45.44172" lon="2.71703">
        <ele>991</ele>
        <time>2022-01-27T20:37:40Z</time>
      </trkpt>
      <trkpt lat="45.44163" lon="2.71718">
        <ele>990</ele>
        <time>2022-01-27T20:37:42Z</time>
      </trkpt>
      <trkpt lat="45.44145" lon="2.71726">
        <ele>989</ele>
        <time>2022-01-27T20:37:45Z</time>
      </trkpt>
      <trkpt lat="45.44127" lon="2.71737">
        <ele>987</ele>
        <time>2022-01-27T20:37:49Z</time>
      </trkpt>
      <trkpt lat="45.44103" lon="2.71765">
        <ele>987</ele>
        <time>2022-01-27T20:37:54Z</time>
      </trkpt>
      <trkpt lat="45.44091" lon="2.71768">
        <ele>986</ele>
        <time>2022-01-27T20:37:57Z</time>
      </trkpt>
      <trkpt lat="45.44073" lon="2.71767">
        <ele>984</ele>
        <time>2022-01-27T20:38:00Z</time>
      </trkpt>
      <trkpt lat="45.4406" lon="2.71775">
        <ele>983</ele>
        <time>2022-01-27T20:38:02Z</time>
      </trkpt>
      <trkpt lat="45.4405" lon="2.71792">
        <ele>984</ele>
        <time>2022-01-27T20:38:05Z</time>
      </trkpt>
      <trkpt lat="45.44045" lon="2.7192">
        <ele>992</ele>
        <time>2022-01-27T20:38:21Z</time>
      </trkpt>
      <trkpt lat="45.44033" lon="2.71944">
        <ele>992</ele>
        <time>2022-01-27T20:38:25Z</time>
      </trkpt>
      <trkpt lat="45.44017" lon="2.71962">
        <ele>991</ele>
        <time>2022-01-27T20:38:28Z</time>
      </trkpt>
      <trkpt lat="45.44005" lon="2.71981">
        <ele>990</ele>
        <time>2022-01-27T20:38:32Z</time>
      </trkpt>
      <trkpt lat="45.43993" lon="2.7202">
        <ele>990</ele>
        <time>2022-01-27T20:38:37Z</time>
      </trkpt>
      <trkpt lat="45.43987" lon="2.72068">
        <ele>992</ele>
        <time>2022-01-27T20:38:43Z</time>
      </trkpt>
      <trkpt lat="45.4397" lon="2.72096">
        <ele>990</ele>
        <time>2022-01-27T20:38:48Z</time>
      </trkpt>
      <trkpt lat="45.43944" lon="2.72118">
        <ele>987</ele>
        <time>2022-01-27T20:38:53Z</time>
      </trkpt>
      <trkpt lat="45.43922" lon="2.72159">
        <ele>986</ele>
        <time>2022-01-27T20:38:59Z</time>
      </trkpt>
      <trkpt lat="45.43903" lon="2.7218">
        <ele>987</ele>
        <time>2022-01-27T20:39:04Z</time>
      </trkpt>
      <trkpt lat="45.43804" lon="2.72221">
        <ele>978</ele>
        <time>2022-01-27T20:39:22Z</time>
      </trkpt>
      <trkpt lat="45.43784" lon="2.72236">
        <ele>976</ele>
        <time>2022-01-27T20:39:26Z</time>
      </trkpt>
      <trkpt lat="45.43757" lon="2.7229">
        <ele>977</ele>
        <time>2022-01-27T20:39:34Z</time>
      </trkpt>
      <trkpt lat="45.43731" lon="2.7231">
        <ele>975</ele>
        <time>2022-01-27T20:39:40Z</time>
      </trkpt>
      <trkpt lat="45.43695" lon="2.72343">
        <ele>971</ele>
        <time>2022-01-27T20:39:47Z</time>
      </trkpt>
      <trkpt lat="45.43675" lon="2.72375">
        <ele>970</ele>
        <time>2022-01-27T20:39:53Z</time>
      </trkpt>
      <trkpt lat="45.43625" lon="2.72417">
        <ele>971</ele>
        <time>2022-01-27T20:40:03Z</time>
      </trkpt>
      <trkpt lat="45.43606" lon="2.72464">
        <ele>969</ele>
        <time>2022-01-27T20:40:10Z</time>
      </trkpt>
      <trkpt lat="45.43602" lon="2.72557">
        <ele>966</ele>
        <time>2022-01-27T20:40:21Z</time>
      </trkpt>
      <trkpt lat="45.43598" lon="2.72587">
        <ele>965</ele>
        <time>2022-01-27T20:40:25Z</time>
      </trkpt>
      <trkpt lat="45.43586" lon="2.7261">
        <ele>967</ele>
        <time>2022-01-27T20:40:29Z</time>
      </trkpt>
      <trkpt lat="45.43576" lon="2.72619">
        <ele>970</ele>
        <time>2022-01-27T20:40:31Z</time>
      </trkpt>
      <trkpt lat="45.43556" lon="2.72612">
        <ele>975</ele>
        <time>2022-01-27T20:40:35Z</time>
      </trkpt>
      <trkpt lat="45.4354" lon="2.72595">
        <ele>979</ele>
        <time>2022-01-27T20:40:38Z</time>
      </trkpt>
      <trkpt lat="45.43527" lon="2.7257">
        <ele>984</ele>
        <time>2022-01-27T20:40:42Z</time>
      </trkpt>
      <trkpt lat="45.43522" lon="2.72546">
        <ele>986</ele>
        <time>2022-01-27T20:40:45Z</time>
      </trkpt>
      <trkpt lat="45.4352" lon="2.72496">
        <ele>989</ele>
        <time>2022-01-27T20:40:51Z</time>
      </trkpt>
      <trkpt lat="45.43524" lon="2.72435">
        <ele>990</ele>
        <time>2022-01-27T20:40:59Z</time>
      </trkpt>
      <trkpt lat="45.43535" lon="2.72371">
        <ele>987</ele>
        <time>2022-01-27T20:41:07Z</time>
      </trkpt>
      <trkpt lat="45.43536" lon="2.72336">
        <ele>987</ele>
        <time>2022-01-27T20:41:12Z</time>
      </trkpt>
      <trkpt lat="45.43529" lon="2.72319">
        <ele>988</ele>
        <time>2022-01-27T20:41:14Z</time>
      </trkpt>
      <trkpt lat="45.43491" lon="2.72297">
        <ele>996</ele>
        <time>2022-01-27T20:41:21Z</time>
      </trkpt>
      <trkpt lat="45.43445" lon="2.72286">
        <ele>998</ele>
        <time>2022-01-27T20:41:30Z</time>
      </trkpt>
      <trkpt lat="45.43424" lon="2.72291">
        <ele>999</ele>
        <time>2022-01-27T20:41:33Z</time>
      </trkpt>
      <trkpt lat="45.43386" lon="2.72316">
        <ele>997</ele>
        <time>2022-01-27T20:41:41Z</time>
      </trkpt>
      <trkpt lat="45.43369" lon="2.72353">
        <ele>998</ele>
        <time>2022-01-27T20:41:46Z</time>
      </trkpt>
      <trkpt lat="45.43356" lon="2.72369">
        <ele>998</ele>
        <time>2022-01-27T20:41:49Z</time>
      </trkpt>
      <trkpt lat="45.43326" lon="2.72386">
        <ele>998</ele>
        <time>2022-01-27T20:41:55Z</time>
      </trkpt>
      <trkpt lat="45.43295" lon="2.72399">
        <ele>999</ele>
        <time>2022-01-27T20:42:01Z</time>
      </trkpt>
      <trkpt lat="45.43245" lon="2.72396">
        <ele>998</ele>
        <time>2022-01-27T20:42:10Z</time>
      </trkpt>
      <trkpt lat="45.4323" lon="2.72398">
        <ele>998</ele>
        <time>2022-01-27T20:42:13Z</time>
      </trkpt>
      <trkpt lat="45.43209" lon="2.72417">
        <ele>999</ele>
        <time>2022-01-27T20:42:17Z</time>
      </trkpt>
      <trkpt lat="45.43188" lon="2.72447">
        <ele>1000</ele>
        <time>2022-01-27T20:42:22Z</time>
      </trkpt>
      <trkpt lat="45.43149" lon="2.72487">
        <ele>999</ele>
        <time>2022-01-27T20:42:31Z</time>
      </trkpt>
      <trkpt lat="45.43105" lon="2.72527">
        <ele>1000</ele>
        <time>2022-01-27T20:42:40Z</time>
      </trkpt>
      <trkpt lat="45.43095" lon="2.72527">
        <ele>1000</ele>
        <time>2022-01-27T20:42:42Z</time>
      </trkpt>
      <trkpt lat="45.43066" lon="2.72518">
        <ele>1000</ele>
        <time>2022-01-27T20:42:47Z</time>
      </trkpt>
      <trkpt lat="45.43055" lon="2.72521">
        <ele>1001</ele>
        <time>2022-01-27T20:42:49Z</time>
      </trkpt>
      <trkpt lat="45.43042" lon="2.72533">
        <ele>1003</ele>
        <time>2022-01-27T20:42:52Z</time>
      </trkpt>
      <trkpt lat="45.43026" lon="2.72573">
        <ele>1006</ele>
        <time>2022-01-27T20:42:58Z</time>
      </trkpt>
      <trkpt lat="45.43016" lon="2.72586">
        <ele>1007</ele>
        <time>2022-01-27T20:43:00Z</time>
      </trkpt>
      <trkpt lat="45.42992" lon="2.72601">
        <ele>1007</ele>
        <time>2022-01-27T20:43:05Z</time>
      </trkpt>
      <trkpt lat="45.42978" lon="2.72613">
        <ele>1007</ele>
        <time>2022-01-27T20:43:08Z</time>
      </trkpt>
      <trkpt lat="45.42949" lon="2.72671">
        <ele>1006</ele>
        <time>2022-01-27T20:43:17Z</time>
      </trkpt>
      <trkpt lat="45.42922" lon="2.72709">
        <ele>1006</ele>
        <time>2022-01-27T20:43:23Z</time>
      </trkpt>
      <trkpt lat="45.42902" lon="2.72724">
        <ele>1007</ele>
        <time>2022-01-27T20:43:27Z</time>
      </trkpt>
      <trkpt lat="45.42884" lon="2.72732">
        <ele>1007</ele>
        <time>2022-01-27T20:43:31Z</time>
      </trkpt>
      <trkpt lat="45.42863" lon="2.72738">
        <ele>1009</ele>
        <time>2022-01-27T20:43:34Z</time>
      </trkpt>
      <trkpt lat="45.42841" lon="2.72739">
        <ele>1010</ele>
        <time>2022-01-27T20:43:38Z</time>
      </trkpt>
      <trkpt lat="45.42824" lon="2.72715">
        <ele>1012</ele>
        <time>2022-01-27T20:43:43Z</time>
      </trkpt>
      <trkpt lat="45.42789" lon="2.7264">
        <ele>1017</ele>
        <time>2022-01-27T20:43:54Z</time>
      </trkpt>
      <trkpt lat="45.4277" lon="2.72614">
        <ele>1018</ele>
        <time>2022-01-27T20:43:59Z</time>
      </trkpt>
      <trkpt lat="45.42755" lon="2.72607">
        <ele>1019</ele>
        <time>2022-01-27T20:44:01Z</time>
      </trkpt>
      <trkpt lat="45.42735" lon="2.72612">
        <ele>1019</ele>
        <time>2022-01-27T20:44:05Z</time>
      </trkpt>
      <trkpt lat="45.42718" lon="2.72611">
        <ele>1019</ele>
        <time>2022-01-27T20:44:08Z</time>
      </trkpt>
      <trkpt lat="45.42708" lon="2.72601">
        <ele>1020</ele>
        <time>2022-01-27T20:44:10Z</time>
      </trkpt>
      <trkpt lat="45.42634" lon="2.72388">
        <ele>1028</ele>
        <time>2022-01-27T20:44:40Z</time>
      </trkpt>
      <trkpt lat="45.4258" lon="2.72244">
        <ele>1032</ele>
        <time>2022-01-27T20:45:00Z</time>
      </trkpt>
      <trkpt lat="45.42568" lon="2.7222">
        <ele>1032</ele>
        <time>2022-01-27T20:45:04Z</time>
      </trkpt>
      <trkpt lat="45.42535" lon="2.72213">
        <ele>1032</ele>
        <time>2022-01-27T20:45:10Z</time>
      </trkpt>
      <trkpt lat="45.4247" lon="2.72204">
        <ele>1030</ele>
        <time>2022-01-27T20:45:21Z</time>
      </trkpt>
      <trkpt lat="45.42445" lon="2.72227">
        <ele>1029</ele>
        <time>2022-01-27T20:45:27Z</time>
      </trkpt>
      <trkpt lat="45.42403" lon="2.72227">
        <ele>1028</ele>
        <time>2022-01-27T20:45:34Z</time>
      </trkpt>
      <trkpt lat="45.42352" lon="2.72254">
        <ele>1029</ele>
        <time>2022-01-27T20:45:44Z</time>
      </trkpt>
      <trkpt lat="45.42311" lon="2.72241">
        <ele>1024</ele>
        <time>2022-01-27T20:45:51Z</time>
      </trkpt>
      <trkpt lat="45.42272" lon="2.72253">
        <ele>1019</ele>
        <time>2022-01-27T20:45:59Z</time>
      </trkpt>
      <trkpt lat="45.42248" lon="2.72275">
        <ele>1018</ele>
        <time>2022-01-27T20:46:04Z</time>
      </trkpt>
      <trkpt lat="45.4221" lon="2.72358">
        <ele>1019</ele>
        <time>2022-01-27T20:46:16Z</time>
      </trkpt>
      <trkpt lat="45.42145" lon="2.72394">
        <ele>1015</ele>
        <time>2022-01-27T20:46:28Z</time>
      </trkpt>
      <trkpt lat="45.42068" lon="2.7243">
        <ele>1013</ele>
        <time>2022-01-27T20:46:43Z</time>
      </trkpt>
      <trkpt lat="45.42043" lon="2.72437">
        <ele>1013</ele>
        <time>2022-01-27T20:46:47Z</time>
      </trkpt>
      <trkpt lat="45.42027" lon="2.7244">
        <ele>1013</ele>
        <time>2022-01-27T20:46:50Z</time>
      </trkpt>
      <trkpt lat="45.41997" lon="2.72432">
        <ele>1013</ele>
        <time>2022-01-27T20:46:56Z</time>
      </trkpt>
      <trkpt lat="45.41975" lon="2.72423">
        <ele>1014</ele>
        <time>2022-01-27T20:47:00Z</time>
      </trkpt>
      <trkpt lat="45.41956" lon="2.72412">
        <ele>1015</ele>
        <time>2022-01-27T20:47:03Z</time>
      </trkpt>
      <trkpt lat="45.41942" lon="2.72393">
        <ele>1015</ele>
        <time>2022-01-27T20:47:07Z</time>
      </trkpt>
      <trkpt lat="45.41936" lon="2.72351">
        <ele>1013</ele>
        <time>2022-01-27T20:47:12Z</time>
      </trkpt>
      <trkpt lat="45.41927" lon="2.72327">
        <ele>1013</ele>
        <time>2022-01-27T20:47:16Z</time>
      </trkpt>
      <trkpt lat="45.41914" lon="2.72314">
        <ele>1013</ele>
        <time>2022-01-27T20:47:18Z</time>
      </trkpt>
      <trkpt lat="45.41885" lon="2.7231">
        <ele>1013</ele>
        <time>2022-01-27T20:47:24Z</time>
      </trkpt>
      <trkpt lat="45.41867" lon="2.72304">
        <ele>1014</ele>
        <time>2022-01-27T20:47:27Z</time>
      </trkpt>
      <trkpt lat="45.41854" lon="2.72309">
        <ele>1014</ele>
        <time>2022-01-27T20:47:29Z</time>
      </trkpt>
      <trkpt lat="45.41855" lon="2.72248">
        <ele>1013</ele>
        <time>2022-01-27T20:47:37Z</time>
      </trkpt>
      <trkpt lat="45.41849" lon="2.72188">
        <ele>1010</ele>
        <time>2022-01-27T20:47:44Z</time>
      </trkpt>
      <trkpt lat="45.41826" lon="2.72101">
        <ele>1008</ele>
        <time>2022-01-27T20:47:56Z</time>
      </trkpt>
      <trkpt lat="45.41822" lon="2.72062">
        <ele>1007</ele>
        <time>2022-01-27T20:48:01Z</time>
      </trkpt>
      <trkpt lat="45.41832" lon="2.71972">
        <ele>1004</ele>
        <time>2022-01-27T20:48:12Z</time>
      </trkpt>
      <trkpt lat="45.41833" lon="2.71938">
        <ele>1002</ele>
        <time>2022-01-27T20:48:17Z</time>
      </trkpt>
      <trkpt lat="45.41823" lon="2.71879">
        <ele>1000</ele>
        <time>2022-01-27T20:48:24Z</time>
      </trkpt>
      <trkpt lat="45.41814" lon="2.71859">
        <ele>999</ele>
        <time>2022-01-27T20:48:27Z</time>
      </trkpt>
      <trkpt lat="45.41802" lon="2.71842">
        <ele>999</ele>
        <time>2022-01-27T20:48:30Z</time>
      </trkpt>
      <trkpt lat="45.41763" lon="2.71802">
        <ele>999</ele>
        <time>2022-01-27T20:48:39Z</time>
      </trkpt>
      <trkpt lat="45.41744" lon="2.71775">
        <ele>998</ele>
        <time>2022-01-27T20:48:43Z</time>
      </trkpt>
      <trkpt lat="45.41625" lon="2.71568">
        <ele>994</ele>
        <time>2022-01-27T20:49:17Z</time>
      </trkpt>
      <trkpt lat="45.41622" lon="2.71552">
        <ele>993</ele>
        <time>2022-01-27T20:49:19Z</time>
      </trkpt>
      <trkpt lat="45.41622" lon="2.71534">
        <ele>993</ele>
        <time>2022-01-27T20:49:21Z</time>
      </trkpt>
      <trkpt lat="45.4163" lon="2.71512">
        <ele>992</ele>
        <time>2022-01-27T20:49:24Z</time>
      </trkpt>
      <trkpt lat="45.41683" lon="2.71436">
        <ele>992</ele>
        <time>2022-01-27T20:49:38Z</time>
      </trkpt>
      <trkpt lat="45.417" lon="2.71407">
        <ele>992</ele>
        <time>2022-01-27T20:49:42Z</time>
      </trkpt>
      <trkpt lat="45.41706" lon="2.71389">
        <ele>992</ele>
        <time>2022-01-27T20:49:45Z</time>
      </trkpt>
      <trkpt lat="45.4171" lon="2.71364">
        <ele>992</ele>
        <time>2022-01-27T20:49:48Z</time>
      </trkpt>
      <trkpt lat="45.41706" lon="2.7134">
        <ele>993</ele>
        <time>2022-01-27T20:49:51Z</time>
      </trkpt>
      <trkpt lat="45.4166" lon="2.71226">
        <ele>988</ele>
        <time>2022-01-27T20:50:08Z</time>
      </trkpt>
      <trkpt lat="45.41653" lon="2.71197">
        <ele>985</ele>
        <time>2022-01-27T20:50:11Z</time>
      </trkpt>
      <trkpt lat="45.41653" lon="2.71166">
        <ele>982</ele>
        <time>2022-01-27T20:50:15Z</time>
      </trkpt>
      <trkpt lat="45.41682" lon="2.70974">
        <ele>981</ele>
        <time>2022-01-27T20:50:40Z</time>
      </trkpt>
      <trkpt lat="45.41683" lon="2.70947">
        <ele>981</ele>
        <time>2022-01-27T20:50:43Z</time>
      </trkpt>
      <trkpt lat="45.41677" lon="2.70898">
        <ele>982</ele>
        <time>2022-01-27T20:50:49Z</time>
      </trkpt>
      <trkpt lat="45.41663" lon="2.70842">
        <ele>983</ele>
        <time>2022-01-27T20:50:57Z</time>
      </trkpt>
      <trkpt lat="45.4166" lon="2.70809">
        <ele>981</ele>
        <time>2022-01-27T20:51:01Z</time>
      </trkpt>
      <trkpt lat="45.41664" lon="2.70763">
        <ele>978</ele>
        <time>2022-01-27T20:51:07Z</time>
      </trkpt>
      <trkpt lat="45.41679" lon="2.70725">
        <ele>977</ele>
        <time>2022-01-27T20:51:12Z</time>
      </trkpt>
      <trkpt lat="45.41733" lon="2.70648">
        <ele>977</ele>
        <time>2022-01-27T20:51:26Z</time>
      </trkpt>
      <trkpt lat="45.41742" lon="2.70629">
        <ele>976</ele>
        <time>2022-01-27T20:51:29Z</time>
      </trkpt>
      <trkpt lat="45.41744" lon="2.70596">
        <ele>973</ele>
        <time>2022-01-27T20:51:33Z</time>
      </trkpt>
      <trkpt lat="45.41735" lon="2.70576">
        <ele>971</ele>
        <time>2022-01-27T20:51:36Z</time>
      </trkpt>
      <trkpt lat="45.41696" lon="2.70538">
        <ele>967</ele>
        <time>2022-01-27T20:51:44Z</time>
      </trkpt>
      <trkpt lat="45.41689" lon="2.70521">
        <ele>966</ele>
        <time>2022-01-27T20:51:47Z</time>
      </trkpt>
      <trkpt lat="45.4169" lon="2.705">
        <ele>964</ele>
        <time>2022-01-27T20:51:49Z</time>
      </trkpt>
      <trkpt lat="45.41706" lon="2.70462">
        <ele>962</ele>
        <time>2022-01-27T20:51:55Z</time>
      </trkpt>
      <trkpt lat="45.41711" lon="2.70439">
        <ele>961</ele>
        <time>2022-01-27T20:51:58Z</time>
      </trkpt>
      <trkpt lat="45.41709" lon="2.70413">
        <ele>960</ele>
        <time>2022-01-27T20:52:01Z</time>
      </trkpt>
      <trkpt lat="45.41693" lon="2.70351">
        <ele>956</ele>
        <time>2022-01-27T20:52:09Z</time>
      </trkpt>
      <trkpt lat="45.41677" lon="2.70319">
        <ele>954</ele>
        <time>2022-01-27T20:52:14Z</time>
      </trkpt>
      <trkpt lat="45.41644" lon="2.70279">
        <ele>951</ele>
        <time>2022-01-27T20:52:22Z</time>
      </trkpt>
      <trkpt lat="45.41626" lon="2.70272">
        <ele>951</ele>
        <time>2022-01-27T20:52:25Z</time>
      </trkpt>
      <trkpt lat="45.41596" lon="2.70269">
        <ele>952</ele>
        <time>2022-01-27T20:52:31Z</time>
      </trkpt>
      <trkpt lat="45.41585" lon="2.70259">
        <ele>952</ele>
        <time>2022-01-27T20:52:33Z</time>
      </trkpt>
      <trkpt lat="45.41582" lon="2.70249">
        <ele>951</ele>
        <time>2022-01-27T20:52:34Z</time>
      </trkpt>
      <trkpt lat="45.41582" lon="2.70231">
        <ele>950</ele>
        <time>2022-01-27T20:52:37Z</time>
      </trkpt>
      <trkpt lat="45.41591" lon="2.70217">
        <ele>949</ele>
        <time>2022-01-27T20:52:39Z</time>
      </trkpt>
      <trkpt lat="45.41635" lon="2.70173">
        <ele>945</ele>
        <time>2022-01-27T20:52:49Z</time>
      </trkpt>
      <trkpt lat="45.41645" lon="2.70155">
        <ele>945</ele>
        <time>2022-01-27T20:52:51Z</time>
      </trkpt>
      <trkpt lat="45.41648" lon="2.70138">
        <ele>945</ele>
        <time>2022-01-27T20:52:54Z</time>
      </trkpt>
      <trkpt lat="45.41648" lon="2.70122">
        <ele>946</ele>
        <time>2022-01-27T20:52:56Z</time>
      </trkpt>
      <trkpt lat="45.41645" lon="2.70102">
        <ele>947</ele>
        <time>2022-01-27T20:52:58Z</time>
      </trkpt>
      <trkpt lat="45.41638" lon="2.7008">
        <ele>947</ele>
        <time>2022-01-27T20:53:01Z</time>
      </trkpt>
      <trkpt lat="45.41581" lon="2.69966">
        <ele>949</ele>
        <time>2022-01-27T20:53:19Z</time>
      </trkpt>
      <trkpt lat="45.41568" lon="2.69948">
        <ele>949</ele>
        <time>2022-01-27T20:53:22Z</time>
      </trkpt>
      <trkpt lat="45.41523" lon="2.69907">
        <ele>950</ele>
        <time>2022-01-27T20:53:31Z</time>
      </trkpt>
      <trkpt lat="45.41506" lon="2.69887">
        <ele>950</ele>
        <time>2022-01-27T20:53:35Z</time>
      </trkpt>
      <trkpt lat="45.4147" lon="2.69827">
        <ele>951</ele>
        <time>2022-01-27T20:53:45Z</time>
      </trkpt>
      <trkpt lat="45.41463" lon="2.6981">
        <ele>951</ele>
        <time>2022-01-27T20:53:48Z</time>
      </trkpt>
      <trkpt lat="45.41462" lon="2.69793">
        <ele>952</ele>
        <time>2022-01-27T20:53:50Z</time>
      </trkpt>
      <trkpt lat="45.41467" lon="2.69781">
        <ele>953</ele>
        <time>2022-01-27T20:53:51Z</time>
      </trkpt>
      <trkpt lat="45.41483" lon="2.69754">
        <ele>953</ele>
        <time>2022-01-27T20:53:56Z</time>
      </trkpt>
      <trkpt lat="45.41487" lon="2.69732">
        <ele>953</ele>
        <time>2022-01-27T20:53:59Z</time>
      </trkpt>
      <trkpt lat="45.41482" lon="2.69712">
        <ele>953</ele>
        <time>2022-01-27T20:54:01Z</time>
      </trkpt>
      <trkpt lat="45.41475" lon="2.69701">
        <ele>954</ele>
        <time>2022-01-27T20:54:03Z</time>
      </trkpt>
      <trkpt lat="45.41461" lon="2.69689">
        <ele>955</ele>
        <time>2022-01-27T20:54:06Z</time>
      </trkpt>
      <trkpt lat="45.41424" lon="2.69676">
        <ele>957</ele>
        <time>2022-01-27T20:54:13Z</time>
      </trkpt>
      <trkpt lat="45.41396" lon="2.69659">
        <ele>959</ele>
        <time>2022-01-27T20:54:18Z</time>
      </trkpt>
      <trkpt lat="45.41386" lon="2.69642">
        <ele>960</ele>
        <time>2022-01-27T20:54:21Z</time>
      </trkpt>
      <trkpt lat="45.41383" lon="2.69625">
        <ele>960</ele>
        <time>2022-01-27T20:54:23Z</time>
      </trkpt>
      <trkpt lat="45.41386" lon="2.69603">
        <ele>961</ele>
        <time>2022-01-27T20:54:26Z</time>
      </trkpt>
      <trkpt lat="45.41394" lon="2.69591">
        <ele>961</ele>
        <time>2022-01-27T20:54:28Z</time>
      </trkpt>
      <trkpt lat="45.41405" lon="2.69582">
        <ele>960</ele>
        <time>2022-01-27T20:54:30Z</time>
      </trkpt>
      <trkpt lat="45.41457" lon="2.69561">
        <ele>956</ele>
        <time>2022-01-27T20:54:40Z</time>
      </trkpt>
      <trkpt lat="45.4153" lon="2.6954">
        <ele>950</ele>
        <time>2022-01-27T20:54:53Z</time>
      </trkpt>
      <trkpt lat="45.41561" lon="2.69543">
        <ele>948</ele>
        <time>2022-01-27T20:54:59Z</time>
      </trkpt>
      <trkpt lat="45.41578" lon="2.69539">
        <ele>947</ele>
        <time>2022-01-27T20:55:02Z</time>
      </trkpt>
      <trkpt lat="45.41609" lon="2.6952">
        <ele>946</ele>
        <time>2022-01-27T20:55:08Z</time>
      </trkpt>
      <trkpt lat="45.41625" lon="2.69502">
        <ele>946</ele>
        <time>2022-01-27T20:55:11Z</time>
      </trkpt>
      <trkpt lat="45.41629" lon="2.6949">
        <ele>946</ele>
        <time>2022-01-27T20:55:13Z</time>
      </trkpt>
      <trkpt lat="45.41629" lon="2.69479">
        <ele>946</ele>
        <time>2022-01-27T20:55:15Z</time>
      </trkpt>
      <trkpt lat="45.41626" lon="2.69467">
        <ele>946</ele>
        <time>2022-01-27T20:55:16Z</time>
      </trkpt>
      <trkpt lat="45.41591" lon="2.69392">
        <ele>948</ele>
        <time>2022-01-27T20:55:27Z</time>
      </trkpt>
      <trkpt lat="45.41459" lon="2.69256">
        <ele>955</ele>
        <time>2022-01-27T20:55:56Z</time>
      </trkpt>
      <trkpt lat="45.41406" lon="2.69215">
        <ele>955</ele>
        <time>2022-01-27T20:56:07Z</time>
      </trkpt>
      <trkpt lat="45.41367" lon="2.69192">
        <ele>954</ele>
        <time>2022-01-27T20:56:15Z</time>
      </trkpt>
      <trkpt lat="45.41352" lon="2.69178">
        <ele>953</ele>
        <time>2022-01-27T20:56:18Z</time>
      </trkpt>
      <trkpt lat="45.41341" lon="2.69165">
        <ele>951</ele>
        <time>2022-01-27T20:56:20Z</time>
      </trkpt>
      <trkpt lat="45.4133" lon="2.69143">
        <ele>951</ele>
        <time>2022-01-27T20:56:24Z</time>
      </trkpt>
      <trkpt lat="45.41311" lon="2.69092">
        <ele>949</ele>
        <time>2022-01-27T20:56:31Z</time>
      </trkpt>
      <trkpt lat="45.41289" lon="2.69046">
        <ele>949</ele>
        <time>2022-01-27T20:56:38Z</time>
      </trkpt>
      <trkpt lat="45.41264" lon="2.6901">
        <ele>947</ele>
        <time>2022-01-27T20:56:44Z</time>
      </trkpt>
      <trkpt lat="45.41186" lon="2.6896">
        <ele>940</ele>
        <time>2022-01-27T20:56:59Z</time>
      </trkpt>
      <trkpt lat="45.41157" lon="2.6895">
        <ele>937</ele>
        <time>2022-01-27T20:57:05Z</time>
      </trkpt>
      <trkpt lat="45.41139" lon="2.6893">
        <ele>936</ele>
        <time>2022-01-27T20:57:09Z</time>
      </trkpt>
      <trkpt lat="45.41105" lon="2.68882">
        <ele>935</ele>
        <time>2022-01-27T20:57:17Z</time>
      </trkpt>
      <trkpt lat="45.41083" lon="2.6886">
        <ele>934</ele>
        <time>2022-01-27T20:57:22Z</time>
      </trkpt>
      <trkpt lat="45.41034" lon="2.68825">
        <ele>928</ele>
        <time>2022-01-27T20:57:32Z</time>
      </trkpt>
      <trkpt lat="45.41003" lon="2.68787">
        <ele>923</ele>
        <time>2022-01-27T20:57:39Z</time>
      </trkpt>
      <trkpt lat="45.40956" lon="2.68711">
        <ele>918</ele>
        <time>2022-01-27T20:57:52Z</time>
      </trkpt>
      <trkpt lat="45.40944" lon="2.687">
        <ele>916</ele>
        <time>2022-01-27T20:57:54Z</time>
      </trkpt>
      <trkpt lat="45.40921" lon="2.68686">
        <ele>913</ele>
        <time>2022-01-27T20:57:59Z</time>
      </trkpt>
      <trkpt lat="45.40908" lon="2.68675">
        <ele>912</ele>
        <time>2022-01-27T20:58:01Z</time>
      </trkpt>
      <trkpt lat="45.40889" lon="2.68648">
        <ele>911</ele>
        <time>2022-01-27T20:58:06Z</time>
      </trkpt>
      <trkpt lat="45.40875" lon="2.68621">
        <ele>910</ele>
        <time>2022-01-27T20:58:10Z</time>
      </trkpt>
      <trkpt lat="45.40828" lon="2.68596">
        <ele>906</ele>
        <time>2022-01-27T20:58:19Z</time>
      </trkpt>
      <trkpt lat="45.40796" lon="2.68591">
        <ele>904</ele>
        <time>2022-01-27T20:58:25Z</time>
      </trkpt>
      <trkpt lat="45.40784" lon="2.68577">
        <ele>902</ele>
        <time>2022-01-27T20:58:28Z</time>
      </trkpt>
      <trkpt lat="45.40751" lon="2.68517">
        <ele>900</ele>
        <time>2022-01-27T20:58:37Z</time>
      </trkpt>
      <trkpt lat="45.40713" lon="2.68481">
        <ele>894</ele>
        <time>2022-01-27T20:58:45Z</time>
      </trkpt>
      <trkpt lat="45.40697" lon="2.68458">
        <ele>891</ele>
        <time>2022-01-27T20:58:50Z</time>
      </trkpt>
      <trkpt lat="45.40698" lon="2.68413">
        <ele>891</ele>
        <time>2022-01-27T20:58:55Z</time>
      </trkpt>
      <trkpt lat="45.40693" lon="2.68396">
        <ele>890</ele>
        <time>2022-01-27T20:58:57Z</time>
      </trkpt>
      <trkpt lat="45.40677" lon="2.68361">
        <ele>887</ele>
        <time>2022-01-27T20:59:03Z</time>
      </trkpt>
      <trkpt lat="45.40656" lon="2.68307">
        <ele>884</ele>
        <time>2022-01-27T20:59:10Z</time>
      </trkpt>
      <trkpt lat="45.40646" lon="2.68292">
        <ele>882</ele>
        <time>2022-01-27T20:59:13Z</time>
      </trkpt>
      <trkpt lat="45.40636" lon="2.68283">
        <ele>881</ele>
        <time>2022-01-27T20:59:15Z</time>
      </trkpt>
      <trkpt lat="45.40564" lon="2.68235">
        <ele>869</ele>
        <time>2022-01-27T20:59:29Z</time>
      </trkpt>
      <trkpt lat="45.40532" lon="2.68207">
        <ele>867</ele>
        <time>2022-01-27T20:59:36Z</time>
      </trkpt>
      <trkpt lat="45.40508" lon="2.68162">
        <ele>866</ele>
        <time>2022-01-27T20:59:43Z</time>
      </trkpt>
      <trkpt lat="45.40501" lon="2.68149">
        <ele>865</ele>
        <time>2022-01-27T20:59:45Z</time>
      </trkpt>
      <trkpt lat="45.40493" lon="2.68135">
        <ele>866</ele>
        <time>2022-01-27T20:59:47Z</time>
      </trkpt>
      <trkpt lat="45.40479" lon="2.68122">
        <ele>866</ele>
        <time>2022-01-27T20:59:50Z</time>
      </trkpt>
      <trkpt lat="45.40431" lon="2.68103">
        <ele>865</ele>
        <time>2022-01-27T20:59:59Z</time>
      </trkpt>
      <trkpt lat="45.40424" lon="2.68098">
        <ele>865</ele>
        <time>2022-01-27T21:00:00Z</time>
      </trkpt>
      <trkpt lat="45.40415" lon="2.68086">
        <ele>865</ele>
        <time>2022-01-27T21:00:03Z</time>
      </trkpt>
      <trkpt lat="45.40412" lon="2.68078">
        <ele>865</ele>
        <time>2022-01-27T21:00:04Z</time>
      </trkpt>
      <trkpt lat="45.4041" lon="2.68061">
        <ele>866</ele>
        <time>2022-01-27T21:00:06Z</time>
      </trkpt>
      <trkpt lat="45.40419" lon="2.67987">
        <ele>868</ele>
        <time>2022-01-27T21:00:15Z</time>
      </trkpt>
      <trkpt lat="45.40419" lon="2.6796">
        <ele>868</ele>
        <time>2022-01-27T21:00:19Z</time>
      </trkpt>
      <trkpt lat="45.40415" lon="2.67938">
        <ele>868</ele>
        <time>2022-01-27T21:00:22Z</time>
      </trkpt>
      <trkpt lat="45.40405" lon="2.6792">
        <ele>867</ele>
        <time>2022-01-27T21:00:24Z</time>
      </trkpt>
      <trkpt lat="45.4039" lon="2.679">
        <ele>867</ele>
        <time>2022-01-27T21:00:28Z</time>
      </trkpt>
      <trkpt lat="45.40295" lon="2.67807">
        <ele>867</ele>
        <time>2022-01-27T21:00:49Z</time>
      </trkpt>
      <trkpt lat="45.40281" lon="2.67802">
        <ele>867</ele>
        <time>2022-01-27T21:00:51Z</time>
      </trkpt>
      <trkpt lat="45.40268" lon="2.67806">
        <ele>866</ele>
        <time>2022-01-27T21:00:54Z</time>
      </trkpt>
      <trkpt lat="45.4024" lon="2.67828">
        <ele>864</ele>
        <time>2022-01-27T21:00:59Z</time>
      </trkpt>
      <trkpt lat="45.40225" lon="2.67831">
        <ele>864</ele>
        <time>2022-01-27T21:01:02Z</time>
      </trkpt>
      <trkpt lat="45.40193" lon="2.67826">
        <ele>864</ele>
        <time>2022-01-27T21:01:08Z</time>
      </trkpt>
      <trkpt lat="45.40175" lon="2.67816">
        <ele>865</ele>
        <time>2022-01-27T21:01:11Z</time>
      </trkpt>
      <trkpt lat="45.40164" lon="2.67799">
        <ele>866</ele>
        <time>2022-01-27T21:01:14Z</time>
      </trkpt>
      <trkpt lat="45.40139" lon="2.67739">
        <ele>869</ele>
        <time>2022-01-27T21:01:23Z</time>
      </trkpt>
      <trkpt lat="45.40121" lon="2.67686">
        <ele>870</ele>
        <time>2022-01-27T21:01:30Z</time>
      </trkpt>
      <trkpt lat="45.40122" lon="2.67629">
        <ele>870</ele>
        <time>2022-01-27T21:01:37Z</time>
      </trkpt>
      <trkpt lat="45.4012" lon="2.67603">
        <ele>869</ele>
        <time>2022-01-27T21:01:40Z</time>
      </trkpt>
      <trkpt lat="45.40114" lon="2.67579">
        <ele>869</ele>
        <time>2022-01-27T21:01:44Z</time>
      </trkpt>
      <trkpt lat="45.401" lon="2.6754">
        <ele>867</ele>
        <time>2022-01-27T21:01:49Z</time>
      </trkpt>
      <trkpt lat="45.40098" lon="2.6752">
        <ele>865</ele>
        <time>2022-01-27T21:01:52Z</time>
      </trkpt>
      <trkpt lat="45.40085" lon="2.67518">
        <ele>865</ele>
        <time>2022-01-27T21:01:54Z</time>
      </trkpt>
      <trkpt lat="45.40073" lon="2.6751">
        <ele>864</ele>
        <time>2022-01-27T21:01:56Z</time>
      </trkpt>
      <trkpt lat="45.40043" lon="2.67473">
        <ele>861</ele>
        <time>2022-01-27T21:02:03Z</time>
      </trkpt>
      <trkpt lat="45.40033" lon="2.67465">
        <ele>861</ele>
        <time>2022-01-27T21:02:05Z</time>
      </trkpt>
      <trkpt lat="45.40018" lon="2.67462">
        <ele>860</ele>
        <time>2022-01-27T21:02:08Z</time>
      </trkpt>
      <trkpt lat="45.40004" lon="2.67451">
        <ele>860</ele>
        <time>2022-01-27T21:02:11Z</time>
      </trkpt>
      <trkpt lat="45.39939" lon="2.67377">
        <ele>854</ele>
        <time>2022-01-27T21:02:26Z</time>
      </trkpt>
      <trkpt lat="45.39925" lon="2.67367">
        <ele>853</ele>
        <time>2022-01-27T21:02:29Z</time>
      </trkpt>
      <trkpt lat="45.39912" lon="2.67366">
        <ele>852</ele>
        <time>2022-01-27T21:02:31Z</time>
      </trkpt>
      <trkpt lat="45.39891" lon="2.67372">
        <ele>852</ele>
        <time>2022-01-27T21:02:35Z</time>
      </trkpt>
      <trkpt lat="45.39855" lon="2.67393">
        <ele>851</ele>
        <time>2022-01-27T21:02:42Z</time>
      </trkpt>
      <trkpt lat="45.39837" lon="2.67403">
        <ele>850</ele>
        <time>2022-01-27T21:02:45Z</time>
      </trkpt>
      <trkpt lat="45.39801" lon="2.67424">
        <ele>852</ele>
        <time>2022-01-27T21:02:52Z</time>
      </trkpt>
      <trkpt lat="45.39785" lon="2.67428">
        <ele>852</ele>
        <time>2022-01-27T21:02:55Z</time>
      </trkpt>
      <trkpt lat="45.39768" lon="2.67427">
        <ele>853</ele>
        <time>2022-01-27T21:02:58Z</time>
      </trkpt>
      <trkpt lat="45.39742" lon="2.67398">
        <ele>854</ele>
        <time>2022-01-27T21:03:04Z</time>
      </trkpt>
      <trkpt lat="45.39669" lon="2.67287">
        <ele>856</ele>
        <time>2022-01-27T21:03:23Z</time>
      </trkpt>
      <trkpt lat="45.39623" lon="2.67226">
        <ele>859</ele>
        <time>2022-01-27T21:03:34Z</time>
      </trkpt>
      <trkpt lat="45.39541" lon="2.67094">
        <ele>860</ele>
        <time>2022-01-27T21:03:56Z</time>
      </trkpt>
      <trkpt lat="45.39529" lon="2.67087">
        <ele>861</ele>
        <time>2022-01-27T21:03:58Z</time>
      </trkpt>
      <trkpt lat="45.39507" lon="2.67081">
        <ele>861</ele>
        <time>2022-01-27T21:04:02Z</time>
      </trkpt>
      <trkpt lat="45.39477" lon="2.6709">
        <ele>860</ele>
        <time>2022-01-27T21:04:08Z</time>
      </trkpt>
      <trkpt lat="45.39463" lon="2.67087">
        <ele>859</ele>
        <time>2022-01-27T21:04:10Z</time>
      </trkpt>
      <trkpt lat="45.39392" lon="2.67038">
        <ele>859</ele>
        <time>2022-01-27T21:04:24Z</time>
      </trkpt>
      <trkpt lat="45.39371" lon="2.67019">
        <ele>859</ele>
        <time>2022-01-27T21:04:29Z</time>
      </trkpt>
      <trkpt lat="45.39351" lon="2.67005">
        <ele>859</ele>
        <time>2022-01-27T21:04:33Z</time>
      </trkpt>
      <trkpt lat="45.39317" lon="2.66991">
        <ele>857</ele>
        <time>2022-01-27T21:04:39Z</time>
      </trkpt>
      <trkpt lat="45.39299" lon="2.6698">
        <ele>855</ele>
        <time>2022-01-27T21:04:42Z</time>
      </trkpt>
      <trkpt lat="45.39268" lon="2.66946">
        <ele>855</ele>
        <time>2022-01-27T21:04:49Z</time>
      </trkpt>
      <trkpt lat="45.39242" lon="2.66925">
        <ele>854</ele>
        <time>2022-01-27T21:04:55Z</time>
      </trkpt>
      <trkpt lat="45.392" lon="2.66906">
        <ele>852</ele>
        <time>2022-01-27T21:05:03Z</time>
      </trkpt>
      <trkpt lat="45.39114" lon="2.66877">
        <ele>850</ele>
        <time>2022-01-27T21:05:18Z</time>
      </trkpt>
      <trkpt lat="45.39101" lon="2.6688">
        <ele>849</ele>
        <time>2022-01-27T21:05:21Z</time>
      </trkpt>
      <trkpt lat="45.39052" lon="2.66911">
        <ele>847</ele>
        <time>2022-01-27T21:05:30Z</time>
      </trkpt>
      <trkpt lat="45.39025" lon="2.66921">
        <ele>848</ele>
        <time>2022-01-27T21:05:35Z</time>
      </trkpt>
      <trkpt lat="45.39015" lon="2.66938">
        <ele>847</ele>
        <time>2022-01-27T21:05:38Z</time>
      </trkpt>
      <trkpt lat="45.38977" lon="2.67061">
        <ele>844</ele>
        <time>2022-01-27T21:05:55Z</time>
      </trkpt>
      <trkpt lat="45.38963" lon="2.67086">
        <ele>842</ele>
        <time>2022-01-27T21:05:59Z</time>
      </trkpt>
      <trkpt lat="45.38942" lon="2.67107">
        <ele>839</ele>
        <time>2022-01-27T21:06:03Z</time>
      </trkpt>
      <trkpt lat="45.3892" lon="2.67119">
        <ele>837</ele>
        <time>2022-01-27T21:06:07Z</time>
      </trkpt>
      <trkpt lat="45.38839" lon="2.67124">
        <ele>830</ele>
        <time>2022-01-27T21:06:22Z</time>
      </trkpt>
      <trkpt lat="45.38747" lon="2.67089">
        <ele>831</ele>
        <time>2022-01-27T21:06:39Z</time>
      </trkpt>
      <trkpt lat="45.38692" lon="2.6705">
        <ele>828</ele>
        <time>2022-01-27T21:06:50Z</time>
      </trkpt>
      <trkpt lat="45.38606" lon="2.66979">
        <ele>823</ele>
        <time>2022-01-27T21:07:07Z</time>
      </trkpt>
      <trkpt lat="45.38569" lon="2.66963">
        <ele>818</ele>
        <time>2022-01-27T21:07:14Z</time>
      </trkpt>
      <trkpt lat="45.3852" lon="2.66961">
        <ele>808</ele>
        <time>2022-01-27T21:07:23Z</time>
      </trkpt>
      <trkpt lat="45.38503" lon="2.6697">
        <ele>802</ele>
        <time>2022-01-27T21:07:26Z</time>
      </trkpt>
      <trkpt lat="45.38486" lon="2.67003">
        <ele>792</ele>
        <time>2022-01-27T21:07:31Z</time>
      </trkpt>
      <trkpt lat="45.38474" lon="2.6701">
        <ele>789</ele>
        <time>2022-01-27T21:07:34Z</time>
      </trkpt>
      <trkpt lat="45.38401" lon="2.66983">
        <ele>785</ele>
        <time>2022-01-27T21:07:47Z</time>
      </trkpt>
      <trkpt lat="45.38387" lon="2.66975">
        <ele>785</ele>
        <time>2022-01-27T21:07:50Z</time>
      </trkpt>
      <trkpt lat="45.38356" lon="2.66946">
        <ele>787</ele>
        <time>2022-01-27T21:07:56Z</time>
      </trkpt>
      <trkpt lat="45.38342" lon="2.66948">
        <ele>785</ele>
        <time>2022-01-27T21:07:59Z</time>
      </trkpt>
      <trkpt lat="45.38317" lon="2.66968">
        <ele>778</ele>
        <time>2022-01-27T21:08:04Z</time>
      </trkpt>
      <trkpt lat="45.38279" lon="2.66977">
        <ele>775</ele>
        <time>2022-01-27T21:08:11Z</time>
      </trkpt>
      <trkpt lat="45.38263" lon="2.66983">
        <ele>774</ele>
        <time>2022-01-27T21:08:14Z</time>
      </trkpt>
      <trkpt lat="45.38251" lon="2.66996">
        <ele>772</ele>
        <time>2022-01-27T21:08:16Z</time>
      </trkpt>
      <trkpt lat="45.38227" lon="2.6705">
        <ele>762</ele>
        <time>2022-01-27T21:08:24Z</time>
      </trkpt>
      <trkpt lat="45.38214" lon="2.6707">
        <ele>758</ele>
        <time>2022-01-27T21:08:28Z</time>
      </trkpt>
      <trkpt lat="45.38196" lon="2.67079">
        <ele>755</ele>
        <time>2022-01-27T21:08:31Z</time>
      </trkpt>
      <trkpt lat="45.38178" lon="2.67073">
        <ele>753</ele>
        <time>2022-01-27T21:08:35Z</time>
      </trkpt>
      <trkpt lat="45.38163" lon="2.67057">
        <ele>753</ele>
        <time>2022-01-27T21:08:38Z</time>
      </trkpt>
      <trkpt lat="45.38147" lon="2.67024">
        <ele>753</ele>
        <time>2022-01-27T21:08:43Z</time>
      </trkpt>
      <trkpt lat="45.38133" lon="2.67004">
        <ele>752</ele>
        <time>2022-01-27T21:08:46Z</time>
      </trkpt>
      <trkpt lat="45.38117" lon="2.6697">
        <ele>756</ele>
        <time>2022-01-27T21:08:52Z</time>
      </trkpt>
      <trkpt lat="45.38106" lon="2.66958">
        <ele>756</ele>
        <time>2022-01-27T21:08:54Z</time>
      </trkpt>
      <trkpt lat="45.38092" lon="2.66957">
        <ele>755</ele>
        <time>2022-01-27T21:08:56Z</time>
      </trkpt>
      <trkpt lat="45.38068" lon="2.6697">
        <ele>751</ele>
        <time>2022-01-27T21:09:01Z</time>
      </trkpt>
      <trkpt lat="45.38048" lon="2.66973">
        <ele>751</ele>
        <time>2022-01-27T21:09:05Z</time>
      </trkpt>
      <trkpt lat="45.38027" lon="2.66983">
        <ele>749</ele>
        <time>2022-01-27T21:09:09Z</time>
      </trkpt>
      <trkpt lat="45.38002" lon="2.67014">
        <ele>743</ele>
        <time>2022-01-27T21:09:14Z</time>
      </trkpt>
      <trkpt lat="45.37946" lon="2.6704">
        <ele>733</ele>
        <time>2022-01-27T21:09:25Z</time>
      </trkpt>
      <trkpt lat="45.37928" lon="2.67041">
        <ele>732</ele>
        <time>2022-01-27T21:09:28Z</time>
      </trkpt>
      <trkpt lat="45.37905" lon="2.67027">
        <ele>732</ele>
        <time>2022-01-27T21:09:33Z</time>
      </trkpt>
      <trkpt lat="45.37868" lon="2.67017">
        <ele>734</ele>
        <time>2022-01-27T21:09:39Z</time>
      </trkpt>
      <trkpt lat="45.3786" lon="2.6701">
        <ele>734</ele>
        <time>2022-01-27T21:09:41Z</time>
      </trkpt>
      <trkpt lat="45.37844" lon="2.66981">
        <ele>734</ele>
        <time>2022-01-27T21:09:46Z</time>
      </trkpt>
      <trkpt lat="45.37822" lon="2.66963">
        <ele>732</ele>
        <time>2022-01-27T21:09:50Z</time>
      </trkpt>
      <trkpt lat="45.37791" lon="2.66953">
        <ele>731</ele>
        <time>2022-01-27T21:09:56Z</time>
      </trkpt>
      <trkpt lat="45.37773" lon="2.66954">
        <ele>730</ele>
        <time>2022-01-27T21:09:59Z</time>
      </trkpt>
      <trkpt lat="45.37762" lon="2.66963">
        <ele>731</ele>
        <time>2022-01-27T21:10:01Z</time>
      </trkpt>
      <trkpt lat="45.37741" lon="2.67001">
        <ele>734</ele>
        <time>2022-01-27T21:10:07Z</time>
      </trkpt>
      <trkpt lat="45.3764" lon="2.67111">
        <ele>740</ele>
        <time>2022-01-27T21:10:30Z</time>
      </trkpt>
      <trkpt lat="45.37619" lon="2.67125">
        <ele>741</ele>
        <time>2022-01-27T21:10:34Z</time>
      </trkpt>
      <trkpt lat="45.37573" lon="2.67143">
        <ele>738</ele>
        <time>2022-01-27T21:10:42Z</time>
      </trkpt>
      <trkpt lat="45.37557" lon="2.67157">
        <ele>738</ele>
        <time>2022-01-27T21:10:46Z</time>
      </trkpt>
      <trkpt lat="45.37531" lon="2.67204">
        <ele>743</ele>
        <time>2022-01-27T21:10:53Z</time>
      </trkpt>
      <trkpt lat="45.37516" lon="2.67214">
        <ele>742</ele>
        <time>2022-01-27T21:10:56Z</time>
      </trkpt>
      <trkpt lat="45.37446" lon="2.67222">
        <ele>728</ele>
        <time>2022-01-27T21:11:09Z</time>
      </trkpt>
      <trkpt lat="45.37415" lon="2.67233">
        <ele>722</ele>
        <time>2022-01-27T21:11:14Z</time>
      </trkpt>
      <trkpt lat="45.37404" lon="2.67244">
        <ele>722</ele>
        <time>2022-01-27T21:11:17Z</time>
      </trkpt>
      <trkpt lat="45.37392" lon="2.67283">
        <ele>725</ele>
        <time>2022-01-27T21:11:22Z</time>
      </trkpt>
      <trkpt lat="45.37392" lon="2.67301">
        <ele>728</ele>
        <time>2022-01-27T21:11:24Z</time>
      </trkpt>
      <trkpt lat="45.37389" lon="2.67326">
        <ele>731</ele>
        <time>2022-01-27T21:11:28Z</time>
      </trkpt>
      <trkpt lat="45.37374" lon="2.67359">
        <ele>728</ele>
        <time>2022-01-27T21:11:32Z</time>
      </trkpt>
      <trkpt lat="45.37364" lon="2.67396">
        <ele>728</ele>
        <time>2022-01-27T21:11:37Z</time>
      </trkpt>
      <trkpt lat="45.3735" lon="2.67424">
        <ele>726</ele>
        <time>2022-01-27T21:11:42Z</time>
      </trkpt>
      <trkpt lat="45.37339" lon="2.67462">
        <ele>725</ele>
        <time>2022-01-27T21:11:47Z</time>
      </trkpt>
      <trkpt lat="45.37283" lon="2.67593">
        <ele>719</ele>
        <time>2022-01-27T21:12:06Z</time>
      </trkpt>
      <trkpt lat="45.37254" lon="2.67618">
        <ele>712</ele>
        <time>2022-01-27T21:12:12Z</time>
      </trkpt>
      <trkpt lat="45.3723" lon="2.67665">
        <ele>711</ele>
        <time>2022-01-27T21:12:19Z</time>
      </trkpt>
      <trkpt lat="45.3722" lon="2.6768">
        <ele>712</ele>
        <time>2022-01-27T21:12:22Z</time>
      </trkpt>
      <trkpt lat="45.37186" lon="2.67697">
        <ele>708</ele>
        <time>2022-01-27T21:12:28Z</time>
      </trkpt>
      <trkpt lat="45.37168" lon="2.67722">
        <ele>707</ele>
        <time>2022-01-27T21:12:33Z</time>
      </trkpt>
      <trkpt lat="45.37152" lon="2.67738">
        <ele>706</ele>
        <time>2022-01-27T21:12:36Z</time>
      </trkpt>
      <trkpt lat="45.37118" lon="2.67765">
        <ele>703</ele>
        <time>2022-01-27T21:12:43Z</time>
      </trkpt>
      <trkpt lat="45.37105" lon="2.67768">
        <ele>701</ele>
        <time>2022-01-27T21:12:46Z</time>
      </trkpt>
      <trkpt lat="45.3707" lon="2.67761">
        <ele>696</ele>
        <time>2022-01-27T21:12:52Z</time>
      </trkpt>
      <trkpt lat="45.36978" lon="2.6779">
        <ele>695</ele>
        <time>2022-01-27T21:13:09Z</time>
      </trkpt>
      <trkpt lat="45.36961" lon="2.67788">
        <ele>696</ele>
        <time>2022-01-27T21:13:12Z</time>
      </trkpt>
      <trkpt lat="45.36899" lon="2.67713">
        <ele>691</ele>
        <time>2022-01-27T21:13:26Z</time>
      </trkpt>
      <trkpt lat="45.36881" lon="2.67696">
        <ele>689</ele>
        <time>2022-01-27T21:13:30Z</time>
      </trkpt>
      <trkpt lat="45.36858" lon="2.67696">
        <ele>689</ele>
        <time>2022-01-27T21:13:34Z</time>
      </trkpt>
      <trkpt lat="45.36832" lon="2.6771">
        <ele>691</ele>
        <time>2022-01-27T21:13:39Z</time>
      </trkpt>
      <trkpt lat="45.36817" lon="2.67716">
        <ele>692</ele>
        <time>2022-01-27T21:13:42Z</time>
      </trkpt>
      <trkpt lat="45.36755" lon="2.67704">
        <ele>687</ele>
        <time>2022-01-27T21:13:53Z</time>
      </trkpt>
      <trkpt lat="45.3674" lon="2.67706">
        <ele>686</ele>
        <time>2022-01-27T21:13:56Z</time>
      </trkpt>
      <trkpt lat="45.36713" lon="2.67731">
        <ele>689</ele>
        <time>2022-01-27T21:14:01Z</time>
      </trkpt>
      <trkpt lat="45.36685" lon="2.67739">
        <ele>688</ele>
        <time>2022-01-27T21:14:06Z</time>
      </trkpt>
      <trkpt lat="45.36671" lon="2.6775">
        <ele>690</ele>
        <time>2022-01-27T21:14:09Z</time>
      </trkpt>
      <trkpt lat="45.36645" lon="2.6778">
        <ele>694</ele>
        <time>2022-01-27T21:14:15Z</time>
      </trkpt>
      <trkpt lat="45.36636" lon="2.67787">
        <ele>696</ele>
        <time>2022-01-27T21:14:17Z</time>
      </trkpt>
      <trkpt lat="45.36534" lon="2.67766">
        <ele>692</ele>
        <time>2022-01-27T21:14:35Z</time>
      </trkpt>
      <trkpt lat="45.36491" lon="2.67772">
        <ele>694</ele>
        <time>2022-01-27T21:14:43Z</time>
      </trkpt>
      <trkpt lat="45.36418" lon="2.67796">
        <ele>693</ele>
        <time>2022-01-27T21:14:56Z</time>
      </trkpt>
      <trkpt lat="45.36312" lon="2.6781">
        <ele>681</ele>
        <time>2022-01-27T21:15:15Z</time>
      </trkpt>
      <trkpt lat="45.36261" lon="2.67835">
        <ele>675</ele>
        <time>2022-01-27T21:15:25Z</time>
      </trkpt>
      <trkpt lat="45.3621" lon="2.67874">
        <ele>679</ele>
        <time>2022-01-27T21:15:35Z</time>
      </trkpt>
      <trkpt lat="45.36167" lon="2.67901">
        <ele>674</ele>
        <time>2022-01-27T21:15:44Z</time>
      </trkpt>
      <trkpt lat="45.3614" lon="2.67935">
        <ele>678</ele>
        <time>2022-01-27T21:15:50Z</time>
      </trkpt>
      <trkpt lat="45.36103" lon="2.67962">
        <ele>678</ele>
        <time>2022-01-27T21:15:57Z</time>
      </trkpt>
      <trkpt lat="45.36087" lon="2.67959">
        <ele>675</ele>
        <time>2022-01-27T21:16:00Z</time>
      </trkpt>
      <trkpt lat="45.36061" lon="2.67969">
        <ele>674</ele>
        <time>2022-01-27T21:16:05Z</time>
      </trkpt>
      <trkpt lat="45.36044" lon="2.6797">
        <ele>674</ele>
        <time>2022-01-27T21:16:08Z</time>
      </trkpt>
      <trkpt lat="45.36025" lon="2.67962">
        <ele>672</ele>
        <time>2022-01-27T21:16:12Z</time>
      </trkpt>
      <trkpt lat="45.35995" lon="2.67926">
        <ele>664</ele>
        <time>2022-01-27T21:16:19Z</time>
      </trkpt>
      <trkpt lat="45.35968" lon="2.67919">
        <ele>661</ele>
        <time>2022-01-27T21:16:23Z</time>
      </trkpt>
      <trkpt lat="45.35856" lon="2.67906">
        <ele>643</ele>
        <time>2022-01-27T21:16:43Z</time>
      </trkpt>
      <trkpt lat="45.35848" lon="2.67908">
        <ele>641</ele>
        <time>2022-01-27T21:16:45Z</time>
      </trkpt>
      <trkpt lat="45.35836" lon="2.67919">
        <ele>640</ele>
        <time>2022-01-27T21:16:47Z</time>
      </trkpt>
      <trkpt lat="45.35829" lon="2.67935">
        <ele>642</ele>
        <time>2022-01-27T21:16:50Z</time>
      </trkpt>
      <trkpt lat="45.35822" lon="2.6797">
        <ele>647</ele>
        <time>2022-01-27T21:16:54Z</time>
      </trkpt>
      <trkpt lat="45.35794" lon="2.68027">
        <ele>648</ele>
        <time>2022-01-27T21:17:03Z</time>
      </trkpt>
      <trkpt lat="45.35779" lon="2.68049">
        <ele>646</ele>
        <time>2022-01-27T21:17:07Z</time>
      </trkpt>
      <trkpt lat="45.35773" lon="2.68068">
        <ele>645</ele>
        <time>2022-01-27T21:17:10Z</time>
      </trkpt>
      <trkpt lat="45.35771" lon="2.68096">
        <ele>646</ele>
        <time>2022-01-27T21:17:13Z</time>
      </trkpt>
      <trkpt lat="45.35768" lon="2.68115">
        <ele>646</ele>
        <time>2022-01-27T21:17:15Z</time>
      </trkpt>
      <trkpt lat="45.35754" lon="2.68138">
        <ele>640</ele>
        <time>2022-01-27T21:17:19Z</time>
      </trkpt>
      <trkpt lat="45.35742" lon="2.68164">
        <ele>641</ele>
        <time>2022-01-27T21:17:23Z</time>
      </trkpt>
      <trkpt lat="45.35728" lon="2.6822">
        <ele>651</ele>
        <time>2022-01-27T21:17:31Z</time>
      </trkpt>
      <trkpt lat="45.35722" lon="2.68278">
        <ele>651</ele>
        <time>2022-01-27T21:17:38Z</time>
      </trkpt>
      <trkpt lat="45.35725" lon="2.68311">
        <ele>647</ele>
        <time>2022-01-27T21:17:42Z</time>
      </trkpt>
      <trkpt lat="45.35721" lon="2.68328">
        <ele>646</ele>
        <time>2022-01-27T21:17:44Z</time>
      </trkpt>
      <trkpt lat="45.35714" lon="2.68339">
        <ele>644</ele>
        <time>2022-01-27T21:17:46Z</time>
      </trkpt>
      <trkpt lat="45.35706" lon="2.68347">
        <ele>642</ele>
        <time>2022-01-27T21:17:48Z</time>
      </trkpt>
      <trkpt lat="45.35699" lon="2.68352">
        <ele>641</ele>
        <time>2022-01-27T21:17:49Z</time>
      </trkpt>
      <trkpt lat="45.35692" lon="2.68349">
        <ele>641</ele>
        <time>2022-01-27T21:17:51Z</time>
      </trkpt>
      <trkpt lat="45.35698" lon="2.68266">
        <ele>654</ele>
        <time>2022-01-27T21:18:01Z</time>
      </trkpt>
      <trkpt lat="45.35714" lon="2.68195">
        <ele>652</ele>
        <time>2022-01-27T21:18:10Z</time>
      </trkpt>
      <trkpt lat="45.35722" lon="2.68115">
        <ele>650</ele>
        <time>2022-01-27T21:18:20Z</time>
      </trkpt>
      <trkpt lat="45.35776" lon="2.67865">
        <ele>641</ele>
        <time>2022-01-27T21:18:53Z</time>
      </trkpt>
      <trkpt lat="45.35788" lon="2.67826">
        <ele>639</ele>
        <time>2022-01-27T21:18:58Z</time>
      </trkpt>
      <trkpt lat="45.35822" lon="2.6775">
        <ele>622</ele>
        <time>2022-01-27T21:19:10Z</time>
      </trkpt>
      <trkpt lat="45.35831" lon="2.6774">
        <ele>618</ele>
        <time>2022-01-27T21:19:12Z</time>
      </trkpt>
      <trkpt lat="45.35848" lon="2.67709">
        <ele>619</ele>
        <time>2022-01-27T21:19:17Z</time>
      </trkpt>
      <trkpt lat="45.35852" lon="2.67685">
        <ele>618</ele>
        <time>2022-01-27T21:19:20Z</time>
      </trkpt>
      <trkpt lat="45.35848" lon="2.67672">
        <ele>617</ele>
        <time>2022-01-27T21:19:22Z</time>
      </trkpt>
      <trkpt lat="45.35824" lon="2.67622">
        <ele>613</ele>
        <time>2022-01-27T21:19:29Z</time>
      </trkpt>
      <trkpt lat="45.35778" lon="2.67402">
        <ele>603</ele>
        <time>2022-01-27T21:19:58Z</time>
      </trkpt>
      <trkpt lat="45.35768" lon="2.67335">
        <ele>602</ele>
        <time>2022-01-27T21:20:06Z</time>
      </trkpt>
      <trkpt lat="45.35773" lon="2.67319">
        <ele>603</ele>
        <time>2022-01-27T21:20:09Z</time>
      </trkpt>
      <trkpt lat="45.3581" lon="2.67286">
        <ele>601</ele>
        <time>2022-01-27T21:20:16Z</time>
      </trkpt>
      <trkpt lat="45.35859" lon="2.67212">
        <ele>596</ele>
        <time>2022-01-27T21:20:29Z</time>
      </trkpt>
      <trkpt lat="45.35879" lon="2.67176">
        <ele>591</ele>
        <time>2022-01-27T21:20:35Z</time>
      </trkpt>
      <trkpt lat="45.35885" lon="2.67158">
        <ele>590</ele>
        <time>2022-01-27T21:20:37Z</time>
      </trkpt>
      <trkpt lat="45.35886" lon="2.67138">
        <ele>591</ele>
        <time>2022-01-27T21:20:40Z</time>
      </trkpt>
      <trkpt lat="45.3588" lon="2.6712">
        <ele>592</ele>
        <time>2022-01-27T21:20:42Z</time>
      </trkpt>
      <trkpt lat="45.35869" lon="2.67108">
        <ele>592</ele>
        <time>2022-01-27T21:20:45Z</time>
      </trkpt>
      <trkpt lat="45.35862" lon="2.67105">
        <ele>593</ele>
        <time>2022-01-27T21:20:46Z</time>
      </trkpt>
      <trkpt lat="45.35744" lon="2.6711">
        <ele>595</ele>
        <time>2022-01-27T21:21:07Z</time>
      </trkpt>
      <trkpt lat="45.35701" lon="2.67134">
        <ele>596</ele>
        <time>2022-01-27T21:21:15Z</time>
      </trkpt>
      <trkpt lat="45.35682" lon="2.67141">
        <ele>596</ele>
        <time>2022-01-27T21:21:19Z</time>
      </trkpt>
      <trkpt lat="45.35623" lon="2.6715">
        <ele>600</ele>
        <time>2022-01-27T21:21:29Z</time>
      </trkpt>
      <trkpt lat="45.35596" lon="2.67144">
        <ele>602</ele>
        <time>2022-01-27T21:21:34Z</time>
      </trkpt>
      <trkpt lat="45.35583" lon="2.6713">
        <ele>601</ele>
        <time>2022-01-27T21:21:37Z</time>
      </trkpt>
      <trkpt lat="45.35573" lon="2.67093">
        <ele>600</ele>
        <time>2022-01-27T21:21:42Z</time>
      </trkpt>
      <trkpt lat="45.35563" lon="2.67074">
        <ele>602</ele>
        <time>2022-01-27T21:21:45Z</time>
      </trkpt>
      <trkpt lat="45.3555" lon="2.67058">
        <ele>604</ele>
        <time>2022-01-27T21:21:48Z</time>
      </trkpt>
      <trkpt lat="45.35536" lon="2.67028">
        <ele>606</ele>
        <time>2022-01-27T21:21:53Z</time>
      </trkpt>
      <trkpt lat="45.35532" lon="2.66977">
        <ele>601</ele>
        <time>2022-01-27T21:21:59Z</time>
      </trkpt>
      <trkpt lat="45.35524" lon="2.6694">
        <ele>599</ele>
        <time>2022-01-27T21:22:04Z</time>
      </trkpt>
      <trkpt lat="45.35489" lon="2.66848">
        <ele>598</ele>
        <time>2022-01-27T21:22:17Z</time>
      </trkpt>
      <trkpt lat="45.35481" lon="2.66809">
        <ele>596</ele>
        <time>2022-01-27T21:22:22Z</time>
      </trkpt>
      <trkpt lat="45.35471" lon="2.66777">
        <ele>594</ele>
        <time>2022-01-27T21:22:26Z</time>
      </trkpt>
      <trkpt lat="45.35289" lon="2.66546">
        <ele>582</ele>
        <time>2022-01-27T21:23:10Z</time>
      </trkpt>
      <trkpt lat="45.35269" lon="2.66512">
        <ele>582</ele>
        <time>2022-01-27T21:23:15Z</time>
      </trkpt>
      <trkpt lat="45.35237" lon="2.66432">
        <ele>578</ele>
        <time>2022-01-27T21:23:27Z</time>
      </trkpt>
      <trkpt lat="45.35217" lon="2.66405">
        <ele>578</ele>
        <time>2022-01-27T21:23:32Z</time>
      </trkpt>
      <trkpt lat="45.3519" lon="2.66399">
        <ele>581</ele>
        <time>2022-01-27T21:23:37Z</time>
      </trkpt>
      <trkpt lat="45.35156" lon="2.66417">
        <ele>586</ele>
        <time>2022-01-27T21:23:43Z</time>
      </trkpt>
      <trkpt lat="45.35148" lon="2.66436">
        <ele>589</ele>
        <time>2022-01-27T21:23:46Z</time>
      </trkpt>
      <trkpt lat="45.35147" lon="2.6646">
        <ele>592</ele>
        <time>2022-01-27T21:23:49Z</time>
      </trkpt>
      <trkpt lat="45.35149" lon="2.66544">
        <ele>598</ele>
        <time>2022-01-27T21:23:59Z</time>
      </trkpt>
      <trkpt lat="45.35155" lon="2.66609">
        <ele>602</ele>
        <time>2022-01-27T21:24:08Z</time>
      </trkpt>
      <trkpt lat="45.35184" lon="2.66723">
        <ele>612</ele>
        <time>2022-01-27T21:24:23Z</time>
      </trkpt>
      <trkpt lat="45.35196" lon="2.66785">
        <ele>622</ele>
        <time>2022-01-27T21:24:31Z</time>
      </trkpt>
      <trkpt lat="45.35204" lon="2.66805">
        <ele>625</ele>
        <time>2022-01-27T21:24:34Z</time>
      </trkpt>
      <trkpt lat="45.35224" lon="2.66828">
        <ele>626</ele>
        <time>2022-01-27T21:24:38Z</time>
      </trkpt>
      <trkpt lat="45.35232" lon="2.66847">
        <ele>628</ele>
        <time>2022-01-27T21:24:41Z</time>
      </trkpt>
      <trkpt lat="45.35237" lon="2.66868">
        <ele>631</ele>
        <time>2022-01-27T21:24:44Z</time>
      </trkpt>
      <trkpt lat="45.35217" lon="2.66962">
        <ele>653</ele>
        <time>2022-01-27T21:24:56Z</time>
      </trkpt>
      <trkpt lat="45.35179" lon="2.67111">
        <ele>663</ele>
        <time>2022-01-27T21:25:16Z</time>
      </trkpt>
      <trkpt lat="45.35173" lon="2.67173">
        <ele>661</ele>
        <time>2022-01-27T21:25:24Z</time>
      </trkpt>
      <trkpt lat="45.35149" lon="2.67206">
        <ele>669</ele>
        <time>2022-01-27T21:25:30Z</time>
      </trkpt>
      <trkpt lat="45.35129" lon="2.67243">
        <ele>673</ele>
        <time>2022-01-27T21:25:35Z</time>
      </trkpt>
      <trkpt lat="45.35082" lon="2.67358">
        <ele>670</ele>
        <time>2022-01-27T21:25:52Z</time>
      </trkpt>
      <trkpt lat="45.35077" lon="2.67375">
        <ele>672</ele>
        <time>2022-01-27T21:25:54Z</time>
      </trkpt>
      <trkpt lat="45.35072" lon="2.67407">
        <ele>674</ele>
        <time>2022-01-27T21:25:58Z</time>
      </trkpt>
      <trkpt lat="45.35062" lon="2.67447">
        <ele>678</ele>
        <time>2022-01-27T21:26:04Z</time>
      </trkpt>
      <trkpt lat="45.35019" lon="2.67492">
        <ele>676</ele>
        <time>2022-01-27T21:26:13Z</time>
      </trkpt>
      <trkpt lat="45.35002" lon="2.67528">
        <ele>676</ele>
        <time>2022-01-27T21:26:19Z</time>
      </trkpt>
      <trkpt lat="45.34976" lon="2.67644">
        <ele>694</ele>
        <time>2022-01-27T21:26:34Z</time>
      </trkpt>
      <trkpt lat="45.34958" lon="2.6768">
        <ele>698</ele>
        <time>2022-01-27T21:26:39Z</time>
      </trkpt>
      <trkpt lat="45.34938" lon="2.67705">
        <ele>699</ele>
        <time>2022-01-27T21:26:44Z</time>
      </trkpt>
      <trkpt lat="45.34922" lon="2.67722">
        <ele>699</ele>
        <time>2022-01-27T21:26:48Z</time>
      </trkpt>
      <trkpt lat="45.34802" lon="2.67779">
        <ele>704</ele>
        <time>2022-01-27T21:27:10Z</time>
      </trkpt>
      <trkpt lat="45.34778" lon="2.67805">
        <ele>707</ele>
        <time>2022-01-27T21:27:16Z</time>
      </trkpt>
      <trkpt lat="45.34765" lon="2.67829">
        <ele>705</ele>
        <time>2022-01-27T21:27:19Z</time>
      </trkpt>
      <trkpt lat="45.34751" lon="2.67877">
        <ele>702</ele>
        <time>2022-01-27T21:27:26Z</time>
      </trkpt>
      <trkpt lat="45.3474" lon="2.6795">
        <ele>701</ele>
        <time>2022-01-27T21:27:35Z</time>
      </trkpt>
      <trkpt lat="45.34723" lon="2.67993">
        <ele>703</ele>
        <time>2022-01-27T21:27:41Z</time>
      </trkpt>
      <trkpt lat="45.34705" lon="2.68007">
        <ele>707</ele>
        <time>2022-01-27T21:27:45Z</time>
      </trkpt>
      <trkpt lat="45.34684" lon="2.6802">
        <ele>710</ele>
        <time>2022-01-27T21:27:49Z</time>
      </trkpt>
      <trkpt lat="45.3462" lon="2.68043">
        <ele>718</ele>
        <time>2022-01-27T21:28:01Z</time>
      </trkpt>
      <trkpt lat="45.34599" lon="2.68053">
        <ele>721</ele>
        <time>2022-01-27T21:28:05Z</time>
      </trkpt>
      <trkpt lat="45.34579" lon="2.68083">
        <ele>723</ele>
        <time>2022-01-27T21:28:10Z</time>
      </trkpt>
      <trkpt lat="45.34565" lon="2.68111">
        <ele>723</ele>
        <time>2022-01-27T21:28:14Z</time>
      </trkpt>
      <trkpt lat="45.34556" lon="2.68157">
        <ele>723</ele>
        <time>2022-01-27T21:28:20Z</time>
      </trkpt>
      <trkpt lat="45.34548" lon="2.68232">
        <ele>721</ele>
        <time>2022-01-27T21:28:30Z</time>
      </trkpt>
      <trkpt lat="45.34539" lon="2.68264">
        <ele>723</ele>
        <time>2022-01-27T21:28:34Z</time>
      </trkpt>
      <trkpt lat="45.34517" lon="2.68313">
        <ele>728</ele>
        <time>2022-01-27T21:28:41Z</time>
      </trkpt>
      <trkpt lat="45.34505" lon="2.68358">
        <ele>734</ele>
        <time>2022-01-27T21:28:47Z</time>
      </trkpt>
      <trkpt lat="45.34496" lon="2.68376">
        <ele>738</ele>
        <time>2022-01-27T21:28:50Z</time>
      </trkpt>
      <trkpt lat="45.34485" lon="2.68381">
        <ele>742</ele>
        <time>2022-01-27T21:28:52Z</time>
      </trkpt>
      <trkpt lat="45.34474" lon="2.68375">
        <ele>744</ele>
        <time>2022-01-27T21:28:54Z</time>
      </trkpt>
      <trkpt lat="45.34467" lon="2.68364">
        <ele>745</ele>
        <time>2022-01-27T21:28:56Z</time>
      </trkpt>
      <trkpt lat="45.34459" lon="2.68332">
        <ele>742</ele>
        <time>2022-01-27T21:29:00Z</time>
      </trkpt>
      <trkpt lat="45.34447" lon="2.68313">
        <ele>743</ele>
        <time>2022-01-27T21:29:04Z</time>
      </trkpt>
      <trkpt lat="45.34429" lon="2.683">
        <ele>744</ele>
        <time>2022-01-27T21:29:07Z</time>
      </trkpt>
      <trkpt lat="45.34398" lon="2.68294">
        <ele>752</ele>
        <time>2022-01-27T21:29:13Z</time>
      </trkpt>
      <trkpt lat="45.34381" lon="2.68281">
        <ele>754</ele>
        <time>2022-01-27T21:29:16Z</time>
      </trkpt>
      <trkpt lat="45.34373" lon="2.68265">
        <ele>753</ele>
        <time>2022-01-27T21:29:19Z</time>
      </trkpt>
      <trkpt lat="45.34365" lon="2.68224">
        <ele>746</ele>
        <time>2022-01-27T21:29:24Z</time>
      </trkpt>
      <trkpt lat="45.34354" lon="2.6821">
        <ele>746</ele>
        <time>2022-01-27T21:29:27Z</time>
      </trkpt>
      <trkpt lat="45.34342" lon="2.68208">
        <ele>748</ele>
        <time>2022-01-27T21:29:29Z</time>
      </trkpt>
      <trkpt lat="45.34333" lon="2.68214">
        <ele>751</ele>
        <time>2022-01-27T21:29:30Z</time>
      </trkpt>
      <trkpt lat="45.3433" lon="2.6823">
        <ele>756</ele>
        <time>2022-01-27T21:29:33Z</time>
      </trkpt>
      <trkpt lat="45.34334" lon="2.68247">
        <ele>758</ele>
        <time>2022-01-27T21:29:35Z</time>
      </trkpt>
      <trkpt lat="45.34371" lon="2.68327">
        <ele>769</ele>
        <time>2022-01-27T21:29:47Z</time>
      </trkpt>
      <trkpt lat="45.34384" lon="2.68348">
        <ele>769</ele>
        <time>2022-01-27T21:29:50Z</time>
      </trkpt>
      <trkpt lat="45.34396" lon="2.68361">
        <ele>767</ele>
        <time>2022-01-27T21:29:53Z</time>
      </trkpt>
      <trkpt lat="45.34407" lon="2.68368">
        <ele>764</ele>
        <time>2022-01-27T21:29:55Z</time>
      </trkpt>
      <trkpt lat="45.34419" lon="2.68381">
        <ele>762</ele>
        <time>2022-01-27T21:29:58Z</time>
      </trkpt>
      <trkpt lat="45.3442" lon="2.68394">
        <ele>765</ele>
        <time>2022-01-27T21:29:59Z</time>
      </trkpt>
      <trkpt lat="45.34412" lon="2.68417">
        <ele>774</ele>
        <time>2022-01-27T21:30:03Z</time>
      </trkpt>
      <trkpt lat="45.3438" lon="2.68381">
        <ele>780</ele>
        <time>2022-01-27T21:30:10Z</time>
      </trkpt>
      <trkpt lat="45.34293" lon="2.68216">
        <ele>764</ele>
        <time>2022-01-27T21:30:36Z</time>
      </trkpt>
      <trkpt lat="45.34269" lon="2.68187">
        <ele>762</ele>
        <time>2022-01-27T21:30:41Z</time>
      </trkpt>
      <trkpt lat="45.34231" lon="2.68179">
        <ele>763</ele>
        <time>2022-01-27T21:30:48Z</time>
      </trkpt>
      <trkpt lat="45.34173" lon="2.68195">
        <ele>765</ele>
        <time>2022-01-27T21:30:59Z</time>
      </trkpt>
      <trkpt lat="45.3414" lon="2.68211">
        <ele>766</ele>
        <time>2022-01-27T21:31:05Z</time>
      </trkpt>
      <trkpt lat="45.34115" lon="2.68238">
        <ele>772</ele>
        <time>2022-01-27T21:31:10Z</time>
      </trkpt>
      <trkpt lat="45.34097" lon="2.68248">
        <ele>773</ele>
        <time>2022-01-27T21:31:14Z</time>
      </trkpt>
      <trkpt lat="45.34074" lon="2.68252">
        <ele>773</ele>
        <time>2022-01-27T21:31:18Z</time>
      </trkpt>
      <trkpt lat="45.34052" lon="2.68246">
        <ele>771</ele>
        <time>2022-01-27T21:31:22Z</time>
      </trkpt>
      <trkpt lat="45.33999" lon="2.68215">
        <ele>761</ele>
        <time>2022-01-27T21:31:32Z</time>
      </trkpt>
      <trkpt lat="45.33986" lon="2.68209">
        <ele>756</ele>
        <time>2022-01-27T21:31:35Z</time>
      </trkpt>
      <trkpt lat="45.33974" lon="2.68209">
        <ele>754</ele>
        <time>2022-01-27T21:31:37Z</time>
      </trkpt>
      <trkpt lat="45.33963" lon="2.68213">
        <ele>754</ele>
        <time>2022-01-27T21:31:39Z</time>
      </trkpt>
      <trkpt lat="45.33955" lon="2.68218">
        <ele>754</ele>
        <time>2022-01-27T21:31:40Z</time>
      </trkpt>
      <trkpt lat="45.33947" lon="2.68227">
        <ele>755</ele>
        <time>2022-01-27T21:31:42Z</time>
      </trkpt>
      <trkpt lat="45.33939" lon="2.6824">
        <ele>757</ele>
        <time>2022-01-27T21:31:44Z</time>
      </trkpt>
      <trkpt lat="45.33933" lon="2.68257">
        <ele>759</ele>
        <time>2022-01-27T21:31:47Z</time>
      </trkpt>
      <trkpt lat="45.33918" lon="2.68312">
        <ele>764</ele>
        <time>2022-01-27T21:31:54Z</time>
      </trkpt>
      <trkpt lat="45.33913" lon="2.68324">
        <ele>765</ele>
        <time>2022-01-27T21:31:56Z</time>
      </trkpt>
      <trkpt lat="45.33905" lon="2.68337">
        <ele>767</ele>
        <time>2022-01-27T21:31:58Z</time>
      </trkpt>
      <trkpt lat="45.33894" lon="2.6835">
        <ele>770</ele>
        <time>2022-01-27T21:32:00Z</time>
      </trkpt>
      <trkpt lat="45.33881" lon="2.68361">
        <ele>773</ele>
        <time>2022-01-27T21:32:03Z</time>
      </trkpt>
      <trkpt lat="45.33847" lon="2.68381">
        <ele>777</ele>
        <time>2022-01-27T21:32:10Z</time>
      </trkpt>
      <trkpt lat="45.33817" lon="2.6839">
        <ele>777</ele>
        <time>2022-01-27T21:32:15Z</time>
      </trkpt>
      <trkpt lat="45.33706" lon="2.68412">
        <ele>769</ele>
        <time>2022-01-27T21:32:35Z</time>
      </trkpt>
      <trkpt lat="45.33667" lon="2.68424">
        <ele>768</ele>
        <time>2022-01-27T21:32:42Z</time>
      </trkpt>
      <trkpt lat="45.33536" lon="2.68503">
        <ele>769</ele>
        <time>2022-01-27T21:33:08Z</time>
      </trkpt>
      <trkpt lat="45.33496" lon="2.68521">
        <ele>770</ele>
        <time>2022-01-27T21:33:15Z</time>
      </trkpt>
      <trkpt lat="45.33412" lon="2.68537">
        <ele>770</ele>
        <time>2022-01-27T21:33:30Z</time>
      </trkpt>
      <trkpt lat="45.33309" lon="2.68575">
        <ele>768</ele>
        <time>2022-01-27T21:33:49Z</time>
      </trkpt>
      <trkpt lat="45.33276" lon="2.68592">
        <ele>767</ele>
        <time>2022-01-27T21:33:55Z</time>
      </trkpt>
      <trkpt lat="45.33246" lon="2.68629">
        <ele>766</ele>
        <time>2022-01-27T21:34:02Z</time>
      </trkpt>
      <trkpt lat="45.33224" lon="2.68686">
        <ele>769</ele>
        <time>2022-01-27T21:34:10Z</time>
      </trkpt>
      <trkpt lat="45.33173" lon="2.68741">
        <ele>766</ele>
        <time>2022-01-27T21:34:22Z</time>
      </trkpt>
      <trkpt lat="45.33012" lon="2.68813">
        <ele>761</ele>
        <time>2022-01-27T21:34:52Z</time>
      </trkpt>
      <trkpt lat="45.32965" lon="2.68813">
        <ele>760</ele>
        <time>2022-01-27T21:35:00Z</time>
      </trkpt>
      <trkpt lat="45.32517" lon="2.68671">
        <ele>772</ele>
        <time>2022-01-27T21:36:22Z</time>
      </trkpt>
      <trkpt lat="45.32454" lon="2.6865">
        <ele>775</ele>
        <time>2022-01-27T21:36:33Z</time>
      </trkpt>
      <trkpt lat="45.32386" lon="2.68601">
        <ele>775</ele>
        <time>2022-01-27T21:36:47Z</time>
      </trkpt>
      <trkpt lat="45.32322" lon="2.68549">
        <ele>774</ele>
        <time>2022-01-27T21:37:00Z</time>
      </trkpt>
      <trkpt lat="45.319" lon="2.68392">
        <ele>791</ele>
        <time>2022-01-27T21:38:18Z</time>
      </trkpt>
      <trkpt lat="45.31888" lon="2.68389">
        <ele>792</ele>
        <time>2022-01-27T21:38:20Z</time>
      </trkpt>
      <trkpt lat="45.31861" lon="2.68385">
        <ele>793</ele>
        <time>2022-01-27T21:38:25Z</time>
      </trkpt>
      <trkpt lat="45.31843" lon="2.68388">
        <ele>793</ele>
        <time>2022-01-27T21:38:28Z</time>
      </trkpt>
      <trkpt lat="45.31824" lon="2.68397">
        <ele>792</ele>
        <time>2022-01-27T21:38:31Z</time>
      </trkpt>
      <trkpt lat="45.31798" lon="2.68421">
        <ele>789</ele>
        <time>2022-01-27T21:38:37Z</time>
      </trkpt>
      <trkpt lat="45.31776" lon="2.68455">
        <ele>788</ele>
        <time>2022-01-27T21:38:43Z</time>
      </trkpt>
      <trkpt lat="45.3173" lon="2.68541">
        <ele>786</ele>
        <time>2022-01-27T21:38:56Z</time>
      </trkpt>
      <trkpt lat="45.31706" lon="2.6858">
        <ele>785</ele>
        <time>2022-01-27T21:39:03Z</time>
      </trkpt>
      <trkpt lat="45.31557" lon="2.68694">
        <ele>782</ele>
        <time>2022-01-27T21:39:33Z</time>
      </trkpt>
      <trkpt lat="45.3153" lon="2.68699">
        <ele>781</ele>
        <time>2022-01-27T21:39:38Z</time>
      </trkpt>
      <trkpt lat="45.31505" lon="2.6869">
        <ele>778</ele>
        <time>2022-01-27T21:39:42Z</time>
      </trkpt>
      <trkpt lat="45.31342" lon="2.6851">
        <ele>758</ele>
        <time>2022-01-27T21:40:19Z</time>
      </trkpt>
      <trkpt lat="45.31324" lon="2.68479">
        <ele>756</ele>
        <time>2022-01-27T21:40:24Z</time>
      </trkpt>
      <trkpt lat="45.31299" lon="2.68419">
        <ele>751</ele>
        <time>2022-01-27T21:40:33Z</time>
      </trkpt>
      <trkpt lat="45.31271" lon="2.68338">
        <ele>748</ele>
        <time>2022-01-27T21:40:44Z</time>
      </trkpt>
      <trkpt lat="45.31258" lon="2.68291">
        <ele>744</ele>
        <time>2022-01-27T21:40:50Z</time>
      </trkpt>
      <trkpt lat="45.31252" lon="2.68259">
        <ele>742</ele>
        <time>2022-01-27T21:40:55Z</time>
      </trkpt>
      <trkpt lat="45.31241" lon="2.68161">
        <ele>738</ele>
        <time>2022-01-27T21:41:07Z</time>
      </trkpt>
      <trkpt lat="45.31236" lon="2.68125">
        <ele>737</ele>
        <time>2022-01-27T21:41:12Z</time>
      </trkpt>
      <trkpt lat="45.31229" lon="2.68086">
        <ele>736</ele>
        <time>2022-01-27T21:41:17Z</time>
      </trkpt>
      <trkpt lat="45.31218" lon="2.68044">
        <ele>738</ele>
        <time>2022-01-27T21:41:22Z</time>
      </trkpt>
      <trkpt lat="45.31202" lon="2.68005">
        <ele>741</ele>
        <time>2022-01-27T21:41:28Z</time>
      </trkpt>
      <trkpt lat="45.31107" lon="2.67823">
        <ele>760</ele>
        <time>2022-01-27T21:41:56Z</time>
      </trkpt>
      <trkpt lat="45.31096" lon="2.67786">
        <ele>766</ele>
        <time>2022-01-27T21:42:01Z</time>
      </trkpt>
      <trkpt lat="45.31095" lon="2.67753">
        <ele>767</ele>
        <time>2022-01-27T21:42:05Z</time>
      </trkpt>
      <trkpt lat="45.31102" lon="2.67714">
        <ele>770</ele>
        <time>2022-01-27T21:42:10Z</time>
      </trkpt>
      <trkpt lat="45.31109" lon="2.67696">
        <ele>770</ele>
        <time>2022-01-27T21:42:13Z</time>
      </trkpt>
      <trkpt lat="45.31127" lon="2.67662">
        <ele>768</ele>
        <time>2022-01-27T21:42:18Z</time>
      </trkpt>
      <trkpt lat="45.31154" lon="2.6762">
        <ele>765</ele>
        <time>2022-01-27T21:42:25Z</time>
      </trkpt>
      <trkpt lat="45.3121" lon="2.67563">
        <ele>763</ele>
        <time>2022-01-27T21:42:38Z</time>
      </trkpt>
      <trkpt lat="45.3123" lon="2.67538">
        <ele>763</ele>
        <time>2022-01-27T21:42:42Z</time>
      </trkpt>
      <trkpt lat="45.31244" lon="2.6751">
        <ele>765</ele>
        <time>2022-01-27T21:42:47Z</time>
      </trkpt>
      <trkpt lat="45.31252" lon="2.67476">
        <ele>769</ele>
        <time>2022-01-27T21:42:51Z</time>
      </trkpt>
      <trkpt lat="45.31292" lon="2.6725">
        <ele>791</ele>
        <time>2022-01-27T21:43:20Z</time>
      </trkpt>
      <trkpt lat="45.31302" lon="2.6721">
        <ele>794</ele>
        <time>2022-01-27T21:43:26Z</time>
      </trkpt>
      <trkpt lat="45.31315" lon="2.67175">
        <ele>791</ele>
        <time>2022-01-27T21:43:31Z</time>
      </trkpt>
      <trkpt lat="45.31324" lon="2.67139">
        <ele>792</ele>
        <time>2022-01-27T21:43:35Z</time>
      </trkpt>
      <trkpt lat="45.3134" lon="2.67052">
        <ele>799</ele>
        <time>2022-01-27T21:43:47Z</time>
      </trkpt>
      <trkpt lat="45.31361" lon="2.66965">
        <ele>784</ele>
        <time>2022-01-27T21:43:58Z</time>
      </trkpt>
      <trkpt lat="45.31359" lon="2.66932">
        <ele>784</ele>
        <time>2022-01-27T21:44:02Z</time>
      </trkpt>
      <trkpt lat="45.31341" lon="2.66905">
        <ele>792</ele>
        <time>2022-01-27T21:44:07Z</time>
      </trkpt>
      <trkpt lat="45.31259" lon="2.66842">
        <ele>798</ele>
        <time>2022-01-27T21:44:24Z</time>
      </trkpt>
      <trkpt lat="45.31182" lon="2.66766">
        <ele>800</ele>
        <time>2022-01-27T21:44:40Z</time>
      </trkpt>
      <trkpt lat="45.31153" lon="2.66742">
        <ele>798</ele>
        <time>2022-01-27T21:44:46Z</time>
      </trkpt>
      <trkpt lat="45.31133" lon="2.66733">
        <ele>796</ele>
        <time>2022-01-27T21:44:50Z</time>
      </trkpt>
      <trkpt lat="45.31117" lon="2.6673">
        <ele>796</ele>
        <time>2022-01-27T21:44:53Z</time>
      </trkpt>
      <trkpt lat="45.31102" lon="2.66732">
        <ele>797</ele>
        <time>2022-01-27T21:44:55Z</time>
      </trkpt>
      <trkpt lat="45.31079" lon="2.6674">
        <ele>801</ele>
        <time>2022-01-27T21:45:00Z</time>
      </trkpt>
      <trkpt lat="45.31051" lon="2.66754">
        <ele>805</ele>
        <time>2022-01-27T21:45:05Z</time>
      </trkpt>
      <trkpt lat="45.3096" lon="2.66781">
        <ele>813</ele>
        <time>2022-01-27T21:45:22Z</time>
      </trkpt>
      <trkpt lat="45.30914" lon="2.66785">
        <ele>816</ele>
        <time>2022-01-27T21:45:30Z</time>
      </trkpt>
      <trkpt lat="45.30892" lon="2.66782">
        <ele>817</ele>
        <time>2022-01-27T21:45:34Z</time>
      </trkpt>
      <trkpt lat="45.30865" lon="2.66772">
        <ele>817</ele>
        <time>2022-01-27T21:45:39Z</time>
      </trkpt>
      <trkpt lat="45.30784" lon="2.66733">
        <ele>812</ele>
        <time>2022-01-27T21:45:54Z</time>
      </trkpt>
      <trkpt lat="45.30762" lon="2.66727">
        <ele>813</ele>
        <time>2022-01-27T21:45:58Z</time>
      </trkpt>
      <trkpt lat="45.30743" lon="2.66726">
        <ele>813</ele>
        <time>2022-01-27T21:46:01Z</time>
      </trkpt>
      <trkpt lat="45.30731" lon="2.66727">
        <ele>811</ele>
        <time>2022-01-27T21:46:03Z</time>
      </trkpt>
      <trkpt lat="45.3071" lon="2.6674">
        <ele>812</ele>
        <time>2022-01-27T21:46:07Z</time>
      </trkpt>
      <trkpt lat="45.30695" lon="2.66753">
        <ele>813</ele>
        <time>2022-01-27T21:46:11Z</time>
      </trkpt>
      <trkpt lat="45.3067" lon="2.66787">
        <ele>816</ele>
        <time>2022-01-27T21:46:17Z</time>
      </trkpt>
      <trkpt lat="45.30624" lon="2.66863">
        <ele>823</ele>
        <time>2022-01-27T21:46:29Z</time>
      </trkpt>
      <trkpt lat="45.30598" lon="2.66895">
        <ele>826</ele>
        <time>2022-01-27T21:46:35Z</time>
      </trkpt>
      <trkpt lat="45.30576" lon="2.66915">
        <ele>829</ele>
        <time>2022-01-27T21:46:40Z</time>
      </trkpt>
      <trkpt lat="45.30556" lon="2.66926">
        <ele>831</ele>
        <time>2022-01-27T21:46:44Z</time>
      </trkpt>
      <trkpt lat="45.30538" lon="2.66932">
        <ele>831</ele>
        <time>2022-01-27T21:46:47Z</time>
      </trkpt>
      <trkpt lat="45.30515" lon="2.66934">
        <ele>831</ele>
        <time>2022-01-27T21:46:51Z</time>
      </trkpt>
      <trkpt lat="45.30454" lon="2.6693">
        <ele>830</ele>
        <time>2022-01-27T21:47:02Z</time>
      </trkpt>
      <trkpt lat="45.30434" lon="2.66934">
        <ele>831</ele>
        <time>2022-01-27T21:47:06Z</time>
      </trkpt>
      <trkpt lat="45.30401" lon="2.6696">
        <ele>832</ele>
        <time>2022-01-27T21:47:12Z</time>
      </trkpt>
      <trkpt lat="45.30385" lon="2.66981">
        <ele>832</ele>
        <time>2022-01-27T21:47:16Z</time>
      </trkpt>
      <trkpt lat="45.30342" lon="2.67097">
        <ele>841</ele>
        <time>2022-01-27T21:47:33Z</time>
      </trkpt>
      <trkpt lat="45.30324" lon="2.67135">
        <ele>842</ele>
        <time>2022-01-27T21:47:38Z</time>
      </trkpt>
      <trkpt lat="45.30312" lon="2.67152">
        <ele>842</ele>
        <time>2022-01-27T21:47:41Z</time>
      </trkpt>
      <trkpt lat="45.30292" lon="2.67172">
        <ele>843</ele>
        <time>2022-01-27T21:47:46Z</time>
      </trkpt>
      <trkpt lat="45.30272" lon="2.67183">
        <ele>842</ele>
        <time>2022-01-27T21:47:50Z</time>
      </trkpt>
      <trkpt lat="45.30176" lon="2.67211">
        <ele>841</ele>
        <time>2022-01-27T21:48:07Z</time>
      </trkpt>
      <trkpt lat="45.30145" lon="2.67222">
        <ele>842</ele>
        <time>2022-01-27T21:48:13Z</time>
      </trkpt>
      <trkpt lat="45.29965" lon="2.67315">
        <ele>848</ele>
        <time>2022-01-27T21:48:47Z</time>
      </trkpt>
      <trkpt lat="45.29926" lon="2.67328">
        <ele>854</ele>
        <time>2022-01-27T21:48:54Z</time>
      </trkpt>
      <trkpt lat="45.29908" lon="2.67321">
        <ele>853</ele>
        <time>2022-01-27T21:48:57Z</time>
      </trkpt>
      <trkpt lat="45.29884" lon="2.67308">
        <ele>851</ele>
        <time>2022-01-27T21:49:02Z</time>
      </trkpt>
      <trkpt lat="45.29855" lon="2.67299">
        <ele>852</ele>
        <time>2022-01-27T21:49:07Z</time>
      </trkpt>
      <trkpt lat="45.29806" lon="2.67292">
        <ele>854</ele>
        <time>2022-01-27T21:49:16Z</time>
      </trkpt>
      <trkpt lat="45.29733" lon="2.67287">
        <ele>859</ele>
        <time>2022-01-27T21:49:29Z</time>
      </trkpt>
      <trkpt lat="45.29697" lon="2.67278">
        <ele>859</ele>
        <time>2022-01-27T21:49:35Z</time>
      </trkpt>
      <trkpt lat="45.29638" lon="2.67236">
        <ele>851</ele>
        <time>2022-01-27T21:49:47Z</time>
      </trkpt>
      <trkpt lat="45.29602" lon="2.67219">
        <ele>850</ele>
        <time>2022-01-27T21:49:54Z</time>
      </trkpt>
      <trkpt lat="45.295" lon="2.67192">
        <ele>855</ele>
        <time>2022-01-27T21:50:12Z</time>
      </trkpt>
      <trkpt lat="45.29421" lon="2.67166">
        <ele>855</ele>
        <time>2022-01-27T21:50:27Z</time>
      </trkpt>
      <trkpt lat="45.29405" lon="2.67156">
        <ele>855</ele>
        <time>2022-01-27T21:50:30Z</time>
      </trkpt>
      <trkpt lat="45.29334" lon="2.67095">
        <ele>850</ele>
        <time>2022-01-27T21:50:45Z</time>
      </trkpt>
      <trkpt lat="45.29305" lon="2.67081">
        <ele>850</ele>
        <time>2022-01-27T21:50:50Z</time>
      </trkpt>
      <trkpt lat="45.2905" lon="2.67026">
        <ele>851</ele>
        <time>2022-01-27T21:51:36Z</time>
      </trkpt>
      <trkpt lat="45.29021" lon="2.67005">
        <ele>848</ele>
        <time>2022-01-27T21:51:42Z</time>
      </trkpt>
      <trkpt lat="45.28993" lon="2.66978">
        <ele>846</ele>
        <time>2022-01-27T21:51:48Z</time>
      </trkpt>
      <trkpt lat="45.28961" lon="2.66943">
        <ele>842</ele>
        <time>2022-01-27T21:51:55Z</time>
      </trkpt>
      <trkpt lat="45.28935" lon="2.66927">
        <ele>842</ele>
        <time>2022-01-27T21:52:00Z</time>
      </trkpt>
      <trkpt lat="45.2892" lon="2.66921">
        <ele>843</ele>
        <time>2022-01-27T21:52:03Z</time>
      </trkpt>
      <trkpt lat="45.28897" lon="2.66917">
        <ele>843</ele>
        <time>2022-01-27T21:52:07Z</time>
      </trkpt>
      <trkpt lat="45.28852" lon="2.66917">
        <ele>845</ele>
        <time>2022-01-27T21:52:15Z</time>
      </trkpt>
      <trkpt lat="45.28812" lon="2.66904">
        <ele>844</ele>
        <time>2022-01-27T21:52:22Z</time>
      </trkpt>
      <trkpt lat="45.28811" lon="2.66895">
        <ele>843</ele>
        <time>2022-01-27T21:52:23Z</time>
      </trkpt>
      <trkpt lat="45.2881" lon="2.66891">
        <ele>842</ele>
        <time>2022-01-27T21:52:24Z</time>
      </trkpt>
      <trkpt lat="45.28805" lon="2.66885">
        <ele>841</ele>
        <time>2022-01-27T21:52:25Z</time>
      </trkpt>
      <trkpt lat="45.28798" lon="2.66885">
        <ele>841</ele>
        <time>2022-01-27T21:52:26Z</time>
      </trkpt>
      <trkpt lat="45.28791" lon="2.66891">
        <ele>842</ele>
        <time>2022-01-27T21:52:28Z</time>
      </trkpt>
      <trkpt lat="45.2879" lon="2.66903">
        <ele>843</ele>
        <time>2022-01-27T21:52:29Z</time>
      </trkpt>
      <trkpt lat="45.28776" lon="2.66907">
        <ele>843</ele>
        <time>2022-01-27T21:52:32Z</time>
      </trkpt>
      <trkpt lat="45.28754" lon="2.66917">
        <ele>843</ele>
        <time>2022-01-27T21:52:36Z</time>
      </trkpt>
      <trkpt lat="45.28742" lon="2.66918">
        <ele>843</ele>
        <time>2022-01-27T21:52:38Z</time>
      </trkpt>
      <trkpt lat="45.2867" lon="2.66917">
        <ele>843</ele>
        <time>2022-01-27T21:52:51Z</time>
      </trkpt>
      <trkpt lat="45.28626" lon="2.66914">
        <ele>844</ele>
        <time>2022-01-27T21:52:59Z</time>
      </trkpt>
      <trkpt lat="45.28597" lon="2.66906">
        <ele>844</ele>
        <time>2022-01-27T21:53:04Z</time>
      </trkpt>
      <trkpt lat="45.28488" lon="2.6686">
        <ele>847</ele>
        <time>2022-01-27T21:53:24Z</time>
      </trkpt>
      <trkpt lat="45.28117" lon="2.6669">
        <ele>843</ele>
        <time>2022-01-27T21:54:33Z</time>
      </trkpt>
      <trkpt lat="45.28074" lon="2.66668">
        <ele>841</ele>
        <time>2022-01-27T21:54:42Z</time>
      </trkpt>
      <trkpt lat="45.28065" lon="2.6666">
        <ele>841</ele>
        <time>2022-01-27T21:54:44Z</time>
      </trkpt>
      <trkpt lat="45.28046" lon="2.66639">
        <ele>840</ele>
        <time>2022-01-27T21:54:48Z</time>
      </trkpt>
      <trkpt lat="45.28028" lon="2.66614">
        <ele>840</ele>
        <time>2022-01-27T21:54:52Z</time>
      </trkpt>
      <trkpt lat="45.28013" lon="2.66581">
        <ele>839</ele>
        <time>2022-01-27T21:54:57Z</time>
      </trkpt>
      <trkpt lat="45.28005" lon="2.66556">
        <ele>838</ele>
        <time>2022-01-27T21:55:01Z</time>
      </trkpt>
      <trkpt lat="45.28" lon="2.66535">
        <ele>837</ele>
        <time>2022-01-27T21:55:03Z</time>
      </trkpt>
      <trkpt lat="45.27997" lon="2.66512">
        <ele>836</ele>
        <time>2022-01-27T21:55:06Z</time>
      </trkpt>
      <trkpt lat="45.27997" lon="2.66475">
        <ele>836</ele>
        <time>2022-01-27T21:55:11Z</time>
      </trkpt>
      <trkpt lat="45.27999" lon="2.66441">
        <ele>835</ele>
        <time>2022-01-27T21:55:15Z</time>
      </trkpt>
      <trkpt lat="45.28004" lon="2.66429">
        <ele>835</ele>
        <time>2022-01-27T21:55:17Z</time>
      </trkpt>
      <trkpt lat="45.28003" lon="2.66415">
        <ele>835</ele>
        <time>2022-01-27T21:55:19Z</time>
      </trkpt>
      <trkpt lat="45.28001" lon="2.66412">
        <ele>835</ele>
        <time>2022-01-27T21:55:19Z</time>
      </trkpt>
      <trkpt lat="45.27997" lon="2.6637">
        <ele>834</ele>
        <time>2022-01-27T21:55:25Z</time>
      </trkpt>
      <trkpt lat="45.27997" lon="2.66297">
        <ele>835</ele>
        <time>2022-01-27T21:55:34Z</time>
      </trkpt>
      <trkpt lat="45.27997" lon="2.66283">
        <ele>835</ele>
        <time>2022-01-27T21:55:35Z</time>
      </trkpt>
      <trkpt lat="45.27998" lon="2.66142">
        <ele>840</ele>
        <time>2022-01-27T21:55:53Z</time>
      </trkpt>
      <trkpt lat="45.27999" lon="2.66126">
        <ele>841</ele>
        <time>2022-01-27T21:55:55Z</time>
      </trkpt>
      <trkpt lat="45.28" lon="2.66119">
        <ele>841</ele>
        <time>2022-01-27T21:55:56Z</time>
      </trkpt>
      <trkpt lat="45.28005" lon="2.66107">
        <ele>842</ele>
        <time>2022-01-27T21:55:58Z</time>
      </trkpt>
      <trkpt lat="45.28058" lon="2.66038">
        <ele>844</ele>
        <time>2022-01-27T21:56:11Z</time>
      </trkpt>
      <trkpt lat="45.28089" lon="2.66002">
        <ele>845</ele>
        <time>2022-01-27T21:56:18Z</time>
      </trkpt>
      <trkpt lat="45.28112" lon="2.65984">
        <ele>845</ele>
        <time>2022-01-27T21:56:22Z</time>
      </trkpt>
      <trkpt lat="45.28114" lon="2.65987">
        <ele>845</ele>
        <time>2022-01-27T21:56:23Z</time>
      </trkpt>
      <trkpt lat="45.28123" lon="2.6599">
        <ele>844</ele>
        <time>2022-01-27T21:56:25Z</time>
      </trkpt>
      <trkpt lat="45.2813" lon="2.65989">
        <ele>844</ele>
        <time>2022-01-27T21:56:26Z</time>
      </trkpt>
      <trkpt lat="45.2815" lon="2.65979">
        <ele>844</ele>
        <time>2022-01-27T21:56:30Z</time>
      </trkpt>
      <trkpt lat="45.28162" lon="2.65963">
        <ele>843</ele>
        <time>2022-01-27T21:56:32Z</time>
      </trkpt>
      <trkpt lat="45.2817" lon="2.65956">
        <ele>843</ele>
        <time>2022-01-27T21:56:34Z</time>
      </trkpt>
      <trkpt lat="45.28194" lon="2.65932">
        <ele>842</ele>
        <time>2022-01-27T21:56:39Z</time>
      </trkpt>
      <trkpt lat="45.28177" lon="2.65904">
        <ele>843</ele>
        <time>2022-01-27T21:56:44Z</time>
      </trkpt>
      <trkpt lat="45.28179" lon="2.65881">
        <ele>843</ele>
        <time>2022-01-27T21:56:47Z</time>
      </trkpt>
      <trkpt lat="45.28174" lon="2.65871">
        <ele>843</ele>
        <time>2022-01-27T21:56:48Z</time>
      </trkpt>
      <trkpt lat="45.28191" lon="2.65825">
        <ele>844</ele>
        <time>2022-01-27T21:56:55Z</time>
      </trkpt>
      <trkpt lat="45.28183" lon="2.65812">
        <ele>845</ele>
        <time>2022-01-27T21:56:57Z</time>
      </trkpt>
      <trkpt lat="45.28169" lon="2.65799">
        <ele>846</ele>
        <time>2022-01-27T21:57:00Z</time>
      </trkpt>
      <trkpt lat="45.28187" lon="2.6576">
        <ele>848</ele>
        <time>2022-01-27T21:57:06Z</time>
      </trkpt>
      <trkpt lat="45.2826" lon="2.65584">
        <ele>849</ele>
        <time>2022-01-27T21:57:31Z</time>
      </trkpt>
      <trkpt lat="45.28291" lon="2.65501">
        <ele>850</ele>
        <time>2022-01-27T21:57:43Z</time>
      </trkpt>
      <trkpt lat="45.28302" lon="2.65463">
        <ele>851</ele>
        <time>2022-01-27T21:57:48Z</time>
      </trkpt>
      <trkpt lat="45.28344" lon="2.65254">
        <ele>853</ele>
        <time>2022-01-27T21:58:16Z</time>
      </trkpt>
      <trkpt lat="45.28364" lon="2.65139">
        <ele>855</ele>
        <time>2022-01-27T21:58:30Z</time>
      </trkpt>
      <trkpt lat="45.28383" lon="2.65096">
        <ele>854</ele>
        <time>2022-01-27T21:58:37Z</time>
      </trkpt>
      <trkpt lat="45.28408" lon="2.65046">
        <ele>852</ele>
        <time>2022-01-27T21:58:44Z</time>
      </trkpt>
      <trkpt lat="45.28447" lon="2.6496">
        <ele>851</ele>
        <time>2022-01-27T21:58:57Z</time>
      </trkpt>
      <trkpt lat="45.28461" lon="2.64923">
        <ele>851</ele>
        <time>2022-01-27T21:59:03Z</time>
      </trkpt>
      <trkpt lat="45.28477" lon="2.64868">
        <ele>851</ele>
        <time>2022-01-27T21:59:10Z</time>
      </trkpt>
      <trkpt lat="45.28507" lon="2.64741">
        <ele>852</ele>
        <time>2022-01-27T21:59:27Z</time>
      </trkpt>
      <trkpt lat="45.28514" lon="2.64736">
        <ele>852</ele>
        <time>2022-01-27T21:59:28Z</time>
      </trkpt>
      <trkpt lat="45.28522" lon="2.64734">
        <ele>851</ele>
        <time>2022-01-27T21:59:30Z</time>
      </trkpt>
      <trkpt lat="45.28525" lon="2.64736">
        <ele>850</ele>
        <time>2022-01-27T21:59:30Z</time>
      </trkpt>
      <trkpt lat="45.28532" lon="2.64737">
        <ele>850</ele>
        <time>2022-01-27T21:59:31Z</time>
      </trkpt>
      <trkpt lat="45.28539" lon="2.64732">
        <ele>849</ele>
        <time>2022-01-27T21:59:33Z</time>
      </trkpt>
      <trkpt lat="45.28543" lon="2.6472">
        <ele>848</ele>
        <time>2022-01-27T21:59:35Z</time>
      </trkpt>
      <trkpt lat="45.28542" lon="2.64711">
        <ele>848</ele>
        <time>2022-01-27T21:59:36Z</time>
      </trkpt>
      <trkpt lat="45.28538" lon="2.64703">
        <ele>849</ele>
        <time>2022-01-27T21:59:37Z</time>
      </trkpt>
      <trkpt lat="45.28532" lon="2.64699">
        <ele>850</ele>
        <time>2022-01-27T21:59:38Z</time>
      </trkpt>
      <trkpt lat="45.28529" lon="2.64689">
        <ele>850</ele>
        <time>2022-01-27T21:59:39Z</time>
      </trkpt>
      <trkpt lat="45.2852" lon="2.64649">
        <ele>851</ele>
        <time>2022-01-27T21:59:45Z</time>
      </trkpt>
      <trkpt lat="45.2852" lon="2.64578">
        <ele>850</ele>
        <time>2022-01-27T21:59:54Z</time>
      </trkpt>
      <trkpt lat="45.28527" lon="2.64455">
        <ele>851</ele>
        <time>2022-01-27T22:00:09Z</time>
      </trkpt>
      <trkpt lat="45.28527" lon="2.64435">
        <ele>851</ele>
        <time>2022-01-27T22:00:12Z</time>
      </trkpt>
      <trkpt lat="45.28524" lon="2.64376">
        <ele>852</ele>
        <time>2022-01-27T22:00:19Z</time>
      </trkpt>
      <trkpt lat="45.28526" lon="2.64354">
        <ele>852</ele>
        <time>2022-01-27T22:00:22Z</time>
      </trkpt>
      <trkpt lat="45.28545" lon="2.64257">
        <ele>853</ele>
        <time>2022-01-27T22:00:34Z</time>
      </trkpt>
      <trkpt lat="45.2855" lon="2.6422">
        <ele>853</ele>
        <time>2022-01-27T22:00:39Z</time>
      </trkpt>
      <trkpt lat="45.28554" lon="2.64169">
        <ele>854</ele>
        <time>2022-01-27T22:00:45Z</time>
      </trkpt>
      <trkpt lat="45.28553" lon="2.64128">
        <ele>854</ele>
        <time>2022-01-27T22:00:51Z</time>
      </trkpt>
      <trkpt lat="45.28539" lon="2.63988">
        <ele>857</ele>
        <time>2022-01-27T22:01:08Z</time>
      </trkpt>
      <trkpt lat="45.28539" lon="2.63962">
        <ele>858</ele>
        <time>2022-01-27T22:01:12Z</time>
      </trkpt>
      <trkpt lat="45.28542" lon="2.63935">
        <ele>859</ele>
        <time>2022-01-27T22:01:15Z</time>
      </trkpt>
      <trkpt lat="45.28549" lon="2.63914">
        <ele>860</ele>
        <time>2022-01-27T22:01:18Z</time>
      </trkpt>
      <trkpt lat="45.28625" lon="2.63715">
        <ele>861</ele>
        <time>2022-01-27T22:01:46Z</time>
      </trkpt>
      <trkpt lat="45.28606" lon="2.63691">
        <ele>862</ele>
        <time>2022-01-27T22:01:51Z</time>
      </trkpt>
      <trkpt lat="45.28584" lon="2.6362">
        <ele>866</ele>
        <time>2022-01-27T22:02:00Z</time>
      </trkpt>
      <trkpt lat="45.28516" lon="2.6342">
        <ele>874</ele>
        <time>2022-01-27T22:02:28Z</time>
      </trkpt>
      <trkpt lat="45.28461" lon="2.63261">
        <ele>877</ele>
        <time>2022-01-27T22:02:50Z</time>
      </trkpt>
      <trkpt lat="45.28432" lon="2.63209">
        <ele>876</ele>
        <time>2022-01-27T22:02:59Z</time>
      </trkpt>
      <trkpt lat="45.28415" lon="2.63189">
        <ele>875</ele>
        <time>2022-01-27T22:03:03Z</time>
      </trkpt>
      <trkpt lat="45.28395" lon="2.63175">
        <ele>875</ele>
        <time>2022-01-27T22:03:07Z</time>
      </trkpt>
      <trkpt lat="45.28241" lon="2.63119">
        <ele>874</ele>
        <time>2022-01-27T22:03:35Z</time>
      </trkpt>
      <trkpt lat="45.28144" lon="2.63111">
        <ele>875</ele>
        <time>2022-01-27T22:03:52Z</time>
      </trkpt>
      <trkpt lat="45.28116" lon="2.631">
        <ele>875</ele>
        <time>2022-01-27T22:03:57Z</time>
      </trkpt>
      <trkpt lat="45.28091" lon="2.63082">
        <ele>876</ele>
        <time>2022-01-27T22:04:02Z</time>
      </trkpt>
      <trkpt lat="45.28076" lon="2.63059">
        <ele>876</ele>
        <time>2022-01-27T22:04:06Z</time>
      </trkpt>
      <trkpt lat="45.28062" lon="2.63017">
        <ele>877</ele>
        <time>2022-01-27T22:04:12Z</time>
      </trkpt>
      <trkpt lat="45.28039" lon="2.62834">
        <ele>893</ele>
        <time>2022-01-27T22:04:35Z</time>
      </trkpt>
      <trkpt lat="45.28038" lon="2.62786">
        <ele>898</ele>
        <time>2022-01-27T22:04:41Z</time>
      </trkpt>
      <trkpt lat="45.28049" lon="2.62733">
        <ele>899</ele>
        <time>2022-01-27T22:04:48Z</time>
      </trkpt>
      <trkpt lat="45.28054" lon="2.62673">
        <ele>902</ele>
        <time>2022-01-27T22:04:56Z</time>
      </trkpt>
      <trkpt lat="45.28053" lon="2.62647">
        <ele>903</ele>
        <time>2022-01-27T22:04:59Z</time>
      </trkpt>
      <trkpt lat="45.28045" lon="2.62588">
        <ele>905</ele>
        <time>2022-01-27T22:05:07Z</time>
      </trkpt>
      <trkpt lat="45.28019" lon="2.6247">
        <ele>903</ele>
        <time>2022-01-27T22:05:22Z</time>
      </trkpt>
      <trkpt lat="45.2801" lon="2.62437">
        <ele>900</ele>
        <time>2022-01-27T22:05:27Z</time>
      </trkpt>
      <trkpt lat="45.27993" lon="2.62398">
        <ele>898</ele>
        <time>2022-01-27T22:05:32Z</time>
      </trkpt>
      <trkpt lat="45.27942" lon="2.62297">
        <ele>897</ele>
        <time>2022-01-27T22:05:48Z</time>
      </trkpt>
      <trkpt lat="45.27922" lon="2.62276">
        <ele>896</ele>
        <time>2022-01-27T22:05:52Z</time>
      </trkpt>
      <trkpt lat="45.27902" lon="2.62269">
        <ele>896</ele>
        <time>2022-01-27T22:05:56Z</time>
      </trkpt>
      <trkpt lat="45.2783" lon="2.62274">
        <ele>902</ele>
        <time>2022-01-27T22:06:09Z</time>
      </trkpt>
      <trkpt lat="45.27797" lon="2.62266">
        <ele>902</ele>
        <time>2022-01-27T22:06:15Z</time>
      </trkpt>
      <trkpt lat="45.27761" lon="2.62245">
        <ele>901</ele>
        <time>2022-01-27T22:06:22Z</time>
      </trkpt>
      <trkpt lat="45.27733" lon="2.62244">
        <ele>903</ele>
        <time>2022-01-27T22:06:27Z</time>
      </trkpt>
      <trkpt lat="45.27684" lon="2.62264">
        <ele>908</ele>
        <time>2022-01-27T22:06:36Z</time>
      </trkpt>
      <trkpt lat="45.27653" lon="2.62267">
        <ele>909</ele>
        <time>2022-01-27T22:06:41Z</time>
      </trkpt>
      <trkpt lat="45.27614" lon="2.62259">
        <ele>908</ele>
        <time>2022-01-27T22:06:48Z</time>
      </trkpt>
      <trkpt lat="45.27593" lon="2.6224">
        <ele>907</ele>
        <time>2022-01-27T22:06:53Z</time>
      </trkpt>
      <trkpt lat="45.27493" lon="2.62033">
        <ele>917</ele>
        <time>2022-01-27T22:07:24Z</time>
      </trkpt>
      <trkpt lat="45.27483" lon="2.62">
        <ele>917</ele>
        <time>2022-01-27T22:07:29Z</time>
      </trkpt>
      <trkpt lat="45.27436" lon="2.61613">
        <ele>922</ele>
        <time>2022-01-27T22:08:18Z</time>
      </trkpt>
      <trkpt lat="45.27396" lon="2.61331">
        <ele>923</ele>
        <time>2022-01-27T22:08:54Z</time>
      </trkpt>
      <trkpt lat="45.2738" lon="2.61278">
        <ele>923</ele>
        <time>2022-01-27T22:09:01Z</time>
      </trkpt>
      <trkpt lat="45.27322" lon="2.61156">
        <ele>919</ele>
        <time>2022-01-27T22:09:19Z</time>
      </trkpt>
      <trkpt lat="45.27313" lon="2.61123">
        <ele>919</ele>
        <time>2022-01-27T22:09:24Z</time>
      </trkpt>
      <trkpt lat="45.27315" lon="2.60884">
        <ele>913</ele>
        <time>2022-01-27T22:09:54Z</time>
      </trkpt>
      <trkpt lat="45.27316" lon="2.60843">
        <ele>911</ele>
        <time>2022-01-27T22:09:59Z</time>
      </trkpt>
      <trkpt lat="45.27328" lon="2.60777">
        <ele>910</ele>
        <time>2022-01-27T22:10:08Z</time>
      </trkpt>
      <trkpt lat="45.27337" lon="2.60707">
        <ele>910</ele>
        <time>2022-01-27T22:10:16Z</time>
      </trkpt>
      <trkpt lat="45.27337" lon="2.60669">
        <ele>910</ele>
        <time>2022-01-27T22:10:21Z</time>
      </trkpt>
      <trkpt lat="45.27333" lon="2.60635">
        <ele>909</ele>
        <time>2022-01-27T22:10:25Z</time>
      </trkpt>
      <trkpt lat="45.27324" lon="2.60602">
        <ele>909</ele>
        <time>2022-01-27T22:10:30Z</time>
      </trkpt>
      <trkpt lat="45.27299" lon="2.60544">
        <ele>907</ele>
        <time>2022-01-27T22:10:38Z</time>
      </trkpt>
      <trkpt lat="45.27292" lon="2.6051">
        <ele>905</ele>
        <time>2022-01-27T22:10:43Z</time>
      </trkpt>
      <trkpt lat="45.2729" lon="2.6045">
        <ele>903</ele>
        <time>2022-01-27T22:10:50Z</time>
      </trkpt>
      <trkpt lat="45.27284" lon="2.60412">
        <ele>902</ele>
        <time>2022-01-27T22:10:55Z</time>
      </trkpt>
      <trkpt lat="45.27274" lon="2.60393">
        <ele>900</ele>
        <time>2022-01-27T22:10:58Z</time>
      </trkpt>
      <trkpt lat="45.2726" lon="2.60382">
        <ele>900</ele>
        <time>2022-01-27T22:11:01Z</time>
      </trkpt>
      <trkpt lat="45.27241" lon="2.60384">
        <ele>901</ele>
        <time>2022-01-27T22:11:04Z</time>
      </trkpt>
      <trkpt lat="45.27206" lon="2.60395">
        <ele>900</ele>
        <time>2022-01-27T22:11:11Z</time>
      </trkpt>
      <trkpt lat="45.27188" lon="2.6041">
        <ele>901</ele>
        <time>2022-01-27T22:11:15Z</time>
      </trkpt>
      <trkpt lat="45.271" lon="2.60516">
        <ele>903</ele>
        <time>2022-01-27T22:11:35Z</time>
      </trkpt>
      <trkpt lat="45.27082" lon="2.60531">
        <ele>903</ele>
        <time>2022-01-27T22:11:39Z</time>
      </trkpt>
      <trkpt lat="45.27068" lon="2.6054">
        <ele>904</ele>
        <time>2022-01-27T22:11:42Z</time>
      </trkpt>
      <trkpt lat="45.27039" lon="2.60544">
        <ele>905</ele>
        <time>2022-01-27T22:11:47Z</time>
      </trkpt>
      <trkpt lat="45.26993" lon="2.60531">
        <ele>903</ele>
        <time>2022-01-27T22:11:55Z</time>
      </trkpt>
      <trkpt lat="45.26952" lon="2.60537">
        <ele>904</ele>
        <time>2022-01-27T22:12:02Z</time>
      </trkpt>
      <trkpt lat="45.26936" lon="2.60534">
        <ele>904</ele>
        <time>2022-01-27T22:12:05Z</time>
      </trkpt>
      <trkpt lat="45.2692" lon="2.60512">
        <ele>903</ele>
        <time>2022-01-27T22:12:09Z</time>
      </trkpt>
      <trkpt lat="45.26897" lon="2.60455">
        <ele>901</ele>
        <time>2022-01-27T22:12:17Z</time>
      </trkpt>
      <trkpt lat="45.26791" lon="2.60284">
        <ele>894</ele>
        <time>2022-01-27T22:12:46Z</time>
      </trkpt>
      <trkpt lat="45.26773" lon="2.60264">
        <ele>893</ele>
        <time>2022-01-27T22:12:50Z</time>
      </trkpt>
      <trkpt lat="45.26759" lon="2.60255">
        <ele>893</ele>
        <time>2022-01-27T22:12:53Z</time>
      </trkpt>
      <trkpt lat="45.26742" lon="2.60252">
        <ele>893</ele>
        <time>2022-01-27T22:12:56Z</time>
      </trkpt>
      <trkpt lat="45.26725" lon="2.60251">
        <ele>892</ele>
        <time>2022-01-27T22:12:59Z</time>
      </trkpt>
      <trkpt lat="45.267" lon="2.6026">
        <ele>892</ele>
        <time>2022-01-27T22:13:03Z</time>
      </trkpt>
      <trkpt lat="45.2669" lon="2.6027">
        <ele>892</ele>
        <time>2022-01-27T22:13:06Z</time>
      </trkpt>
      <trkpt lat="45.26665" lon="2.6031">
        <ele>892</ele>
        <time>2022-01-27T22:13:12Z</time>
      </trkpt>
      <trkpt lat="45.26661" lon="2.60313">
        <ele>893</ele>
        <time>2022-01-27T22:13:13Z</time>
      </trkpt>
      <trkpt lat="45.26654" lon="2.60315">
        <ele>893</ele>
        <time>2022-01-27T22:13:14Z</time>
      </trkpt>
      <trkpt lat="45.26647" lon="2.60312">
        <ele>893</ele>
        <time>2022-01-27T22:13:16Z</time>
      </trkpt>
      <trkpt lat="45.26644" lon="2.60309">
        <ele>893</ele>
        <time>2022-01-27T22:13:16Z</time>
      </trkpt>
      <trkpt lat="45.26633" lon="2.60291">
        <ele>894</ele>
        <time>2022-01-27T22:13:19Z</time>
      </trkpt>
      <trkpt lat="45.26629" lon="2.60282">
        <ele>894</ele>
        <time>2022-01-27T22:13:21Z</time>
      </trkpt>
      <trkpt lat="45.26628" lon="2.60273">
        <ele>894</ele>
        <time>2022-01-27T22:13:22Z</time>
      </trkpt>
      <trkpt lat="45.2663" lon="2.60259">
        <ele>894</ele>
        <time>2022-01-27T22:13:24Z</time>
      </trkpt>
      <trkpt lat="45.26643" lon="2.60194">
        <ele>895</ele>
        <time>2022-01-27T22:13:32Z</time>
      </trkpt>
      <trkpt lat="45.26644" lon="2.60166">
        <ele>895</ele>
        <time>2022-01-27T22:13:36Z</time>
      </trkpt>
      <trkpt lat="45.26643" lon="2.60101">
        <ele>896</ele>
        <time>2022-01-27T22:13:44Z</time>
      </trkpt>
      <trkpt lat="45.26647" lon="2.60049">
        <ele>895</ele>
        <time>2022-01-27T22:13:50Z</time>
      </trkpt>
      <trkpt lat="45.26657" lon="2.59983">
        <ele>895</ele>
        <time>2022-01-27T22:13:59Z</time>
      </trkpt>
      <trkpt lat="45.26666" lon="2.59925">
        <ele>898</ele>
        <time>2022-01-27T22:14:06Z</time>
      </trkpt>
      <trkpt lat="45.26681" lon="2.59887">
        <ele>899</ele>
        <time>2022-01-27T22:14:12Z</time>
      </trkpt>
      <trkpt lat="45.26696" lon="2.59863">
        <ele>898</ele>
        <time>2022-01-27T22:14:16Z</time>
      </trkpt>
      <trkpt lat="45.26702" lon="2.59835">
        <ele>899</ele>
        <time>2022-01-27T22:14:19Z</time>
      </trkpt>
      <trkpt lat="45.2671" lon="2.5977">
        <ele>900</ele>
        <time>2022-01-27T22:14:28Z</time>
      </trkpt>
      <trkpt lat="45.26719" lon="2.59677">
        <ele>904</ele>
        <time>2022-01-27T22:14:39Z</time>
      </trkpt>
      <trkpt lat="45.26718" lon="2.59631">
        <ele>906</ele>
        <time>2022-01-27T22:14:45Z</time>
      </trkpt>
      <trkpt lat="45.26713" lon="2.59606">
        <ele>907</ele>
        <time>2022-01-27T22:14:48Z</time>
      </trkpt>
      <trkpt lat="45.26689" lon="2.59543">
        <ele>910</ele>
        <time>2022-01-27T22:14:57Z</time>
      </trkpt>
      <trkpt lat="45.2666" lon="2.59455">
        <ele>912</ele>
        <time>2022-01-27T22:15:09Z</time>
      </trkpt>
      <trkpt lat="45.26655" lon="2.59415">
        <ele>913</ele>
        <time>2022-01-27T22:15:15Z</time>
      </trkpt>
      <trkpt lat="45.26658" lon="2.59384">
        <ele>913</ele>
        <time>2022-01-27T22:15:18Z</time>
      </trkpt>
      <trkpt lat="45.26671" lon="2.59313">
        <ele>914</ele>
        <time>2022-01-27T22:15:28Z</time>
      </trkpt>
      <trkpt lat="45.26669" lon="2.59258">
        <ele>917</ele>
        <time>2022-01-27T22:15:35Z</time>
      </trkpt>
      <trkpt lat="45.26622" lon="2.5896">
        <ele>929</ele>
        <time>2022-01-27T22:16:13Z</time>
      </trkpt>
      <trkpt lat="45.26619" lon="2.58903">
        <ele>930</ele>
        <time>2022-01-27T22:16:20Z</time>
      </trkpt>
      <trkpt lat="45.26619" lon="2.58743">
        <ele>930</ele>
        <time>2022-01-27T22:16:40Z</time>
      </trkpt>
      <trkpt lat="45.26628" lon="2.58683">
        <ele>934</ele>
        <time>2022-01-27T22:16:48Z</time>
      </trkpt>
      <trkpt lat="45.26647" lon="2.58605">
        <ele>936</ele>
        <time>2022-01-27T22:16:58Z</time>
      </trkpt>
      <trkpt lat="45.26663" lon="2.58526">
        <ele>938</ele>
        <time>2022-01-27T22:17:08Z</time>
      </trkpt>
      <trkpt lat="45.26656" lon="2.58464">
        <ele>942</ele>
        <time>2022-01-27T22:17:16Z</time>
      </trkpt>
      <trkpt lat="45.26648" lon="2.58411">
        <ele>944</ele>
        <time>2022-01-27T22:17:23Z</time>
      </trkpt>
      <trkpt lat="45.26646" lon="2.58368">
        <ele>944</ele>
        <time>2022-01-27T22:17:28Z</time>
      </trkpt>
      <trkpt lat="45.26651" lon="2.58318">
        <ele>946</ele>
        <time>2022-01-27T22:17:35Z</time>
      </trkpt>
      <trkpt lat="45.26659" lon="2.58291">
        <ele>948</ele>
        <time>2022-01-27T22:17:38Z</time>
      </trkpt>
      <trkpt lat="45.26671" lon="2.58264">
        <ele>950</ele>
        <time>2022-01-27T22:17:42Z</time>
      </trkpt>
      <trkpt lat="45.26713" lon="2.58191">
        <ele>957</ele>
        <time>2022-01-27T22:17:54Z</time>
      </trkpt>
      <trkpt lat="45.26736" lon="2.58149">
        <ele>958</ele>
        <time>2022-01-27T22:18:01Z</time>
      </trkpt>
      <trkpt lat="45.26766" lon="2.58073">
        <ele>965</ele>
        <time>2022-01-27T22:18:12Z</time>
      </trkpt>
      <trkpt lat="45.26789" lon="2.57996">
        <ele>968</ele>
        <time>2022-01-27T22:18:22Z</time>
      </trkpt>
      <trkpt lat="45.26807" lon="2.57905">
        <ele>964</ele>
        <time>2022-01-27T22:18:34Z</time>
      </trkpt>
      <trkpt lat="45.26812" lon="2.57861">
        <ele>964</ele>
        <time>2022-01-27T22:18:40Z</time>
      </trkpt>
      <trkpt lat="45.26809" lon="2.57814">
        <ele>967</ele>
        <time>2022-01-27T22:18:46Z</time>
      </trkpt>
      <trkpt lat="45.268" lon="2.57765">
        <ele>971</ele>
        <time>2022-01-27T22:18:52Z</time>
      </trkpt>
      <trkpt lat="45.26777" lon="2.57657">
        <ele>974</ele>
        <time>2022-01-27T22:19:06Z</time>
      </trkpt>
      <trkpt lat="45.26768" lon="2.57593">
        <ele>974</ele>
        <time>2022-01-27T22:19:14Z</time>
      </trkpt>
      <trkpt lat="45.26754" lon="2.57473">
        <ele>972</ele>
        <time>2022-01-27T22:19:29Z</time>
      </trkpt>
      <trkpt lat="45.26744" lon="2.57435">
        <ele>973</ele>
        <time>2022-01-27T22:19:35Z</time>
      </trkpt>
      <trkpt lat="45.26731" lon="2.57405">
        <ele>973</ele>
        <time>2022-01-27T22:19:39Z</time>
      </trkpt>
      <trkpt lat="45.26696" lon="2.57369">
        <ele>975</ele>
        <time>2022-01-27T22:19:47Z</time>
      </trkpt>
      <trkpt lat="45.26579" lon="2.57277">
        <ele>982</ele>
        <time>2022-01-27T22:20:10Z</time>
      </trkpt>
      <trkpt lat="45.2656" lon="2.57268">
        <ele>982</ele>
        <time>2022-01-27T22:20:14Z</time>
      </trkpt>
      <trkpt lat="45.26546" lon="2.57266">
        <ele>982</ele>
        <time>2022-01-27T22:20:16Z</time>
      </trkpt>
      <trkpt lat="45.26493" lon="2.5727">
        <ele>986</ele>
        <time>2022-01-27T22:20:26Z</time>
      </trkpt>
      <trkpt lat="45.26432" lon="2.57256">
        <ele>989</ele>
        <time>2022-01-27T22:20:37Z</time>
      </trkpt>
      <trkpt lat="45.26407" lon="2.57245">
        <ele>990</ele>
        <time>2022-01-27T22:20:42Z</time>
      </trkpt>
      <trkpt lat="45.26337" lon="2.57196">
        <ele>993</ele>
        <time>2022-01-27T22:20:55Z</time>
      </trkpt>
      <trkpt lat="45.26289" lon="2.57179">
        <ele>997</ele>
        <time>2022-01-27T22:21:04Z</time>
      </trkpt>
      <trkpt lat="45.26217" lon="2.57144">
        <ele>1001</ele>
        <time>2022-01-27T22:21:18Z</time>
      </trkpt>
      <trkpt lat="45.26205" lon="2.5713">
        <ele>1001</ele>
        <time>2022-01-27T22:21:21Z</time>
      </trkpt>
      <trkpt lat="45.26194" lon="2.57113">
        <ele>1000</ele>
        <time>2022-01-27T22:21:23Z</time>
      </trkpt>
      <trkpt lat="45.26184" lon="2.57084">
        <ele>999</ele>
        <time>2022-01-27T22:21:27Z</time>
      </trkpt>
      <trkpt lat="45.26183" lon="2.57046">
        <ele>1004</ele>
        <time>2022-01-27T22:21:32Z</time>
      </trkpt>
      <trkpt lat="45.26191" lon="2.57011">
        <ele>1007</ele>
        <time>2022-01-27T22:21:37Z</time>
      </trkpt>
      <trkpt lat="45.26212" lon="2.56979">
        <ele>1010</ele>
        <time>2022-01-27T22:21:42Z</time>
      </trkpt>
      <trkpt lat="45.26255" lon="2.56935">
        <ele>1013</ele>
        <time>2022-01-27T22:21:52Z</time>
      </trkpt>
      <trkpt lat="45.26303" lon="2.5689">
        <ele>1019</ele>
        <time>2022-01-27T22:22:02Z</time>
      </trkpt>
      <trkpt lat="45.26333" lon="2.5688">
        <ele>1019</ele>
        <time>2022-01-27T22:22:07Z</time>
      </trkpt>
      <trkpt lat="45.26368" lon="2.56877">
        <ele>1016</ele>
        <time>2022-01-27T22:22:14Z</time>
      </trkpt>
      <trkpt lat="45.26397" lon="2.5687">
        <ele>1015</ele>
        <time>2022-01-27T22:22:19Z</time>
      </trkpt>
      <trkpt lat="45.26455" lon="2.56828">
        <ele>1016</ele>
        <time>2022-01-27T22:22:31Z</time>
      </trkpt>
      <trkpt lat="45.26471" lon="2.56813">
        <ele>1016</ele>
        <time>2022-01-27T22:22:34Z</time>
      </trkpt>
      <trkpt lat="45.26489" lon="2.56793">
        <ele>1017</ele>
        <time>2022-01-27T22:22:38Z</time>
      </trkpt>
      <trkpt lat="45.26504" lon="2.56766">
        <ele>1019</ele>
        <time>2022-01-27T22:22:42Z</time>
      </trkpt>
      <trkpt lat="45.26511" lon="2.56736">
        <ele>1021</ele>
        <time>2022-01-27T22:22:46Z</time>
      </trkpt>
      <trkpt lat="45.26511" lon="2.5671">
        <ele>1023</ele>
        <time>2022-01-27T22:22:50Z</time>
      </trkpt>
      <trkpt lat="45.26507" lon="2.56679">
        <ele>1025</ele>
        <time>2022-01-27T22:22:53Z</time>
      </trkpt>
      <trkpt lat="45.26497" lon="2.56651">
        <ele>1027</ele>
        <time>2022-01-27T22:22:57Z</time>
      </trkpt>
      <trkpt lat="45.26467" lon="2.56606">
        <ele>1031</ele>
        <time>2022-01-27T22:23:05Z</time>
      </trkpt>
      <trkpt lat="45.26429" lon="2.56556">
        <ele>1034</ele>
        <time>2022-01-27T22:23:14Z</time>
      </trkpt>
      <trkpt lat="45.26421" lon="2.56537">
        <ele>1035</ele>
        <time>2022-01-27T22:23:17Z</time>
      </trkpt>
      <trkpt lat="45.26416" lon="2.56515">
        <ele>1036</ele>
        <time>2022-01-27T22:23:20Z</time>
      </trkpt>
      <trkpt lat="45.26414" lon="2.56496">
        <ele>1037</ele>
        <time>2022-01-27T22:23:22Z</time>
      </trkpt>
      <trkpt lat="45.26428" lon="2.56277">
        <ele>1041</ele>
        <time>2022-01-27T22:23:50Z</time>
      </trkpt>
      <trkpt lat="45.26417" lon="2.56213">
        <ele>1043</ele>
        <time>2022-01-27T22:23:58Z</time>
      </trkpt>
      <trkpt lat="45.26405" lon="2.56191">
        <ele>1043</ele>
        <time>2022-01-27T22:24:02Z</time>
      </trkpt>
      <trkpt lat="45.26392" lon="2.56173">
        <ele>1043</ele>
        <time>2022-01-27T22:24:05Z</time>
      </trkpt>
      <trkpt lat="45.26366" lon="2.56154">
        <ele>1040</ele>
        <time>2022-01-27T22:24:10Z</time>
      </trkpt>
      <trkpt lat="45.26343" lon="2.56149">
        <ele>1038</ele>
        <time>2022-01-27T22:24:14Z</time>
      </trkpt>
      <trkpt lat="45.26292" lon="2.56153">
        <ele>1036</ele>
        <time>2022-01-27T22:24:23Z</time>
      </trkpt>
      <trkpt lat="45.26263" lon="2.56142">
        <ele>1034</ele>
        <time>2022-01-27T22:24:29Z</time>
      </trkpt>
      <trkpt lat="45.26247" lon="2.56128">
        <ele>1033</ele>
        <time>2022-01-27T22:24:32Z</time>
      </trkpt>
      <trkpt lat="45.26231" lon="2.56107">
        <ele>1033</ele>
        <time>2022-01-27T22:24:36Z</time>
      </trkpt>
      <trkpt lat="45.26219" lon="2.56084">
        <ele>1032</ele>
        <time>2022-01-27T22:24:40Z</time>
      </trkpt>
      <trkpt lat="45.26208" lon="2.56045">
        <ele>1031</ele>
        <time>2022-01-27T22:24:45Z</time>
      </trkpt>
      <trkpt lat="45.26202" lon="2.55951">
        <ele>1028</ele>
        <time>2022-01-27T22:24:57Z</time>
      </trkpt>
      <trkpt lat="45.26188" lon="2.55883">
        <ele>1026</ele>
        <time>2022-01-27T22:25:06Z</time>
      </trkpt>
      <trkpt lat="45.2617" lon="2.55836">
        <ele>1025</ele>
        <time>2022-01-27T22:25:12Z</time>
      </trkpt>
      <trkpt lat="45.26128" lon="2.55738">
        <ele>1019</ele>
        <time>2022-01-27T22:25:27Z</time>
      </trkpt>
      <trkpt lat="45.26064" lon="2.5561">
        <ele>1012</ele>
        <time>2022-01-27T22:25:46Z</time>
      </trkpt>
      <trkpt lat="45.26025" lon="2.55524">
        <ele>1013</ele>
        <time>2022-01-27T22:25:59Z</time>
      </trkpt>
      <trkpt lat="45.2602" lon="2.55505">
        <ele>1013</ele>
        <time>2022-01-27T22:26:02Z</time>
      </trkpt>
      <trkpt lat="45.26017" lon="2.55482">
        <ele>1014</ele>
        <time>2022-01-27T22:26:05Z</time>
      </trkpt>
      <trkpt lat="45.26016" lon="2.5543">
        <ele>1014</ele>
        <time>2022-01-27T22:26:11Z</time>
      </trkpt>
      <trkpt lat="45.26001" lon="2.55329">
        <ele>1015</ele>
        <time>2022-01-27T22:26:24Z</time>
      </trkpt>
      <trkpt lat="45.25986" lon="2.55246">
        <ele>1016</ele>
        <time>2022-01-27T22:26:35Z</time>
      </trkpt>
      <trkpt lat="45.25973" lon="2.55205">
        <ele>1015</ele>
        <time>2022-01-27T22:26:40Z</time>
      </trkpt>
      <trkpt lat="45.25962" lon="2.55174">
        <ele>1014</ele>
        <time>2022-01-27T22:26:45Z</time>
      </trkpt>
      <trkpt lat="45.25945" lon="2.55149">
        <ele>1014</ele>
        <time>2022-01-27T22:26:49Z</time>
      </trkpt>
      <trkpt lat="45.25911" lon="2.55114">
        <ele>1013</ele>
        <time>2022-01-27T22:26:57Z</time>
      </trkpt>
      <trkpt lat="45.25873" lon="2.55065">
        <ele>1012</ele>
        <time>2022-01-27T22:27:06Z</time>
      </trkpt>
      <trkpt lat="45.25858" lon="2.55037">
        <ele>1012</ele>
        <time>2022-01-27T22:27:10Z</time>
      </trkpt>
      <trkpt lat="45.2585" lon="2.55015">
        <ele>1012</ele>
        <time>2022-01-27T22:27:13Z</time>
      </trkpt>
      <trkpt lat="45.25841" lon="2.54972">
        <ele>1011</ele>
        <time>2022-01-27T22:27:19Z</time>
      </trkpt>
      <trkpt lat="45.25836" lon="2.54915">
        <ele>1010</ele>
        <time>2022-01-27T22:27:26Z</time>
      </trkpt>
      <trkpt lat="45.25822" lon="2.54646">
        <ele>1005</ele>
        <time>2022-01-27T22:28:00Z</time>
      </trkpt>
      <trkpt lat="45.25817" lon="2.5457">
        <ele>1003</ele>
        <time>2022-01-27T22:28:09Z</time>
      </trkpt>
      <trkpt lat="45.258" lon="2.54487">
        <ele>1001</ele>
        <time>2022-01-27T22:28:20Z</time>
      </trkpt>
      <trkpt lat="45.2578" lon="2.54403">
        <ele>1001</ele>
        <time>2022-01-27T22:28:31Z</time>
      </trkpt>
      <trkpt lat="45.25759" lon="2.54279">
        <ele>998</ele>
        <time>2022-01-27T22:28:47Z</time>
      </trkpt>
      <trkpt lat="45.25745" lon="2.54228">
        <ele>996</ele>
        <time>2022-01-27T22:28:54Z</time>
      </trkpt>
      <trkpt lat="45.25711" lon="2.54174">
        <ele>994</ele>
        <time>2022-01-27T22:29:03Z</time>
      </trkpt>
      <trkpt lat="45.25642" lon="2.54114">
        <ele>990</ele>
        <time>2022-01-27T22:29:18Z</time>
      </trkpt>
      <trkpt lat="45.25532" lon="2.54035">
        <ele>982</ele>
        <time>2022-01-27T22:29:39Z</time>
      </trkpt>
      <trkpt lat="45.25501" lon="2.54018">
        <ele>980</ele>
        <time>2022-01-27T22:29:45Z</time>
      </trkpt>
      <trkpt lat="45.25429" lon="2.53987">
        <ele>978</ele>
        <time>2022-01-27T22:29:59Z</time>
      </trkpt>
      <trkpt lat="45.25344" lon="2.53959">
        <ele>974</ele>
        <time>2022-01-27T22:30:14Z</time>
      </trkpt>
      <trkpt lat="45.25335" lon="2.53958">
        <ele>974</ele>
        <time>2022-01-27T22:30:16Z</time>
      </trkpt>
      <trkpt lat="45.25326" lon="2.5396">
        <ele>974</ele>
        <time>2022-01-27T22:30:18Z</time>
      </trkpt>
      <trkpt lat="45.25287" lon="2.53982">
        <ele>973</ele>
        <time>2022-01-27T22:30:25Z</time>
      </trkpt>
      <trkpt lat="45.25277" lon="2.5398">
        <ele>972</ele>
        <time>2022-01-27T22:30:27Z</time>
      </trkpt>
      <trkpt lat="45.25249" lon="2.53966">
        <ele>970</ele>
        <time>2022-01-27T22:30:32Z</time>
      </trkpt>
      <trkpt lat="45.252" lon="2.53937">
        <ele>972</ele>
        <time>2022-01-27T22:30:42Z</time>
      </trkpt>
      <trkpt lat="45.25188" lon="2.53924">
        <ele>972</ele>
        <time>2022-01-27T22:30:44Z</time>
      </trkpt>
      <trkpt lat="45.25144" lon="2.53841">
        <ele>968</ele>
        <time>2022-01-27T22:30:57Z</time>
      </trkpt>
      <trkpt lat="45.25132" lon="2.53823">
        <ele>967</ele>
        <time>2022-01-27T22:31:00Z</time>
      </trkpt>
      <trkpt lat="45.2512" lon="2.53809">
        <ele>967</ele>
        <time>2022-01-27T22:31:03Z</time>
      </trkpt>
      <trkpt lat="45.25068" lon="2.53768">
        <ele>966</ele>
        <time>2022-01-27T22:31:14Z</time>
      </trkpt>
      <trkpt lat="45.24998" lon="2.53717">
        <ele>967</ele>
        <time>2022-01-27T22:31:28Z</time>
      </trkpt>
      <trkpt lat="45.24965" lon="2.53698">
        <ele>964</ele>
        <time>2022-01-27T22:31:34Z</time>
      </trkpt>
      <trkpt lat="45.24942" lon="2.53692">
        <ele>963</ele>
        <time>2022-01-27T22:31:38Z</time>
      </trkpt>
      <trkpt lat="45.24932" lon="2.53694">
        <ele>963</ele>
        <time>2022-01-27T22:31:40Z</time>
      </trkpt>
      <trkpt lat="45.24913" lon="2.53701">
        <ele>964</ele>
        <time>2022-01-27T22:31:43Z</time>
      </trkpt>
      <trkpt lat="45.24867" lon="2.5373">
        <ele>965</ele>
        <time>2022-01-27T22:31:52Z</time>
      </trkpt>
      <trkpt lat="45.248" lon="2.53756">
        <ele>962</ele>
        <time>2022-01-27T22:32:05Z</time>
      </trkpt>
      <trkpt lat="45.24792" lon="2.53762">
        <ele>961</ele>
        <time>2022-01-27T22:32:06Z</time>
      </trkpt>
      <trkpt lat="45.24784" lon="2.5377">
        <ele>961</ele>
        <time>2022-01-27T22:32:08Z</time>
      </trkpt>
      <trkpt lat="45.24768" lon="2.53791">
        <ele>961</ele>
        <time>2022-01-27T22:32:12Z</time>
      </trkpt>
      <trkpt lat="45.24715" lon="2.53888">
        <ele>961</ele>
        <time>2022-01-27T22:32:27Z</time>
      </trkpt>
      <trkpt lat="45.24637" lon="2.54069">
        <ele>963</ele>
        <time>2022-01-27T22:32:54Z</time>
      </trkpt>
      <trkpt lat="45.24624" lon="2.54093">
        <ele>963</ele>
        <time>2022-01-27T22:32:58Z</time>
      </trkpt>
      <trkpt lat="45.24618" lon="2.541">
        <ele>963</ele>
        <time>2022-01-27T22:32:59Z</time>
      </trkpt>
      <trkpt lat="45.24601" lon="2.54112">
        <ele>962</ele>
        <time>2022-01-27T22:33:02Z</time>
      </trkpt>
      <trkpt lat="45.24583" lon="2.54118">
        <ele>960</ele>
        <time>2022-01-27T22:33:06Z</time>
      </trkpt>
      <trkpt lat="45.24558" lon="2.54115">
        <ele>960</ele>
        <time>2022-01-27T22:33:10Z</time>
      </trkpt>
      <trkpt lat="45.24349" lon="2.54066">
        <ele>958</ele>
        <time>2022-01-27T22:33:48Z</time>
      </trkpt>
      <trkpt lat="45.24309" lon="2.54065">
        <ele>957</ele>
        <time>2022-01-27T22:33:55Z</time>
      </trkpt>
      <trkpt lat="45.24283" lon="2.54074">
        <ele>956</ele>
        <time>2022-01-27T22:34:00Z</time>
      </trkpt>
      <trkpt lat="45.24245" lon="2.54106">
        <ele>954</ele>
        <time>2022-01-27T22:34:08Z</time>
      </trkpt>
      <trkpt lat="45.24221" lon="2.54122">
        <ele>951</ele>
        <time>2022-01-27T22:34:12Z</time>
      </trkpt>
      <trkpt lat="45.24193" lon="2.54204">
        <ele>952</ele>
        <time>2022-01-27T22:34:24Z</time>
      </trkpt>
      <trkpt lat="45.24167" lon="2.54217">
        <ele>951</ele>
        <time>2022-01-27T22:34:29Z</time>
      </trkpt>
      <trkpt lat="45.24114" lon="2.54221">
        <ele>949</ele>
        <time>2022-01-27T22:34:38Z</time>
      </trkpt>
      <trkpt lat="45.24079" lon="2.54238">
        <ele>951</ele>
        <time>2022-01-27T22:34:45Z</time>
      </trkpt>
      <trkpt lat="45.2405" lon="2.54257">
        <ele>953</ele>
        <time>2022-01-27T22:34:50Z</time>
      </trkpt>
      <trkpt lat="45.23975" lon="2.54255">
        <ele>943</ele>
        <time>2022-01-27T22:35:04Z</time>
      </trkpt>
      <trkpt lat="45.23955" lon="2.54271">
        <ele>942</ele>
        <time>2022-01-27T22:35:08Z</time>
      </trkpt>
      <trkpt lat="45.23929" lon="2.54322">
        <ele>948</ele>
        <time>2022-01-27T22:35:16Z</time>
      </trkpt>
      <trkpt lat="45.23854" lon="2.54496">
        <ele>956</ele>
        <time>2022-01-27T22:35:41Z</time>
      </trkpt>
      <trkpt lat="45.23787" lon="2.54622">
        <ele>958</ele>
        <time>2022-01-27T22:36:01Z</time>
      </trkpt>
      <trkpt lat="45.2378" lon="2.54659">
        <ele>961</ele>
        <time>2022-01-27T22:36:06Z</time>
      </trkpt>
      <trkpt lat="45.23756" lon="2.54687">
        <ele>961</ele>
        <time>2022-01-27T22:36:11Z</time>
      </trkpt>
      <trkpt lat="45.23678" lon="2.54808">
        <ele>969</ele>
        <time>2022-01-27T22:36:32Z</time>
      </trkpt>
      <trkpt lat="45.23657" lon="2.54873">
        <ele>973</ele>
        <time>2022-01-27T22:36:41Z</time>
      </trkpt>
      <trkpt lat="45.23657" lon="2.55044">
        <ele>981</ele>
        <time>2022-01-27T22:37:02Z</time>
      </trkpt>
      <trkpt lat="45.23635" lon="2.55302">
        <ele>991</ele>
        <time>2022-01-27T22:37:35Z</time>
      </trkpt>
      <trkpt lat="45.23588" lon="2.55437">
        <ele>995</ele>
        <time>2022-01-27T22:37:54Z</time>
      </trkpt>
      <trkpt lat="45.23566" lon="2.55475">
        <ele>997</ele>
        <time>2022-01-27T22:38:00Z</time>
      </trkpt>
      <trkpt lat="45.23528" lon="2.55507">
        <ele>996</ele>
        <time>2022-01-27T22:38:08Z</time>
      </trkpt>
      <trkpt lat="45.2335" lon="2.55632">
        <ele>994</ele>
        <time>2022-01-27T22:38:43Z</time>
      </trkpt>
      <trkpt lat="45.23289" lon="2.55688">
        <ele>993</ele>
        <time>2022-01-27T22:38:56Z</time>
      </trkpt>
      <trkpt lat="45.23281" lon="2.55714">
        <ele>994</ele>
        <time>2022-01-27T22:39:00Z</time>
      </trkpt>
      <trkpt lat="45.23268" lon="2.55806">
        <ele>1000</ele>
        <time>2022-01-27T22:39:11Z</time>
      </trkpt>
      <trkpt lat="45.2319" lon="2.55986">
        <ele>1012</ele>
        <time>2022-01-27T22:39:38Z</time>
      </trkpt>
      <trkpt lat="45.22975" lon="2.56309">
        <ele>1018</ele>
        <time>2022-01-27T22:40:34Z</time>
      </trkpt>
      <trkpt lat="45.22791" lon="2.5643">
        <ele>1013</ele>
        <time>2022-01-27T22:41:10Z</time>
      </trkpt>
      <trkpt lat="45.22753" lon="2.56441">
        <ele>1011</ele>
        <time>2022-01-27T22:41:17Z</time>
      </trkpt>
      <trkpt lat="45.22668" lon="2.5652">
        <ele>1016</ele>
        <time>2022-01-27T22:41:35Z</time>
      </trkpt>
      <trkpt lat="45.22545" lon="2.56662">
        <ele>1025</ele>
        <time>2022-01-27T22:42:03Z</time>
      </trkpt>
      <trkpt lat="45.22474" lon="2.56771">
        <ele>1030</ele>
        <time>2022-01-27T22:42:21Z</time>
      </trkpt>
      <trkpt lat="45.22334" lon="2.56956">
        <ele>1023</ele>
        <time>2022-01-27T22:42:55Z</time>
      </trkpt>
      <trkpt lat="45.22248" lon="2.57277">
        <ele>1043</ele>
        <time>2022-01-27T22:43:38Z</time>
      </trkpt>
      <trkpt lat="45.22173" lon="2.57469">
        <ele>1049</ele>
        <time>2022-01-27T22:44:06Z</time>
      </trkpt>
      <trkpt lat="45.22078" lon="2.57596">
        <ele>1046</ele>
        <time>2022-01-27T22:44:29Z</time>
      </trkpt>
      <trkpt lat="45.21974" lon="2.57717">
        <ele>1046</ele>
        <time>2022-01-27T22:44:53Z</time>
      </trkpt>
      <trkpt lat="45.21921" lon="2.57811">
        <ele>1048</ele>
        <time>2022-01-27T22:45:08Z</time>
      </trkpt>
      <trkpt lat="45.21733" lon="2.57932">
        <ele>1054</ele>
        <time>2022-01-27T22:45:45Z</time>
      </trkpt>
      <trkpt lat="45.21639" lon="2.57932">
        <ele>1059</ele>
        <time>2022-01-27T22:46:02Z</time>
      </trkpt>
      <trkpt lat="45.21609" lon="2.57925">
        <ele>1059</ele>
        <time>2022-01-27T22:46:07Z</time>
      </trkpt>
      <trkpt lat="45.21577" lon="2.57903">
        <ele>1058</ele>
        <time>2022-01-27T22:46:13Z</time>
      </trkpt>
      <trkpt lat="45.21552" lon="2.57874">
        <ele>1057</ele>
        <time>2022-01-27T22:46:19Z</time>
      </trkpt>
      <trkpt lat="45.21486" lon="2.57868">
        <ele>1061</ele>
        <time>2022-01-27T22:46:31Z</time>
      </trkpt>
      <trkpt lat="45.21469" lon="2.57863">
        <ele>1061</ele>
        <time>2022-01-27T22:46:34Z</time>
      </trkpt>
      <trkpt lat="45.21456" lon="2.57854">
        <ele>1061</ele>
        <time>2022-01-27T22:46:37Z</time>
      </trkpt>
      <trkpt lat="45.21433" lon="2.57831">
        <ele>1061</ele>
        <time>2022-01-27T22:46:42Z</time>
      </trkpt>
      <trkpt lat="45.21423" lon="2.57825">
        <ele>1062</ele>
        <time>2022-01-27T22:46:44Z</time>
      </trkpt>
      <trkpt lat="45.21412" lon="2.57825">
        <ele>1063</ele>
        <time>2022-01-27T22:46:46Z</time>
      </trkpt>
      <trkpt lat="45.21403" lon="2.57828">
        <ele>1063</ele>
        <time>2022-01-27T22:46:47Z</time>
      </trkpt>
      <trkpt lat="45.21392" lon="2.57838">
        <ele>1064</ele>
        <time>2022-01-27T22:46:49Z</time>
      </trkpt>
      <trkpt lat="45.21251" lon="2.5797">
        <ele>1076</ele>
        <time>2022-01-27T22:47:20Z</time>
      </trkpt>
      <trkpt lat="45.2121" lon="2.57973">
        <ele>1075</ele>
        <time>2022-01-27T22:47:27Z</time>
      </trkpt>
      <trkpt lat="45.21181" lon="2.58001">
        <ele>1076</ele>
        <time>2022-01-27T22:47:33Z</time>
      </trkpt>
      <trkpt lat="45.21159" lon="2.58063">
        <ele>1080</ele>
        <time>2022-01-27T22:47:42Z</time>
      </trkpt>
      <trkpt lat="45.21102" lon="2.58134">
        <ele>1083</ele>
        <time>2022-01-27T22:47:55Z</time>
      </trkpt>
      <trkpt lat="45.21017" lon="2.5819">
        <ele>1082</ele>
        <time>2022-01-27T22:48:12Z</time>
      </trkpt>
      <trkpt lat="45.20948" lon="2.58263">
        <ele>1083</ele>
        <time>2022-01-27T22:48:27Z</time>
      </trkpt>
      <trkpt lat="45.20894" lon="2.58393">
        <ele>1091</ele>
        <time>2022-01-27T22:48:46Z</time>
      </trkpt>
      <trkpt lat="45.20859" lon="2.58468">
        <ele>1093</ele>
        <time>2022-01-27T22:48:57Z</time>
      </trkpt>
      <trkpt lat="45.2083" lon="2.58564">
        <ele>1099</ele>
        <time>2022-01-27T22:49:11Z</time>
      </trkpt>
      <trkpt lat="45.20774" lon="2.58652">
        <ele>1105</ele>
        <time>2022-01-27T22:49:25Z</time>
      </trkpt>
      <trkpt lat="45.20746" lon="2.58675">
        <ele>1104</ele>
        <time>2022-01-27T22:49:31Z</time>
      </trkpt>
      <trkpt lat="45.2071" lon="2.58723">
        <ele>1109</ele>
        <time>2022-01-27T22:49:40Z</time>
      </trkpt>
      <trkpt lat="45.20653" lon="2.58759">
        <ele>1108</ele>
        <time>2022-01-27T22:49:51Z</time>
      </trkpt>
      <trkpt lat="45.20635" lon="2.58784">
        <ele>1111</ele>
        <time>2022-01-27T22:49:56Z</time>
      </trkpt>
      <trkpt lat="45.20615" lon="2.5886">
        <ele>1116</ele>
        <time>2022-01-27T22:50:06Z</time>
      </trkpt>
      <trkpt lat="45.20605" lon="2.58891">
        <ele>1117</ele>
        <time>2022-01-27T22:50:10Z</time>
      </trkpt>
      <trkpt lat="45.20589" lon="2.58924">
        <ele>1118</ele>
        <time>2022-01-27T22:50:15Z</time>
      </trkpt>
      <trkpt lat="45.20559" lon="2.58947">
        <ele>1120</ele>
        <time>2022-01-27T22:50:21Z</time>
      </trkpt>
      <trkpt lat="45.20549" lon="2.5896">
        <ele>1121</ele>
        <time>2022-01-27T22:50:23Z</time>
      </trkpt>
      <trkpt lat="45.20523" lon="2.59009">
        <ele>1125</ele>
        <time>2022-01-27T22:50:31Z</time>
      </trkpt>
      <trkpt lat="45.2051" lon="2.5904">
        <ele>1126</ele>
        <time>2022-01-27T22:50:36Z</time>
      </trkpt>
      <trkpt lat="45.20498" lon="2.59076">
        <ele>1128</ele>
        <time>2022-01-27T22:50:41Z</time>
      </trkpt>
      <trkpt lat="45.20477" lon="2.59205">
        <ele>1134</ele>
        <time>2022-01-27T22:50:57Z</time>
      </trkpt>
      <trkpt lat="45.20474" lon="2.59244">
        <ele>1134</ele>
        <time>2022-01-27T22:51:02Z</time>
      </trkpt>
      <trkpt lat="45.2047" lon="2.59257">
        <ele>1135</ele>
        <time>2022-01-27T22:51:04Z</time>
      </trkpt>
      <trkpt lat="45.2046" lon="2.59265">
        <ele>1135</ele>
        <time>2022-01-27T22:51:06Z</time>
      </trkpt>
      <trkpt lat="45.20453" lon="2.59265">
        <ele>1135</ele>
        <time>2022-01-27T22:51:07Z</time>
      </trkpt>
      <trkpt lat="45.20448" lon="2.59263">
        <ele>1135</ele>
        <time>2022-01-27T22:51:08Z</time>
      </trkpt>
      <trkpt lat="45.20438" lon="2.59257">
        <ele>1135</ele>
        <time>2022-01-27T22:51:10Z</time>
      </trkpt>
      <trkpt lat="45.20431" lon="2.5925">
        <ele>1135</ele>
        <time>2022-01-27T22:51:12Z</time>
      </trkpt>
      <trkpt lat="45.20424" lon="2.59237">
        <ele>1135</ele>
        <time>2022-01-27T22:51:14Z</time>
      </trkpt>
      <trkpt lat="45.20398" lon="2.59049">
        <ele>1143</ele>
        <time>2022-01-27T22:51:38Z</time>
      </trkpt>
      <trkpt lat="45.20363" lon="2.58957">
        <ele>1150</ele>
        <time>2022-01-27T22:51:51Z</time>
      </trkpt>
      <trkpt lat="45.20345" lon="2.58857">
        <ele>1155</ele>
        <time>2022-01-27T22:52:04Z</time>
      </trkpt>
      <trkpt lat="45.2033" lon="2.58816">
        <ele>1157</ele>
        <time>2022-01-27T22:52:10Z</time>
      </trkpt>
      <trkpt lat="45.20296" lon="2.5879">
        <ele>1161</ele>
        <time>2022-01-27T22:52:16Z</time>
      </trkpt>
      <trkpt lat="45.20254" lon="2.58735">
        <ele>1164</ele>
        <time>2022-01-27T22:52:27Z</time>
      </trkpt>
      <trkpt lat="45.20214" lon="2.58703">
        <ele>1168</ele>
        <time>2022-01-27T22:52:35Z</time>
      </trkpt>
      <trkpt lat="45.20202" lon="2.58644">
        <ele>1167</ele>
        <time>2022-01-27T22:52:42Z</time>
      </trkpt>
      <trkpt lat="45.20152" lon="2.58558">
        <ele>1169</ele>
        <time>2022-01-27T22:52:56Z</time>
      </trkpt>
      <trkpt lat="45.20105" lon="2.58521">
        <ele>1174</ele>
        <time>2022-01-27T22:53:06Z</time>
      </trkpt>
      <trkpt lat="45.20026" lon="2.58447">
        <ele>1179</ele>
        <time>2022-01-27T22:53:23Z</time>
      </trkpt>
      <trkpt lat="45.19943" lon="2.5842">
        <ele>1185</ele>
        <time>2022-01-27T22:53:38Z</time>
      </trkpt>
      <trkpt lat="45.19905" lon="2.58422">
        <ele>1188</ele>
        <time>2022-01-27T22:53:45Z</time>
      </trkpt>
      <trkpt lat="45.19807" lon="2.58452">
        <ele>1194</ele>
        <time>2022-01-27T22:54:03Z</time>
      </trkpt>
      <trkpt lat="45.19716" lon="2.58464">
        <ele>1197</ele>
        <time>2022-01-27T22:54:19Z</time>
      </trkpt>
      <trkpt lat="45.19662" lon="2.58481">
        <ele>1201</ele>
        <time>2022-01-27T22:54:29Z</time>
      </trkpt>
      <trkpt lat="45.19595" lon="2.58516">
        <ele>1205</ele>
        <time>2022-01-27T22:54:41Z</time>
      </trkpt>
      <trkpt lat="45.19546" lon="2.58516">
        <ele>1205</ele>
        <time>2022-01-27T22:54:50Z</time>
      </trkpt>
      <trkpt lat="45.19475" lon="2.58561">
        <ele>1208</ele>
        <time>2022-01-27T22:55:04Z</time>
      </trkpt>
      <trkpt lat="45.19381" lon="2.58582">
        <ele>1210</ele>
        <time>2022-01-27T22:55:21Z</time>
      </trkpt>
      <trkpt lat="45.19351" lon="2.58626">
        <ele>1211</ele>
        <time>2022-01-27T22:55:29Z</time>
      </trkpt>
      <trkpt lat="45.19198" lon="2.58885">
        <ele>1215</ele>
        <time>2022-01-27T22:56:11Z</time>
      </trkpt>
      <trkpt lat="45.19128" lon="2.58983">
        <ele>1216</ele>
        <time>2022-01-27T22:56:28Z</time>
      </trkpt>
      <trkpt lat="45.19097" lon="2.59057">
        <ele>1217</ele>
        <time>2022-01-27T22:56:39Z</time>
      </trkpt>
      <trkpt lat="45.19068" lon="2.59109">
        <ele>1215</ele>
        <time>2022-01-27T22:56:48Z</time>
      </trkpt>
      <trkpt lat="45.19057" lon="2.59119">
        <ele>1212</ele>
        <time>2022-01-27T22:56:50Z</time>
      </trkpt>
      <trkpt lat="45.19036" lon="2.59132">
        <ele>1207</ele>
        <time>2022-01-27T22:56:54Z</time>
      </trkpt>
      <trkpt lat="45.18989" lon="2.59217">
        <ele>1210</ele>
        <time>2022-01-27T22:57:07Z</time>
      </trkpt>
      <trkpt lat="45.18981" lon="2.59227">
        <ele>1211</ele>
        <time>2022-01-27T22:57:09Z</time>
      </trkpt>
      <trkpt lat="45.18908" lon="2.59233">
        <ele>1199</ele>
        <time>2022-01-27T22:57:22Z</time>
      </trkpt>
      <trkpt lat="45.1888" lon="2.59248">
        <ele>1195</ele>
        <time>2022-01-27T22:57:28Z</time>
      </trkpt>
      <trkpt lat="45.18838" lon="2.59303">
        <ele>1201</ele>
        <time>2022-01-27T22:57:38Z</time>
      </trkpt>
      <trkpt lat="45.18799" lon="2.59319">
        <ele>1192</ele>
        <time>2022-01-27T22:57:45Z</time>
      </trkpt>
      <trkpt lat="45.18755" lon="2.59355">
        <ele>1187</ele>
        <time>2022-01-27T22:57:54Z</time>
      </trkpt>
      <trkpt lat="45.18724" lon="2.59402">
        <ele>1188</ele>
        <time>2022-01-27T22:58:02Z</time>
      </trkpt>
      <trkpt lat="45.18656" lon="2.59445">
        <ele>1173</ele>
        <time>2022-01-27T22:58:15Z</time>
      </trkpt>
      <trkpt lat="45.18634" lon="2.59476">
        <ele>1169</ele>
        <time>2022-01-27T22:58:21Z</time>
      </trkpt>
      <trkpt lat="45.18624" lon="2.59512">
        <ele>1170</ele>
        <time>2022-01-27T22:58:26Z</time>
      </trkpt>
      <trkpt lat="45.18624" lon="2.59572">
        <ele>1175</ele>
        <time>2022-01-27T22:58:33Z</time>
      </trkpt>
      <trkpt lat="45.18601" lon="2.59689">
        <ele>1168</ele>
        <time>2022-01-27T22:58:49Z</time>
      </trkpt>
      <trkpt lat="45.18599" lon="2.59742">
        <ele>1168</ele>
        <time>2022-01-27T22:58:55Z</time>
      </trkpt>
      <trkpt lat="45.18591" lon="2.59787">
        <ele>1168</ele>
        <time>2022-01-27T22:59:01Z</time>
      </trkpt>
      <trkpt lat="45.18578" lon="2.59825">
        <ele>1166</ele>
        <time>2022-01-27T22:59:06Z</time>
      </trkpt>
      <trkpt lat="45.18516" lon="2.59941">
        <ele>1160</ele>
        <time>2022-01-27T22:59:25Z</time>
      </trkpt>
      <trkpt lat="45.18458" lon="2.59996">
        <ele>1155</ele>
        <time>2022-01-27T22:59:37Z</time>
      </trkpt>
      <trkpt lat="45.18389" lon="2.60028">
        <ele>1155</ele>
        <time>2022-01-27T22:59:50Z</time>
      </trkpt>
      <trkpt lat="45.18355" lon="2.60023">
        <ele>1155</ele>
        <time>2022-01-27T22:59:56Z</time>
      </trkpt>
      <trkpt lat="45.18344" lon="2.60009">
        <ele>1152</ele>
        <time>2022-01-27T22:59:59Z</time>
      </trkpt>
      <trkpt lat="45.18341" lon="2.5997">
        <ele>1141</ele>
        <time>2022-01-27T23:00:04Z</time>
      </trkpt>
      <trkpt lat="45.18334" lon="2.59942">
        <ele>1134</ele>
        <time>2022-01-27T23:00:07Z</time>
      </trkpt>
      <trkpt lat="45.18291" lon="2.5987">
        <ele>1122</ele>
        <time>2022-01-27T23:00:19Z</time>
      </trkpt>
      <trkpt lat="45.18273" lon="2.59847">
        <ele>1117</ele>
        <time>2022-01-27T23:00:23Z</time>
      </trkpt>
      <trkpt lat="45.18247" lon="2.59833">
        <ele>1115</ele>
        <time>2022-01-27T23:00:28Z</time>
      </trkpt>
      <trkpt lat="45.1813" lon="2.59823">
        <ele>1103</ele>
        <time>2022-01-27T23:00:49Z</time>
      </trkpt>
      <trkpt lat="45.18071" lon="2.59842">
        <ele>1099</ele>
        <time>2022-01-27T23:01:00Z</time>
      </trkpt>
      <trkpt lat="45.18009" lon="2.59874">
        <ele>1091</ele>
        <time>2022-01-27T23:01:12Z</time>
      </trkpt>
      <trkpt lat="45.17956" lon="2.59928">
        <ele>1089</ele>
        <time>2022-01-27T23:01:23Z</time>
      </trkpt>
      <trkpt lat="45.17817" lon="2.60058">
        <ele>1081</ele>
        <time>2022-01-27T23:01:53Z</time>
      </trkpt>
      <trkpt lat="45.17743" lon="2.60071">
        <ele>1069</ele>
        <time>2022-01-27T23:02:06Z</time>
      </trkpt>
      <trkpt lat="45.17702" lon="2.60091">
        <ele>1067</ele>
        <time>2022-01-27T23:02:14Z</time>
      </trkpt>
      <trkpt lat="45.17681" lon="2.60111">
        <ele>1070</ele>
        <time>2022-01-27T23:02:18Z</time>
      </trkpt>
      <trkpt lat="45.17619" lon="2.60094">
        <ele>1050</ele>
        <time>2022-01-27T23:02:30Z</time>
      </trkpt>
      <trkpt lat="45.1759" lon="2.60105">
        <ele>1050</ele>
        <time>2022-01-27T23:02:35Z</time>
      </trkpt>
      <trkpt lat="45.17526" lon="2.60136">
        <ele>1044</ele>
        <time>2022-01-27T23:02:47Z</time>
      </trkpt>
      <trkpt lat="45.17489" lon="2.60158">
        <ele>1039</ele>
        <time>2022-01-27T23:02:54Z</time>
      </trkpt>
      <trkpt lat="45.17461" lon="2.60192">
        <ele>1041</ele>
        <time>2022-01-27T23:03:01Z</time>
      </trkpt>
      <trkpt lat="45.1744" lon="2.6021">
        <ele>1040</ele>
        <time>2022-01-27T23:03:05Z</time>
      </trkpt>
      <trkpt lat="45.17412" lon="2.60242">
        <ele>1042</ele>
        <time>2022-01-27T23:03:12Z</time>
      </trkpt>
      <trkpt lat="45.17396" lon="2.60247">
        <ele>1042</ele>
        <time>2022-01-27T23:03:14Z</time>
      </trkpt>
      <trkpt lat="45.17376" lon="2.60236">
        <ele>1037</ele>
        <time>2022-01-27T23:03:18Z</time>
      </trkpt>
      <trkpt lat="45.17345" lon="2.60234">
        <ele>1033</ele>
        <time>2022-01-27T23:03:24Z</time>
      </trkpt>
      <trkpt lat="45.17292" lon="2.60204">
        <ele>1021</ele>
        <time>2022-01-27T23:03:34Z</time>
      </trkpt>
      <trkpt lat="45.17247" lon="2.60169">
        <ele>1009</ele>
        <time>2022-01-27T23:03:43Z</time>
      </trkpt>
      <trkpt lat="45.17223" lon="2.60171">
        <ele>1008</ele>
        <time>2022-01-27T23:03:47Z</time>
      </trkpt>
      <trkpt lat="45.17125" lon="2.60205">
        <ele>1000</ele>
        <time>2022-01-27T23:04:05Z</time>
      </trkpt>
      <trkpt lat="45.17109" lon="2.60223">
        <ele>999</ele>
        <time>2022-01-27T23:04:09Z</time>
      </trkpt>
      <trkpt lat="45.17101" lon="2.60269">
        <ele>1006</ele>
        <time>2022-01-27T23:04:15Z</time>
      </trkpt>
      <trkpt lat="45.17082" lon="2.60317">
        <ele>1010</ele>
        <time>2022-01-27T23:04:22Z</time>
      </trkpt>
      <trkpt lat="45.17068" lon="2.60323">
        <ele>1010</ele>
        <time>2022-01-27T23:04:24Z</time>
      </trkpt>
      <trkpt lat="45.17041" lon="2.60303">
        <ele>1004</ele>
        <time>2022-01-27T23:04:30Z</time>
      </trkpt>
      <trkpt lat="45.17012" lon="2.60289">
        <ele>999</ele>
        <time>2022-01-27T23:04:35Z</time>
      </trkpt>
      <trkpt lat="45.16987" lon="2.60256">
        <ele>989</ele>
        <time>2022-01-27T23:04:41Z</time>
      </trkpt>
      <trkpt lat="45.16964" lon="2.6025">
        <ele>984</ele>
        <time>2022-01-27T23:04:46Z</time>
      </trkpt>
      <trkpt lat="45.16933" lon="2.60255">
        <ele>981</ele>
        <time>2022-01-27T23:04:51Z</time>
      </trkpt>
      <trkpt lat="45.16914" lon="2.60268">
        <ele>980</ele>
        <time>2022-01-27T23:04:55Z</time>
      </trkpt>
      <trkpt lat="45.16888" lon="2.60309">
        <ele>977</ele>
        <time>2022-01-27T23:05:02Z</time>
      </trkpt>
      <trkpt lat="45.16883" lon="2.60332">
        <ele>979</ele>
        <time>2022-01-27T23:05:05Z</time>
      </trkpt>
      <trkpt lat="45.16887" lon="2.60364">
        <ele>982</ele>
        <time>2022-01-27T23:05:09Z</time>
      </trkpt>
      <trkpt lat="45.16887" lon="2.60393">
        <ele>984</ele>
        <time>2022-01-27T23:05:12Z</time>
      </trkpt>
      <trkpt lat="45.16864" lon="2.60487">
        <ele>979</ele>
        <time>2022-01-27T23:05:25Z</time>
      </trkpt>
      <trkpt lat="45.16846" lon="2.60519">
        <ele>973</ele>
        <time>2022-01-27T23:05:30Z</time>
      </trkpt>
      <trkpt lat="45.16842" lon="2.60552">
        <ele>975</ele>
        <time>2022-01-27T23:05:34Z</time>
      </trkpt>
      <trkpt lat="45.16825" lon="2.60595">
        <ele>975</ele>
        <time>2022-01-27T23:05:40Z</time>
      </trkpt>
      <trkpt lat="45.16786" lon="2.60633">
        <ele>974</ele>
        <time>2022-01-27T23:05:49Z</time>
      </trkpt>
      <trkpt lat="45.1674" lon="2.60661">
        <ele>966</ele>
        <time>2022-01-27T23:05:58Z</time>
      </trkpt>
      <trkpt lat="45.16731" lon="2.6066">
        <ele>963</ele>
        <time>2022-01-27T23:05:59Z</time>
      </trkpt>
      <trkpt lat="45.16713" lon="2.6065">
        <ele>956</ele>
        <time>2022-01-27T23:06:03Z</time>
      </trkpt>
      <trkpt lat="45.16698" lon="2.60651">
        <ele>952</ele>
        <time>2022-01-27T23:06:06Z</time>
      </trkpt>
      <trkpt lat="45.1667" lon="2.60686">
        <ele>953</ele>
        <time>2022-01-27T23:06:12Z</time>
      </trkpt>
      <trkpt lat="45.16627" lon="2.60709">
        <ele>943</ele>
        <time>2022-01-27T23:06:20Z</time>
      </trkpt>
      <trkpt lat="45.16621" lon="2.60724">
        <ele>943</ele>
        <time>2022-01-27T23:06:23Z</time>
      </trkpt>
      <trkpt lat="45.16629" lon="2.60763">
        <ele>953</ele>
        <time>2022-01-27T23:06:28Z</time>
      </trkpt>
      <trkpt lat="45.16615" lon="2.60827">
        <ele>955</ele>
        <time>2022-01-27T23:06:36Z</time>
      </trkpt>
      <trkpt lat="45.16598" lon="2.60841">
        <ele>950</ele>
        <time>2022-01-27T23:06:40Z</time>
      </trkpt>
      <trkpt lat="45.16572" lon="2.6084">
        <ele>940</ele>
        <time>2022-01-27T23:06:44Z</time>
      </trkpt>
      <trkpt lat="45.16566" lon="2.60845">
        <ele>939</ele>
        <time>2022-01-27T23:06:45Z</time>
      </trkpt>
      <trkpt lat="45.16562" lon="2.60853">
        <ele>940</ele>
        <time>2022-01-27T23:06:47Z</time>
      </trkpt>
      <trkpt lat="45.16554" lon="2.609">
        <ele>948</ele>
        <time>2022-01-27T23:06:53Z</time>
      </trkpt>
      <trkpt lat="45.1655" lon="2.6091">
        <ele>949</ele>
        <time>2022-01-27T23:06:54Z</time>
      </trkpt>
      <trkpt lat="45.16533" lon="2.60918">
        <ele>946</ele>
        <time>2022-01-27T23:06:57Z</time>
      </trkpt>
      <trkpt lat="45.16489" lon="2.60924">
        <ele>935</ele>
        <time>2022-01-27T23:07:05Z</time>
      </trkpt>
      <trkpt lat="45.1647" lon="2.60921">
        <ele>928</ele>
        <time>2022-01-27T23:07:09Z</time>
      </trkpt>
      <trkpt lat="45.16459" lon="2.60928">
        <ele>927</ele>
        <time>2022-01-27T23:07:11Z</time>
      </trkpt>
      <trkpt lat="45.16439" lon="2.60969">
        <ele>933</ele>
        <time>2022-01-27T23:07:17Z</time>
      </trkpt>
      <trkpt lat="45.16299" lon="2.6112">
        <ele>923</ele>
        <time>2022-01-27T23:07:48Z</time>
      </trkpt>
      <trkpt lat="45.16261" lon="2.61138">
        <ele>917</ele>
        <time>2022-01-27T23:07:55Z</time>
      </trkpt>
      <trkpt lat="45.16246" lon="2.61147">
        <ele>915</ele>
        <time>2022-01-27T23:07:58Z</time>
      </trkpt>
      <trkpt lat="45.1622" lon="2.61182">
        <ele>919</ele>
        <time>2022-01-27T23:08:05Z</time>
      </trkpt>
      <trkpt lat="45.16212" lon="2.61186">
        <ele>919</ele>
        <time>2022-01-27T23:08:06Z</time>
      </trkpt>
      <trkpt lat="45.162" lon="2.61184">
        <ele>917</ele>
        <time>2022-01-27T23:08:08Z</time>
      </trkpt>
      <trkpt lat="45.16191" lon="2.61171">
        <ele>912</ele>
        <time>2022-01-27T23:08:11Z</time>
      </trkpt>
      <trkpt lat="45.16181" lon="2.61175">
        <ele>911</ele>
        <time>2022-01-27T23:08:12Z</time>
      </trkpt>
      <trkpt lat="45.16122" lon="2.61193">
        <ele>911</ele>
        <time>2022-01-27T23:08:23Z</time>
      </trkpt>
      <trkpt lat="45.16106" lon="2.612">
        <ele>911</ele>
        <time>2022-01-27T23:08:26Z</time>
      </trkpt>
      <trkpt lat="45.16072" lon="2.6122">
        <ele>913</ele>
        <time>2022-01-27T23:08:33Z</time>
      </trkpt>
      <trkpt lat="45.16038" lon="2.61245">
        <ele>916</ele>
        <time>2022-01-27T23:08:40Z</time>
      </trkpt>
      <trkpt lat="45.16014" lon="2.61266">
        <ele>915</ele>
        <time>2022-01-27T23:08:45Z</time>
      </trkpt>
      <trkpt lat="45.15973" lon="2.61328">
        <ele>917</ele>
        <time>2022-01-27T23:08:55Z</time>
      </trkpt>
      <trkpt lat="45.15958" lon="2.61343">
        <ele>918</ele>
        <time>2022-01-27T23:08:58Z</time>
      </trkpt>
      <trkpt lat="45.15906" lon="2.61373">
        <ele>918</ele>
        <time>2022-01-27T23:09:08Z</time>
      </trkpt>
      <trkpt lat="45.15891" lon="2.61387">
        <ele>916</ele>
        <time>2022-01-27T23:09:12Z</time>
      </trkpt>
      <trkpt lat="45.15878" lon="2.61409">
        <ele>916</ele>
        <time>2022-01-27T23:09:15Z</time>
      </trkpt>
      <trkpt lat="45.1585" lon="2.61495">
        <ele>920</ele>
        <time>2022-01-27T23:09:27Z</time>
      </trkpt>
      <trkpt lat="45.15844" lon="2.61503">
        <ele>921</ele>
        <time>2022-01-27T23:09:29Z</time>
      </trkpt>
      <trkpt lat="45.15789" lon="2.6154">
        <ele>919</ele>
        <time>2022-01-27T23:09:39Z</time>
      </trkpt>
      <trkpt lat="45.15774" lon="2.61557">
        <ele>920</ele>
        <time>2022-01-27T23:09:43Z</time>
      </trkpt>
      <trkpt lat="45.15761" lon="2.61578">
        <ele>921</ele>
        <time>2022-01-27T23:09:46Z</time>
      </trkpt>
      <trkpt lat="45.15704" lon="2.6169">
        <ele>925</ele>
        <time>2022-01-27T23:10:04Z</time>
      </trkpt>
      <trkpt lat="45.15699" lon="2.61714">
        <ele>926</ele>
        <time>2022-01-27T23:10:07Z</time>
      </trkpt>
      <trkpt lat="45.157" lon="2.61766">
        <ele>929</ele>
        <time>2022-01-27T23:10:13Z</time>
      </trkpt>
      <trkpt lat="45.15698" lon="2.61788">
        <ele>930</ele>
        <time>2022-01-27T23:10:16Z</time>
      </trkpt>
      <trkpt lat="45.15693" lon="2.61809">
        <ele>929</ele>
        <time>2022-01-27T23:10:19Z</time>
      </trkpt>
      <trkpt lat="45.15606" lon="2.62008">
        <ele>928</ele>
        <time>2022-01-27T23:10:48Z</time>
      </trkpt>
      <trkpt lat="45.15594" lon="2.62026">
        <ele>928</ele>
        <time>2022-01-27T23:10:51Z</time>
      </trkpt>
      <trkpt lat="45.15533" lon="2.62108">
        <ele>923</ele>
        <time>2022-01-27T23:11:06Z</time>
      </trkpt>
      <trkpt lat="45.15521" lon="2.62131">
        <ele>922</ele>
        <time>2022-01-27T23:11:10Z</time>
      </trkpt>
      <trkpt lat="45.15517" lon="2.62149">
        <ele>923</ele>
        <time>2022-01-27T23:11:12Z</time>
      </trkpt>
      <trkpt lat="45.15522" lon="2.62223">
        <ele>925</ele>
        <time>2022-01-27T23:11:22Z</time>
      </trkpt>
      <trkpt lat="45.15522" lon="2.62233">
        <ele>925</ele>
        <time>2022-01-27T23:11:23Z</time>
      </trkpt>
      <trkpt lat="45.15519" lon="2.62243">
        <ele>925</ele>
        <time>2022-01-27T23:11:24Z</time>
      </trkpt>
      <trkpt lat="45.15512" lon="2.6226">
        <ele>924</ele>
        <time>2022-01-27T23:11:27Z</time>
      </trkpt>
      <trkpt lat="45.15485" lon="2.62311">
        <ele>919</ele>
        <time>2022-01-27T23:11:35Z</time>
      </trkpt>
      <trkpt lat="45.15484" lon="2.62318">
        <ele>919</ele>
        <time>2022-01-27T23:11:36Z</time>
      </trkpt>
      <trkpt lat="45.15484" lon="2.62331">
        <ele>919</ele>
        <time>2022-01-27T23:11:37Z</time>
      </trkpt>
      <trkpt lat="45.15489" lon="2.62345">
        <ele>919</ele>
        <time>2022-01-27T23:11:39Z</time>
      </trkpt>
      <trkpt lat="45.15493" lon="2.6235">
        <ele>919</ele>
        <time>2022-01-27T23:11:40Z</time>
      </trkpt>
      <trkpt lat="45.15549" lon="2.62381">
        <ele>924</ele>
        <time>2022-01-27T23:11:51Z</time>
      </trkpt>
      <trkpt lat="45.15561" lon="2.62393">
        <ele>925</ele>
        <time>2022-01-27T23:11:54Z</time>
      </trkpt>
      <trkpt lat="45.15568" lon="2.62404">
        <ele>925</ele>
        <time>2022-01-27T23:11:55Z</time>
      </trkpt>
      <trkpt lat="45.15571" lon="2.6242">
        <ele>925</ele>
        <time>2022-01-27T23:11:57Z</time>
      </trkpt>
      <trkpt lat="45.1557" lon="2.62438">
        <ele>926</ele>
        <time>2022-01-27T23:12:00Z</time>
      </trkpt>
      <trkpt lat="45.15567" lon="2.62449">
        <ele>926</ele>
        <time>2022-01-27T23:12:01Z</time>
      </trkpt>
      <trkpt lat="45.15502" lon="2.62579">
        <ele>925</ele>
        <time>2022-01-27T23:12:21Z</time>
      </trkpt>
      <trkpt lat="45.1549" lon="2.62599">
        <ele>926</ele>
        <time>2022-01-27T23:12:24Z</time>
      </trkpt>
      <trkpt lat="45.15442" lon="2.62643">
        <ele>925</ele>
        <time>2022-01-27T23:12:35Z</time>
      </trkpt>
      <trkpt lat="45.15431" lon="2.62664">
        <ele>927</ele>
        <time>2022-01-27T23:12:38Z</time>
      </trkpt>
      <trkpt lat="45.15388" lon="2.62802">
        <ele>931</ele>
        <time>2022-01-27T23:12:57Z</time>
      </trkpt>
      <trkpt lat="45.15379" lon="2.62835">
        <ele>932</ele>
        <time>2022-01-27T23:13:01Z</time>
      </trkpt>
      <trkpt lat="45.15372" lon="2.62869">
        <ele>934</ele>
        <time>2022-01-27T23:13:06Z</time>
      </trkpt>
      <trkpt lat="45.15369" lon="2.62891">
        <ele>935</ele>
        <time>2022-01-27T23:13:09Z</time>
      </trkpt>
      <trkpt lat="45.15372" lon="2.62925">
        <ele>940</ele>
        <time>2022-01-27T23:13:13Z</time>
      </trkpt>
      <trkpt lat="45.15372" lon="2.62939">
        <ele>941</ele>
        <time>2022-01-27T23:13:15Z</time>
      </trkpt>
      <trkpt lat="45.1537" lon="2.62951">
        <ele>941</ele>
        <time>2022-01-27T23:13:16Z</time>
      </trkpt>
      <trkpt lat="45.15339" lon="2.63076">
        <ele>939</ele>
        <time>2022-01-27T23:13:33Z</time>
      </trkpt>
      <trkpt lat="45.15337" lon="2.6309">
        <ele>939</ele>
        <time>2022-01-27T23:13:35Z</time>
      </trkpt>
      <trkpt lat="45.15337" lon="2.63121">
        <ele>942</ele>
        <time>2022-01-27T23:13:38Z</time>
      </trkpt>
      <trkpt lat="45.15337" lon="2.63134">
        <ele>943</ele>
        <time>2022-01-27T23:13:40Z</time>
      </trkpt>
      <trkpt lat="45.15336" lon="2.63154">
        <ele>945</ele>
        <time>2022-01-27T23:13:43Z</time>
      </trkpt>
      <trkpt lat="45.15333" lon="2.63161">
        <ele>944</ele>
        <time>2022-01-27T23:13:44Z</time>
      </trkpt>
      <trkpt lat="45.15329" lon="2.63167">
        <ele>944</ele>
        <time>2022-01-27T23:13:45Z</time>
      </trkpt>
      <trkpt lat="45.15298" lon="2.63186">
        <ele>941</ele>
        <time>2022-01-27T23:13:51Z</time>
      </trkpt>
      <trkpt lat="45.15288" lon="2.63199">
        <ele>941</ele>
        <time>2022-01-27T23:13:53Z</time>
      </trkpt>
      <trkpt lat="45.15284" lon="2.63208">
        <ele>941</ele>
        <time>2022-01-27T23:13:54Z</time>
      </trkpt>
      <trkpt lat="45.15277" lon="2.63246">
        <ele>946</ele>
        <time>2022-01-27T23:13:59Z</time>
      </trkpt>
      <trkpt lat="45.15265" lon="2.63271">
        <ele>946</ele>
        <time>2022-01-27T23:14:03Z</time>
      </trkpt>
      <trkpt lat="45.15263" lon="2.6328">
        <ele>947</ele>
        <time>2022-01-27T23:14:04Z</time>
      </trkpt>
      <trkpt lat="45.15259" lon="2.63312">
        <ele>951</ele>
        <time>2022-01-27T23:14:08Z</time>
      </trkpt>
      <trkpt lat="45.15252" lon="2.63327">
        <ele>952</ele>
        <time>2022-01-27T23:14:11Z</time>
      </trkpt>
      <trkpt lat="45.15245" lon="2.6333">
        <ele>951</ele>
        <time>2022-01-27T23:14:12Z</time>
      </trkpt>
      <trkpt lat="45.15238" lon="2.63331">
        <ele>950</ele>
        <time>2022-01-27T23:14:13Z</time>
      </trkpt>
      <trkpt lat="45.15203" lon="2.63318">
        <ele>942</ele>
        <time>2022-01-27T23:14:20Z</time>
      </trkpt>
      <trkpt lat="45.15195" lon="2.63317">
        <ele>941</ele>
        <time>2022-01-27T23:14:21Z</time>
      </trkpt>
      <trkpt lat="45.15188" lon="2.6332">
        <ele>940</ele>
        <time>2022-01-27T23:14:22Z</time>
      </trkpt>
      <trkpt lat="45.15162" lon="2.63346">
        <ele>944</ele>
        <time>2022-01-27T23:14:28Z</time>
      </trkpt>
      <trkpt lat="45.151" lon="2.63384">
        <ele>945</ele>
        <time>2022-01-27T23:14:40Z</time>
      </trkpt>
      <trkpt lat="45.15085" lon="2.63391">
        <ele>944</ele>
        <time>2022-01-27T23:14:43Z</time>
      </trkpt>
      <trkpt lat="45.15066" lon="2.63397">
        <ele>944</ele>
        <time>2022-01-27T23:14:46Z</time>
      </trkpt>
      <trkpt lat="45.15003" lon="2.63399">
        <ele>939</ele>
        <time>2022-01-27T23:14:58Z</time>
      </trkpt>
      <trkpt lat="45.14997" lon="2.63401">
        <ele>939</ele>
        <time>2022-01-27T23:14:59Z</time>
      </trkpt>
      <trkpt lat="45.14992" lon="2.63407">
        <ele>940</ele>
        <time>2022-01-27T23:15:00Z</time>
      </trkpt>
      <trkpt lat="45.14983" lon="2.63439">
        <ele>943</ele>
        <time>2022-01-27T23:15:04Z</time>
      </trkpt>
      <trkpt lat="45.14978" lon="2.6345">
        <ele>943</ele>
        <time>2022-01-27T23:15:06Z</time>
      </trkpt>
      <trkpt lat="45.14936" lon="2.63525">
        <ele>947</ele>
        <time>2022-01-27T23:15:18Z</time>
      </trkpt>
      <trkpt lat="45.1485" lon="2.63636">
        <ele>940</ele>
        <time>2022-01-27T23:15:38Z</time>
      </trkpt>
      <trkpt lat="45.14845" lon="2.63645">
        <ele>940</ele>
        <time>2022-01-27T23:15:40Z</time>
      </trkpt>
      <trkpt lat="45.14841" lon="2.63653">
        <ele>940</ele>
        <time>2022-01-27T23:15:41Z</time>
      </trkpt>
      <trkpt lat="45.14836" lon="2.63672">
        <ele>940</ele>
        <time>2022-01-27T23:15:44Z</time>
      </trkpt>
      <trkpt lat="45.14836" lon="2.6369">
        <ele>941</ele>
        <time>2022-01-27T23:15:46Z</time>
      </trkpt>
      <trkpt lat="45.14839" lon="2.63714">
        <ele>943</ele>
        <time>2022-01-27T23:15:49Z</time>
      </trkpt>
      <trkpt lat="45.14841" lon="2.63735">
        <ele>945</ele>
        <time>2022-01-27T23:15:52Z</time>
      </trkpt>
      <trkpt lat="45.14841" lon="2.63744">
        <ele>946</ele>
        <time>2022-01-27T23:15:53Z</time>
      </trkpt>
      <trkpt lat="45.14834" lon="2.63761">
        <ele>947</ele>
        <time>2022-01-27T23:15:55Z</time>
      </trkpt>
      <trkpt lat="45.14829" lon="2.63766">
        <ele>947</ele>
        <time>2022-01-27T23:15:56Z</time>
      </trkpt>
      <trkpt lat="45.14817" lon="2.63775">
        <ele>948</ele>
        <time>2022-01-27T23:15:59Z</time>
      </trkpt>
      <trkpt lat="45.14787" lon="2.6379">
        <ele>946</ele>
        <time>2022-01-27T23:16:04Z</time>
      </trkpt>
      <trkpt lat="45.14775" lon="2.63801">
        <ele>946</ele>
        <time>2022-01-27T23:16:07Z</time>
      </trkpt>
      <trkpt lat="45.1472" lon="2.63884">
        <ele>949</ele>
        <time>2022-01-27T23:16:21Z</time>
      </trkpt>
      <trkpt lat="45.14708" lon="2.639">
        <ele>949</ele>
        <time>2022-01-27T23:16:24Z</time>
      </trkpt>
      <trkpt lat="45.14689" lon="2.63917">
        <ele>948</ele>
        <time>2022-01-27T23:16:28Z</time>
      </trkpt>
      <trkpt lat="45.14646" lon="2.63934">
        <ele>944</ele>
        <time>2022-01-27T23:16:36Z</time>
      </trkpt>
      <trkpt lat="45.14622" lon="2.63941">
        <ele>940</ele>
        <time>2022-01-27T23:16:41Z</time>
      </trkpt>
      <trkpt lat="45.14615" lon="2.63944">
        <ele>939</ele>
        <time>2022-01-27T23:16:42Z</time>
      </trkpt>
      <trkpt lat="45.14601" lon="2.63957">
        <ele>938</ele>
        <time>2022-01-27T23:16:45Z</time>
      </trkpt>
      <trkpt lat="45.14591" lon="2.63972">
        <ele>938</ele>
        <time>2022-01-27T23:16:47Z</time>
      </trkpt>
      <trkpt lat="45.14565" lon="2.64041">
        <ele>943</ele>
        <time>2022-01-27T23:16:57Z</time>
      </trkpt>
      <trkpt lat="45.14563" lon="2.64058">
        <ele>944</ele>
        <time>2022-01-27T23:16:59Z</time>
      </trkpt>
      <trkpt lat="45.14565" lon="2.64069">
        <ele>946</ele>
        <time>2022-01-27T23:17:01Z</time>
      </trkpt>
      <trkpt lat="45.14574" lon="2.64113">
        <ele>953</ele>
        <time>2022-01-27T23:17:07Z</time>
      </trkpt>
      <trkpt lat="45.14576" lon="2.64129">
        <ele>956</ele>
        <time>2022-01-27T23:17:09Z</time>
      </trkpt>
      <trkpt lat="45.14575" lon="2.64151">
        <ele>958</ele>
        <time>2022-01-27T23:17:11Z</time>
      </trkpt>
      <trkpt lat="45.14574" lon="2.64158">
        <ele>958</ele>
        <time>2022-01-27T23:17:12Z</time>
      </trkpt>
      <trkpt lat="45.14571" lon="2.64164">
        <ele>958</ele>
        <time>2022-01-27T23:17:13Z</time>
      </trkpt>
      <trkpt lat="45.14565" lon="2.64171">
        <ele>958</ele>
        <time>2022-01-27T23:17:15Z</time>
      </trkpt>
      <trkpt lat="45.14543" lon="2.64172">
        <ele>953</ele>
        <time>2022-01-27T23:17:18Z</time>
      </trkpt>
      <trkpt lat="45.14536" lon="2.64176">
        <ele>952</ele>
        <time>2022-01-27T23:17:20Z</time>
      </trkpt>
      <trkpt lat="45.14532" lon="2.64182">
        <ele>952</ele>
        <time>2022-01-27T23:17:21Z</time>
      </trkpt>
      <trkpt lat="45.14529" lon="2.64196">
        <ele>954</ele>
        <time>2022-01-27T23:17:23Z</time>
      </trkpt>
      <trkpt lat="45.1453" lon="2.64227">
        <ele>962</ele>
        <time>2022-01-27T23:17:27Z</time>
      </trkpt>
      <trkpt lat="45.14527" lon="2.64236">
        <ele>963</ele>
        <time>2022-01-27T23:17:28Z</time>
      </trkpt>
      <trkpt lat="45.14523" lon="2.64239">
        <ele>963</ele>
        <time>2022-01-27T23:17:29Z</time>
      </trkpt>
      <trkpt lat="45.14511" lon="2.64241">
        <ele>961</ele>
        <time>2022-01-27T23:17:31Z</time>
      </trkpt>
      <trkpt lat="45.145" lon="2.64247">
        <ele>960</ele>
        <time>2022-01-27T23:17:33Z</time>
      </trkpt>
      <trkpt lat="45.14488" lon="2.64257">
        <ele>960</ele>
        <time>2022-01-27T23:17:35Z</time>
      </trkpt>
      <trkpt lat="45.14471" lon="2.64277">
        <ele>960</ele>
        <time>2022-01-27T23:17:39Z</time>
      </trkpt>
      <trkpt lat="45.14458" lon="2.64297">
        <ele>961</ele>
        <time>2022-01-27T23:17:43Z</time>
      </trkpt>
      <trkpt lat="45.14443" lon="2.64332">
        <ele>964</ele>
        <time>2022-01-27T23:17:48Z</time>
      </trkpt>
      <trkpt lat="45.14437" lon="2.64342">
        <ele>965</ele>
        <time>2022-01-27T23:17:49Z</time>
      </trkpt>
      <trkpt lat="45.14348" lon="2.6445">
        <ele>965</ele>
        <time>2022-01-27T23:18:10Z</time>
      </trkpt>
      <trkpt lat="45.143" lon="2.64489">
        <ele>966</ele>
        <time>2022-01-27T23:18:20Z</time>
      </trkpt>
      <trkpt lat="45.1421" lon="2.6454">
        <ele>967</ele>
        <time>2022-01-27T23:18:37Z</time>
      </trkpt>
      <trkpt lat="45.14195" lon="2.64552">
        <ele>968</ele>
        <time>2022-01-27T23:18:40Z</time>
      </trkpt>
      <trkpt lat="45.14186" lon="2.64562">
        <ele>968</ele>
        <time>2022-01-27T23:18:43Z</time>
      </trkpt>
      <trkpt lat="45.14146" lon="2.64642">
        <ele>975</ele>
        <time>2022-01-27T23:18:55Z</time>
      </trkpt>
      <trkpt lat="45.14141" lon="2.64652">
        <ele>976</ele>
        <time>2022-01-27T23:18:56Z</time>
      </trkpt>
      <trkpt lat="45.1413" lon="2.64665">
        <ele>976</ele>
        <time>2022-01-27T23:18:59Z</time>
      </trkpt>
      <trkpt lat="45.14122" lon="2.64671">
        <ele>976</ele>
        <time>2022-01-27T23:19:01Z</time>
      </trkpt>
      <trkpt lat="45.14105" lon="2.64682">
        <ele>976</ele>
        <time>2022-01-27T23:19:04Z</time>
      </trkpt>
      <trkpt lat="45.14067" lon="2.64694">
        <ele>974</ele>
        <time>2022-01-27T23:19:11Z</time>
      </trkpt>
      <trkpt lat="45.14057" lon="2.64697">
        <ele>974</ele>
        <time>2022-01-27T23:19:13Z</time>
      </trkpt>
      <trkpt lat="45.14043" lon="2.64702">
        <ele>974</ele>
        <time>2022-01-27T23:19:15Z</time>
      </trkpt>
      <trkpt lat="45.14032" lon="2.64716">
        <ele>975</ele>
        <time>2022-01-27T23:19:18Z</time>
      </trkpt>
      <trkpt lat="45.14023" lon="2.64738">
        <ele>976</ele>
        <time>2022-01-27T23:19:21Z</time>
      </trkpt>
      <trkpt lat="45.14011" lon="2.64788">
        <ele>981</ele>
        <time>2022-01-27T23:19:28Z</time>
      </trkpt>
      <trkpt lat="45.14004" lon="2.64809">
        <ele>983</ele>
        <time>2022-01-27T23:19:31Z</time>
      </trkpt>
      <trkpt lat="45.13999" lon="2.64819">
        <ele>983</ele>
        <time>2022-01-27T23:19:32Z</time>
      </trkpt>
      <trkpt lat="45.13986" lon="2.6483">
        <ele>985</ele>
        <time>2022-01-27T23:19:35Z</time>
      </trkpt>
      <trkpt lat="45.13977" lon="2.64833">
        <ele>985</ele>
        <time>2022-01-27T23:19:36Z</time>
      </trkpt>
      <trkpt lat="45.13925" lon="2.6484">
        <ele>987</ele>
        <time>2022-01-27T23:19:46Z</time>
      </trkpt>
      <trkpt lat="45.13918" lon="2.64844">
        <ele>987</ele>
        <time>2022-01-27T23:19:47Z</time>
      </trkpt>
      <trkpt lat="45.13911" lon="2.64853">
        <ele>988</ele>
        <time>2022-01-27T23:19:49Z</time>
      </trkpt>
      <trkpt lat="45.13896" lon="2.64885">
        <ele>991</ele>
        <time>2022-01-27T23:19:54Z</time>
      </trkpt>
      <trkpt lat="45.13882" lon="2.64902">
        <ele>992</ele>
        <time>2022-01-27T23:19:57Z</time>
      </trkpt>
      <trkpt lat="45.13857" lon="2.64919">
        <ele>993</ele>
        <time>2022-01-27T23:20:02Z</time>
      </trkpt>
      <trkpt lat="45.13813" lon="2.64936">
        <ele>994</ele>
        <time>2022-01-27T23:20:10Z</time>
      </trkpt>
      <trkpt lat="45.1377" lon="2.64964">
        <ele>997</ele>
        <time>2022-01-27T23:20:18Z</time>
      </trkpt>
      <trkpt lat="45.13733" lon="2.64977">
        <ele>998</ele>
        <time>2022-01-27T23:20:25Z</time>
      </trkpt>
      <trkpt lat="45.13724" lon="2.64984">
        <ele>999</ele>
        <time>2022-01-27T23:20:27Z</time>
      </trkpt>
      <trkpt lat="45.13712" lon="2.65002">
        <ele>1001</ele>
        <time>2022-01-27T23:20:30Z</time>
      </trkpt>
      <trkpt lat="45.13698" lon="2.65033">
        <ele>1005</ele>
        <time>2022-01-27T23:20:35Z</time>
      </trkpt>
      <trkpt lat="45.1369" lon="2.65042">
        <ele>1006</ele>
        <time>2022-01-27T23:20:36Z</time>
      </trkpt>
      <trkpt lat="45.13669" lon="2.65061">
        <ele>1007</ele>
        <time>2022-01-27T23:20:41Z</time>
      </trkpt>
      <trkpt lat="45.13638" lon="2.65081">
        <ele>1011</ele>
        <time>2022-01-27T23:20:47Z</time>
      </trkpt>
      <trkpt lat="45.13618" lon="2.65085">
        <ele>1013</ele>
        <time>2022-01-27T23:20:51Z</time>
      </trkpt>
      <trkpt lat="45.13597" lon="2.65086">
        <ele>1014</ele>
        <time>2022-01-27T23:20:54Z</time>
      </trkpt>
      <trkpt lat="45.1354" lon="2.65075">
        <ele>1015</ele>
        <time>2022-01-27T23:21:05Z</time>
      </trkpt>
      <trkpt lat="45.1352" lon="2.65073">
        <ele>1015</ele>
        <time>2022-01-27T23:21:08Z</time>
      </trkpt>
      <trkpt lat="45.13512" lon="2.65073">
        <ele>1016</ele>
        <time>2022-01-27T23:21:09Z</time>
      </trkpt>
      <trkpt lat="45.13503" lon="2.65077">
        <ele>1017</ele>
        <time>2022-01-27T23:21:11Z</time>
      </trkpt>
      <trkpt lat="45.13485" lon="2.65093">
        <ele>1019</ele>
        <time>2022-01-27T23:21:15Z</time>
      </trkpt>
      <trkpt lat="45.13464" lon="2.65116">
        <ele>1021</ele>
        <time>2022-01-27T23:21:20Z</time>
      </trkpt>
      <trkpt lat="45.13453" lon="2.65129">
        <ele>1022</ele>
        <time>2022-01-27T23:21:22Z</time>
      </trkpt>
      <trkpt lat="45.13413" lon="2.65168">
        <ele>1025</ele>
        <time>2022-01-27T23:21:31Z</time>
      </trkpt>
      <trkpt lat="45.13389" lon="2.65181">
        <ele>1027</ele>
        <time>2022-01-27T23:21:35Z</time>
      </trkpt>
      <trkpt lat="45.13355" lon="2.65192">
        <ele>1028</ele>
        <time>2022-01-27T23:21:42Z</time>
      </trkpt>
      <trkpt lat="45.13328" lon="2.65212">
        <ele>1030</ele>
        <time>2022-01-27T23:21:47Z</time>
      </trkpt>
      <trkpt lat="45.13301" lon="2.65238">
        <ele>1033</ele>
        <time>2022-01-27T23:21:53Z</time>
      </trkpt>
      <trkpt lat="45.13271" lon="2.65256">
        <ele>1035</ele>
        <time>2022-01-27T23:21:59Z</time>
      </trkpt>
      <trkpt lat="45.1326" lon="2.6526">
        <ele>1036</ele>
        <time>2022-01-27T23:22:01Z</time>
      </trkpt>
      <trkpt lat="45.1318" lon="2.65277">
        <ele>1044</ele>
        <time>2022-01-27T23:22:15Z</time>
      </trkpt>
      <trkpt lat="45.13149" lon="2.65278">
        <ele>1046</ele>
        <time>2022-01-27T23:22:21Z</time>
      </trkpt>
      <trkpt lat="45.13118" lon="2.65268">
        <ele>1048</ele>
        <time>2022-01-27T23:22:26Z</time>
      </trkpt>
      <trkpt lat="45.13084" lon="2.65252">
        <ele>1049</ele>
        <time>2022-01-27T23:22:33Z</time>
      </trkpt>
      <trkpt lat="45.13072" lon="2.65244">
        <ele>1050</ele>
        <time>2022-01-27T23:22:35Z</time>
      </trkpt>
      <trkpt lat="45.13062" lon="2.65233">
        <ele>1052</ele>
        <time>2022-01-27T23:22:37Z</time>
      </trkpt>
      <trkpt lat="45.13051" lon="2.65215">
        <ele>1053</ele>
        <time>2022-01-27T23:22:40Z</time>
      </trkpt>
      <trkpt lat="45.1304" lon="2.65195">
        <ele>1055</ele>
        <time>2022-01-27T23:22:43Z</time>
      </trkpt>
      <trkpt lat="45.13029" lon="2.65167">
        <ele>1057</ele>
        <time>2022-01-27T23:22:47Z</time>
      </trkpt>
      <trkpt lat="45.13026" lon="2.65157">
        <ele>1058</ele>
        <time>2022-01-27T23:22:49Z</time>
      </trkpt>
      <trkpt lat="45.13026" lon="2.65145">
        <ele>1059</ele>
        <time>2022-01-27T23:22:50Z</time>
      </trkpt>
      <trkpt lat="45.13032" lon="2.65114">
        <ele>1060</ele>
        <time>2022-01-27T23:22:54Z</time>
      </trkpt>
      <trkpt lat="45.1305" lon="2.65058">
        <ele>1057</ele>
        <time>2022-01-27T23:23:02Z</time>
      </trkpt>
      <trkpt lat="45.13051" lon="2.65049">
        <ele>1057</ele>
        <time>2022-01-27T23:23:03Z</time>
      </trkpt>
      <trkpt lat="45.13047" lon="2.65024">
        <ele>1060</ele>
        <time>2022-01-27T23:23:06Z</time>
      </trkpt>
      <trkpt lat="45.13027" lon="2.64952">
        <ele>1073</ele>
        <time>2022-01-27T23:23:16Z</time>
      </trkpt>
      <trkpt lat="45.13017" lon="2.64842">
        <ele>1083</ele>
        <time>2022-01-27T23:23:30Z</time>
      </trkpt>
      <trkpt lat="45.13014" lon="2.64733">
        <ele>1087</ele>
        <time>2022-01-27T23:23:44Z</time>
      </trkpt>
      <trkpt lat="45.1302" lon="2.64626">
        <ele>1089</ele>
        <time>2022-01-27T23:23:57Z</time>
      </trkpt>
      <trkpt lat="45.13015" lon="2.64569">
        <ele>1094</ele>
        <time>2022-01-27T23:24:04Z</time>
      </trkpt>
      <trkpt lat="45.13017" lon="2.64535">
        <ele>1094</ele>
        <time>2022-01-27T23:24:09Z</time>
      </trkpt>
      <trkpt lat="45.13022" lon="2.64507">
        <ele>1092</ele>
        <time>2022-01-27T23:24:12Z</time>
      </trkpt>
      <trkpt lat="45.13032" lon="2.64486">
        <ele>1088</ele>
        <time>2022-01-27T23:24:16Z</time>
      </trkpt>
      <trkpt lat="45.13035" lon="2.64474">
        <ele>1087</ele>
        <time>2022-01-27T23:24:17Z</time>
      </trkpt>
      <trkpt lat="45.13037" lon="2.64454">
        <ele>1086</ele>
        <time>2022-01-27T23:24:20Z</time>
      </trkpt>
      <trkpt lat="45.13037" lon="2.64424">
        <ele>1087</ele>
        <time>2022-01-27T23:24:23Z</time>
      </trkpt>
      <trkpt lat="45.13032" lon="2.64397">
        <ele>1090</ele>
        <time>2022-01-27T23:24:27Z</time>
      </trkpt>
      <trkpt lat="45.13027" lon="2.64386">
        <ele>1092</ele>
        <time>2022-01-27T23:24:29Z</time>
      </trkpt>
      <trkpt lat="45.13012" lon="2.64372">
        <ele>1096</ele>
        <time>2022-01-27T23:24:32Z</time>
      </trkpt>
      <trkpt lat="45.12995" lon="2.64363">
        <ele>1100</ele>
        <time>2022-01-27T23:24:35Z</time>
      </trkpt>
      <trkpt lat="45.12982" lon="2.6436">
        <ele>1101</ele>
        <time>2022-01-27T23:24:37Z</time>
      </trkpt>
      <trkpt lat="45.12884" lon="2.64377">
        <ele>1113</ele>
        <time>2022-01-27T23:24:55Z</time>
      </trkpt>
      <trkpt lat="45.12857" lon="2.64378">
        <ele>1115</ele>
        <time>2022-01-27T23:25:00Z</time>
      </trkpt>
      <trkpt lat="45.1284" lon="2.64371">
        <ele>1115</ele>
        <time>2022-01-27T23:25:03Z</time>
      </trkpt>
      <trkpt lat="45.12826" lon="2.6436">
        <ele>1114</ele>
        <time>2022-01-27T23:25:06Z</time>
      </trkpt>
      <trkpt lat="45.12816" lon="2.64358">
        <ele>1114</ele>
        <time>2022-01-27T23:25:08Z</time>
      </trkpt>
      <trkpt lat="45.12806" lon="2.64357">
        <ele>1115</ele>
        <time>2022-01-27T23:25:09Z</time>
      </trkpt>
      <trkpt lat="45.12788" lon="2.64362">
        <ele>1116</ele>
        <time>2022-01-27T23:25:13Z</time>
      </trkpt>
      <trkpt lat="45.1277" lon="2.64363">
        <ele>1117</ele>
        <time>2022-01-27T23:25:16Z</time>
      </trkpt>
      <trkpt lat="45.12759" lon="2.64361">
        <ele>1117</ele>
        <time>2022-01-27T23:25:18Z</time>
      </trkpt>
      <trkpt lat="45.12741" lon="2.64353">
        <ele>1118</ele>
        <time>2022-01-27T23:25:21Z</time>
      </trkpt>
      <trkpt lat="45.12735" lon="2.64347">
        <ele>1118</ele>
        <time>2022-01-27T23:25:22Z</time>
      </trkpt>
      <trkpt lat="45.1273" lon="2.64338">
        <ele>1118</ele>
        <time>2022-01-27T23:25:24Z</time>
      </trkpt>
      <trkpt lat="45.1272" lon="2.64315">
        <ele>1122</ele>
        <time>2022-01-27T23:25:27Z</time>
      </trkpt>
      <trkpt lat="45.12714" lon="2.64297">
        <ele>1125</ele>
        <time>2022-01-27T23:25:30Z</time>
      </trkpt>
      <trkpt lat="45.12716" lon="2.64281">
        <ele>1127</ele>
        <time>2022-01-27T23:25:32Z</time>
      </trkpt>
      <trkpt lat="45.12719" lon="2.64275">
        <ele>1128</ele>
        <time>2022-01-27T23:25:33Z</time>
      </trkpt>
      <trkpt lat="45.12764" lon="2.64237">
        <ele>1128</ele>
        <time>2022-01-27T23:25:42Z</time>
      </trkpt>
      <trkpt lat="45.12781" lon="2.64212">
        <ele>1131</ele>
        <time>2022-01-27T23:25:46Z</time>
      </trkpt>
      <trkpt lat="45.12812" lon="2.64147">
        <ele>1142</ele>
        <time>2022-01-27T23:25:56Z</time>
      </trkpt>
      <trkpt lat="45.12852" lon="2.6412">
        <ele>1144</ele>
        <time>2022-01-27T23:26:04Z</time>
      </trkpt>
      <trkpt lat="45.12881" lon="2.64117">
        <ele>1141</ele>
        <time>2022-01-27T23:26:09Z</time>
      </trkpt>
      <trkpt lat="45.12941" lon="2.64077">
        <ele>1146</ele>
        <time>2022-01-27T23:26:21Z</time>
      </trkpt>
      <trkpt lat="45.12943" lon="2.64064">
        <ele>1149</ele>
        <time>2022-01-27T23:26:23Z</time>
      </trkpt>
      <trkpt lat="45.1294" lon="2.64057">
        <ele>1150</ele>
        <time>2022-01-27T23:26:24Z</time>
      </trkpt>
      <trkpt lat="45.12936" lon="2.64051">
        <ele>1152</ele>
        <time>2022-01-27T23:26:25Z</time>
      </trkpt>
      <trkpt lat="45.12931" lon="2.64049">
        <ele>1153</ele>
        <time>2022-01-27T23:26:26Z</time>
      </trkpt>
      <trkpt lat="45.12901" lon="2.64056">
        <ele>1153</ele>
        <time>2022-01-27T23:26:31Z</time>
      </trkpt>
      <trkpt lat="45.12884" lon="2.64054">
        <ele>1157</ele>
        <time>2022-01-27T23:26:34Z</time>
      </trkpt>
      <trkpt lat="45.12839" lon="2.64059">
        <ele>1162</ele>
        <time>2022-01-27T23:26:42Z</time>
      </trkpt>
      <trkpt lat="45.12781" lon="2.64088">
        <ele>1163</ele>
        <time>2022-01-27T23:26:53Z</time>
      </trkpt>
      <trkpt lat="45.12775" lon="2.64088">
        <ele>1164</ele>
        <time>2022-01-27T23:26:54Z</time>
      </trkpt>
      <trkpt lat="45.1277" lon="2.64084">
        <ele>1166</ele>
        <time>2022-01-27T23:26:55Z</time>
      </trkpt>
      <trkpt lat="45.12746" lon="2.64096">
        <ele>1166</ele>
        <time>2022-01-27T23:27:00Z</time>
      </trkpt>
      <trkpt lat="45.12727" lon="2.64101">
        <ele>1168</ele>
        <time>2022-01-27T23:27:03Z</time>
      </trkpt>
      <trkpt lat="45.12681" lon="2.64108">
        <ele>1172</ele>
        <time>2022-01-27T23:27:11Z</time>
      </trkpt>
      <trkpt lat="45.12649" lon="2.64106">
        <ele>1178</ele>
        <time>2022-01-27T23:27:17Z</time>
      </trkpt>
      <trkpt lat="45.12575" lon="2.64134">
        <ele>1181</ele>
        <time>2022-01-27T23:27:31Z</time>
      </trkpt>
      <trkpt lat="45.12525" lon="2.64168">
        <ele>1180</ele>
        <time>2022-01-27T23:27:41Z</time>
      </trkpt>
      <trkpt lat="45.12431" lon="2.64217">
        <ele>1188</ele>
        <time>2022-01-27T23:27:58Z</time>
      </trkpt>
      <trkpt lat="45.12419" lon="2.64224">
        <ele>1189</ele>
        <time>2022-01-27T23:28:01Z</time>
      </trkpt>
      <trkpt lat="45.12315" lon="2.64292">
        <ele>1194</ele>
        <time>2022-01-27T23:28:21Z</time>
      </trkpt>
      <trkpt lat="45.12292" lon="2.6431">
        <ele>1195</ele>
        <time>2022-01-27T23:28:26Z</time>
      </trkpt>
      <trkpt lat="45.12282" lon="2.6432">
        <ele>1195</ele>
        <time>2022-01-27T23:28:28Z</time>
      </trkpt>
      <trkpt lat="45.12245" lon="2.64356">
        <ele>1196</ele>
        <time>2022-01-27T23:28:36Z</time>
      </trkpt>
      <trkpt lat="45.12203" lon="2.64391">
        <ele>1197</ele>
        <time>2022-01-27T23:28:45Z</time>
      </trkpt>
      <trkpt lat="45.12148" lon="2.6443">
        <ele>1201</ele>
        <time>2022-01-27T23:28:56Z</time>
      </trkpt>
      <trkpt lat="45.12066" lon="2.64477">
        <ele>1210</ele>
        <time>2022-01-27T23:29:11Z</time>
      </trkpt>
      <trkpt lat="45.12024" lon="2.64505">
        <ele>1212</ele>
        <time>2022-01-27T23:29:20Z</time>
      </trkpt>
      <trkpt lat="45.11957" lon="2.64558">
        <ele>1218</ele>
        <time>2022-01-27T23:29:33Z</time>
      </trkpt>
      <trkpt lat="45.11945" lon="2.64568">
        <ele>1219</ele>
        <time>2022-01-27T23:29:36Z</time>
      </trkpt>
      <trkpt lat="45.11936" lon="2.64581">
        <ele>1218</ele>
        <time>2022-01-27T23:29:38Z</time>
      </trkpt>
      <trkpt lat="45.11924" lon="2.64604">
        <ele>1216</ele>
        <time>2022-01-27T23:29:42Z</time>
      </trkpt>
      <trkpt lat="45.11913" lon="2.64615">
        <ele>1216</ele>
        <time>2022-01-27T23:29:44Z</time>
      </trkpt>
      <trkpt lat="45.11889" lon="2.6463">
        <ele>1216</ele>
        <time>2022-01-27T23:29:49Z</time>
      </trkpt>
      <trkpt lat="45.11848" lon="2.64647">
        <ele>1219</ele>
        <time>2022-01-27T23:29:56Z</time>
      </trkpt>
      <trkpt lat="45.11812" lon="2.64676">
        <ele>1218</ele>
        <time>2022-01-27T23:30:04Z</time>
      </trkpt>
      <trkpt lat="45.11786" lon="2.64688">
        <ele>1220</ele>
        <time>2022-01-27T23:30:08Z</time>
      </trkpt>
      <trkpt lat="45.11758" lon="2.64692">
        <ele>1225</ele>
        <time>2022-01-27T23:30:13Z</time>
      </trkpt>
      <trkpt lat="45.11748" lon="2.64696">
        <ele>1226</ele>
        <time>2022-01-27T23:30:15Z</time>
      </trkpt>
      <trkpt lat="45.11701" lon="2.64733">
        <ele>1227</ele>
        <time>2022-01-27T23:30:25Z</time>
      </trkpt>
      <trkpt lat="45.11616" lon="2.64774">
        <ele>1236</ele>
        <time>2022-01-27T23:30:41Z</time>
      </trkpt>
      <trkpt lat="45.11588" lon="2.64791">
        <ele>1238</ele>
        <time>2022-01-27T23:30:46Z</time>
      </trkpt>
      <trkpt lat="45.11505" lon="2.64848">
        <ele>1241</ele>
        <time>2022-01-27T23:31:03Z</time>
      </trkpt>
      <trkpt lat="45.11445" lon="2.6488">
        <ele>1244</ele>
        <time>2022-01-27T23:31:14Z</time>
      </trkpt>
      <trkpt lat="45.11412" lon="2.64901">
        <ele>1245</ele>
        <time>2022-01-27T23:31:21Z</time>
      </trkpt>
      <trkpt lat="45.11403" lon="2.64904">
        <ele>1247</ele>
        <time>2022-01-27T23:31:22Z</time>
      </trkpt>
      <trkpt lat="45.11387" lon="2.64905">
        <ele>1250</ele>
        <time>2022-01-27T23:31:25Z</time>
      </trkpt>
      <trkpt lat="45.11374" lon="2.64911">
        <ele>1252</ele>
        <time>2022-01-27T23:31:27Z</time>
      </trkpt>
      <trkpt lat="45.11285" lon="2.64975">
        <ele>1257</ele>
        <time>2022-01-27T23:31:45Z</time>
      </trkpt>
      <trkpt lat="45.11262" lon="2.6498">
        <ele>1261</ele>
        <time>2022-01-27T23:31:49Z</time>
      </trkpt>
      <trkpt lat="45.11257" lon="2.64985">
        <ele>1260</ele>
        <time>2022-01-27T23:31:50Z</time>
      </trkpt>
      <trkpt lat="45.11241" lon="2.65009">
        <ele>1258</ele>
        <time>2022-01-27T23:31:55Z</time>
      </trkpt>
      <trkpt lat="45.11213" lon="2.65035">
        <ele>1262</ele>
        <time>2022-01-27T23:32:01Z</time>
      </trkpt>
      <trkpt lat="45.1119" lon="2.6507">
        <ele>1264</ele>
        <time>2022-01-27T23:32:07Z</time>
      </trkpt>
      <trkpt lat="45.1118" lon="2.65089">
        <ele>1264</ele>
        <time>2022-01-27T23:32:10Z</time>
      </trkpt>
      <trkpt lat="45.11173" lon="2.65108">
        <ele>1265</ele>
        <time>2022-01-27T23:32:12Z</time>
      </trkpt>
      <trkpt lat="45.11166" lon="2.65141">
        <ele>1264</ele>
        <time>2022-01-27T23:32:17Z</time>
      </trkpt>
      <trkpt lat="45.1116" lon="2.65158">
        <ele>1265</ele>
        <time>2022-01-27T23:32:19Z</time>
      </trkpt>
      <trkpt lat="45.11128" lon="2.65229">
        <ele>1267</ele>
        <time>2022-01-27T23:32:30Z</time>
      </trkpt>
      <trkpt lat="45.11106" lon="2.65286">
        <ele>1267</ele>
        <time>2022-01-27T23:32:38Z</time>
      </trkpt>
      <trkpt lat="45.11101" lon="2.65295">
        <ele>1268</ele>
        <time>2022-01-27T23:32:39Z</time>
      </trkpt>
      <trkpt lat="45.11078" lon="2.65312">
        <ele>1275</ele>
        <time>2022-01-27T23:32:44Z</time>
      </trkpt>
      <trkpt lat="45.11071" lon="2.65318">
        <ele>1277</ele>
        <time>2022-01-27T23:32:45Z</time>
      </trkpt>
      <trkpt lat="45.11067" lon="2.65325">
        <ele>1278</ele>
        <time>2022-01-27T23:32:46Z</time>
      </trkpt>
      <trkpt lat="45.11063" lon="2.6534">
        <ele>1278</ele>
        <time>2022-01-27T23:32:48Z</time>
      </trkpt>
      <trkpt lat="45.11057" lon="2.65395">
        <ele>1277</ele>
        <time>2022-01-27T23:32:55Z</time>
      </trkpt>
      <trkpt lat="45.11055" lon="2.65428">
        <ele>1276</ele>
        <time>2022-01-27T23:33:00Z</time>
      </trkpt>
      <trkpt lat="45.11042" lon="2.65472">
        <ele>1284</ele>
        <time>2022-01-27T23:33:05Z</time>
      </trkpt>
      <trkpt lat="45.11036" lon="2.65524">
        <ele>1287</ele>
        <time>2022-01-27T23:33:12Z</time>
      </trkpt>
      <trkpt lat="45.11031" lon="2.65551">
        <ele>1289</ele>
        <time>2022-01-27T23:33:16Z</time>
      </trkpt>
      <trkpt lat="45.11025" lon="2.656">
        <ele>1290</ele>
        <time>2022-01-27T23:33:22Z</time>
      </trkpt>
      <trkpt lat="45.11019" lon="2.65671">
        <ele>1293</ele>
        <time>2022-01-27T23:33:31Z</time>
      </trkpt>
      <trkpt lat="45.11026" lon="2.65785">
        <ele>1295</ele>
        <time>2022-01-27T23:33:45Z</time>
      </trkpt>
      <trkpt lat="45.11019" lon="2.65919">
        <ele>1307</ele>
        <time>2022-01-27T23:34:02Z</time>
      </trkpt>
      <trkpt lat="45.11026" lon="2.66045">
        <ele>1307</ele>
        <time>2022-01-27T23:34:18Z</time>
      </trkpt>
      <trkpt lat="45.1102" lon="2.66141">
        <ele>1305</ele>
        <time>2022-01-27T23:34:30Z</time>
      </trkpt>
      <trkpt lat="45.11018" lon="2.66152">
        <ele>1305</ele>
        <time>2022-01-27T23:34:31Z</time>
      </trkpt>
      <trkpt lat="45.11015" lon="2.66163">
        <ele>1305</ele>
        <time>2022-01-27T23:34:33Z</time>
      </trkpt>
      <trkpt lat="45.1101" lon="2.66173">
        <ele>1306</ele>
        <time>2022-01-27T23:34:35Z</time>
      </trkpt>
      <trkpt lat="45.10899" lon="2.66316">
        <ele>1322</ele>
        <time>2022-01-27T23:35:01Z</time>
      </trkpt>
      <trkpt lat="45.10889" lon="2.66332">
        <ele>1322</ele>
        <time>2022-01-27T23:35:04Z</time>
      </trkpt>
      <trkpt lat="45.10855" lon="2.66409">
        <ele>1323</ele>
        <time>2022-01-27T23:35:15Z</time>
      </trkpt>
      <trkpt lat="45.10844" lon="2.66444">
        <ele>1326</ele>
        <time>2022-01-27T23:35:20Z</time>
      </trkpt>
      <trkpt lat="45.10841" lon="2.66465">
        <ele>1328</ele>
        <time>2022-01-27T23:35:23Z</time>
      </trkpt>
      <trkpt lat="45.10843" lon="2.66485">
        <ele>1328</ele>
        <time>2022-01-27T23:35:25Z</time>
      </trkpt>
      <trkpt lat="45.10886" lon="2.66574">
        <ele>1328</ele>
        <time>2022-01-27T23:35:39Z</time>
      </trkpt>
      <trkpt lat="45.10926" lon="2.6665">
        <ele>1334</ele>
        <time>2022-01-27T23:35:51Z</time>
      </trkpt>
      <trkpt lat="45.10946" lon="2.66676">
        <ele>1339</ele>
        <time>2022-01-27T23:35:56Z</time>
      </trkpt>
      <trkpt lat="45.10974" lon="2.66693">
        <ele>1343</ele>
        <time>2022-01-27T23:36:01Z</time>
      </trkpt>
      <trkpt lat="45.10997" lon="2.6672">
        <ele>1350</ele>
        <time>2022-01-27T23:36:06Z</time>
      </trkpt>
      <trkpt lat="45.11003" lon="2.66721">
        <ele>1351</ele>
        <time>2022-01-27T23:36:07Z</time>
      </trkpt>
      <trkpt lat="45.11042" lon="2.66708">
        <ele>1355</ele>
        <time>2022-01-27T23:36:15Z</time>
      </trkpt>
      <trkpt lat="45.11112" lon="2.66696">
        <ele>1367</ele>
        <time>2022-01-27T23:36:27Z</time>
      </trkpt>
      <trkpt lat="45.11185" lon="2.66674">
        <ele>1376</ele>
        <time>2022-01-27T23:36:40Z</time>
      </trkpt>
      <trkpt lat="45.11289" lon="2.66629">
        <ele>1388</ele>
        <time>2022-01-27T23:37:00Z</time>
      </trkpt>
      <trkpt lat="45.11325" lon="2.66615">
        <ele>1392</ele>
        <time>2022-01-27T23:37:06Z</time>
      </trkpt>
      <trkpt lat="45.11457" lon="2.66505">
        <ele>1405</ele>
        <time>2022-01-27T23:37:34Z</time>
      </trkpt>
      <trkpt lat="45.11497" lon="2.66487">
        <ele>1415</ele>
        <time>2022-01-27T23:37:41Z</time>
      </trkpt>
      <trkpt lat="45.11577" lon="2.66443">
        <ele>1422</ele>
        <time>2022-01-27T23:37:56Z</time>
      </trkpt>
      <trkpt lat="45.11598" lon="2.66431">
        <ele>1423</ele>
        <time>2022-01-27T23:38:00Z</time>
      </trkpt>
      <trkpt lat="45.1163" lon="2.66407">
        <ele>1424</ele>
        <time>2022-01-27T23:38:07Z</time>
      </trkpt>
      <trkpt lat="45.11646" lon="2.664">
        <ele>1425</ele>
        <time>2022-01-27T23:38:10Z</time>
      </trkpt>
      <trkpt lat="45.11654" lon="2.66399">
        <ele>1427</ele>
        <time>2022-01-27T23:38:11Z</time>
      </trkpt>
      <trkpt lat="45.11663" lon="2.66399">
        <ele>1429</ele>
        <time>2022-01-27T23:38:13Z</time>
      </trkpt>
      <trkpt lat="45.11671" lon="2.66403">
        <ele>1431</ele>
        <time>2022-01-27T23:38:14Z</time>
      </trkpt>
      <trkpt lat="45.11691" lon="2.66418">
        <ele>1434</ele>
        <time>2022-01-27T23:38:18Z</time>
      </trkpt>
      <trkpt lat="45.11729" lon="2.66461">
        <ele>1451</ele>
        <time>2022-01-27T23:38:27Z</time>
      </trkpt>
      <trkpt lat="45.11749" lon="2.66473">
        <ele>1456</ele>
        <time>2022-01-27T23:38:31Z</time>
      </trkpt>
      <trkpt lat="45.11758" lon="2.6648">
        <ele>1457</ele>
        <time>2022-01-27T23:38:33Z</time>
      </trkpt>
      <trkpt lat="45.11801" lon="2.66526">
        <ele>1467</ele>
        <time>2022-01-27T23:38:42Z</time>
      </trkpt>
      <trkpt lat="45.11828" lon="2.6655">
        <ele>1472</ele>
        <time>2022-01-27T23:38:48Z</time>
      </trkpt>
      <trkpt lat="45.11859" lon="2.66571">
        <ele>1477</ele>
        <time>2022-01-27T23:38:54Z</time>
      </trkpt>
      <trkpt lat="45.1189" lon="2.66586">
        <ele>1481</ele>
        <time>2022-01-27T23:39:00Z</time>
      </trkpt>
      <trkpt lat="45.11938" lon="2.66597">
        <ele>1484</ele>
        <time>2022-01-27T23:39:09Z</time>
      </trkpt>
      <trkpt lat="45.11941" lon="2.66602">
        <ele>1487</ele>
        <time>2022-01-27T23:39:09Z</time>
      </trkpt>
      <trkpt lat="45.11941" lon="2.66609">
        <ele>1490</ele>
        <time>2022-01-27T23:39:10Z</time>
      </trkpt>
      <trkpt lat="45.11938" lon="2.66614">
        <ele>1493</ele>
        <time>2022-01-27T23:39:11Z</time>
      </trkpt>
      <trkpt lat="45.11934" lon="2.66616">
        <ele>1494</ele>
        <time>2022-01-27T23:39:12Z</time>
      </trkpt>
      <trkpt lat="45.11921" lon="2.66613">
        <ele>1492</ele>
        <time>2022-01-27T23:39:14Z</time>
      </trkpt>
      <trkpt lat="45.11812" lon="2.66622">
        <ele>1509</ele>
        <time>2022-01-27T23:39:34Z</time>
      </trkpt>
      <trkpt lat="45.11798" lon="2.6662">
        <ele>1511</ele>
        <time>2022-01-27T23:39:36Z</time>
      </trkpt>
      <trkpt lat="45.11781" lon="2.66615">
        <ele>1512</ele>
        <time>2022-01-27T23:39:39Z</time>
      </trkpt>
      <trkpt lat="45.11768" lon="2.66609">
        <ele>1512</ele>
        <time>2022-01-27T23:39:42Z</time>
      </trkpt>
      <trkpt lat="45.11759" lon="2.66602">
        <ele>1511</ele>
        <time>2022-01-27T23:39:43Z</time>
      </trkpt>
      <trkpt lat="45.11741" lon="2.66594">
        <ele>1508</ele>
        <time>2022-01-27T23:39:47Z</time>
      </trkpt>
      <trkpt lat="45.11724" lon="2.66593">
        <ele>1506</ele>
        <time>2022-01-27T23:39:50Z</time>
      </trkpt>
      <trkpt lat="45.11706" lon="2.666">
        <ele>1506</ele>
        <time>2022-01-27T23:39:53Z</time>
      </trkpt>
      <trkpt lat="45.11697" lon="2.66606">
        <ele>1508</ele>
        <time>2022-01-27T23:39:55Z</time>
      </trkpt>
      <trkpt lat="45.11678" lon="2.66627">
        <ele>1514</ele>
        <time>2022-01-27T23:39:59Z</time>
      </trkpt>
      <trkpt lat="45.11663" lon="2.66652">
        <ele>1520</ele>
        <time>2022-01-27T23:40:03Z</time>
      </trkpt>
      <trkpt lat="45.1165" lon="2.66689">
        <ele>1526</ele>
        <time>2022-01-27T23:40:09Z</time>
      </trkpt>
      <trkpt lat="45.11645" lon="2.6671">
        <ele>1530</ele>
        <time>2022-01-27T23:40:11Z</time>
      </trkpt>
      <trkpt lat="45.11634" lon="2.66782">
        <ele>1543</ele>
        <time>2022-01-27T23:40:21Z</time>
      </trkpt>
      <trkpt lat="45.11626" lon="2.66825">
        <ele>1549</ele>
        <time>2022-01-27T23:40:26Z</time>
      </trkpt>
      <trkpt lat="45.1162" lon="2.66844">
        <ele>1551</ele>
        <time>2022-01-27T23:40:29Z</time>
      </trkpt>
      <trkpt lat="45.11578" lon="2.66958">
        <ele>1561</ele>
        <time>2022-01-27T23:40:45Z</time>
      </trkpt>
      <trkpt lat="45.11569" lon="2.66978">
        <ele>1564</ele>
        <time>2022-01-27T23:40:48Z</time>
      </trkpt>
      <trkpt lat="45.11528" lon="2.67052">
        <ele>1570</ele>
        <time>2022-01-27T23:41:00Z</time>
      </trkpt>
      <trkpt lat="45.11516" lon="2.6707">
        <ele>1572</ele>
        <time>2022-01-27T23:41:03Z</time>
      </trkpt>
      <trkpt lat="45.11461" lon="2.67127">
        <ele>1569</ele>
        <time>2022-01-27T23:41:15Z</time>
      </trkpt>
      <trkpt lat="45.11409" lon="2.67174">
        <ele>1578</ele>
        <time>2022-01-27T23:41:26Z</time>
      </trkpt>
      <trkpt lat="45.11405" lon="2.67169">
        <ele>1578</ele>
        <time>2022-01-27T23:41:27Z</time>
      </trkpt>
      <trkpt lat="45.11391" lon="2.67166">
        <ele>1577</ele>
        <time>2022-01-27T23:41:29Z</time>
      </trkpt>
      <trkpt lat="45.1124" lon="2.6718">
        <ele>1581</ele>
        <time>2022-01-27T23:41:56Z</time>
      </trkpt>
      <trkpt lat="45.11198" lon="2.67171">
        <ele>1576</ele>
        <time>2022-01-27T23:42:04Z</time>
      </trkpt>
      <trkpt lat="45.11174" lon="2.67171">
        <ele>1575</ele>
        <time>2022-01-27T23:42:08Z</time>
      </trkpt>
      <trkpt lat="45.11104" lon="2.67175">
        <ele>1570</ele>
        <time>2022-01-27T23:42:21Z</time>
      </trkpt>
      <trkpt lat="45.1108" lon="2.6718">
        <ele>1570</ele>
        <time>2022-01-27T23:42:25Z</time>
      </trkpt>
      <trkpt lat="45.11049" lon="2.67196">
        <ele>1577</ele>
        <time>2022-01-27T23:42:31Z</time>
      </trkpt>
      <trkpt lat="45.11031" lon="2.67197">
        <ele>1576</ele>
        <time>2022-01-27T23:42:34Z</time>
      </trkpt>
      <trkpt lat="45.11002" lon="2.67182">
        <ele>1567</ele>
        <time>2022-01-27T23:42:39Z</time>
      </trkpt>
      <trkpt lat="45.1093" lon="2.67184">
        <ele>1569</ele>
        <time>2022-01-27T23:42:52Z</time>
      </trkpt>
      <trkpt lat="45.10922" lon="2.67181">
        <ele>1567</ele>
        <time>2022-01-27T23:42:54Z</time>
      </trkpt>
      <trkpt lat="45.10904" lon="2.67169">
        <ele>1562</ele>
        <time>2022-01-27T23:42:57Z</time>
      </trkpt>
      <trkpt lat="45.10888" lon="2.67167">
        <ele>1564</ele>
        <time>2022-01-27T23:43:00Z</time>
      </trkpt>
      <trkpt lat="45.10868" lon="2.67159">
        <ele>1563</ele>
        <time>2022-01-27T23:43:04Z</time>
      </trkpt>
      <trkpt lat="45.10853" lon="2.67156">
        <ele>1564</ele>
        <time>2022-01-27T23:43:07Z</time>
      </trkpt>
      <trkpt lat="45.10798" lon="2.67132">
        <ele>1558</ele>
        <time>2022-01-27T23:43:17Z</time>
      </trkpt>
      <trkpt lat="45.10788" lon="2.67131">
        <ele>1559</ele>
        <time>2022-01-27T23:43:19Z</time>
      </trkpt>
      <trkpt lat="45.10752" lon="2.67136">
        <ele>1567</ele>
        <time>2022-01-27T23:43:25Z</time>
      </trkpt>
      <trkpt lat="45.10744" lon="2.67135">
        <ele>1568</ele>
        <time>2022-01-27T23:43:26Z</time>
      </trkpt>
      <trkpt lat="45.10732" lon="2.67128">
        <ele>1566</ele>
        <time>2022-01-27T23:43:29Z</time>
      </trkpt>
      <trkpt lat="45.10688" lon="2.67075">
        <ele>1561</ele>
        <time>2022-01-27T23:43:39Z</time>
      </trkpt>
      <trkpt lat="45.10671" lon="2.67063">
        <ele>1562</ele>
        <time>2022-01-27T23:43:42Z</time>
      </trkpt>
      <trkpt lat="45.10663" lon="2.67049">
        <ele>1560</ele>
        <time>2022-01-27T23:43:45Z</time>
      </trkpt>
      <trkpt lat="45.10636" lon="2.67017">
        <ele>1560</ele>
        <time>2022-01-27T23:43:51Z</time>
      </trkpt>
      <trkpt lat="45.1062" lon="2.66977">
        <ele>1553</ele>
        <time>2022-01-27T23:43:57Z</time>
      </trkpt>
      <trkpt lat="45.10613" lon="2.66965">
        <ele>1552</ele>
        <time>2022-01-27T23:43:59Z</time>
      </trkpt>
      <trkpt lat="45.10557" lon="2.66919">
        <ele>1558</ele>
        <time>2022-01-27T23:44:10Z</time>
      </trkpt>
      <trkpt lat="45.10539" lon="2.66887">
        <ele>1550</ele>
        <time>2022-01-27T23:44:15Z</time>
      </trkpt>
      <trkpt lat="45.10496" lon="2.66831">
        <ele>1541</ele>
        <time>2022-01-27T23:44:26Z</time>
      </trkpt>
      <trkpt lat="45.10491" lon="2.66819">
        <ele>1539</ele>
        <time>2022-01-27T23:44:27Z</time>
      </trkpt>
      <trkpt lat="45.10477" lon="2.66765">
        <ele>1532</ele>
        <time>2022-01-27T23:44:35Z</time>
      </trkpt>
      <trkpt lat="45.10472" lon="2.66737">
        <ele>1532</ele>
        <time>2022-01-27T23:44:38Z</time>
      </trkpt>
      <trkpt lat="45.10466" lon="2.66674">
        <ele>1538</ele>
        <time>2022-01-27T23:44:46Z</time>
      </trkpt>
      <trkpt lat="45.10469" lon="2.66657">
        <ele>1540</ele>
        <time>2022-01-27T23:44:48Z</time>
      </trkpt>
      <trkpt lat="45.10474" lon="2.66651">
        <ele>1541</ele>
        <time>2022-01-27T23:44:50Z</time>
      </trkpt>
      <trkpt lat="45.10487" lon="2.66644">
        <ele>1542</ele>
        <time>2022-01-27T23:44:52Z</time>
      </trkpt>
      <trkpt lat="45.10491" lon="2.66637">
        <ele>1542</ele>
        <time>2022-01-27T23:44:53Z</time>
      </trkpt>
      <trkpt lat="45.10494" lon="2.6663">
        <ele>1542</ele>
        <time>2022-01-27T23:44:54Z</time>
      </trkpt>
      <trkpt lat="45.10495" lon="2.66618">
        <ele>1542</ele>
        <time>2022-01-27T23:44:56Z</time>
      </trkpt>
      <trkpt lat="45.10493" lon="2.66605">
        <ele>1541</ele>
        <time>2022-01-27T23:44:57Z</time>
      </trkpt>
      <trkpt lat="45.10483" lon="2.66576">
        <ele>1539</ele>
        <time>2022-01-27T23:45:02Z</time>
      </trkpt>
      <trkpt lat="45.1048" lon="2.66565">
        <ele>1536</ele>
        <time>2022-01-27T23:45:03Z</time>
      </trkpt>
      <trkpt lat="45.10484" lon="2.66529">
        <ele>1526</ele>
        <time>2022-01-27T23:45:08Z</time>
      </trkpt>
      <trkpt lat="45.10483" lon="2.66519">
        <ele>1523</ele>
        <time>2022-01-27T23:45:09Z</time>
      </trkpt>
      <trkpt lat="45.10475" lon="2.66509">
        <ele>1523</ele>
        <time>2022-01-27T23:45:11Z</time>
      </trkpt>
      <trkpt lat="45.10454" lon="2.665">
        <ele>1529</ele>
        <time>2022-01-27T23:45:15Z</time>
      </trkpt>
      <trkpt lat="45.10449" lon="2.66494">
        <ele>1529</ele>
        <time>2022-01-27T23:45:16Z</time>
      </trkpt>
      <trkpt lat="45.10445" lon="2.66487">
        <ele>1529</ele>
        <time>2022-01-27T23:45:17Z</time>
      </trkpt>
      <trkpt lat="45.10429" lon="2.66391">
        <ele>1516</ele>
        <time>2022-01-27T23:45:29Z</time>
      </trkpt>
      <trkpt lat="45.10427" lon="2.66371">
        <ele>1515</ele>
        <time>2022-01-27T23:45:32Z</time>
      </trkpt>
      <trkpt lat="45.1044" lon="2.66238">
        <ele>1511</ele>
        <time>2022-01-27T23:45:49Z</time>
      </trkpt>
      <trkpt lat="45.1044" lon="2.66225">
        <ele>1513</ele>
        <time>2022-01-27T23:45:50Z</time>
      </trkpt>
      <trkpt lat="45.10438" lon="2.66216">
        <ele>1515</ele>
        <time>2022-01-27T23:45:52Z</time>
      </trkpt>
      <trkpt lat="45.10433" lon="2.66211">
        <ele>1516</ele>
        <time>2022-01-27T23:45:53Z</time>
      </trkpt>
      <trkpt lat="45.10425" lon="2.6621">
        <ele>1518</ele>
        <time>2022-01-27T23:45:54Z</time>
      </trkpt>
      <trkpt lat="45.10417" lon="2.66215">
        <ele>1518</ele>
        <time>2022-01-27T23:45:56Z</time>
      </trkpt>
      <trkpt lat="45.10412" lon="2.66227">
        <ele>1514</ele>
        <time>2022-01-27T23:45:57Z</time>
      </trkpt>
      <trkpt lat="45.10401" lon="2.66275">
        <ele>1506</ele>
        <time>2022-01-27T23:46:04Z</time>
      </trkpt>
      <trkpt lat="45.10395" lon="2.66327">
        <ele>1503</ele>
        <time>2022-01-27T23:46:10Z</time>
      </trkpt>
      <trkpt lat="45.1039" lon="2.66346">
        <ele>1502</ele>
        <time>2022-01-27T23:46:13Z</time>
      </trkpt>
      <trkpt lat="45.1037" lon="2.66395">
        <ele>1495</ele>
        <time>2022-01-27T23:46:20Z</time>
      </trkpt>
      <trkpt lat="45.10367" lon="2.66412">
        <ele>1494</ele>
        <time>2022-01-27T23:46:22Z</time>
      </trkpt>
      <trkpt lat="45.10373" lon="2.66452">
        <ele>1506</ele>
        <time>2022-01-27T23:46:27Z</time>
      </trkpt>
      <trkpt lat="45.10355" lon="2.66543">
        <ele>1508</ele>
        <time>2022-01-27T23:46:39Z</time>
      </trkpt>
      <trkpt lat="45.10356" lon="2.66566">
        <ele>1510</ele>
        <time>2022-01-27T23:46:42Z</time>
      </trkpt>
      <trkpt lat="45.10357" lon="2.66578">
        <ele>1511</ele>
        <time>2022-01-27T23:46:44Z</time>
      </trkpt>
      <trkpt lat="45.10363" lon="2.66593">
        <ele>1512</ele>
        <time>2022-01-27T23:46:46Z</time>
      </trkpt>
      <trkpt lat="45.10376" lon="2.66616">
        <ele>1515</ele>
        <time>2022-01-27T23:46:49Z</time>
      </trkpt>
      <trkpt lat="45.10383" lon="2.66644">
        <ele>1514</ele>
        <time>2022-01-27T23:46:53Z</time>
      </trkpt>
      <trkpt lat="45.10385" lon="2.66672">
        <ele>1510</ele>
        <time>2022-01-27T23:46:57Z</time>
      </trkpt>
      <trkpt lat="45.10388" lon="2.66691">
        <ele>1509</ele>
        <time>2022-01-27T23:46:59Z</time>
      </trkpt>
      <trkpt lat="45.10396" lon="2.66727">
        <ele>1509</ele>
        <time>2022-01-27T23:47:04Z</time>
      </trkpt>
      <trkpt lat="45.10405" lon="2.66794">
        <ele>1509</ele>
        <time>2022-01-27T23:47:12Z</time>
      </trkpt>
      <trkpt lat="45.10405" lon="2.66808">
        <ele>1509</ele>
        <time>2022-01-27T23:47:14Z</time>
      </trkpt>
      <trkpt lat="45.10403" lon="2.66818">
        <ele>1507</ele>
        <time>2022-01-27T23:47:16Z</time>
      </trkpt>
      <trkpt lat="45.10382" lon="2.66858">
        <ele>1501</ele>
        <time>2022-01-27T23:47:22Z</time>
      </trkpt>
      <trkpt lat="45.10373" lon="2.66886">
        <ele>1504</ele>
        <time>2022-01-27T23:47:26Z</time>
      </trkpt>
      <trkpt lat="45.10365" lon="2.66901">
        <ele>1504</ele>
        <time>2022-01-27T23:47:28Z</time>
      </trkpt>
      <trkpt lat="45.10336" lon="2.66937">
        <ele>1500</ele>
        <time>2022-01-27T23:47:35Z</time>
      </trkpt>
      <trkpt lat="45.10324" lon="2.66948">
        <ele>1498</ele>
        <time>2022-01-27T23:47:37Z</time>
      </trkpt>
      <trkpt lat="45.10312" lon="2.66955">
        <ele>1495</ele>
        <time>2022-01-27T23:47:40Z</time>
      </trkpt>
      <trkpt lat="45.10301" lon="2.66959">
        <ele>1492</ele>
        <time>2022-01-27T23:47:42Z</time>
      </trkpt>
      <trkpt lat="45.10271" lon="2.66963">
        <ele>1480</ele>
        <time>2022-01-27T23:47:47Z</time>
      </trkpt>
      <trkpt lat="45.10256" lon="2.6697">
        <ele>1476</ele>
        <time>2022-01-27T23:47:50Z</time>
      </trkpt>
      <trkpt lat="45.10234" lon="2.66993">
        <ele>1473</ele>
        <time>2022-01-27T23:47:55Z</time>
      </trkpt>
      <trkpt lat="45.10229" lon="2.67002">
        <ele>1473</ele>
        <time>2022-01-27T23:47:56Z</time>
      </trkpt>
      <trkpt lat="45.10228" lon="2.67012">
        <ele>1471</ele>
        <time>2022-01-27T23:47:58Z</time>
      </trkpt>
      <trkpt lat="45.10233" lon="2.67028">
        <ele>1471</ele>
        <time>2022-01-27T23:48:00Z</time>
      </trkpt>
      <trkpt lat="45.10242" lon="2.67037">
        <ele>1473</ele>
        <time>2022-01-27T23:48:02Z</time>
      </trkpt>
      <trkpt lat="45.10256" lon="2.67049">
        <ele>1476</ele>
        <time>2022-01-27T23:48:05Z</time>
      </trkpt>
      <trkpt lat="45.10292" lon="2.67067">
        <ele>1489</ele>
        <time>2022-01-27T23:48:11Z</time>
      </trkpt>
      <trkpt lat="45.10315" lon="2.67086">
        <ele>1495</ele>
        <time>2022-01-27T23:48:16Z</time>
      </trkpt>
      <trkpt lat="45.10345" lon="2.67107">
        <ele>1503</ele>
        <time>2022-01-27T23:48:22Z</time>
      </trkpt>
      <trkpt lat="45.10351" lon="2.67115">
        <ele>1504</ele>
        <time>2022-01-27T23:48:24Z</time>
      </trkpt>
      <trkpt lat="45.10353" lon="2.67127">
        <ele>1500</ele>
        <time>2022-01-27T23:48:25Z</time>
      </trkpt>
      <trkpt lat="45.10356" lon="2.67175">
        <ele>1481</ele>
        <time>2022-01-27T23:48:31Z</time>
      </trkpt>
      <trkpt lat="45.10365" lon="2.67219">
        <ele>1471</ele>
        <time>2022-01-27T23:48:37Z</time>
      </trkpt>
      <trkpt lat="45.10371" lon="2.67232">
        <ele>1470</ele>
        <time>2022-01-27T23:48:39Z</time>
      </trkpt>
      <trkpt lat="45.10407" lon="2.673">
        <ele>1463</ele>
        <time>2022-01-27T23:48:50Z</time>
      </trkpt>
      <trkpt lat="45.10414" lon="2.6731">
        <ele>1463</ele>
        <time>2022-01-27T23:48:51Z</time>
      </trkpt>
      <trkpt lat="45.10422" lon="2.67314">
        <ele>1463</ele>
        <time>2022-01-27T23:48:53Z</time>
      </trkpt>
      <trkpt lat="45.10467" lon="2.67313">
        <ele>1471</ele>
        <time>2022-01-27T23:49:01Z</time>
      </trkpt>
      <trkpt lat="45.10481" lon="2.67314">
        <ele>1473</ele>
        <time>2022-01-27T23:49:03Z</time>
      </trkpt>
      <trkpt lat="45.10494" lon="2.67317">
        <ele>1474</ele>
        <time>2022-01-27T23:49:06Z</time>
      </trkpt>
      <trkpt lat="45.10522" lon="2.67333">
        <ele>1478</ele>
        <time>2022-01-27T23:49:11Z</time>
      </trkpt>
      <trkpt lat="45.10533" lon="2.67349">
        <ele>1480</ele>
        <time>2022-01-27T23:49:14Z</time>
      </trkpt>
      <trkpt lat="45.10535" lon="2.6736">
        <ele>1479</ele>
        <time>2022-01-27T23:49:15Z</time>
      </trkpt>
      <trkpt lat="45.10536" lon="2.67378">
        <ele>1476</ele>
        <time>2022-01-27T23:49:18Z</time>
      </trkpt>
      <trkpt lat="45.10533" lon="2.67425">
        <ele>1466</ele>
        <time>2022-01-27T23:49:23Z</time>
      </trkpt>
      <trkpt lat="45.10538" lon="2.67448">
        <ele>1466</ele>
        <time>2022-01-27T23:49:26Z</time>
      </trkpt>
      <trkpt lat="45.10551" lon="2.67476">
        <ele>1471</ele>
        <time>2022-01-27T23:49:31Z</time>
      </trkpt>
      <trkpt lat="45.10554" lon="2.67486">
        <ele>1472</ele>
        <time>2022-01-27T23:49:32Z</time>
      </trkpt>
      <trkpt lat="45.10554" lon="2.67496">
        <ele>1471</ele>
        <time>2022-01-27T23:49:33Z</time>
      </trkpt>
      <trkpt lat="45.10552" lon="2.67509">
        <ele>1470</ele>
        <time>2022-01-27T23:49:35Z</time>
      </trkpt>
      <trkpt lat="45.10536" lon="2.67548">
        <ele>1462</ele>
        <time>2022-01-27T23:49:41Z</time>
      </trkpt>
      <trkpt lat="45.10527" lon="2.67581">
        <ele>1458</ele>
        <time>2022-01-27T23:49:45Z</time>
      </trkpt>
      <trkpt lat="45.105" lon="2.67641">
        <ele>1447</ele>
        <time>2022-01-27T23:49:54Z</time>
      </trkpt>
      <trkpt lat="45.10468" lon="2.677">
        <ele>1440</ele>
        <time>2022-01-27T23:50:03Z</time>
      </trkpt>
      <trkpt lat="45.10463" lon="2.67712">
        <ele>1440</ele>
        <time>2022-01-27T23:50:05Z</time>
      </trkpt>
      <trkpt lat="45.10446" lon="2.67782">
        <ele>1444</ele>
        <time>2022-01-27T23:50:14Z</time>
      </trkpt>
      <trkpt lat="45.10439" lon="2.678">
        <ele>1443</ele>
        <time>2022-01-27T23:50:17Z</time>
      </trkpt>
      <trkpt lat="45.1043" lon="2.67815">
        <ele>1440</ele>
        <time>2022-01-27T23:50:19Z</time>
      </trkpt>
      <trkpt lat="45.10424" lon="2.67829">
        <ele>1439</ele>
        <time>2022-01-27T23:50:22Z</time>
      </trkpt>
      <trkpt lat="45.10421" lon="2.67843">
        <ele>1438</ele>
        <time>2022-01-27T23:50:23Z</time>
      </trkpt>
      <trkpt lat="45.10417" lon="2.67871">
        <ele>1437</ele>
        <time>2022-01-27T23:50:27Z</time>
      </trkpt>
      <trkpt lat="45.10414" lon="2.67901">
        <ele>1437</ele>
        <time>2022-01-27T23:50:31Z</time>
      </trkpt>
      <trkpt lat="45.10411" lon="2.67949">
        <ele>1439</ele>
        <time>2022-01-27T23:50:37Z</time>
      </trkpt>
      <trkpt lat="45.10408" lon="2.67968">
        <ele>1440</ele>
        <time>2022-01-27T23:50:39Z</time>
      </trkpt>
      <trkpt lat="45.10402" lon="2.67984">
        <ele>1438</ele>
        <time>2022-01-27T23:50:42Z</time>
      </trkpt>
      <trkpt lat="45.10395" lon="2.67996">
        <ele>1436</ele>
        <time>2022-01-27T23:50:43Z</time>
      </trkpt>
      <trkpt lat="45.10384" lon="2.68009">
        <ele>1434</ele>
        <time>2022-01-27T23:50:46Z</time>
      </trkpt>
      <trkpt lat="45.10323" lon="2.68061">
        <ele>1423</ele>
        <time>2022-01-27T23:50:59Z</time>
      </trkpt>
      <trkpt lat="45.10313" lon="2.68068">
        <ele>1422</ele>
        <time>2022-01-27T23:51:01Z</time>
      </trkpt>
      <trkpt lat="45.10303" lon="2.68071">
        <ele>1419</ele>
        <time>2022-01-27T23:51:02Z</time>
      </trkpt>
      <trkpt lat="45.10272" lon="2.68067">
        <ele>1408</ele>
        <time>2022-01-27T23:51:08Z</time>
      </trkpt>
      <trkpt lat="45.10262" lon="2.6807">
        <ele>1405</ele>
        <time>2022-01-27T23:51:10Z</time>
      </trkpt>
      <trkpt lat="45.10229" lon="2.68086">
        <ele>1399</ele>
        <time>2022-01-27T23:51:16Z</time>
      </trkpt>
      <trkpt lat="45.1022" lon="2.68095">
        <ele>1400</ele>
        <time>2022-01-27T23:51:18Z</time>
      </trkpt>
      <trkpt lat="45.10214" lon="2.68105">
        <ele>1401</ele>
        <time>2022-01-27T23:51:20Z</time>
      </trkpt>
      <trkpt lat="45.10209" lon="2.68121">
        <ele>1405</ele>
        <time>2022-01-27T23:51:22Z</time>
      </trkpt>
      <trkpt lat="45.10203" lon="2.68131">
        <ele>1406</ele>
        <time>2022-01-27T23:51:23Z</time>
      </trkpt>
      <trkpt lat="45.10182" lon="2.68149">
        <ele>1405</ele>
        <time>2022-01-27T23:51:28Z</time>
      </trkpt>
      <trkpt lat="45.10162" lon="2.68163">
        <ele>1403</ele>
        <time>2022-01-27T23:51:32Z</time>
      </trkpt>
      <trkpt lat="45.10141" lon="2.68181">
        <ele>1404</ele>
        <time>2022-01-27T23:51:36Z</time>
      </trkpt>
      <trkpt lat="45.10131" lon="2.68185">
        <ele>1402</ele>
        <time>2022-01-27T23:51:38Z</time>
      </trkpt>
      <trkpt lat="45.10102" lon="2.68188">
        <ele>1395</ele>
        <time>2022-01-27T23:51:43Z</time>
      </trkpt>
      <trkpt lat="45.1009" lon="2.68192">
        <ele>1393</ele>
        <time>2022-01-27T23:51:45Z</time>
      </trkpt>
      <trkpt lat="45.10049" lon="2.68215">
        <ele>1392</ele>
        <time>2022-01-27T23:51:53Z</time>
      </trkpt>
      <trkpt lat="45.10005" lon="2.6823">
        <ele>1387</ele>
        <time>2022-01-27T23:52:01Z</time>
      </trkpt>
      <trkpt lat="45.0994" lon="2.68269">
        <ele>1380</ele>
        <time>2022-01-27T23:52:14Z</time>
      </trkpt>
      <trkpt lat="45.09933" lon="2.68276">
        <ele>1378</ele>
        <time>2022-01-27T23:52:15Z</time>
      </trkpt>
      <trkpt lat="45.09931" lon="2.68284">
        <ele>1378</ele>
        <time>2022-01-27T23:52:16Z</time>
      </trkpt>
      <trkpt lat="45.09929" lon="2.68293">
        <ele>1377</ele>
        <time>2022-01-27T23:52:18Z</time>
      </trkpt>
      <trkpt lat="45.09931" lon="2.68307">
        <ele>1378</ele>
        <time>2022-01-27T23:52:19Z</time>
      </trkpt>
      <trkpt lat="45.09936" lon="2.68324">
        <ele>1380</ele>
        <time>2022-01-27T23:52:22Z</time>
      </trkpt>
      <trkpt lat="45.09954" lon="2.68369">
        <ele>1384</ele>
        <time>2022-01-27T23:52:28Z</time>
      </trkpt>
      <trkpt lat="45.09957" lon="2.68381">
        <ele>1384</ele>
        <time>2022-01-27T23:52:30Z</time>
      </trkpt>
      <trkpt lat="45.09957" lon="2.68427">
        <ele>1380</ele>
        <time>2022-01-27T23:52:36Z</time>
      </trkpt>
      <trkpt lat="45.09962" lon="2.68462">
        <ele>1379</ele>
        <time>2022-01-27T23:52:40Z</time>
      </trkpt>
      <trkpt lat="45.09963" lon="2.68478">
        <ele>1379</ele>
        <time>2022-01-27T23:52:42Z</time>
      </trkpt>
      <trkpt lat="45.09961" lon="2.68516">
        <ele>1375</ele>
        <time>2022-01-27T23:52:47Z</time>
      </trkpt>
      <trkpt lat="45.0997" lon="2.68556">
        <ele>1378</ele>
        <time>2022-01-27T23:52:52Z</time>
      </trkpt>
      <trkpt lat="45.09969" lon="2.68565">
        <ele>1378</ele>
        <time>2022-01-27T23:52:53Z</time>
      </trkpt>
      <trkpt lat="45.09949" lon="2.6861">
        <ele>1374</ele>
        <time>2022-01-27T23:53:00Z</time>
      </trkpt>
      <trkpt lat="45.09926" lon="2.68642">
        <ele>1372</ele>
        <time>2022-01-27T23:53:06Z</time>
      </trkpt>
      <trkpt lat="45.09916" lon="2.68651">
        <ele>1370</ele>
        <time>2022-01-27T23:53:08Z</time>
      </trkpt>
      <trkpt lat="45.09864" lon="2.68661">
        <ele>1361</ele>
        <time>2022-01-27T23:53:17Z</time>
      </trkpt>
      <trkpt lat="45.09853" lon="2.68665">
        <ele>1359</ele>
        <time>2022-01-27T23:53:19Z</time>
      </trkpt>
      <trkpt lat="45.0983" lon="2.68683">
        <ele>1360</ele>
        <time>2022-01-27T23:53:24Z</time>
      </trkpt>
      <trkpt lat="45.0982" lon="2.68688">
        <ele>1361</ele>
        <time>2022-01-27T23:53:26Z</time>
      </trkpt>
      <trkpt lat="45.09809" lon="2.68691">
        <ele>1361</ele>
        <time>2022-01-27T23:53:28Z</time>
      </trkpt>
      <trkpt lat="45.09768" lon="2.6869">
        <ele>1357</ele>
        <time>2022-01-27T23:53:35Z</time>
      </trkpt>
      <trkpt lat="45.0973" lon="2.6868">
        <ele>1350</ele>
        <time>2022-01-27T23:53:42Z</time>
      </trkpt>
      <trkpt lat="45.0971" lon="2.6868">
        <ele>1348</ele>
        <time>2022-01-27T23:53:46Z</time>
      </trkpt>
      <trkpt lat="45.09681" lon="2.68682">
        <ele>1346</ele>
        <time>2022-01-27T23:53:51Z</time>
      </trkpt>
      <trkpt lat="45.09603" lon="2.68702">
        <ele>1346</ele>
        <time>2022-01-27T23:54:05Z</time>
      </trkpt>
      <trkpt lat="45.09588" lon="2.68704">
        <ele>1346</ele>
        <time>2022-01-27T23:54:07Z</time>
      </trkpt>
      <trkpt lat="45.09572" lon="2.68702">
        <ele>1343</ele>
        <time>2022-01-27T23:54:10Z</time>
      </trkpt>
      <trkpt lat="45.09556" lon="2.68695">
        <ele>1340</ele>
        <time>2022-01-27T23:54:13Z</time>
      </trkpt>
      <trkpt lat="45.09541" lon="2.68684">
        <ele>1335</ele>
        <time>2022-01-27T23:54:16Z</time>
      </trkpt>
      <trkpt lat="45.09508" lon="2.68653">
        <ele>1326</ele>
        <time>2022-01-27T23:54:23Z</time>
      </trkpt>
      <trkpt lat="45.09469" lon="2.68621">
        <ele>1321</ele>
        <time>2022-01-27T23:54:31Z</time>
      </trkpt>
      <trkpt lat="45.09445" lon="2.68593">
        <ele>1319</ele>
        <time>2022-01-27T23:54:37Z</time>
      </trkpt>
      <trkpt lat="45.09412" lon="2.68534">
        <ele>1312</ele>
        <time>2022-01-27T23:54:46Z</time>
      </trkpt>
      <trkpt lat="45.09383" lon="2.68499">
        <ele>1310</ele>
        <time>2022-01-27T23:54:53Z</time>
      </trkpt>
      <trkpt lat="45.09375" lon="2.68483">
        <ele>1308</ele>
        <time>2022-01-27T23:54:56Z</time>
      </trkpt>
      <trkpt lat="45.0937" lon="2.68467">
        <ele>1306</ele>
        <time>2022-01-27T23:54:58Z</time>
      </trkpt>
      <trkpt lat="45.09365" lon="2.68435">
        <ele>1301</ele>
        <time>2022-01-27T23:55:02Z</time>
      </trkpt>
      <trkpt lat="45.09361" lon="2.68418">
        <ele>1299</ele>
        <time>2022-01-27T23:55:04Z</time>
      </trkpt>
      <trkpt lat="45.09354" lon="2.68405">
        <ele>1298</ele>
        <time>2022-01-27T23:55:06Z</time>
      </trkpt>
      <trkpt lat="45.09337" lon="2.68384">
        <ele>1297</ele>
        <time>2022-01-27T23:55:10Z</time>
      </trkpt>
      <trkpt lat="45.09316" lon="2.68346">
        <ele>1290</ele>
        <time>2022-01-27T23:55:16Z</time>
      </trkpt>
      <trkpt lat="45.09307" lon="2.68334">
        <ele>1288</ele>
        <time>2022-01-27T23:55:18Z</time>
      </trkpt>
      <trkpt lat="45.09299" lon="2.68328">
        <ele>1287</ele>
        <time>2022-01-27T23:55:20Z</time>
      </trkpt>
      <trkpt lat="45.09289" lon="2.68327">
        <ele>1287</ele>
        <time>2022-01-27T23:55:22Z</time>
      </trkpt>
      <trkpt lat="45.09281" lon="2.68329">
        <ele>1287</ele>
        <time>2022-01-27T23:55:23Z</time>
      </trkpt>
      <trkpt lat="45.09272" lon="2.68334">
        <ele>1289</ele>
        <time>2022-01-27T23:55:25Z</time>
      </trkpt>
      <trkpt lat="45.09262" lon="2.68345">
        <ele>1290</ele>
        <time>2022-01-27T23:55:27Z</time>
      </trkpt>
      <trkpt lat="45.09248" lon="2.68364">
        <ele>1292</ele>
        <time>2022-01-27T23:55:31Z</time>
      </trkpt>
      <trkpt lat="45.09233" lon="2.68396">
        <ele>1289</ele>
        <time>2022-01-27T23:55:36Z</time>
      </trkpt>
      <trkpt lat="45.09227" lon="2.68413">
        <ele>1288</ele>
        <time>2022-01-27T23:55:38Z</time>
      </trkpt>
      <trkpt lat="45.09223" lon="2.68429">
        <ele>1286</ele>
        <time>2022-01-27T23:55:40Z</time>
      </trkpt>
      <trkpt lat="45.09219" lon="2.68478">
        <ele>1286</ele>
        <time>2022-01-27T23:55:46Z</time>
      </trkpt>
      <trkpt lat="45.09221" lon="2.68505">
        <ele>1287</ele>
        <time>2022-01-27T23:55:50Z</time>
      </trkpt>
      <trkpt lat="45.09235" lon="2.68592">
        <ele>1285</ele>
        <time>2022-01-27T23:56:01Z</time>
      </trkpt>
      <trkpt lat="45.09237" lon="2.68603">
        <ele>1285</ele>
        <time>2022-01-27T23:56:02Z</time>
      </trkpt>
      <trkpt lat="45.09246" lon="2.68622">
        <ele>1287</ele>
        <time>2022-01-27T23:56:05Z</time>
      </trkpt>
      <trkpt lat="45.0925" lon="2.68634">
        <ele>1288</ele>
        <time>2022-01-27T23:56:07Z</time>
      </trkpt>
      <trkpt lat="45.09251" lon="2.68646">
        <ele>1286</ele>
        <time>2022-01-27T23:56:08Z</time>
      </trkpt>
      <trkpt lat="45.09246" lon="2.68682">
        <ele>1279</ele>
        <time>2022-01-27T23:56:13Z</time>
      </trkpt>
      <trkpt lat="45.09246" lon="2.68729">
        <ele>1272</ele>
        <time>2022-01-27T23:56:19Z</time>
      </trkpt>
      <trkpt lat="45.09251" lon="2.68749">
        <ele>1271</ele>
        <time>2022-01-27T23:56:22Z</time>
      </trkpt>
      <trkpt lat="45.09259" lon="2.68764">
        <ele>1270</ele>
        <time>2022-01-27T23:56:24Z</time>
      </trkpt>
      <trkpt lat="45.09267" lon="2.68775">
        <ele>1270</ele>
        <time>2022-01-27T23:56:26Z</time>
      </trkpt>
      <trkpt lat="45.09305" lon="2.68791">
        <ele>1279</ele>
        <time>2022-01-27T23:56:33Z</time>
      </trkpt>
      <trkpt lat="45.09312" lon="2.68798">
        <ele>1280</ele>
        <time>2022-01-27T23:56:34Z</time>
      </trkpt>
      <trkpt lat="45.09325" lon="2.68828">
        <ele>1277</ele>
        <time>2022-01-27T23:56:39Z</time>
      </trkpt>
      <trkpt lat="45.09333" lon="2.6888">
        <ele>1274</ele>
        <time>2022-01-27T23:56:46Z</time>
      </trkpt>
      <trkpt lat="45.09333" lon="2.68902">
        <ele>1272</ele>
        <time>2022-01-27T23:56:48Z</time>
      </trkpt>
      <trkpt lat="45.0933" lon="2.68914">
        <ele>1270</ele>
        <time>2022-01-27T23:56:50Z</time>
      </trkpt>
      <trkpt lat="45.09316" lon="2.68935">
        <ele>1262</ele>
        <time>2022-01-27T23:56:54Z</time>
      </trkpt>
      <trkpt lat="45.09313" lon="2.68944">
        <ele>1261</ele>
        <time>2022-01-27T23:56:55Z</time>
      </trkpt>
      <trkpt lat="45.09312" lon="2.68954">
        <ele>1260</ele>
        <time>2022-01-27T23:56:56Z</time>
      </trkpt>
      <trkpt lat="45.09312" lon="2.68999">
        <ele>1260</ele>
        <time>2022-01-27T23:57:02Z</time>
      </trkpt>
      <trkpt lat="45.09314" lon="2.69049">
        <ele>1253</ele>
        <time>2022-01-27T23:57:08Z</time>
      </trkpt>
      <trkpt lat="45.09318" lon="2.69068">
        <ele>1253</ele>
        <time>2022-01-27T23:57:11Z</time>
      </trkpt>
      <trkpt lat="45.09326" lon="2.69089">
        <ele>1252</ele>
        <time>2022-01-27T23:57:14Z</time>
      </trkpt>
      <trkpt lat="45.0934" lon="2.69113">
        <ele>1250</ele>
        <time>2022-01-27T23:57:17Z</time>
      </trkpt>
      <trkpt lat="45.09352" lon="2.69129">
        <ele>1248</ele>
        <time>2022-01-27T23:57:20Z</time>
      </trkpt>
      <trkpt lat="45.09369" lon="2.69145">
        <ele>1248</ele>
        <time>2022-01-27T23:57:24Z</time>
      </trkpt>
      <trkpt lat="45.09418" lon="2.69183">
        <ele>1253</ele>
        <time>2022-01-27T23:57:34Z</time>
      </trkpt>
      <trkpt lat="45.09427" lon="2.69192">
        <ele>1255</ele>
        <time>2022-01-27T23:57:36Z</time>
      </trkpt>
      <trkpt lat="45.09432" lon="2.69202">
        <ele>1255</ele>
        <time>2022-01-27T23:57:37Z</time>
      </trkpt>
      <trkpt lat="45.09436" lon="2.69217">
        <ele>1254</ele>
        <time>2022-01-27T23:57:39Z</time>
      </trkpt>
      <trkpt lat="45.0943" lon="2.69237">
        <ele>1250</ele>
        <time>2022-01-27T23:57:42Z</time>
      </trkpt>
      <trkpt lat="45.09424" lon="2.69247">
        <ele>1247</ele>
        <time>2022-01-27T23:57:44Z</time>
      </trkpt>
      <trkpt lat="45.09414" lon="2.69252">
        <ele>1244</ele>
        <time>2022-01-27T23:57:46Z</time>
      </trkpt>
      <trkpt lat="45.09289" lon="2.6929">
        <ele>1227</ele>
        <time>2022-01-27T23:58:08Z</time>
      </trkpt>
      <trkpt lat="45.09281" lon="2.69294">
        <ele>1226</ele>
        <time>2022-01-27T23:58:10Z</time>
      </trkpt>
      <trkpt lat="45.09253" lon="2.69324">
        <ele>1224</ele>
        <time>2022-01-27T23:58:16Z</time>
      </trkpt>
      <trkpt lat="45.09245" lon="2.69329">
        <ele>1222</ele>
        <time>2022-01-27T23:58:18Z</time>
      </trkpt>
      <trkpt lat="45.09238" lon="2.69327">
        <ele>1219</ele>
        <time>2022-01-27T23:58:19Z</time>
      </trkpt>
      <trkpt lat="45.09235" lon="2.69322">
        <ele>1217</ele>
        <time>2022-01-27T23:58:20Z</time>
      </trkpt>
      <trkpt lat="45.09231" lon="2.69313">
        <ele>1214</ele>
        <time>2022-01-27T23:58:21Z</time>
      </trkpt>
      <trkpt lat="45.09233" lon="2.69298">
        <ele>1213</ele>
        <time>2022-01-27T23:58:23Z</time>
      </trkpt>
      <trkpt lat="45.09239" lon="2.69285">
        <ele>1213</ele>
        <time>2022-01-27T23:58:25Z</time>
      </trkpt>
      <trkpt lat="45.09253" lon="2.69275">
        <ele>1215</ele>
        <time>2022-01-27T23:58:28Z</time>
      </trkpt>
      <trkpt lat="45.09263" lon="2.6927">
        <ele>1216</ele>
        <time>2022-01-27T23:58:30Z</time>
      </trkpt>
      <trkpt lat="45.09292" lon="2.69264">
        <ele>1221</ele>
        <time>2022-01-27T23:58:35Z</time>
      </trkpt>
      <trkpt lat="45.09317" lon="2.69252">
        <ele>1223</ele>
        <time>2022-01-27T23:58:40Z</time>
      </trkpt>
      <trkpt lat="45.0934" lon="2.69249">
        <ele>1227</ele>
        <time>2022-01-27T23:58:44Z</time>
      </trkpt>
      <trkpt lat="45.09346" lon="2.69246">
        <ele>1228</ele>
        <time>2022-01-27T23:58:45Z</time>
      </trkpt>
      <trkpt lat="45.09351" lon="2.69241">
        <ele>1230</ele>
        <time>2022-01-27T23:58:46Z</time>
      </trkpt>
      <trkpt lat="45.09353" lon="2.69235">
        <ele>1230</ele>
        <time>2022-01-27T23:58:47Z</time>
      </trkpt>
      <trkpt lat="45.09353" lon="2.69222">
        <ele>1231</ele>
        <time>2022-01-27T23:58:48Z</time>
      </trkpt>
      <trkpt lat="45.09348" lon="2.69212">
        <ele>1231</ele>
        <time>2022-01-27T23:58:50Z</time>
      </trkpt>
      <trkpt lat="45.09341" lon="2.69204">
        <ele>1229</ele>
        <time>2022-01-27T23:58:52Z</time>
      </trkpt>
      <trkpt lat="45.09294" lon="2.69185">
        <ele>1216</ele>
        <time>2022-01-27T23:59:00Z</time>
      </trkpt>
      <trkpt lat="45.09287" lon="2.69176">
        <ele>1213</ele>
        <time>2022-01-27T23:59:02Z</time>
      </trkpt>
      <trkpt lat="45.09282" lon="2.69165">
        <ele>1212</ele>
        <time>2022-01-27T23:59:04Z</time>
      </trkpt>
      <trkpt lat="45.0927" lon="2.69125">
        <ele>1217</ele>
        <time>2022-01-27T23:59:09Z</time>
      </trkpt>
      <trkpt lat="45.09256" lon="2.69095">
        <ele>1217</ele>
        <time>2022-01-27T23:59:14Z</time>
      </trkpt>
      <trkpt lat="45.09232" lon="2.69063">
        <ele>1210</ele>
        <time>2022-01-27T23:59:19Z</time>
      </trkpt>
      <trkpt lat="45.09213" lon="2.69047">
        <ele>1203</ele>
        <time>2022-01-27T23:59:23Z</time>
      </trkpt>
      <trkpt lat="45.09195" lon="2.69034">
        <ele>1196</ele>
        <time>2022-01-27T23:59:27Z</time>
      </trkpt>
      <trkpt lat="45.09187" lon="2.6902">
        <ele>1194</ele>
        <time>2022-01-27T23:59:29Z</time>
      </trkpt>
      <trkpt lat="45.09183" lon="2.69003">
        <ele>1194</ele>
        <time>2022-01-27T23:59:32Z</time>
      </trkpt>
      <trkpt lat="45.09181" lon="2.68979">
        <ele>1195</ele>
        <time>2022-01-27T23:59:35Z</time>
      </trkpt>
      <trkpt lat="45.09183" lon="2.68939">
        <ele>1199</ele>
        <time>2022-01-27T23:59:40Z</time>
      </trkpt>
      <trkpt lat="45.09182" lon="2.68929">
        <ele>1199</ele>
        <time>2022-01-27T23:59:41Z</time>
      </trkpt>
      <trkpt lat="45.09179" lon="2.68919">
        <ele>1198</ele>
        <time>2022-01-27T23:59:42Z</time>
      </trkpt>
      <trkpt lat="45.09173" lon="2.68913">
        <ele>1197</ele>
        <time>2022-01-27T23:59:44Z</time>
      </trkpt>
      <trkpt lat="45.09165" lon="2.68908">
        <ele>1195</ele>
        <time>2022-01-27T23:59:45Z</time>
      </trkpt>
      <trkpt lat="45.09118" lon="2.68894">
        <ele>1178</ele>
        <time>2022-01-27T23:59:54Z</time>
      </trkpt>
      <trkpt lat="45.09107" lon="2.68885">
        <ele>1175</ele>
        <time>2022-01-27T23:59:56Z</time>
      </trkpt>
      <trkpt lat="45.0909" lon="2.68856">
        <ele>1173</ele>
        <time>2022-01-28T00:00:01Z</time>
      </trkpt>
      <trkpt lat="45.09078" lon="2.6882">
        <ele>1172</ele>
        <time>2022-01-28T00:00:06Z</time>
      </trkpt>
      <trkpt lat="45.09074" lon="2.688">
        <ele>1172</ele>
        <time>2022-01-28T00:00:08Z</time>
      </trkpt>
      <trkpt lat="45.09072" lon="2.68785">
        <ele>1173</ele>
        <time>2022-01-28T00:00:10Z</time>
      </trkpt>
      <trkpt lat="45.09071" lon="2.68748">
        <ele>1177</ele>
        <time>2022-01-28T00:00:15Z</time>
      </trkpt>
      <trkpt lat="45.09067" lon="2.68739">
        <ele>1176</ele>
        <time>2022-01-28T00:00:16Z</time>
      </trkpt>
      <trkpt lat="45.09061" lon="2.68731">
        <ele>1175</ele>
        <time>2022-01-28T00:00:18Z</time>
      </trkpt>
      <trkpt lat="45.09035" lon="2.68721">
        <ele>1164</ele>
        <time>2022-01-28T00:00:22Z</time>
      </trkpt>
      <trkpt lat="45.09024" lon="2.68712">
        <ele>1160</ele>
        <time>2022-01-28T00:00:25Z</time>
      </trkpt>
      <trkpt lat="45.09015" lon="2.68695">
        <ele>1158</ele>
        <time>2022-01-28T00:00:27Z</time>
      </trkpt>
      <trkpt lat="45.09008" lon="2.68675">
        <ele>1158</ele>
        <time>2022-01-28T00:00:30Z</time>
      </trkpt>
      <trkpt lat="45.09003" lon="2.68648">
        <ele>1157</ele>
        <time>2022-01-28T00:00:34Z</time>
      </trkpt>
      <trkpt lat="45.08999" lon="2.68552">
        <ele>1158</ele>
        <time>2022-01-28T00:00:46Z</time>
      </trkpt>
      <trkpt lat="45.08996" lon="2.68526">
        <ele>1157</ele>
        <time>2022-01-28T00:00:49Z</time>
      </trkpt>
      <trkpt lat="45.08995" lon="2.68488">
        <ele>1157</ele>
        <time>2022-01-28T00:00:54Z</time>
      </trkpt>
      <trkpt lat="45.08992" lon="2.68465">
        <ele>1156</ele>
        <time>2022-01-28T00:00:57Z</time>
      </trkpt>
      <trkpt lat="45.08972" lon="2.68384">
        <ele>1149</ele>
        <time>2022-01-28T00:01:08Z</time>
      </trkpt>
      <trkpt lat="45.08966" lon="2.68364">
        <ele>1148</ele>
        <time>2022-01-28T00:01:10Z</time>
      </trkpt>
      <trkpt lat="45.08941" lon="2.68321">
        <ele>1141</ele>
        <time>2022-01-28T00:01:17Z</time>
      </trkpt>
      <trkpt lat="45.08924" lon="2.68278">
        <ele>1139</ele>
        <time>2022-01-28T00:01:23Z</time>
      </trkpt>
      <trkpt lat="45.08907" lon="2.68243">
        <ele>1135</ele>
        <time>2022-01-28T00:01:29Z</time>
      </trkpt>
      <trkpt lat="45.08889" lon="2.68189">
        <ele>1133</ele>
        <time>2022-01-28T00:01:36Z</time>
      </trkpt>
      <trkpt lat="45.0888" lon="2.68152">
        <ele>1132</ele>
        <time>2022-01-28T00:01:41Z</time>
      </trkpt>
      <trkpt lat="45.08859" lon="2.68104">
        <ele>1128</ele>
        <time>2022-01-28T00:01:48Z</time>
      </trkpt>
      <trkpt lat="45.08848" lon="2.68072">
        <ele>1126</ele>
        <time>2022-01-28T00:01:53Z</time>
      </trkpt>
      <trkpt lat="45.08838" lon="2.68037">
        <ele>1121</ele>
        <time>2022-01-28T00:01:58Z</time>
      </trkpt>
      <trkpt lat="45.08833" lon="2.67992">
        <ele>1118</ele>
        <time>2022-01-28T00:02:03Z</time>
      </trkpt>
      <trkpt lat="45.08835" lon="2.67946">
        <ele>1112</ele>
        <time>2022-01-28T00:02:09Z</time>
      </trkpt>
      <trkpt lat="45.08843" lon="2.67913">
        <ele>1109</ele>
        <time>2022-01-28T00:02:13Z</time>
      </trkpt>
      <trkpt lat="45.08853" lon="2.67892">
        <ele>1106</ele>
        <time>2022-01-28T00:02:17Z</time>
      </trkpt>
      <trkpt lat="45.08877" lon="2.6787">
        <ele>1104</ele>
        <time>2022-01-28T00:02:22Z</time>
      </trkpt>
      <trkpt lat="45.089" lon="2.6786">
        <ele>1105</ele>
        <time>2022-01-28T00:02:26Z</time>
      </trkpt>
      <trkpt lat="45.08931" lon="2.67837">
        <ele>1104</ele>
        <time>2022-01-28T00:02:32Z</time>
      </trkpt>
      <trkpt lat="45.08975" lon="2.67802">
        <ele>1105</ele>
        <time>2022-01-28T00:02:41Z</time>
      </trkpt>
      <trkpt lat="45.09002" lon="2.67768">
        <ele>1100</ele>
        <time>2022-01-28T00:02:48Z</time>
      </trkpt>
      <trkpt lat="45.09019" lon="2.67743">
        <ele>1097</ele>
        <time>2022-01-28T00:02:52Z</time>
      </trkpt>
      <trkpt lat="45.09027" lon="2.67726">
        <ele>1098</ele>
        <time>2022-01-28T00:02:55Z</time>
      </trkpt>
      <trkpt lat="45.09039" lon="2.67695">
        <ele>1099</ele>
        <time>2022-01-28T00:02:59Z</time>
      </trkpt>
      <trkpt lat="45.09043" lon="2.67675">
        <ele>1099</ele>
        <time>2022-01-28T00:03:02Z</time>
      </trkpt>
      <trkpt lat="45.09044" lon="2.67664">
        <ele>1100</ele>
        <time>2022-01-28T00:03:03Z</time>
      </trkpt>
      <trkpt lat="45.09042" lon="2.67657">
        <ele>1103</ele>
        <time>2022-01-28T00:03:04Z</time>
      </trkpt>
      <trkpt lat="45.09038" lon="2.67652">
        <ele>1104</ele>
        <time>2022-01-28T00:03:05Z</time>
      </trkpt>
      <trkpt lat="45.09025" lon="2.6765">
        <ele>1105</ele>
        <time>2022-01-28T00:03:07Z</time>
      </trkpt>
      <trkpt lat="45.08953" lon="2.67677">
        <ele>1102</ele>
        <time>2022-01-28T00:03:20Z</time>
      </trkpt>
      <trkpt lat="45.08927" lon="2.67683">
        <ele>1102</ele>
        <time>2022-01-28T00:03:25Z</time>
      </trkpt>
      <trkpt lat="45.0891" lon="2.67696">
        <ele>1098</ele>
        <time>2022-01-28T00:03:29Z</time>
      </trkpt>
      <trkpt lat="45.08893" lon="2.677">
        <ele>1095</ele>
        <time>2022-01-28T00:03:32Z</time>
      </trkpt>
      <trkpt lat="45.08873" lon="2.67698">
        <ele>1092</ele>
        <time>2022-01-28T00:03:35Z</time>
      </trkpt>
      <trkpt lat="45.08845" lon="2.67688">
        <ele>1090</ele>
        <time>2022-01-28T00:03:40Z</time>
      </trkpt>
      <trkpt lat="45.08813" lon="2.67684">
        <ele>1086</ele>
        <time>2022-01-28T00:03:46Z</time>
      </trkpt>
      <trkpt lat="45.08783" lon="2.67663">
        <ele>1085</ele>
        <time>2022-01-28T00:03:52Z</time>
      </trkpt>
      <trkpt lat="45.08767" lon="2.67656">
        <ele>1083</ele>
        <time>2022-01-28T00:03:55Z</time>
      </trkpt>
      <trkpt lat="45.08757" lon="2.67653">
        <ele>1082</ele>
        <time>2022-01-28T00:03:57Z</time>
      </trkpt>
      <trkpt lat="45.08747" lon="2.67654">
        <ele>1080</ele>
        <time>2022-01-28T00:03:59Z</time>
      </trkpt>
      <trkpt lat="45.08721" lon="2.67671">
        <ele>1073</ele>
        <time>2022-01-28T00:04:04Z</time>
      </trkpt>
      <trkpt lat="45.08702" lon="2.67676">
        <ele>1069</ele>
        <time>2022-01-28T00:04:07Z</time>
      </trkpt>
      <trkpt lat="45.08685" lon="2.67674">
        <ele>1068</ele>
        <time>2022-01-28T00:04:10Z</time>
      </trkpt>
      <trkpt lat="45.08676" lon="2.6767">
        <ele>1067</ele>
        <time>2022-01-28T00:04:12Z</time>
      </trkpt>
      <trkpt lat="45.08667" lon="2.67662">
        <ele>1068</ele>
        <time>2022-01-28T00:04:14Z</time>
      </trkpt>
      <trkpt lat="45.08637" lon="2.67619">
        <ele>1064</ele>
        <time>2022-01-28T00:04:21Z</time>
      </trkpt>
      <trkpt lat="45.08619" lon="2.67585">
        <ele>1062</ele>
        <time>2022-01-28T00:04:27Z</time>
      </trkpt>
      <trkpt lat="45.08605" lon="2.67567">
        <ele>1059</ele>
        <time>2022-01-28T00:04:30Z</time>
      </trkpt>
      <trkpt lat="45.08589" lon="2.67552">
        <ele>1054</ele>
        <time>2022-01-28T00:04:33Z</time>
      </trkpt>
      <trkpt lat="45.08578" lon="2.67537">
        <ele>1051</ele>
        <time>2022-01-28T00:04:36Z</time>
      </trkpt>
      <trkpt lat="45.08555" lon="2.67496">
        <ele>1047</ele>
        <time>2022-01-28T00:04:43Z</time>
      </trkpt>
      <trkpt lat="45.08551" lon="2.67484">
        <ele>1046</ele>
        <time>2022-01-28T00:04:44Z</time>
      </trkpt>
      <trkpt lat="45.0855" lon="2.67475">
        <ele>1046</ele>
        <time>2022-01-28T00:04:46Z</time>
      </trkpt>
      <trkpt lat="45.08554" lon="2.67385">
        <ele>1047</ele>
        <time>2022-01-28T00:04:57Z</time>
      </trkpt>
      <trkpt lat="45.08553" lon="2.67375">
        <ele>1047</ele>
        <time>2022-01-28T00:04:58Z</time>
      </trkpt>
      <trkpt lat="45.08545" lon="2.67346">
        <ele>1043</ele>
        <time>2022-01-28T00:05:02Z</time>
      </trkpt>
      <trkpt lat="45.08543" lon="2.67332">
        <ele>1041</ele>
        <time>2022-01-28T00:05:04Z</time>
      </trkpt>
      <trkpt lat="45.08546" lon="2.67261">
        <ele>1035</ele>
        <time>2022-01-28T00:05:13Z</time>
      </trkpt>
      <trkpt lat="45.08548" lon="2.67251">
        <ele>1035</ele>
        <time>2022-01-28T00:05:14Z</time>
      </trkpt>
      <trkpt lat="45.08558" lon="2.67237">
        <ele>1035</ele>
        <time>2022-01-28T00:05:17Z</time>
      </trkpt>
      <trkpt lat="45.08578" lon="2.6722">
        <ele>1037</ele>
        <time>2022-01-28T00:05:21Z</time>
      </trkpt>
      <trkpt lat="45.08592" lon="2.67205">
        <ele>1037</ele>
        <time>2022-01-28T00:05:24Z</time>
      </trkpt>
      <trkpt lat="45.08607" lon="2.67176">
        <ele>1036</ele>
        <time>2022-01-28T00:05:28Z</time>
      </trkpt>
      <trkpt lat="45.08639" lon="2.67135">
        <ele>1041</ele>
        <time>2022-01-28T00:05:36Z</time>
      </trkpt>
      <trkpt lat="45.08649" lon="2.6711">
        <ele>1042</ele>
        <time>2022-01-28T00:05:40Z</time>
      </trkpt>
      <trkpt lat="45.08664" lon="2.67087">
        <ele>1042</ele>
        <time>2022-01-28T00:05:44Z</time>
      </trkpt>
      <trkpt lat="45.08666" lon="2.67071">
        <ele>1045</ele>
        <time>2022-01-28T00:05:46Z</time>
      </trkpt>
      <trkpt lat="45.08662" lon="2.67061">
        <ele>1048</ele>
        <time>2022-01-28T00:05:47Z</time>
      </trkpt>
      <trkpt lat="45.08656" lon="2.67055">
        <ele>1049</ele>
        <time>2022-01-28T00:05:48Z</time>
      </trkpt>
      <trkpt lat="45.08649" lon="2.67052">
        <ele>1050</ele>
        <time>2022-01-28T00:05:50Z</time>
      </trkpt>
      <trkpt lat="45.08636" lon="2.67052">
        <ele>1050</ele>
        <time>2022-01-28T00:05:52Z</time>
      </trkpt>
      <trkpt lat="45.08619" lon="2.67058">
        <ele>1048</ele>
        <time>2022-01-28T00:05:55Z</time>
      </trkpt>
      <trkpt lat="45.08582" lon="2.67075">
        <ele>1043</ele>
        <time>2022-01-28T00:06:02Z</time>
      </trkpt>
      <trkpt lat="45.08553" lon="2.67102">
        <ele>1038</ele>
        <time>2022-01-28T00:06:08Z</time>
      </trkpt>
      <trkpt lat="45.08542" lon="2.67108">
        <ele>1037</ele>
        <time>2022-01-28T00:06:10Z</time>
      </trkpt>
      <trkpt lat="45.08524" lon="2.67115">
        <ele>1035</ele>
        <time>2022-01-28T00:06:14Z</time>
      </trkpt>
      <trkpt lat="45.08501" lon="2.67116">
        <ele>1035</ele>
        <time>2022-01-28T00:06:18Z</time>
      </trkpt>
      <trkpt lat="45.0848" lon="2.67114">
        <ele>1034</ele>
        <time>2022-01-28T00:06:21Z</time>
      </trkpt>
      <trkpt lat="45.08466" lon="2.67117">
        <ele>1032</ele>
        <time>2022-01-28T00:06:24Z</time>
      </trkpt>
      <trkpt lat="45.08442" lon="2.67126">
        <ele>1029</ele>
        <time>2022-01-28T00:06:28Z</time>
      </trkpt>
      <trkpt lat="45.08424" lon="2.6713">
        <ele>1027</ele>
        <time>2022-01-28T00:06:32Z</time>
      </trkpt>
      <trkpt lat="45.08408" lon="2.6713">
        <ele>1025</ele>
        <time>2022-01-28T00:06:34Z</time>
      </trkpt>
      <trkpt lat="45.08347" lon="2.67111">
        <ele>1020</ele>
        <time>2022-01-28T00:06:46Z</time>
      </trkpt>
      <trkpt lat="45.08337" lon="2.67105">
        <ele>1019</ele>
        <time>2022-01-28T00:06:48Z</time>
      </trkpt>
      <trkpt lat="45.0833" lon="2.67096">
        <ele>1018</ele>
        <time>2022-01-28T00:06:49Z</time>
      </trkpt>
      <trkpt lat="45.08305" lon="2.67052">
        <ele>1016</ele>
        <time>2022-01-28T00:06:56Z</time>
      </trkpt>
      <trkpt lat="45.08293" lon="2.67041">
        <ele>1015</ele>
        <time>2022-01-28T00:06:59Z</time>
      </trkpt>
      <trkpt lat="45.08282" lon="2.67037">
        <ele>1013</ele>
        <time>2022-01-28T00:07:01Z</time>
      </trkpt>
      <trkpt lat="45.08259" lon="2.67034">
        <ele>1009</ele>
        <time>2022-01-28T00:07:05Z</time>
      </trkpt>
      <trkpt lat="45.0825" lon="2.67028">
        <ele>1008</ele>
        <time>2022-01-28T00:07:07Z</time>
      </trkpt>
      <trkpt lat="45.08245" lon="2.67016">
        <ele>1008</ele>
        <time>2022-01-28T00:07:09Z</time>
      </trkpt>
      <trkpt lat="45.08242" lon="2.67">
        <ele>1008</ele>
        <time>2022-01-28T00:07:11Z</time>
      </trkpt>
      <trkpt lat="45.08237" lon="2.66921">
        <ele>1012</ele>
        <time>2022-01-28T00:07:21Z</time>
      </trkpt>
      <trkpt lat="45.08235" lon="2.66911">
        <ele>1013</ele>
        <time>2022-01-28T00:07:22Z</time>
      </trkpt>
      <trkpt lat="45.08231" lon="2.66905">
        <ele>1014</ele>
        <time>2022-01-28T00:07:23Z</time>
      </trkpt>
      <trkpt lat="45.08225" lon="2.66901">
        <ele>1015</ele>
        <time>2022-01-28T00:07:24Z</time>
      </trkpt>
      <trkpt lat="45.08218" lon="2.66902">
        <ele>1014</ele>
        <time>2022-01-28T00:07:25Z</time>
      </trkpt>
      <trkpt lat="45.08212" lon="2.66904">
        <ele>1014</ele>
        <time>2022-01-28T00:07:26Z</time>
      </trkpt>
      <trkpt lat="45.08196" lon="2.66928">
        <ele>1010</ele>
        <time>2022-01-28T00:07:31Z</time>
      </trkpt>
      <trkpt lat="45.08186" lon="2.66938">
        <ele>1008</ele>
        <time>2022-01-28T00:07:33Z</time>
      </trkpt>
      <trkpt lat="45.08174" lon="2.66942">
        <ele>1006</ele>
        <time>2022-01-28T00:07:35Z</time>
      </trkpt>
      <trkpt lat="45.08095" lon="2.66944">
        <ele>1005</ele>
        <time>2022-01-28T00:07:49Z</time>
      </trkpt>
      <trkpt lat="45.08078" lon="2.66948">
        <ele>1003</ele>
        <time>2022-01-28T00:07:52Z</time>
      </trkpt>
      <trkpt lat="45.08051" lon="2.66958">
        <ele>996</ele>
        <time>2022-01-28T00:07:57Z</time>
      </trkpt>
      <trkpt lat="45.08041" lon="2.66959">
        <ele>994</ele>
        <time>2022-01-28T00:07:59Z</time>
      </trkpt>
      <trkpt lat="45.07976" lon="2.66952">
        <ele>986</ele>
        <time>2022-01-28T00:08:10Z</time>
      </trkpt>
      <trkpt lat="45.07955" lon="2.6694">
        <ele>984</ele>
        <time>2022-01-28T00:08:14Z</time>
      </trkpt>
      <trkpt lat="45.07913" lon="2.66891">
        <ele>981</ele>
        <time>2022-01-28T00:08:24Z</time>
      </trkpt>
      <trkpt lat="45.07902" lon="2.66885">
        <ele>980</ele>
        <time>2022-01-28T00:08:26Z</time>
      </trkpt>
      <trkpt lat="45.07878" lon="2.66875">
        <ele>978</ele>
        <time>2022-01-28T00:08:31Z</time>
      </trkpt>
      <trkpt lat="45.07863" lon="2.66861">
        <ele>976</ele>
        <time>2022-01-28T00:08:34Z</time>
      </trkpt>
      <trkpt lat="45.07847" lon="2.66841">
        <ele>973</ele>
        <time>2022-01-28T00:08:38Z</time>
      </trkpt>
      <trkpt lat="45.07839" lon="2.6682">
        <ele>972</ele>
        <time>2022-01-28T00:08:41Z</time>
      </trkpt>
      <trkpt lat="45.07835" lon="2.66782">
        <ele>973</ele>
        <time>2022-01-28T00:08:46Z</time>
      </trkpt>
      <trkpt lat="45.07832" lon="2.66772">
        <ele>974</ele>
        <time>2022-01-28T00:08:47Z</time>
      </trkpt>
      <trkpt lat="45.07824" lon="2.66755">
        <ele>974</ele>
        <time>2022-01-28T00:08:49Z</time>
      </trkpt>
      <trkpt lat="45.07812" lon="2.66739">
        <ele>973</ele>
        <time>2022-01-28T00:08:52Z</time>
      </trkpt>
      <trkpt lat="45.07799" lon="2.66726">
        <ele>972</ele>
        <time>2022-01-28T00:08:55Z</time>
      </trkpt>
      <trkpt lat="45.0779" lon="2.6672">
        <ele>971</ele>
        <time>2022-01-28T00:08:57Z</time>
      </trkpt>
      <trkpt lat="45.07777" lon="2.66717">
        <ele>970</ele>
        <time>2022-01-28T00:08:59Z</time>
      </trkpt>
      <trkpt lat="45.07764" lon="2.66717">
        <ele>968</ele>
        <time>2022-01-28T00:09:02Z</time>
      </trkpt>
      <trkpt lat="45.07749" lon="2.66712">
        <ele>966</ele>
        <time>2022-01-28T00:09:04Z</time>
      </trkpt>
      <trkpt lat="45.07725" lon="2.66694">
        <ele>963</ele>
        <time>2022-01-28T00:09:09Z</time>
      </trkpt>
      <trkpt lat="45.07715" lon="2.66689">
        <ele>962</ele>
        <time>2022-01-28T00:09:11Z</time>
      </trkpt>
      <trkpt lat="45.07693" lon="2.66683">
        <ele>959</ele>
        <time>2022-01-28T00:09:15Z</time>
      </trkpt>
      <trkpt lat="45.07685" lon="2.66678">
        <ele>958</ele>
        <time>2022-01-28T00:09:17Z</time>
      </trkpt>
      <trkpt lat="45.07677" lon="2.66664">
        <ele>957</ele>
        <time>2022-01-28T00:09:19Z</time>
      </trkpt>
      <trkpt lat="45.07661" lon="2.66626">
        <ele>956</ele>
        <time>2022-01-28T00:09:24Z</time>
      </trkpt>
      <trkpt lat="45.0764" lon="2.66584">
        <ele>954</ele>
        <time>2022-01-28T00:09:31Z</time>
      </trkpt>
      <trkpt lat="45.07632" lon="2.66573">
        <ele>954</ele>
        <time>2022-01-28T00:09:33Z</time>
      </trkpt>
      <trkpt lat="45.0761" lon="2.66562">
        <ele>951</ele>
        <time>2022-01-28T00:09:37Z</time>
      </trkpt>
      <trkpt lat="45.07597" lon="2.66551">
        <ele>949</ele>
        <time>2022-01-28T00:09:40Z</time>
      </trkpt>
      <trkpt lat="45.07585" lon="2.66536">
        <ele>947</ele>
        <time>2022-01-28T00:09:43Z</time>
      </trkpt>
      <trkpt lat="45.07576" lon="2.66518">
        <ele>946</ele>
        <time>2022-01-28T00:09:45Z</time>
      </trkpt>
      <trkpt lat="45.07562" lon="2.66473">
        <ele>946</ele>
        <time>2022-01-28T00:09:52Z</time>
      </trkpt>
      <trkpt lat="45.07544" lon="2.66443">
        <ele>945</ele>
        <time>2022-01-28T00:09:56Z</time>
      </trkpt>
      <trkpt lat="45.07479" lon="2.66375">
        <ele>941</ele>
        <time>2022-01-28T00:10:11Z</time>
      </trkpt>
      <trkpt lat="45.07444" lon="2.66327">
        <ele>938</ele>
        <time>2022-01-28T00:10:20Z</time>
      </trkpt>
      <trkpt lat="45.07432" lon="2.66315">
        <ele>936</ele>
        <time>2022-01-28T00:10:22Z</time>
      </trkpt>
      <trkpt lat="45.0736" lon="2.66268">
        <ele>934</ele>
        <time>2022-01-28T00:10:36Z</time>
      </trkpt>
      <trkpt lat="45.07325" lon="2.66234">
        <ele>934</ele>
        <time>2022-01-28T00:10:44Z</time>
      </trkpt>
      <trkpt lat="45.07313" lon="2.66221">
        <ele>933</ele>
        <time>2022-01-28T00:10:46Z</time>
      </trkpt>
      <trkpt lat="45.07303" lon="2.66203">
        <ele>933</ele>
        <time>2022-01-28T00:10:49Z</time>
      </trkpt>
      <trkpt lat="45.07267" lon="2.66107">
        <ele>930</ele>
        <time>2022-01-28T00:11:03Z</time>
      </trkpt>
      <trkpt lat="45.07243" lon="2.66053">
        <ele>931</ele>
        <time>2022-01-28T00:11:11Z</time>
      </trkpt>
      <trkpt lat="45.07235" lon="2.66039">
        <ele>932</ele>
        <time>2022-01-28T00:11:13Z</time>
      </trkpt>
      <trkpt lat="45.07203" lon="2.66003">
        <ele>932</ele>
        <time>2022-01-28T00:11:21Z</time>
      </trkpt>
      <trkpt lat="45.07109" lon="2.65908">
        <ele>930</ele>
        <time>2022-01-28T00:11:41Z</time>
      </trkpt>
      <trkpt lat="45.0706" lon="2.65836">
        <ele>928</ele>
        <time>2022-01-28T00:11:54Z</time>
      </trkpt>
      <trkpt lat="45.07016" lon="2.65746">
        <ele>927</ele>
        <time>2022-01-28T00:12:07Z</time>
      </trkpt>
      <trkpt lat="45.07011" lon="2.65739">
        <ele>926</ele>
        <time>2022-01-28T00:12:09Z</time>
      </trkpt>
      <trkpt lat="45.07" lon="2.65732">
        <ele>925</ele>
        <time>2022-01-28T00:12:11Z</time>
      </trkpt>
      <trkpt lat="45.06991" lon="2.65735">
        <ele>925</ele>
        <time>2022-01-28T00:12:12Z</time>
      </trkpt>
      <trkpt lat="45.06975" lon="2.65752">
        <ele>925</ele>
        <time>2022-01-28T00:12:16Z</time>
      </trkpt>
      <trkpt lat="45.06962" lon="2.65766">
        <ele>926</ele>
        <time>2022-01-28T00:12:19Z</time>
      </trkpt>
      <trkpt lat="45.0695" lon="2.65771">
        <ele>927</ele>
        <time>2022-01-28T00:12:21Z</time>
      </trkpt>
      <trkpt lat="45.06942" lon="2.65771">
        <ele>927</ele>
        <time>2022-01-28T00:12:23Z</time>
      </trkpt>
      <trkpt lat="45.06933" lon="2.65768">
        <ele>927</ele>
        <time>2022-01-28T00:12:24Z</time>
      </trkpt>
      <trkpt lat="45.06866" lon="2.65711">
        <ele>927</ele>
        <time>2022-01-28T00:12:38Z</time>
      </trkpt>
      <trkpt lat="45.06854" lon="2.65697">
        <ele>926</ele>
        <time>2022-01-28T00:12:41Z</time>
      </trkpt>
      <trkpt lat="45.06845" lon="2.6568">
        <ele>926</ele>
        <time>2022-01-28T00:12:44Z</time>
      </trkpt>
      <trkpt lat="45.06834" lon="2.65651">
        <ele>925</ele>
        <time>2022-01-28T00:12:48Z</time>
      </trkpt>
      <trkpt lat="45.06822" lon="2.65627">
        <ele>926</ele>
        <time>2022-01-28T00:12:51Z</time>
      </trkpt>
      <trkpt lat="45.06809" lon="2.65607">
        <ele>927</ele>
        <time>2022-01-28T00:12:55Z</time>
      </trkpt>
      <trkpt lat="45.06798" lon="2.65594">
        <ele>928</ele>
        <time>2022-01-28T00:12:57Z</time>
      </trkpt>
      <trkpt lat="45.06776" lon="2.6558">
        <ele>930</ele>
        <time>2022-01-28T00:13:02Z</time>
      </trkpt>
      <trkpt lat="45.06768" lon="2.65571">
        <ele>931</ele>
        <time>2022-01-28T00:13:04Z</time>
      </trkpt>
      <trkpt lat="45.06762" lon="2.65557">
        <ele>931</ele>
        <time>2022-01-28T00:13:06Z</time>
      </trkpt>
      <trkpt lat="45.06745" lon="2.655">
        <ele>934</ele>
        <time>2022-01-28T00:13:13Z</time>
      </trkpt>
      <trkpt lat="45.06737" lon="2.65509">
        <ele>936</ele>
        <time>2022-01-28T00:13:15Z</time>
      </trkpt>
      <trkpt lat="45.06733" lon="2.6552">
        <ele>938</ele>
        <time>2022-01-28T00:13:17Z</time>
      </trkpt>
      <trkpt lat="45.0673" lon="2.6554">
        <ele>940</ele>
        <time>2022-01-28T00:13:19Z</time>
      </trkpt>
      <trkpt lat="45.06729" lon="2.65578">
        <ele>941</ele>
        <time>2022-01-28T00:13:24Z</time>
      </trkpt>
      <trkpt lat="45.0674" lon="2.65662">
        <ele>942</ele>
        <time>2022-01-28T00:13:35Z</time>
      </trkpt>
      <trkpt lat="45.06754" lon="2.6579">
        <ele>946</ele>
        <time>2022-01-28T00:13:51Z</time>
      </trkpt>
      <trkpt lat="45.06766" lon="2.6584">
        <ele>949</ele>
        <time>2022-01-28T00:13:58Z</time>
      </trkpt>
      <trkpt lat="45.06765" lon="2.65851">
        <ele>950</ele>
        <time>2022-01-28T00:13:59Z</time>
      </trkpt>
      <trkpt lat="45.06763" lon="2.65861">
        <ele>952</ele>
        <time>2022-01-28T00:14:00Z</time>
      </trkpt>
      <trkpt lat="45.06758" lon="2.65869">
        <ele>954</ele>
        <time>2022-01-28T00:14:02Z</time>
      </trkpt>
      <trkpt lat="45.0675" lon="2.65871">
        <ele>956</ele>
        <time>2022-01-28T00:14:03Z</time>
      </trkpt>
      <trkpt lat="45.06745" lon="2.6587">
        <ele>957</ele>
        <time>2022-01-28T00:14:04Z</time>
      </trkpt>
      <trkpt lat="45.06738" lon="2.65861">
        <ele>959</ele>
        <time>2022-01-28T00:14:06Z</time>
      </trkpt>
      <trkpt lat="45.06703" lon="2.65772">
        <ele>962</ele>
        <time>2022-01-28T00:14:19Z</time>
      </trkpt>
      <trkpt lat="45.06686" lon="2.65735">
        <ele>964</ele>
        <time>2022-01-28T00:14:24Z</time>
      </trkpt>
      <trkpt lat="45.06674" lon="2.65713">
        <ele>967</ele>
        <time>2022-01-28T00:14:28Z</time>
      </trkpt>
      <trkpt lat="45.06666" lon="2.65702">
        <ele>969</ele>
        <time>2022-01-28T00:14:30Z</time>
      </trkpt>
      <trkpt lat="45.0666" lon="2.65698">
        <ele>970</ele>
        <time>2022-01-28T00:14:31Z</time>
      </trkpt>
      <trkpt lat="45.06655" lon="2.65698">
        <ele>972</ele>
        <time>2022-01-28T00:14:32Z</time>
      </trkpt>
      <trkpt lat="45.06648" lon="2.65703">
        <ele>974</ele>
        <time>2022-01-28T00:14:33Z</time>
      </trkpt>
      <trkpt lat="45.06643" lon="2.65711">
        <ele>976</ele>
        <time>2022-01-28T00:14:34Z</time>
      </trkpt>
      <trkpt lat="45.06641" lon="2.65721">
        <ele>977</ele>
        <time>2022-01-28T00:14:36Z</time>
      </trkpt>
      <trkpt lat="45.06642" lon="2.65729">
        <ele>977</ele>
        <time>2022-01-28T00:14:37Z</time>
      </trkpt>
      <trkpt lat="45.06647" lon="2.65741">
        <ele>976</ele>
        <time>2022-01-28T00:14:38Z</time>
      </trkpt>
      <trkpt lat="45.06661" lon="2.65767">
        <ele>975</ele>
        <time>2022-01-28T00:14:43Z</time>
      </trkpt>
      <trkpt lat="45.06667" lon="2.65788">
        <ele>977</ele>
        <time>2022-01-28T00:14:45Z</time>
      </trkpt>
      <trkpt lat="45.06671" lon="2.65807">
        <ele>978</ele>
        <time>2022-01-28T00:14:48Z</time>
      </trkpt>
      <trkpt lat="45.06672" lon="2.65833">
        <ele>982</ele>
        <time>2022-01-28T00:14:51Z</time>
      </trkpt>
      <trkpt lat="45.06671" lon="2.65848">
        <ele>983</ele>
        <time>2022-01-28T00:14:53Z</time>
      </trkpt>
      <trkpt lat="45.06642" lon="2.65994">
        <ele>995</ele>
        <time>2022-01-28T00:15:12Z</time>
      </trkpt>
      <trkpt lat="45.06636" lon="2.66003">
        <ele>997</ele>
        <time>2022-01-28T00:15:14Z</time>
      </trkpt>
      <trkpt lat="45.06628" lon="2.66007">
        <ele>999</ele>
        <time>2022-01-28T00:15:15Z</time>
      </trkpt>
      <trkpt lat="45.0662" lon="2.66003">
        <ele>1001</ele>
        <time>2022-01-28T00:15:17Z</time>
      </trkpt>
      <trkpt lat="45.06615" lon="2.65995">
        <ele>1002</ele>
        <time>2022-01-28T00:15:18Z</time>
      </trkpt>
      <trkpt lat="45.06616" lon="2.65973">
        <ele>1002</ele>
        <time>2022-01-28T00:15:21Z</time>
      </trkpt>
      <trkpt lat="45.06622" lon="2.6594">
        <ele>1000</ele>
        <time>2022-01-28T00:15:25Z</time>
      </trkpt>
      <trkpt lat="45.06622" lon="2.6588">
        <ele>997</ele>
        <time>2022-01-28T00:15:33Z</time>
      </trkpt>
      <trkpt lat="45.06618" lon="2.65855">
        <ele>996</ele>
        <time>2022-01-28T00:15:36Z</time>
      </trkpt>
      <trkpt lat="45.06615" lon="2.65848">
        <ele>996</ele>
        <time>2022-01-28T00:15:37Z</time>
      </trkpt>
      <trkpt lat="45.0661" lon="2.65843">
        <ele>997</ele>
        <time>2022-01-28T00:15:38Z</time>
      </trkpt>
      <trkpt lat="45.06597" lon="2.65842">
        <ele>1000</ele>
        <time>2022-01-28T00:15:40Z</time>
      </trkpt>
      <trkpt lat="45.06559" lon="2.65862">
        <ele>1010</ele>
        <time>2022-01-28T00:15:48Z</time>
      </trkpt>
      <trkpt lat="45.06534" lon="2.65868">
        <ele>1016</ele>
        <time>2022-01-28T00:15:52Z</time>
      </trkpt>
      <trkpt lat="45.06507" lon="2.65851">
        <ele>1020</ele>
        <time>2022-01-28T00:15:57Z</time>
      </trkpt>
      <trkpt lat="45.06491" lon="2.65834">
        <ele>1023</ele>
        <time>2022-01-28T00:16:01Z</time>
      </trkpt>
      <trkpt lat="45.06476" lon="2.65805">
        <ele>1026</ele>
        <time>2022-01-28T00:16:05Z</time>
      </trkpt>
      <trkpt lat="45.06422" lon="2.65721">
        <ele>1041</ele>
        <time>2022-01-28T00:16:20Z</time>
      </trkpt>
      <trkpt lat="45.06417" lon="2.65703">
        <ele>1043</ele>
        <time>2022-01-28T00:16:22Z</time>
      </trkpt>
      <trkpt lat="45.06416" lon="2.65689">
        <ele>1043</ele>
        <time>2022-01-28T00:16:24Z</time>
      </trkpt>
      <trkpt lat="45.0643" lon="2.65659">
        <ele>1039</ele>
        <time>2022-01-28T00:16:28Z</time>
      </trkpt>
      <trkpt lat="45.06433" lon="2.65646">
        <ele>1038</ele>
        <time>2022-01-28T00:16:30Z</time>
      </trkpt>
      <trkpt lat="45.06431" lon="2.65633">
        <ele>1038</ele>
        <time>2022-01-28T00:16:32Z</time>
      </trkpt>
      <trkpt lat="45.06423" lon="2.65613">
        <ele>1041</ele>
        <time>2022-01-28T00:16:35Z</time>
      </trkpt>
      <trkpt lat="45.06372" lon="2.65542">
        <ele>1048</ele>
        <time>2022-01-28T00:16:47Z</time>
      </trkpt>
      <trkpt lat="45.0635" lon="2.65519">
        <ele>1051</ele>
        <time>2022-01-28T00:16:52Z</time>
      </trkpt>
      <trkpt lat="45.0634" lon="2.65514">
        <ele>1053</ele>
        <time>2022-01-28T00:16:54Z</time>
      </trkpt>
      <trkpt lat="45.06329" lon="2.65511">
        <ele>1056</ele>
        <time>2022-01-28T00:16:56Z</time>
      </trkpt>
      <trkpt lat="45.06321" lon="2.65514">
        <ele>1058</ele>
        <time>2022-01-28T00:16:58Z</time>
      </trkpt>
      <trkpt lat="45.06316" lon="2.65519">
        <ele>1060</ele>
        <time>2022-01-28T00:16:59Z</time>
      </trkpt>
      <trkpt lat="45.06309" lon="2.65538">
        <ele>1063</ele>
        <time>2022-01-28T00:17:01Z</time>
      </trkpt>
      <trkpt lat="45.06301" lon="2.65575">
        <ele>1068</ele>
        <time>2022-01-28T00:17:06Z</time>
      </trkpt>
      <trkpt lat="45.06293" lon="2.65596">
        <ele>1070</ele>
        <time>2022-01-28T00:17:09Z</time>
      </trkpt>
      <trkpt lat="45.06272" lon="2.65632">
        <ele>1075</ele>
        <time>2022-01-28T00:17:15Z</time>
      </trkpt>
      <trkpt lat="45.06252" lon="2.65674">
        <ele>1079</ele>
        <time>2022-01-28T00:17:21Z</time>
      </trkpt>
      <trkpt lat="45.06245" lon="2.65698">
        <ele>1081</ele>
        <time>2022-01-28T00:17:25Z</time>
      </trkpt>
      <trkpt lat="45.06243" lon="2.65746">
        <ele>1082</ele>
        <time>2022-01-28T00:17:31Z</time>
      </trkpt>
      <trkpt lat="45.06238" lon="2.65918">
        <ele>1100</ele>
        <time>2022-01-28T00:17:52Z</time>
      </trkpt>
      <trkpt lat="45.06233" lon="2.65953">
        <ele>1103</ele>
        <time>2022-01-28T00:17:57Z</time>
      </trkpt>
      <trkpt lat="45.06226" lon="2.6598">
        <ele>1107</ele>
        <time>2022-01-28T00:18:01Z</time>
      </trkpt>
      <trkpt lat="45.06212" lon="2.66016">
        <ele>1112</ele>
        <time>2022-01-28T00:18:06Z</time>
      </trkpt>
      <trkpt lat="45.06158" lon="2.66089">
        <ele>1122</ele>
        <time>2022-01-28T00:18:19Z</time>
      </trkpt>
      <trkpt lat="45.06134" lon="2.66114">
        <ele>1126</ele>
        <time>2022-01-28T00:18:24Z</time>
      </trkpt>
      <trkpt lat="45.06103" lon="2.66136">
        <ele>1132</ele>
        <time>2022-01-28T00:18:30Z</time>
      </trkpt>
      <trkpt lat="45.06083" lon="2.66154">
        <ele>1134</ele>
        <time>2022-01-28T00:18:35Z</time>
      </trkpt>
      <trkpt lat="45.06061" lon="2.66185">
        <ele>1137</ele>
        <time>2022-01-28T00:18:40Z</time>
      </trkpt>
      <trkpt lat="45.06044" lon="2.66206">
        <ele>1139</ele>
        <time>2022-01-28T00:18:44Z</time>
      </trkpt>
      <trkpt lat="45.06016" lon="2.66231">
        <ele>1144</ele>
        <time>2022-01-28T00:18:50Z</time>
      </trkpt>
      <trkpt lat="45.05997" lon="2.66255">
        <ele>1147</ele>
        <time>2022-01-28T00:18:55Z</time>
      </trkpt>
      <trkpt lat="45.05969" lon="2.66276">
        <ele>1158</ele>
        <time>2022-01-28T00:19:00Z</time>
      </trkpt>
      <trkpt lat="45.05957" lon="2.66293">
        <ele>1161</ele>
        <time>2022-01-28T00:19:03Z</time>
      </trkpt>
      <trkpt lat="45.05956" lon="2.66311">
        <ele>1160</ele>
        <time>2022-01-28T00:19:06Z</time>
      </trkpt>
      <trkpt lat="45.05963" lon="2.66346">
        <ele>1155</ele>
        <time>2022-01-28T00:19:10Z</time>
      </trkpt>
      <trkpt lat="45.05963" lon="2.66367">
        <ele>1153</ele>
        <time>2022-01-28T00:19:13Z</time>
      </trkpt>
      <trkpt lat="45.05928" lon="2.66397">
        <ele>1164</ele>
        <time>2022-01-28T00:19:20Z</time>
      </trkpt>
      <trkpt lat="45.05897" lon="2.66456">
        <ele>1169</ele>
        <time>2022-01-28T00:19:29Z</time>
      </trkpt>
      <trkpt lat="45.0588" lon="2.6656">
        <ele>1162</ele>
        <time>2022-01-28T00:19:43Z</time>
      </trkpt>
      <trkpt lat="45.05859" lon="2.66609">
        <ele>1170</ele>
        <time>2022-01-28T00:19:50Z</time>
      </trkpt>
      <trkpt lat="45.05861" lon="2.66628">
        <ele>1170</ele>
        <time>2022-01-28T00:19:52Z</time>
      </trkpt>
      <trkpt lat="45.05884" lon="2.66639">
        <ele>1162</ele>
        <time>2022-01-28T00:19:57Z</time>
      </trkpt>
      <trkpt lat="45.0591" lon="2.66636">
        <ele>1153</ele>
        <time>2022-01-28T00:20:01Z</time>
      </trkpt>
      <trkpt lat="45.05921" lon="2.66645">
        <ele>1150</ele>
        <time>2022-01-28T00:20:04Z</time>
      </trkpt>
      <trkpt lat="45.05927" lon="2.6666">
        <ele>1151</ele>
        <time>2022-01-28T00:20:06Z</time>
      </trkpt>
      <trkpt lat="45.05925" lon="2.66705">
        <ele>1161</ele>
        <time>2022-01-28T00:20:11Z</time>
      </trkpt>
      <trkpt lat="45.05937" lon="2.66719">
        <ele>1163</ele>
        <time>2022-01-28T00:20:14Z</time>
      </trkpt>
      <trkpt lat="45.05958" lon="2.66717">
        <ele>1162</ele>
        <time>2022-01-28T00:20:18Z</time>
      </trkpt>
      <trkpt lat="45.05975" lon="2.6671">
        <ele>1159</ele>
        <time>2022-01-28T00:20:21Z</time>
      </trkpt>
      <trkpt lat="45.06012" lon="2.66681">
        <ele>1147</ele>
        <time>2022-01-28T00:20:29Z</time>
      </trkpt>
      <trkpt lat="45.06033" lon="2.66685">
        <ele>1145</ele>
        <time>2022-01-28T00:20:32Z</time>
      </trkpt>
      <trkpt lat="45.06054" lon="2.66716">
        <ele>1149</ele>
        <time>2022-01-28T00:20:38Z</time>
      </trkpt>
      <trkpt lat="45.06061" lon="2.66745">
        <ele>1153</ele>
        <time>2022-01-28T00:20:42Z</time>
      </trkpt>
      <trkpt lat="45.06052" lon="2.66809">
        <ele>1167</ele>
        <time>2022-01-28T00:20:50Z</time>
      </trkpt>
      <trkpt lat="45.06036" lon="2.66977">
        <ele>1187</ele>
        <time>2022-01-28T00:21:11Z</time>
      </trkpt>
      <trkpt lat="45.06041" lon="2.66994">
        <ele>1187</ele>
        <time>2022-01-28T00:21:13Z</time>
      </trkpt>
      <trkpt lat="45.06059" lon="2.67011">
        <ele>1184</ele>
        <time>2022-01-28T00:21:17Z</time>
      </trkpt>
      <trkpt lat="45.06064" lon="2.67035">
        <ele>1186</ele>
        <time>2022-01-28T00:21:20Z</time>
      </trkpt>
      <trkpt lat="45.06064" lon="2.67055">
        <ele>1188</ele>
        <time>2022-01-28T00:21:23Z</time>
      </trkpt>
      <trkpt lat="45.06069" lon="2.67069">
        <ele>1188</ele>
        <time>2022-01-28T00:21:25Z</time>
      </trkpt>
      <trkpt lat="45.06088" lon="2.67065">
        <ele>1185</ele>
        <time>2022-01-28T00:21:28Z</time>
      </trkpt>
      <trkpt lat="45.06108" lon="2.67032">
        <ele>1185</ele>
        <time>2022-01-28T00:21:34Z</time>
      </trkpt>
      <trkpt lat="45.06112" lon="2.67005">
        <ele>1183</ele>
        <time>2022-01-28T00:21:37Z</time>
      </trkpt>
      <trkpt lat="45.06118" lon="2.66983">
        <ele>1180</ele>
        <time>2022-01-28T00:21:40Z</time>
      </trkpt>
      <trkpt lat="45.06144" lon="2.66958">
        <ele>1179</ele>
        <time>2022-01-28T00:21:46Z</time>
      </trkpt>
      <trkpt lat="45.06155" lon="2.66954">
        <ele>1180</ele>
        <time>2022-01-28T00:21:48Z</time>
      </trkpt>
      <trkpt lat="45.06166" lon="2.6696">
        <ele>1183</ele>
        <time>2022-01-28T00:21:50Z</time>
      </trkpt>
      <trkpt lat="45.06181" lon="2.66985">
        <ele>1188</ele>
        <time>2022-01-28T00:21:54Z</time>
      </trkpt>
      <trkpt lat="45.06188" lon="2.67012">
        <ele>1193</ele>
        <time>2022-01-28T00:21:58Z</time>
      </trkpt>
      <trkpt lat="45.06225" lon="2.67046">
        <ele>1200</ele>
        <time>2022-01-28T00:22:05Z</time>
      </trkpt>
      <trkpt lat="45.06239" lon="2.67076">
        <ele>1206</ele>
        <time>2022-01-28T00:22:10Z</time>
      </trkpt>
      <trkpt lat="45.06259" lon="2.67103">
        <ele>1217</ele>
        <time>2022-01-28T00:22:15Z</time>
      </trkpt>
      <trkpt lat="45.06277" lon="2.67098">
        <ele>1221</ele>
        <time>2022-01-28T00:22:18Z</time>
      </trkpt>
      <trkpt lat="45.0629" lon="2.67085">
        <ele>1221</ele>
        <time>2022-01-28T00:22:21Z</time>
      </trkpt>
      <trkpt lat="45.06299" lon="2.67061">
        <ele>1219</ele>
        <time>2022-01-28T00:22:24Z</time>
      </trkpt>
      <trkpt lat="45.0631" lon="2.6704">
        <ele>1219</ele>
        <time>2022-01-28T00:22:28Z</time>
      </trkpt>
      <trkpt lat="45.06315" lon="2.66968">
        <ele>1209</ele>
        <time>2022-01-28T00:22:37Z</time>
      </trkpt>
      <trkpt lat="45.06325" lon="2.6695">
        <ele>1210</ele>
        <time>2022-01-28T00:22:40Z</time>
      </trkpt>
      <trkpt lat="45.06333" lon="2.66943">
        <ele>1211</ele>
        <time>2022-01-28T00:22:41Z</time>
      </trkpt>
      <trkpt lat="45.06347" lon="2.66943">
        <ele>1211</ele>
        <time>2022-01-28T00:22:44Z</time>
      </trkpt>
      <trkpt lat="45.06354" lon="2.66957">
        <ele>1212</ele>
        <time>2022-01-28T00:22:46Z</time>
      </trkpt>
      <trkpt lat="45.06352" lon="2.66971">
        <ele>1215</ele>
        <time>2022-01-28T00:22:48Z</time>
      </trkpt>
      <trkpt lat="45.06342" lon="2.67008">
        <ele>1220</ele>
        <time>2022-01-28T00:22:53Z</time>
      </trkpt>
      <trkpt lat="45.0634" lon="2.67046">
        <ele>1228</ele>
        <time>2022-01-28T00:22:58Z</time>
      </trkpt>
      <trkpt lat="45.06331" lon="2.67115">
        <ele>1242</ele>
        <time>2022-01-28T00:23:06Z</time>
      </trkpt>
      <trkpt lat="45.06307" lon="2.67188">
        <ele>1258</ele>
        <time>2022-01-28T00:23:17Z</time>
      </trkpt>
      <trkpt lat="45.06299" lon="2.67202">
        <ele>1261</ele>
        <time>2022-01-28T00:23:19Z</time>
      </trkpt>
      <trkpt lat="45.06282" lon="2.67211">
        <ele>1260</ele>
        <time>2022-01-28T00:23:22Z</time>
      </trkpt>
      <trkpt lat="45.06223" lon="2.67219">
        <ele>1249</ele>
        <time>2022-01-28T00:23:33Z</time>
      </trkpt>
      <trkpt lat="45.06209" lon="2.67229">
        <ele>1250</ele>
        <time>2022-01-28T00:23:35Z</time>
      </trkpt>
      <trkpt lat="45.06196" lon="2.67244">
        <ele>1251</ele>
        <time>2022-01-28T00:23:38Z</time>
      </trkpt>
      <trkpt lat="45.06192" lon="2.67254">
        <ele>1253</ele>
        <time>2022-01-28T00:23:40Z</time>
      </trkpt>
      <trkpt lat="45.0619" lon="2.67275">
        <ele>1258</ele>
        <time>2022-01-28T00:23:42Z</time>
      </trkpt>
      <trkpt lat="45.06191" lon="2.67292">
        <ele>1264</ele>
        <time>2022-01-28T00:23:45Z</time>
      </trkpt>
      <trkpt lat="45.06186" lon="2.67307">
        <ele>1266</ele>
        <time>2022-01-28T00:23:47Z</time>
      </trkpt>
      <trkpt lat="45.0615" lon="2.6735">
        <ele>1269</ele>
        <time>2022-01-28T00:23:55Z</time>
      </trkpt>
      <trkpt lat="45.06124" lon="2.67402">
        <ele>1281</ele>
        <time>2022-01-28T00:24:03Z</time>
      </trkpt>
      <trkpt lat="45.061" lon="2.67408">
        <ele>1278</ele>
        <time>2022-01-28T00:24:07Z</time>
      </trkpt>
      <trkpt lat="45.06064" lon="2.67432">
        <ele>1284</ele>
        <time>2022-01-28T00:24:14Z</time>
      </trkpt>
      <trkpt lat="45.06033" lon="2.67435">
        <ele>1284</ele>
        <time>2022-01-28T00:24:20Z</time>
      </trkpt>
      <trkpt lat="45.06009" lon="2.67443">
        <ele>1287</ele>
        <time>2022-01-28T00:24:24Z</time>
      </trkpt>
      <trkpt lat="45.05984" lon="2.67442">
        <ele>1290</ele>
        <time>2022-01-28T00:24:29Z</time>
      </trkpt>
      <trkpt lat="45.05959" lon="2.67433">
        <ele>1293</ele>
        <time>2022-01-28T00:24:33Z</time>
      </trkpt>
      <trkpt lat="45.05944" lon="2.67412">
        <ele>1294</ele>
        <time>2022-01-28T00:24:37Z</time>
      </trkpt>
      <trkpt lat="45.05937" lon="2.67388">
        <ele>1293</ele>
        <time>2022-01-28T00:24:40Z</time>
      </trkpt>
      <trkpt lat="45.05924" lon="2.67338">
        <ele>1293</ele>
        <time>2022-01-28T00:24:47Z</time>
      </trkpt>
      <trkpt lat="45.05913" lon="2.67319">
        <ele>1293</ele>
        <time>2022-01-28T00:24:50Z</time>
      </trkpt>
      <trkpt lat="45.05899" lon="2.67312">
        <ele>1293</ele>
        <time>2022-01-28T00:24:53Z</time>
      </trkpt>
      <trkpt lat="45.0588" lon="2.67313">
        <ele>1295</ele>
        <time>2022-01-28T00:24:56Z</time>
      </trkpt>
      <trkpt lat="45.05851" lon="2.67325">
        <ele>1301</ele>
        <time>2022-01-28T00:25:02Z</time>
      </trkpt>
      <trkpt lat="45.05823" lon="2.6734">
        <ele>1305</ele>
        <time>2022-01-28T00:25:07Z</time>
      </trkpt>
      <trkpt lat="45.05814" lon="2.6735">
        <ele>1306</ele>
        <time>2022-01-28T00:25:09Z</time>
      </trkpt>
      <trkpt lat="45.05807" lon="2.67366">
        <ele>1306</ele>
        <time>2022-01-28T00:25:11Z</time>
      </trkpt>
      <trkpt lat="45.05806" lon="2.67386">
        <ele>1307</ele>
        <time>2022-01-28T00:25:14Z</time>
      </trkpt>
      <trkpt lat="45.05808" lon="2.67417">
        <ele>1308</ele>
        <time>2022-01-28T00:25:18Z</time>
      </trkpt>
      <trkpt lat="45.05824" lon="2.67466">
        <ele>1305</ele>
        <time>2022-01-28T00:25:25Z</time>
      </trkpt>
      <trkpt lat="45.05836" lon="2.67496">
        <ele>1305</ele>
        <time>2022-01-28T00:25:29Z</time>
      </trkpt>
      <trkpt lat="45.05847" lon="2.67515">
        <ele>1304</ele>
        <time>2022-01-28T00:25:32Z</time>
      </trkpt>
      <trkpt lat="45.05859" lon="2.67529">
        <ele>1304</ele>
        <time>2022-01-28T00:25:35Z</time>
      </trkpt>
      <trkpt lat="45.05878" lon="2.6754">
        <ele>1306</ele>
        <time>2022-01-28T00:25:38Z</time>
      </trkpt>
      <trkpt lat="45.05886" lon="2.67553">
        <ele>1307</ele>
        <time>2022-01-28T00:25:41Z</time>
      </trkpt>
      <trkpt lat="45.05891" lon="2.67564">
        <ele>1308</ele>
        <time>2022-01-28T00:25:42Z</time>
      </trkpt>
      <trkpt lat="45.05894" lon="2.67584">
        <ele>1309</ele>
        <time>2022-01-28T00:25:45Z</time>
      </trkpt>
      <trkpt lat="45.05895" lon="2.67611">
        <ele>1306</ele>
        <time>2022-01-28T00:25:48Z</time>
      </trkpt>
      <trkpt lat="45.059" lon="2.67645">
        <ele>1304</ele>
        <time>2022-01-28T00:25:53Z</time>
      </trkpt>
      <trkpt lat="45.05944" lon="2.67735">
        <ele>1301</ele>
        <time>2022-01-28T00:26:06Z</time>
      </trkpt>
      <trkpt lat="45.05969" lon="2.67784">
        <ele>1299</ele>
        <time>2022-01-28T00:26:14Z</time>
      </trkpt>
      <trkpt lat="45.05977" lon="2.67804">
        <ele>1297</ele>
        <time>2022-01-28T00:26:17Z</time>
      </trkpt>
      <trkpt lat="45.05982" lon="2.67855">
        <ele>1288</ele>
        <time>2022-01-28T00:26:23Z</time>
      </trkpt>
      <trkpt lat="45.05979" lon="2.67892">
        <ele>1279</ele>
        <time>2022-01-28T00:26:28Z</time>
      </trkpt>
      <trkpt lat="45.05981" lon="2.67924">
        <ele>1274</ele>
        <time>2022-01-28T00:26:32Z</time>
      </trkpt>
      <trkpt lat="45.05986" lon="2.67945">
        <ele>1272</ele>
        <time>2022-01-28T00:26:35Z</time>
      </trkpt>
      <trkpt lat="45.05994" lon="2.67958">
        <ele>1273</ele>
        <time>2022-01-28T00:26:37Z</time>
      </trkpt>
      <trkpt lat="45.06007" lon="2.6797">
        <ele>1276</ele>
        <time>2022-01-28T00:26:40Z</time>
      </trkpt>
      <trkpt lat="45.06028" lon="2.67975">
        <ele>1283</ele>
        <time>2022-01-28T00:26:43Z</time>
      </trkpt>
      <trkpt lat="45.06037" lon="2.67982">
        <ele>1285</ele>
        <time>2022-01-28T00:26:45Z</time>
      </trkpt>
      <trkpt lat="45.06049" lon="2.68007">
        <ele>1286</ele>
        <time>2022-01-28T00:26:49Z</time>
      </trkpt>
      <trkpt lat="45.0605" lon="2.68018">
        <ele>1288</ele>
        <time>2022-01-28T00:26:51Z</time>
      </trkpt>
      <trkpt lat="45.06046" lon="2.68031">
        <ele>1287</ele>
        <time>2022-01-28T00:26:52Z</time>
      </trkpt>
      <trkpt lat="45.06035" lon="2.68043">
        <ele>1283</ele>
        <time>2022-01-28T00:26:55Z</time>
      </trkpt>
      <trkpt lat="45.0602" lon="2.6805">
        <ele>1278</ele>
        <time>2022-01-28T00:26:58Z</time>
      </trkpt>
      <trkpt lat="45.05981" lon="2.68063">
        <ele>1263</ele>
        <time>2022-01-28T00:27:05Z</time>
      </trkpt>
      <trkpt lat="45.05972" lon="2.68072">
        <ele>1260</ele>
        <time>2022-01-28T00:27:07Z</time>
      </trkpt>
      <trkpt lat="45.05962" lon="2.68086">
        <ele>1257</ele>
        <time>2022-01-28T00:27:09Z</time>
      </trkpt>
      <trkpt lat="45.05955" lon="2.68106">
        <ele>1256</ele>
        <time>2022-01-28T00:27:12Z</time>
      </trkpt>
      <trkpt lat="45.05948" lon="2.68154">
        <ele>1257</ele>
        <time>2022-01-28T00:27:18Z</time>
      </trkpt>
      <trkpt lat="45.05948" lon="2.68176">
        <ele>1256</ele>
        <time>2022-01-28T00:27:21Z</time>
      </trkpt>
      <trkpt lat="45.05957" lon="2.68203">
        <ele>1255</ele>
        <time>2022-01-28T00:27:25Z</time>
      </trkpt>
      <trkpt lat="45.05963" lon="2.68217">
        <ele>1255</ele>
        <time>2022-01-28T00:27:27Z</time>
      </trkpt>
      <trkpt lat="45.05979" lon="2.68242">
        <ele>1257</ele>
        <time>2022-01-28T00:27:31Z</time>
      </trkpt>
      <trkpt lat="45.05999" lon="2.68262">
        <ele>1260</ele>
        <time>2022-01-28T00:27:35Z</time>
      </trkpt>
      <trkpt lat="45.06016" lon="2.68292">
        <ele>1260</ele>
        <time>2022-01-28T00:27:40Z</time>
      </trkpt>
      <trkpt lat="45.06026" lon="2.68317">
        <ele>1258</ele>
        <time>2022-01-28T00:27:44Z</time>
      </trkpt>
      <trkpt lat="45.0603" lon="2.68338">
        <ele>1256</ele>
        <time>2022-01-28T00:27:46Z</time>
      </trkpt>
      <trkpt lat="45.06029" lon="2.68354">
        <ele>1257</ele>
        <time>2022-01-28T00:27:48Z</time>
      </trkpt>
      <trkpt lat="45.06022" lon="2.684">
        <ele>1258</ele>
        <time>2022-01-28T00:27:54Z</time>
      </trkpt>
      <trkpt lat="45.06017" lon="2.68413">
        <ele>1257</ele>
        <time>2022-01-28T00:27:56Z</time>
      </trkpt>
      <trkpt lat="45.06007" lon="2.68416">
        <ele>1253</ele>
        <time>2022-01-28T00:27:58Z</time>
      </trkpt>
      <trkpt lat="45.05988" lon="2.68411">
        <ele>1247</ele>
        <time>2022-01-28T00:28:02Z</time>
      </trkpt>
      <trkpt lat="45.05963" lon="2.68411">
        <ele>1241</ele>
        <time>2022-01-28T00:28:06Z</time>
      </trkpt>
      <trkpt lat="45.05943" lon="2.68414">
        <ele>1237</ele>
        <time>2022-01-28T00:28:10Z</time>
      </trkpt>
      <trkpt lat="45.05919" lon="2.6843">
        <ele>1236</ele>
        <time>2022-01-28T00:28:14Z</time>
      </trkpt>
      <trkpt lat="45.05904" lon="2.68443">
        <ele>1235</ele>
        <time>2022-01-28T00:28:17Z</time>
      </trkpt>
      <trkpt lat="45.05893" lon="2.68461">
        <ele>1236</ele>
        <time>2022-01-28T00:28:20Z</time>
      </trkpt>
      <trkpt lat="45.05886" lon="2.68477">
        <ele>1238</ele>
        <time>2022-01-28T00:28:23Z</time>
      </trkpt>
      <trkpt lat="45.05882" lon="2.68495">
        <ele>1241</ele>
        <time>2022-01-28T00:28:25Z</time>
      </trkpt>
      <trkpt lat="45.05877" lon="2.68506">
        <ele>1242</ele>
        <time>2022-01-28T00:28:27Z</time>
      </trkpt>
      <trkpt lat="45.05865" lon="2.68511">
        <ele>1240</ele>
        <time>2022-01-28T00:28:29Z</time>
      </trkpt>
      <trkpt lat="45.05854" lon="2.68507">
        <ele>1236</ele>
        <time>2022-01-28T00:28:31Z</time>
      </trkpt>
      <trkpt lat="45.05843" lon="2.68489">
        <ele>1228</ele>
        <time>2022-01-28T00:28:34Z</time>
      </trkpt>
      <trkpt lat="45.05833" lon="2.68484">
        <ele>1224</ele>
        <time>2022-01-28T00:28:36Z</time>
      </trkpt>
      <trkpt lat="45.05815" lon="2.68486">
        <ele>1221</ele>
        <time>2022-01-28T00:28:39Z</time>
      </trkpt>
      <trkpt lat="45.058" lon="2.6849">
        <ele>1219</ele>
        <time>2022-01-28T00:28:42Z</time>
      </trkpt>
      <trkpt lat="45.05782" lon="2.68497">
        <ele>1217</ele>
        <time>2022-01-28T00:28:45Z</time>
      </trkpt>
      <trkpt lat="45.05775" lon="2.68506">
        <ele>1217</ele>
        <time>2022-01-28T00:28:47Z</time>
      </trkpt>
      <trkpt lat="45.05762" lon="2.6853">
        <ele>1219</ele>
        <time>2022-01-28T00:28:51Z</time>
      </trkpt>
      <trkpt lat="45.05757" lon="2.68538">
        <ele>1220</ele>
        <time>2022-01-28T00:28:52Z</time>
      </trkpt>
      <trkpt lat="45.05747" lon="2.68541">
        <ele>1218</ele>
        <time>2022-01-28T00:28:54Z</time>
      </trkpt>
      <trkpt lat="45.05719" lon="2.68526">
        <ele>1215</ele>
        <time>2022-01-28T00:28:59Z</time>
      </trkpt>
      <trkpt lat="45.05669" lon="2.68484">
        <ele>1206</ele>
        <time>2022-01-28T00:29:09Z</time>
      </trkpt>
      <trkpt lat="45.05613" lon="2.68442">
        <ele>1199</ele>
        <time>2022-01-28T00:29:21Z</time>
      </trkpt>
      <trkpt lat="45.05597" lon="2.68437">
        <ele>1198</ele>
        <time>2022-01-28T00:29:24Z</time>
      </trkpt>
      <trkpt lat="45.05577" lon="2.68436">
        <ele>1197</ele>
        <time>2022-01-28T00:29:27Z</time>
      </trkpt>
      <trkpt lat="45.05548" lon="2.68446">
        <ele>1193</ele>
        <time>2022-01-28T00:29:33Z</time>
      </trkpt>
      <trkpt lat="45.05531" lon="2.68459">
        <ele>1193</ele>
        <time>2022-01-28T00:29:36Z</time>
      </trkpt>
      <trkpt lat="45.05521" lon="2.68471">
        <ele>1193</ele>
        <time>2022-01-28T00:29:38Z</time>
      </trkpt>
      <trkpt lat="45.05509" lon="2.6849">
        <ele>1195</ele>
        <time>2022-01-28T00:29:42Z</time>
      </trkpt>
      <trkpt lat="45.05493" lon="2.68521">
        <ele>1199</ele>
        <time>2022-01-28T00:29:46Z</time>
      </trkpt>
      <trkpt lat="45.05476" lon="2.68538">
        <ele>1200</ele>
        <time>2022-01-28T00:29:50Z</time>
      </trkpt>
      <trkpt lat="45.05434" lon="2.6856">
        <ele>1195</ele>
        <time>2022-01-28T00:29:58Z</time>
      </trkpt>
      <trkpt lat="45.05401" lon="2.68571">
        <ele>1188</ele>
        <time>2022-01-28T00:30:04Z</time>
      </trkpt>
      <trkpt lat="45.05393" lon="2.68582">
        <ele>1188</ele>
        <time>2022-01-28T00:30:06Z</time>
      </trkpt>
      <trkpt lat="45.05388" lon="2.68592">
        <ele>1187</ele>
        <time>2022-01-28T00:30:08Z</time>
      </trkpt>
      <trkpt lat="45.05363" lon="2.68686">
        <ele>1184</ele>
        <time>2022-01-28T00:30:20Z</time>
      </trkpt>
      <trkpt lat="45.05356" lon="2.68707">
        <ele>1182</ele>
        <time>2022-01-28T00:30:23Z</time>
      </trkpt>
      <trkpt lat="45.05347" lon="2.68719">
        <ele>1180</ele>
        <time>2022-01-28T00:30:25Z</time>
      </trkpt>
      <trkpt lat="45.05336" lon="2.68724">
        <ele>1176</ele>
        <time>2022-01-28T00:30:27Z</time>
      </trkpt>
      <trkpt lat="45.05318" lon="2.68736">
        <ele>1173</ele>
        <time>2022-01-28T00:30:31Z</time>
      </trkpt>
      <trkpt lat="45.05294" lon="2.68767">
        <ele>1176</ele>
        <time>2022-01-28T00:30:37Z</time>
      </trkpt>
      <trkpt lat="45.05277" lon="2.68782">
        <ele>1177</ele>
        <time>2022-01-28T00:30:40Z</time>
      </trkpt>
      <trkpt lat="45.05237" lon="2.68806">
        <ele>1174</ele>
        <time>2022-01-28T00:30:48Z</time>
      </trkpt>
      <trkpt lat="45.0523" lon="2.68818">
        <ele>1175</ele>
        <time>2022-01-28T00:30:50Z</time>
      </trkpt>
      <trkpt lat="45.05226" lon="2.68835">
        <ele>1177</ele>
        <time>2022-01-28T00:30:52Z</time>
      </trkpt>
      <trkpt lat="45.05219" lon="2.68899">
        <ele>1180</ele>
        <time>2022-01-28T00:31:00Z</time>
      </trkpt>
      <trkpt lat="45.05216" lon="2.68935">
        <ele>1180</ele>
        <time>2022-01-28T00:31:05Z</time>
      </trkpt>
      <trkpt lat="45.05216" lon="2.68969">
        <ele>1178</ele>
        <time>2022-01-28T00:31:09Z</time>
      </trkpt>
      <trkpt lat="45.05221" lon="2.69019">
        <ele>1176</ele>
        <time>2022-01-28T00:31:16Z</time>
      </trkpt>
      <trkpt lat="45.05232" lon="2.69084">
        <ele>1174</ele>
        <time>2022-01-28T00:31:24Z</time>
      </trkpt>
      <trkpt lat="45.05248" lon="2.69133">
        <ele>1179</ele>
        <time>2022-01-28T00:31:31Z</time>
      </trkpt>
      <trkpt lat="45.05254" lon="2.69164">
        <ele>1183</ele>
        <time>2022-01-28T00:31:35Z</time>
      </trkpt>
      <trkpt lat="45.05254" lon="2.69182">
        <ele>1183</ele>
        <time>2022-01-28T00:31:37Z</time>
      </trkpt>
      <trkpt lat="45.05252" lon="2.69202">
        <ele>1183</ele>
        <time>2022-01-28T00:31:40Z</time>
      </trkpt>
      <trkpt lat="45.05244" lon="2.69238">
        <ele>1180</ele>
        <time>2022-01-28T00:31:44Z</time>
      </trkpt>
      <trkpt lat="45.05244" lon="2.69258">
        <ele>1180</ele>
        <time>2022-01-28T00:31:47Z</time>
      </trkpt>
      <trkpt lat="45.0525" lon="2.69295">
        <ele>1179</ele>
        <time>2022-01-28T00:31:52Z</time>
      </trkpt>
      <trkpt lat="45.05255" lon="2.69314">
        <ele>1179</ele>
        <time>2022-01-28T00:31:54Z</time>
      </trkpt>
      <trkpt lat="45.05262" lon="2.69329">
        <ele>1179</ele>
        <time>2022-01-28T00:31:56Z</time>
      </trkpt>
      <trkpt lat="45.05302" lon="2.69366">
        <ele>1183</ele>
        <time>2022-01-28T00:32:05Z</time>
      </trkpt>
      <trkpt lat="45.05316" lon="2.69384">
        <ele>1182</ele>
        <time>2022-01-28T00:32:08Z</time>
      </trkpt>
      <trkpt lat="45.05359" lon="2.69442">
        <ele>1179</ele>
        <time>2022-01-28T00:32:19Z</time>
      </trkpt>
      <trkpt lat="45.0537" lon="2.69462">
        <ele>1178</ele>
        <time>2022-01-28T00:32:22Z</time>
      </trkpt>
      <trkpt lat="45.05375" lon="2.69476">
        <ele>1176</ele>
        <time>2022-01-28T00:32:24Z</time>
      </trkpt>
      <trkpt lat="45.05391" lon="2.69539">
        <ele>1172</ele>
        <time>2022-01-28T00:32:32Z</time>
      </trkpt>
      <trkpt lat="45.05403" lon="2.69566">
        <ele>1172</ele>
        <time>2022-01-28T00:32:36Z</time>
      </trkpt>
      <trkpt lat="45.05427" lon="2.69606">
        <ele>1176</ele>
        <time>2022-01-28T00:32:43Z</time>
      </trkpt>
      <trkpt lat="45.05433" lon="2.6962">
        <ele>1178</ele>
        <time>2022-01-28T00:32:45Z</time>
      </trkpt>
      <trkpt lat="45.05435" lon="2.69635">
        <ele>1179</ele>
        <time>2022-01-28T00:32:47Z</time>
      </trkpt>
      <trkpt lat="45.05431" lon="2.6965">
        <ele>1179</ele>
        <time>2022-01-28T00:32:49Z</time>
      </trkpt>
      <trkpt lat="45.05425" lon="2.69662">
        <ele>1179</ele>
        <time>2022-01-28T00:32:51Z</time>
      </trkpt>
      <trkpt lat="45.05414" lon="2.69677">
        <ele>1179</ele>
        <time>2022-01-28T00:32:54Z</time>
      </trkpt>
      <trkpt lat="45.05405" lon="2.69683">
        <ele>1180</ele>
        <time>2022-01-28T00:32:55Z</time>
      </trkpt>
      <trkpt lat="45.05366" lon="2.69722">
        <ele>1184</ele>
        <time>2022-01-28T00:33:04Z</time>
      </trkpt>
      <trkpt lat="45.05348" lon="2.69726">
        <ele>1182</ele>
        <time>2022-01-28T00:33:07Z</time>
      </trkpt>
      <trkpt lat="45.05324" lon="2.69723">
        <ele>1181</ele>
        <time>2022-01-28T00:33:11Z</time>
      </trkpt>
      <trkpt lat="45.05143" lon="2.69652">
        <ele>1181</ele>
        <time>2022-01-28T00:33:45Z</time>
      </trkpt>
      <trkpt lat="45.05119" lon="2.69651">
        <ele>1181</ele>
        <time>2022-01-28T00:33:49Z</time>
      </trkpt>
      <trkpt lat="45.05094" lon="2.69656">
        <ele>1181</ele>
        <time>2022-01-28T00:33:54Z</time>
      </trkpt>
      <trkpt lat="45.05073" lon="2.69664">
        <ele>1181</ele>
        <time>2022-01-28T00:33:57Z</time>
      </trkpt>
      <trkpt lat="45.0502" lon="2.69701">
        <ele>1177</ele>
        <time>2022-01-28T00:34:08Z</time>
      </trkpt>
      <trkpt lat="45.05012" lon="2.69712">
        <ele>1177</ele>
        <time>2022-01-28T00:34:10Z</time>
      </trkpt>
      <trkpt lat="45.05007" lon="2.69726">
        <ele>1178</ele>
        <time>2022-01-28T00:34:12Z</time>
      </trkpt>
      <trkpt lat="45.05005" lon="2.69744">
        <ele>1180</ele>
        <time>2022-01-28T00:34:14Z</time>
      </trkpt>
      <trkpt lat="45.05004" lon="2.69763">
        <ele>1181</ele>
        <time>2022-01-28T00:34:17Z</time>
      </trkpt>
      <trkpt lat="45.05008" lon="2.69783">
        <ele>1183</ele>
        <time>2022-01-28T00:34:19Z</time>
      </trkpt>
      <trkpt lat="45.05005" lon="2.69807">
        <ele>1183</ele>
        <time>2022-01-28T00:34:22Z</time>
      </trkpt>
      <trkpt lat="45.04962" lon="2.69966">
        <ele>1171</ele>
        <time>2022-01-28T00:34:44Z</time>
      </trkpt>
      <trkpt lat="45.04942" lon="2.70001">
        <ele>1165</ele>
        <time>2022-01-28T00:34:49Z</time>
      </trkpt>
      <trkpt lat="45.04928" lon="2.70022">
        <ele>1163</ele>
        <time>2022-01-28T00:34:53Z</time>
      </trkpt>
      <trkpt lat="45.04917" lon="2.70035">
        <ele>1161</ele>
        <time>2022-01-28T00:34:55Z</time>
      </trkpt>
      <trkpt lat="45.04881" lon="2.70065">
        <ele>1161</ele>
        <time>2022-01-28T00:35:03Z</time>
      </trkpt>
      <trkpt lat="45.04862" lon="2.70075">
        <ele>1161</ele>
        <time>2022-01-28T00:35:07Z</time>
      </trkpt>
      <trkpt lat="45.0485" lon="2.70079">
        <ele>1160</ele>
        <time>2022-01-28T00:35:09Z</time>
      </trkpt>
      <trkpt lat="45.0481" lon="2.70087">
        <ele>1158</ele>
        <time>2022-01-28T00:35:16Z</time>
      </trkpt>
      <trkpt lat="45.04758" lon="2.70086">
        <ele>1156</ele>
        <time>2022-01-28T00:35:25Z</time>
      </trkpt>
      <trkpt lat="45.0475" lon="2.70091">
        <ele>1156</ele>
        <time>2022-01-28T00:35:27Z</time>
      </trkpt>
      <trkpt lat="45.04745" lon="2.70098">
        <ele>1156</ele>
        <time>2022-01-28T00:35:28Z</time>
      </trkpt>
      <trkpt lat="45.04742" lon="2.70112">
        <ele>1156</ele>
        <time>2022-01-28T00:35:30Z</time>
      </trkpt>
      <trkpt lat="45.04745" lon="2.70127">
        <ele>1156</ele>
        <time>2022-01-28T00:35:32Z</time>
      </trkpt>
      <trkpt lat="45.04751" lon="2.70143">
        <ele>1156</ele>
        <time>2022-01-28T00:35:34Z</time>
      </trkpt>
      <trkpt lat="45.04769" lon="2.70168">
        <ele>1159</ele>
        <time>2022-01-28T00:35:39Z</time>
      </trkpt>
      <trkpt lat="45.04794" lon="2.70193">
        <ele>1159</ele>
        <time>2022-01-28T00:35:44Z</time>
      </trkpt>
      <trkpt lat="45.04807" lon="2.70211">
        <ele>1159</ele>
        <time>2022-01-28T00:35:47Z</time>
      </trkpt>
      <trkpt lat="45.04825" lon="2.70238">
        <ele>1160</ele>
        <time>2022-01-28T00:35:52Z</time>
      </trkpt>
      <trkpt lat="45.0483" lon="2.7025">
        <ele>1160</ele>
        <time>2022-01-28T00:35:54Z</time>
      </trkpt>
      <trkpt lat="45.04861" lon="2.70338">
        <ele>1161</ele>
        <time>2022-01-28T00:36:06Z</time>
      </trkpt>
      <trkpt lat="45.04864" lon="2.70356">
        <ele>1160</ele>
        <time>2022-01-28T00:36:08Z</time>
      </trkpt>
      <trkpt lat="45.04871" lon="2.70422">
        <ele>1152</ele>
        <time>2022-01-28T00:36:17Z</time>
      </trkpt>
      <trkpt lat="45.04871" lon="2.70437">
        <ele>1151</ele>
        <time>2022-01-28T00:36:19Z</time>
      </trkpt>
      <trkpt lat="45.04866" lon="2.70447">
        <ele>1149</ele>
        <time>2022-01-28T00:36:20Z</time>
      </trkpt>
      <trkpt lat="45.04858" lon="2.70449">
        <ele>1149</ele>
        <time>2022-01-28T00:36:22Z</time>
      </trkpt>
      <trkpt lat="45.04843" lon="2.70444">
        <ele>1147</ele>
        <time>2022-01-28T00:36:24Z</time>
      </trkpt>
      <trkpt lat="45.0482" lon="2.70431">
        <ele>1145</ele>
        <time>2022-01-28T00:36:29Z</time>
      </trkpt>
      <trkpt lat="45.04811" lon="2.70418">
        <ele>1144</ele>
        <time>2022-01-28T00:36:31Z</time>
      </trkpt>
      <trkpt lat="45.048" lon="2.70387">
        <ele>1143</ele>
        <time>2022-01-28T00:36:35Z</time>
      </trkpt>
      <trkpt lat="45.04793" lon="2.70376">
        <ele>1142</ele>
        <time>2022-01-28T00:36:37Z</time>
      </trkpt>
      <trkpt lat="45.04781" lon="2.70367">
        <ele>1140</ele>
        <time>2022-01-28T00:36:40Z</time>
      </trkpt>
      <trkpt lat="45.04773" lon="2.70365">
        <ele>1138</ele>
        <time>2022-01-28T00:36:41Z</time>
      </trkpt>
      <trkpt lat="45.04761" lon="2.7037">
        <ele>1136</ele>
        <time>2022-01-28T00:36:43Z</time>
      </trkpt>
      <trkpt lat="45.04726" lon="2.70391">
        <ele>1128</ele>
        <time>2022-01-28T00:36:50Z</time>
      </trkpt>
      <trkpt lat="45.04694" lon="2.70423">
        <ele>1120</ele>
        <time>2022-01-28T00:36:57Z</time>
      </trkpt>
      <trkpt lat="45.04677" lon="2.70449">
        <ele>1117</ele>
        <time>2022-01-28T00:37:01Z</time>
      </trkpt>
      <trkpt lat="45.04664" lon="2.70475">
        <ele>1114</ele>
        <time>2022-01-28T00:37:05Z</time>
      </trkpt>
      <trkpt lat="45.04658" lon="2.70504">
        <ele>1111</ele>
        <time>2022-01-28T00:37:09Z</time>
      </trkpt>
      <trkpt lat="45.04659" lon="2.70527">
        <ele>1110</ele>
        <time>2022-01-28T00:37:12Z</time>
      </trkpt>
      <trkpt lat="45.04661" lon="2.70561">
        <ele>1108</ele>
        <time>2022-01-28T00:37:16Z</time>
      </trkpt>
      <trkpt lat="45.0467" lon="2.70589">
        <ele>1108</ele>
        <time>2022-01-28T00:37:20Z</time>
      </trkpt>
      <trkpt lat="45.04679" lon="2.70605">
        <ele>1105</ele>
        <time>2022-01-28T00:37:23Z</time>
      </trkpt>
      <trkpt lat="45.0469" lon="2.70614">
        <ele>1104</ele>
        <time>2022-01-28T00:37:25Z</time>
      </trkpt>
      <trkpt lat="45.047" lon="2.70619">
        <ele>1103</ele>
        <time>2022-01-28T00:37:27Z</time>
      </trkpt>
      <trkpt lat="45.04722" lon="2.70624">
        <ele>1104</ele>
        <time>2022-01-28T00:37:31Z</time>
      </trkpt>
      <trkpt lat="45.04743" lon="2.70626">
        <ele>1105</ele>
        <time>2022-01-28T00:37:35Z</time>
      </trkpt>
      <trkpt lat="45.04781" lon="2.70639">
        <ele>1102</ele>
        <time>2022-01-28T00:37:42Z</time>
      </trkpt>
      <trkpt lat="45.04819" lon="2.70647">
        <ele>1100</ele>
        <time>2022-01-28T00:37:49Z</time>
      </trkpt>
      <trkpt lat="45.04844" lon="2.70662">
        <ele>1094</ele>
        <time>2022-01-28T00:37:53Z</time>
      </trkpt>
      <trkpt lat="45.04869" lon="2.70671">
        <ele>1091</ele>
        <time>2022-01-28T00:37:58Z</time>
      </trkpt>
      <trkpt lat="45.04888" lon="2.70674">
        <ele>1091</ele>
        <time>2022-01-28T00:38:01Z</time>
      </trkpt>
      <trkpt lat="45.04908" lon="2.7067">
        <ele>1093</ele>
        <time>2022-01-28T00:38:05Z</time>
      </trkpt>
      <trkpt lat="45.0493" lon="2.70662">
        <ele>1095</ele>
        <time>2022-01-28T00:38:09Z</time>
      </trkpt>
      <trkpt lat="45.04952" lon="2.7066">
        <ele>1094</ele>
        <time>2022-01-28T00:38:13Z</time>
      </trkpt>
      <trkpt lat="45.04972" lon="2.70665">
        <ele>1091</ele>
        <time>2022-01-28T00:38:17Z</time>
      </trkpt>
      <trkpt lat="45.05091" lon="2.70715">
        <ele>1071</ele>
        <time>2022-01-28T00:38:39Z</time>
      </trkpt>
      <trkpt lat="45.05095" lon="2.70714">
        <ele>1071</ele>
        <time>2022-01-28T00:38:39Z</time>
      </trkpt>
      <trkpt lat="45.05099" lon="2.70711">
        <ele>1071</ele>
        <time>2022-01-28T00:38:40Z</time>
      </trkpt>
      <trkpt lat="45.05113" lon="2.70681">
        <ele>1077</ele>
        <time>2022-01-28T00:38:45Z</time>
      </trkpt>
      <trkpt lat="45.05121" lon="2.70675">
        <ele>1078</ele>
        <time>2022-01-28T00:38:46Z</time>
      </trkpt>
      <trkpt lat="45.05131" lon="2.70677">
        <ele>1077</ele>
        <time>2022-01-28T00:38:48Z</time>
      </trkpt>
      <trkpt lat="45.0515" lon="2.70692">
        <ele>1074</ele>
        <time>2022-01-28T00:38:52Z</time>
      </trkpt>
      <trkpt lat="45.05176" lon="2.7073">
        <ele>1068</ele>
        <time>2022-01-28T00:38:59Z</time>
      </trkpt>
      <trkpt lat="45.05221" lon="2.70841">
        <ele>1051</ele>
        <time>2022-01-28T00:39:15Z</time>
      </trkpt>
      <trkpt lat="45.05256" lon="2.70909">
        <ele>1042</ele>
        <time>2022-01-28T00:39:25Z</time>
      </trkpt>
      <trkpt lat="45.05281" lon="2.7095">
        <ele>1037</ele>
        <time>2022-01-28T00:39:32Z</time>
      </trkpt>
      <trkpt lat="45.05297" lon="2.7097">
        <ele>1034</ele>
        <time>2022-01-28T00:39:36Z</time>
      </trkpt>
      <trkpt lat="45.0533" lon="2.7099">
        <ele>1033</ele>
        <time>2022-01-28T00:39:42Z</time>
      </trkpt>
      <trkpt lat="45.05346" lon="2.71002">
        <ele>1031</ele>
        <time>2022-01-28T00:39:45Z</time>
      </trkpt>
      <trkpt lat="45.05379" lon="2.71037">
        <ele>1024</ele>
        <time>2022-01-28T00:39:53Z</time>
      </trkpt>
      <trkpt lat="45.05407" lon="2.71061">
        <ele>1022</ele>
        <time>2022-01-28T00:39:59Z</time>
      </trkpt>
      <trkpt lat="45.05433" lon="2.7108">
        <ele>1019</ele>
        <time>2022-01-28T00:40:04Z</time>
      </trkpt>
      <trkpt lat="45.05451" lon="2.71098">
        <ele>1014</ele>
        <time>2022-01-28T00:40:08Z</time>
      </trkpt>
      <trkpt lat="45.05472" lon="2.71112">
        <ele>1010</ele>
        <time>2022-01-28T00:40:12Z</time>
      </trkpt>
      <trkpt lat="45.05484" lon="2.71116">
        <ele>1009</ele>
        <time>2022-01-28T00:40:14Z</time>
      </trkpt>
      <trkpt lat="45.05532" lon="2.71104">
        <ele>1015</ele>
        <time>2022-01-28T00:40:23Z</time>
      </trkpt>
      <trkpt lat="45.05539" lon="2.71106">
        <ele>1016</ele>
        <time>2022-01-28T00:40:24Z</time>
      </trkpt>
      <trkpt lat="45.05541" lon="2.71109">
        <ele>1015</ele>
        <time>2022-01-28T00:40:25Z</time>
      </trkpt>
      <trkpt lat="45.05542" lon="2.71114">
        <ele>1014</ele>
        <time>2022-01-28T00:40:25Z</time>
      </trkpt>
      <trkpt lat="45.05541" lon="2.71124">
        <ele>1012</ele>
        <time>2022-01-28T00:40:26Z</time>
      </trkpt>
      <trkpt lat="45.05528" lon="2.71159">
        <ele>1003</ele>
        <time>2022-01-28T00:40:31Z</time>
      </trkpt>
      <trkpt lat="45.05515" lon="2.71153">
        <ele>1003</ele>
        <time>2022-01-28T00:40:34Z</time>
      </trkpt>
      <trkpt lat="45.05454" lon="2.71141">
        <ele>1002</ele>
        <time>2022-01-28T00:40:45Z</time>
      </trkpt>
      <trkpt lat="45.0541" lon="2.71135">
        <ele>1002</ele>
        <time>2022-01-28T00:40:53Z</time>
      </trkpt>
      <trkpt lat="45.05406" lon="2.71143">
        <ele>999</ele>
        <time>2022-01-28T00:40:54Z</time>
      </trkpt>
      <trkpt lat="45.05401" lon="2.71146">
        <ele>998</ele>
        <time>2022-01-28T00:40:55Z</time>
      </trkpt>
      <trkpt lat="45.0536" lon="2.71151">
        <ele>993</ele>
        <time>2022-01-28T00:41:02Z</time>
      </trkpt>
      <trkpt lat="45.05352" lon="2.71156">
        <ele>991</ele>
        <time>2022-01-28T00:41:04Z</time>
      </trkpt>
      <trkpt lat="45.0533" lon="2.71164">
        <ele>987</ele>
        <time>2022-01-28T00:41:08Z</time>
      </trkpt>
      <trkpt lat="45.05297" lon="2.71155">
        <ele>989</ele>
        <time>2022-01-28T00:41:14Z</time>
      </trkpt>
      <trkpt lat="45.05289" lon="2.71155">
        <ele>989</ele>
        <time>2022-01-28T00:41:15Z</time>
      </trkpt>
      <trkpt lat="45.05282" lon="2.71158">
        <ele>988</ele>
        <time>2022-01-28T00:41:17Z</time>
      </trkpt>
      <trkpt lat="45.05277" lon="2.71163">
        <ele>987</ele>
        <time>2022-01-28T00:41:18Z</time>
      </trkpt>
      <trkpt lat="45.05275" lon="2.71178">
        <ele>985</ele>
        <time>2022-01-28T00:41:20Z</time>
      </trkpt>
      <trkpt lat="45.0527" lon="2.71192">
        <ele>982</ele>
        <time>2022-01-28T00:41:22Z</time>
      </trkpt>
      <trkpt lat="45.05266" lon="2.71216">
        <ele>979</ele>
        <time>2022-01-28T00:41:25Z</time>
      </trkpt>
      <trkpt lat="45.05268" lon="2.71224">
        <ele>978</ele>
        <time>2022-01-28T00:41:26Z</time>
      </trkpt>
      <trkpt lat="45.05275" lon="2.71232">
        <ele>977</ele>
        <time>2022-01-28T00:41:27Z</time>
      </trkpt>
      <trkpt lat="45.05286" lon="2.71239">
        <ele>976</ele>
        <time>2022-01-28T00:41:29Z</time>
      </trkpt>
      <trkpt lat="45.053" lon="2.71242">
        <ele>976</ele>
        <time>2022-01-28T00:41:32Z</time>
      </trkpt>
      <trkpt lat="45.05314" lon="2.71251">
        <ele>975</ele>
        <time>2022-01-28T00:41:35Z</time>
      </trkpt>
      <trkpt lat="45.05319" lon="2.7126">
        <ele>975</ele>
        <time>2022-01-28T00:41:36Z</time>
      </trkpt>
      <trkpt lat="45.0532" lon="2.71279">
        <ele>974</ele>
        <time>2022-01-28T00:41:39Z</time>
      </trkpt>
      <trkpt lat="45.05314" lon="2.71328">
        <ele>971</ele>
        <time>2022-01-28T00:41:45Z</time>
      </trkpt>
      <trkpt lat="45.05312" lon="2.7135">
        <ele>970</ele>
        <time>2022-01-28T00:41:48Z</time>
      </trkpt>
      <trkpt lat="45.05309" lon="2.71385">
        <ele>970</ele>
        <time>2022-01-28T00:41:52Z</time>
      </trkpt>
      <trkpt lat="45.05304" lon="2.71393">
        <ele>969</ele>
        <time>2022-01-28T00:41:53Z</time>
      </trkpt>
      <trkpt lat="45.05298" lon="2.71396">
        <ele>969</ele>
        <time>2022-01-28T00:41:54Z</time>
      </trkpt>
      <trkpt lat="45.05286" lon="2.71396">
        <ele>969</ele>
        <time>2022-01-28T00:41:57Z</time>
      </trkpt>
      <trkpt lat="45.05203" lon="2.71374">
        <ele>969</ele>
        <time>2022-01-28T00:42:12Z</time>
      </trkpt>
      <trkpt lat="45.05099" lon="2.71354">
        <ele>972</ele>
        <time>2022-01-28T00:42:30Z</time>
      </trkpt>
      <trkpt lat="45.0507" lon="2.71345">
        <ele>972</ele>
        <time>2022-01-28T00:42:36Z</time>
      </trkpt>
      <trkpt lat="45.05015" lon="2.71332">
        <ele>971</ele>
        <time>2022-01-28T00:42:46Z</time>
      </trkpt>
      <trkpt lat="45.04956" lon="2.71322">
        <ele>971</ele>
        <time>2022-01-28T00:42:56Z</time>
      </trkpt>
      <trkpt lat="45.04941" lon="2.7132">
        <ele>971</ele>
        <time>2022-01-28T00:42:59Z</time>
      </trkpt>
      <trkpt lat="45.04889" lon="2.71309">
        <ele>972</ele>
        <time>2022-01-28T00:43:08Z</time>
      </trkpt>
      <trkpt lat="45.04865" lon="2.71302">
        <ele>974</ele>
        <time>2022-01-28T00:43:12Z</time>
      </trkpt>
      <trkpt lat="45.04852" lon="2.71296">
        <ele>974</ele>
        <time>2022-01-28T00:43:15Z</time>
      </trkpt>
      <trkpt lat="45.04823" lon="2.71275">
        <ele>973</ele>
        <time>2022-01-28T00:43:21Z</time>
      </trkpt>
      <trkpt lat="45.04778" lon="2.71276">
        <ele>977</ele>
        <time>2022-01-28T00:43:29Z</time>
      </trkpt>
      <trkpt lat="45.04762" lon="2.71278">
        <ele>978</ele>
        <time>2022-01-28T00:43:32Z</time>
      </trkpt>
      <trkpt lat="45.04732" lon="2.71274">
        <ele>979</ele>
        <time>2022-01-28T00:43:37Z</time>
      </trkpt>
      <trkpt lat="45.04687" lon="2.71273">
        <ele>980</ele>
        <time>2022-01-28T00:43:45Z</time>
      </trkpt>
      <trkpt lat="45.04666" lon="2.7128">
        <ele>982</ele>
        <time>2022-01-28T00:43:49Z</time>
      </trkpt>
      <trkpt lat="45.04651" lon="2.71288">
        <ele>983</ele>
        <time>2022-01-28T00:43:52Z</time>
      </trkpt>
      <trkpt lat="45.04602" lon="2.71292">
        <ele>982</ele>
        <time>2022-01-28T00:44:00Z</time>
      </trkpt>
      <trkpt lat="45.04587" lon="2.71309">
        <ele>985</ele>
        <time>2022-01-28T00:44:04Z</time>
      </trkpt>
      <trkpt lat="45.04577" lon="2.71314">
        <ele>986</ele>
        <time>2022-01-28T00:44:06Z</time>
      </trkpt>
      <trkpt lat="45.04561" lon="2.71316">
        <ele>986</ele>
        <time>2022-01-28T00:44:09Z</time>
      </trkpt>
      <trkpt lat="45.04555" lon="2.7132">
        <ele>987</ele>
        <time>2022-01-28T00:44:10Z</time>
      </trkpt>
      <trkpt lat="45.04529" lon="2.71349">
        <ele>990</ele>
        <time>2022-01-28T00:44:16Z</time>
      </trkpt>
      <trkpt lat="45.04515" lon="2.71352">
        <ele>990</ele>
        <time>2022-01-28T00:44:18Z</time>
      </trkpt>
      <trkpt lat="45.04501" lon="2.71352">
        <ele>989</ele>
        <time>2022-01-28T00:44:21Z</time>
      </trkpt>
      <trkpt lat="45.04486" lon="2.71348">
        <ele>989</ele>
        <time>2022-01-28T00:44:23Z</time>
      </trkpt>
      <trkpt lat="45.04475" lon="2.71351">
        <ele>989</ele>
        <time>2022-01-28T00:44:25Z</time>
      </trkpt>
      <trkpt lat="45.04468" lon="2.71356">
        <ele>989</ele>
        <time>2022-01-28T00:44:27Z</time>
      </trkpt>
      <trkpt lat="45.04464" lon="2.71365">
        <ele>991</ele>
        <time>2022-01-28T00:44:28Z</time>
      </trkpt>
      <trkpt lat="45.04458" lon="2.71386">
        <ele>993</ele>
        <time>2022-01-28T00:44:31Z</time>
      </trkpt>
      <trkpt lat="45.04452" lon="2.71396">
        <ele>994</ele>
        <time>2022-01-28T00:44:33Z</time>
      </trkpt>
      <trkpt lat="45.0444" lon="2.71405">
        <ele>995</ele>
        <time>2022-01-28T00:44:35Z</time>
      </trkpt>
      <trkpt lat="45.04424" lon="2.71398">
        <ele>995</ele>
        <time>2022-01-28T00:44:38Z</time>
      </trkpt>
      <trkpt lat="45.04418" lon="2.71389">
        <ele>993</ele>
        <time>2022-01-28T00:44:40Z</time>
      </trkpt>
      <trkpt lat="45.04405" lon="2.71382">
        <ele>994</ele>
        <time>2022-01-28T00:44:42Z</time>
      </trkpt>
      <trkpt lat="45.04391" lon="2.71381">
        <ele>995</ele>
        <time>2022-01-28T00:44:44Z</time>
      </trkpt>
      <trkpt lat="45.04348" lon="2.71368">
        <ele>997</ele>
        <time>2022-01-28T00:44:52Z</time>
      </trkpt>
      <trkpt lat="45.04308" lon="2.71345">
        <ele>997</ele>
        <time>2022-01-28T00:45:00Z</time>
      </trkpt>
      <trkpt lat="45.04287" lon="2.71341">
        <ele>999</ele>
        <time>2022-01-28T00:45:04Z</time>
      </trkpt>
      <trkpt lat="45.0427" lon="2.71342">
        <ele>1001</ele>
        <time>2022-01-28T00:45:07Z</time>
      </trkpt>
      <trkpt lat="45.04257" lon="2.71337">
        <ele>1001</ele>
        <time>2022-01-28T00:45:09Z</time>
      </trkpt>
      <trkpt lat="45.04239" lon="2.71335">
        <ele>1002</ele>
        <time>2022-01-28T00:45:12Z</time>
      </trkpt>
      <trkpt lat="45.04212" lon="2.7134">
        <ele>1004</ele>
        <time>2022-01-28T00:45:17Z</time>
      </trkpt>
      <trkpt lat="45.04178" lon="2.71334">
        <ele>1004</ele>
        <time>2022-01-28T00:45:23Z</time>
      </trkpt>
      <trkpt lat="45.04177" lon="2.71315">
        <ele>999</ele>
        <time>2022-01-28T00:45:26Z</time>
      </trkpt>
      <trkpt lat="45.04172" lon="2.71304">
        <ele>997</ele>
        <time>2022-01-28T00:45:27Z</time>
      </trkpt>
      <trkpt lat="45.04165" lon="2.71297">
        <ele>995</ele>
        <time>2022-01-28T00:45:29Z</time>
      </trkpt>
      <trkpt lat="45.04151" lon="2.71291">
        <ele>994</ele>
        <time>2022-01-28T00:45:31Z</time>
      </trkpt>
      <trkpt lat="45.04139" lon="2.71291">
        <ele>993</ele>
        <time>2022-01-28T00:45:34Z</time>
      </trkpt>
      <trkpt lat="45.04096" lon="2.71285">
        <ele>991</ele>
        <time>2022-01-28T00:45:41Z</time>
      </trkpt>
      <trkpt lat="45.04077" lon="2.71293">
        <ele>993</ele>
        <time>2022-01-28T00:45:45Z</time>
      </trkpt>
      <trkpt lat="45.04055" lon="2.71305">
        <ele>997</ele>
        <time>2022-01-28T00:45:49Z</time>
      </trkpt>
      <trkpt lat="45.04046" lon="2.71314">
        <ele>999</ele>
        <time>2022-01-28T00:45:51Z</time>
      </trkpt>
      <trkpt lat="45.04035" lon="2.71319">
        <ele>1001</ele>
        <time>2022-01-28T00:45:53Z</time>
      </trkpt>
      <trkpt lat="45.04022" lon="2.71322">
        <ele>1002</ele>
        <time>2022-01-28T00:45:55Z</time>
      </trkpt>
      <trkpt lat="45.04009" lon="2.71319">
        <ele>1001</ele>
        <time>2022-01-28T00:45:58Z</time>
      </trkpt>
      <trkpt lat="45.03996" lon="2.71319">
        <ele>1002</ele>
        <time>2022-01-28T00:46:00Z</time>
      </trkpt>
      <trkpt lat="45.03983" lon="2.71325">
        <ele>1008</ele>
        <time>2022-01-28T00:46:02Z</time>
      </trkpt>
      <trkpt lat="45.03973" lon="2.71313">
        <ele>1008</ele>
        <time>2022-01-28T00:46:05Z</time>
      </trkpt>
      <trkpt lat="45.03962" lon="2.71289">
        <ele>1004</ele>
        <time>2022-01-28T00:46:08Z</time>
      </trkpt>
      <trkpt lat="45.03944" lon="2.7124">
        <ele>997</ele>
        <time>2022-01-28T00:46:15Z</time>
      </trkpt>
      <trkpt lat="45.03939" lon="2.71218">
        <ele>992</ele>
        <time>2022-01-28T00:46:18Z</time>
      </trkpt>
      <trkpt lat="45.03926" lon="2.71189">
        <ele>987</ele>
        <time>2022-01-28T00:46:23Z</time>
      </trkpt>
      <trkpt lat="45.03914" lon="2.71174">
        <ele>985</ele>
        <time>2022-01-28T00:46:25Z</time>
      </trkpt>
      <trkpt lat="45.03873" lon="2.7114">
        <ele>992</ele>
        <time>2022-01-28T00:46:34Z</time>
      </trkpt>
      <trkpt lat="45.03848" lon="2.7111">
        <ele>992</ele>
        <time>2022-01-28T00:46:40Z</time>
      </trkpt>
      <trkpt lat="45.03833" lon="2.71098">
        <ele>992</ele>
        <time>2022-01-28T00:46:43Z</time>
      </trkpt>
      <trkpt lat="45.03814" lon="2.71085">
        <ele>993</ele>
        <time>2022-01-28T00:46:47Z</time>
      </trkpt>
      <trkpt lat="45.03768" lon="2.71058">
        <ele>1000</ele>
        <time>2022-01-28T00:46:55Z</time>
      </trkpt>
      <trkpt lat="45.03734" lon="2.71032">
        <ele>1005</ele>
        <time>2022-01-28T00:47:02Z</time>
      </trkpt>
      <trkpt lat="45.03718" lon="2.7101">
        <ele>1007</ele>
        <time>2022-01-28T00:47:06Z</time>
      </trkpt>
      <trkpt lat="45.03711" lon="2.70996">
        <ele>1007</ele>
        <time>2022-01-28T00:47:08Z</time>
      </trkpt>
      <trkpt lat="45.03687" lon="2.70962">
        <ele>1010</ele>
        <time>2022-01-28T00:47:14Z</time>
      </trkpt>
      <trkpt lat="45.03673" lon="2.70936">
        <ele>1009</ele>
        <time>2022-01-28T00:47:19Z</time>
      </trkpt>
      <trkpt lat="45.03655" lon="2.70909">
        <ele>1005</ele>
        <time>2022-01-28T00:47:23Z</time>
      </trkpt>
      <trkpt lat="45.03632" lon="2.70894">
        <ele>1003</ele>
        <time>2022-01-28T00:47:28Z</time>
      </trkpt>
      <trkpt lat="45.03622" lon="2.70895">
        <ele>1005</ele>
        <time>2022-01-28T00:47:30Z</time>
      </trkpt>
      <trkpt lat="45.03592" lon="2.70906">
        <ele>1013</ele>
        <time>2022-01-28T00:47:35Z</time>
      </trkpt>
      <trkpt lat="45.03576" lon="2.70906">
        <ele>1014</ele>
        <time>2022-01-28T00:47:38Z</time>
      </trkpt>
      <trkpt lat="45.03548" lon="2.70909">
        <ele>1012</ele>
        <time>2022-01-28T00:47:43Z</time>
      </trkpt>
      <trkpt lat="45.03514" lon="2.70926">
        <ele>1012</ele>
        <time>2022-01-28T00:47:49Z</time>
      </trkpt>
      <trkpt lat="45.035" lon="2.70941">
        <ele>1014</ele>
        <time>2022-01-28T00:47:52Z</time>
      </trkpt>
      <trkpt lat="45.03455" lon="2.71009">
        <ele>1022</ele>
        <time>2022-01-28T00:48:04Z</time>
      </trkpt>
      <trkpt lat="45.03441" lon="2.71037">
        <ele>1025</ele>
        <time>2022-01-28T00:48:08Z</time>
      </trkpt>
      <trkpt lat="45.03429" lon="2.71078">
        <ele>1030</ele>
        <time>2022-01-28T00:48:14Z</time>
      </trkpt>
      <trkpt lat="45.03418" lon="2.71098">
        <ele>1032</ele>
        <time>2022-01-28T00:48:17Z</time>
      </trkpt>
      <trkpt lat="45.03368" lon="2.7113">
        <ele>1038</ele>
        <time>2022-01-28T00:48:27Z</time>
      </trkpt>
      <trkpt lat="45.03352" lon="2.71145">
        <ele>1039</ele>
        <time>2022-01-28T00:48:30Z</time>
      </trkpt>
      <trkpt lat="45.03329" lon="2.71176">
        <ele>1043</ele>
        <time>2022-01-28T00:48:36Z</time>
      </trkpt>
      <trkpt lat="45.03314" lon="2.71203">
        <ele>1050</ele>
        <time>2022-01-28T00:48:40Z</time>
      </trkpt>
      <trkpt lat="45.03304" lon="2.71226">
        <ele>1054</ele>
        <time>2022-01-28T00:48:44Z</time>
      </trkpt>
      <trkpt lat="45.03299" lon="2.71231">
        <ele>1056</ele>
        <time>2022-01-28T00:48:45Z</time>
      </trkpt>
      <trkpt lat="45.03285" lon="2.71237">
        <ele>1058</ele>
        <time>2022-01-28T00:48:47Z</time>
      </trkpt>
      <trkpt lat="45.03277" lon="2.71232">
        <ele>1059</ele>
        <time>2022-01-28T00:48:49Z</time>
      </trkpt>
      <trkpt lat="45.03273" lon="2.71217">
        <ele>1059</ele>
        <time>2022-01-28T00:48:51Z</time>
      </trkpt>
      <trkpt lat="45.03271" lon="2.71144">
        <ele>1056</ele>
        <time>2022-01-28T00:49:00Z</time>
      </trkpt>
      <trkpt lat="45.03248" lon="2.71099">
        <ele>1062</ele>
        <time>2022-01-28T00:49:07Z</time>
      </trkpt>
      <trkpt lat="45.03244" lon="2.71077">
        <ele>1064</ele>
        <time>2022-01-28T00:49:10Z</time>
      </trkpt>
      <trkpt lat="45.03244" lon="2.71053">
        <ele>1066</ele>
        <time>2022-01-28T00:49:13Z</time>
      </trkpt>
      <trkpt lat="45.03249" lon="2.70997">
        <ele>1068</ele>
        <time>2022-01-28T00:49:20Z</time>
      </trkpt>
      <trkpt lat="45.03252" lon="2.70958">
        <ele>1065</ele>
        <time>2022-01-28T00:49:25Z</time>
      </trkpt>
      <trkpt lat="45.03247" lon="2.7094">
        <ele>1066</ele>
        <time>2022-01-28T00:49:28Z</time>
      </trkpt>
      <trkpt lat="45.03235" lon="2.70919">
        <ele>1069</ele>
        <time>2022-01-28T00:49:31Z</time>
      </trkpt>
      <trkpt lat="45.03226" lon="2.70907">
        <ele>1070</ele>
        <time>2022-01-28T00:49:33Z</time>
      </trkpt>
      <trkpt lat="45.03185" lon="2.70876">
        <ele>1077</ele>
        <time>2022-01-28T00:49:41Z</time>
      </trkpt>
      <trkpt lat="45.03168" lon="2.70868">
        <ele>1079</ele>
        <time>2022-01-28T00:49:45Z</time>
      </trkpt>
      <trkpt lat="45.03151" lon="2.70864">
        <ele>1079</ele>
        <time>2022-01-28T00:49:48Z</time>
      </trkpt>
      <trkpt lat="45.03139" lon="2.70865">
        <ele>1079</ele>
        <time>2022-01-28T00:49:50Z</time>
      </trkpt>
      <trkpt lat="45.03051" lon="2.7088">
        <ele>1080</ele>
        <time>2022-01-28T00:50:06Z</time>
      </trkpt>
      <trkpt lat="45.03032" lon="2.70894">
        <ele>1082</ele>
        <time>2022-01-28T00:50:09Z</time>
      </trkpt>
      <trkpt lat="45.03013" lon="2.70901">
        <ele>1082</ele>
        <time>2022-01-28T00:50:13Z</time>
      </trkpt>
      <trkpt lat="45.02995" lon="2.70898">
        <ele>1079</ele>
        <time>2022-01-28T00:50:16Z</time>
      </trkpt>
      <trkpt lat="45.02962" lon="2.709">
        <ele>1076</ele>
        <time>2022-01-28T00:50:22Z</time>
      </trkpt>
      <trkpt lat="45.02939" lon="2.70932">
        <ele>1081</ele>
        <time>2022-01-28T00:50:28Z</time>
      </trkpt>
      <trkpt lat="45.02922" lon="2.70961">
        <ele>1087</ele>
        <time>2022-01-28T00:50:32Z</time>
      </trkpt>
      <trkpt lat="45.02889" lon="2.70987">
        <ele>1100</ele>
        <time>2022-01-28T00:50:39Z</time>
      </trkpt>
      <trkpt lat="45.02884" lon="2.70983">
        <ele>1101</ele>
        <time>2022-01-28T00:50:40Z</time>
      </trkpt>
      <trkpt lat="45.0288" lon="2.70977">
        <ele>1100</ele>
        <time>2022-01-28T00:50:41Z</time>
      </trkpt>
      <trkpt lat="45.02868" lon="2.70938">
        <ele>1095</ele>
        <time>2022-01-28T00:50:47Z</time>
      </trkpt>
      <trkpt lat="45.02862" lon="2.70911">
        <ele>1091</ele>
        <time>2022-01-28T00:50:50Z</time>
      </trkpt>
      <trkpt lat="45.02851" lon="2.70873">
        <ele>1088</ele>
        <time>2022-01-28T00:50:55Z</time>
      </trkpt>
      <trkpt lat="45.0284" lon="2.70858">
        <ele>1088</ele>
        <time>2022-01-28T00:50:58Z</time>
      </trkpt>
      <trkpt lat="45.02831" lon="2.70829">
        <ele>1086</ele>
        <time>2022-01-28T00:51:02Z</time>
      </trkpt>
      <trkpt lat="45.02826" lon="2.70801">
        <ele>1085</ele>
        <time>2022-01-28T00:51:06Z</time>
      </trkpt>
      <trkpt lat="45.02825" lon="2.70781">
        <ele>1083</ele>
        <time>2022-01-28T00:51:08Z</time>
      </trkpt>
      <trkpt lat="45.02814" lon="2.70734">
        <ele>1080</ele>
        <time>2022-01-28T00:51:14Z</time>
      </trkpt>
      <trkpt lat="45.02804" lon="2.70703">
        <ele>1079</ele>
        <time>2022-01-28T00:51:19Z</time>
      </trkpt>
      <trkpt lat="45.02782" lon="2.70654">
        <ele>1077</ele>
        <time>2022-01-28T00:51:26Z</time>
      </trkpt>
      <trkpt lat="45.02772" lon="2.70612">
        <ele>1074</ele>
        <time>2022-01-28T00:51:32Z</time>
      </trkpt>
      <trkpt lat="45.02765" lon="2.70574">
        <ele>1071</ele>
        <time>2022-01-28T00:51:36Z</time>
      </trkpt>
      <trkpt lat="45.02763" lon="2.7055">
        <ele>1070</ele>
        <time>2022-01-28T00:51:40Z</time>
      </trkpt>
      <trkpt lat="45.02765" lon="2.70519">
        <ele>1068</ele>
        <time>2022-01-28T00:51:43Z</time>
      </trkpt>
      <trkpt lat="45.02779" lon="2.70412">
        <ele>1060</ele>
        <time>2022-01-28T00:51:57Z</time>
      </trkpt>
      <trkpt lat="45.02789" lon="2.70389">
        <ele>1057</ele>
        <time>2022-01-28T00:52:00Z</time>
      </trkpt>
      <trkpt lat="45.02795" lon="2.70368">
        <ele>1055</ele>
        <time>2022-01-28T00:52:03Z</time>
      </trkpt>
      <trkpt lat="45.02796" lon="2.7035">
        <ele>1055</ele>
        <time>2022-01-28T00:52:06Z</time>
      </trkpt>
      <trkpt lat="45.0279" lon="2.70326">
        <ele>1054</ele>
        <time>2022-01-28T00:52:09Z</time>
      </trkpt>
      <trkpt lat="45.02777" lon="2.70298">
        <ele>1051</ele>
        <time>2022-01-28T00:52:13Z</time>
      </trkpt>
      <trkpt lat="45.0276" lon="2.70272">
        <ele>1049</ele>
        <time>2022-01-28T00:52:17Z</time>
      </trkpt>
      <trkpt lat="45.02742" lon="2.70255">
        <ele>1047</ele>
        <time>2022-01-28T00:52:21Z</time>
      </trkpt>
      <trkpt lat="45.02604" lon="2.70168">
        <ele>1035</ele>
        <time>2022-01-28T00:52:48Z</time>
      </trkpt>
      <trkpt lat="45.02584" lon="2.7016">
        <ele>1034</ele>
        <time>2022-01-28T00:52:52Z</time>
      </trkpt>
      <trkpt lat="45.02566" lon="2.70166">
        <ele>1032</ele>
        <time>2022-01-28T00:52:55Z</time>
      </trkpt>
      <trkpt lat="45.02538" lon="2.70184">
        <ele>1030</ele>
        <time>2022-01-28T00:53:01Z</time>
      </trkpt>
      <trkpt lat="45.02532" lon="2.70191">
        <ele>1030</ele>
        <time>2022-01-28T00:53:02Z</time>
      </trkpt>
      <trkpt lat="45.02518" lon="2.70227">
        <ele>1032</ele>
        <time>2022-01-28T00:53:07Z</time>
      </trkpt>
      <trkpt lat="45.02507" lon="2.70237">
        <ele>1031</ele>
        <time>2022-01-28T00:53:10Z</time>
      </trkpt>
      <trkpt lat="45.025" lon="2.70249">
        <ele>1032</ele>
        <time>2022-01-28T00:53:12Z</time>
      </trkpt>
      <trkpt lat="45.02497" lon="2.70276">
        <ele>1034</ele>
        <time>2022-01-28T00:53:15Z</time>
      </trkpt>
      <trkpt lat="45.02482" lon="2.70321">
        <ele>1036</ele>
        <time>2022-01-28T00:53:21Z</time>
      </trkpt>
      <trkpt lat="45.0247" lon="2.70338">
        <ele>1036</ele>
        <time>2022-01-28T00:53:24Z</time>
      </trkpt>
      <trkpt lat="45.02456" lon="2.70351">
        <ele>1036</ele>
        <time>2022-01-28T00:53:27Z</time>
      </trkpt>
      <trkpt lat="45.02421" lon="2.70393">
        <ele>1037</ele>
        <time>2022-01-28T00:53:35Z</time>
      </trkpt>
      <trkpt lat="45.02405" lon="2.70414">
        <ele>1037</ele>
        <time>2022-01-28T00:53:39Z</time>
      </trkpt>
      <trkpt lat="45.02385" lon="2.70446">
        <ele>1038</ele>
        <time>2022-01-28T00:53:45Z</time>
      </trkpt>
      <trkpt lat="45.02359" lon="2.70472">
        <ele>1038</ele>
        <time>2022-01-28T00:53:50Z</time>
      </trkpt>
      <trkpt lat="45.02325" lon="2.70492">
        <ele>1037</ele>
        <time>2022-01-28T00:53:57Z</time>
      </trkpt>
      <trkpt lat="45.02312" lon="2.70496">
        <ele>1036</ele>
        <time>2022-01-28T00:53:59Z</time>
      </trkpt>
      <trkpt lat="45.02298" lon="2.70497">
        <ele>1035</ele>
        <time>2022-01-28T00:54:02Z</time>
      </trkpt>
      <trkpt lat="45.02276" lon="2.70536">
        <ele>1039</ele>
        <time>2022-01-28T00:54:08Z</time>
      </trkpt>
      <trkpt lat="45.02264" lon="2.70565">
        <ele>1041</ele>
        <time>2022-01-28T00:54:12Z</time>
      </trkpt>
      <trkpt lat="45.02257" lon="2.70595">
        <ele>1044</ele>
        <time>2022-01-28T00:54:16Z</time>
      </trkpt>
      <trkpt lat="45.02253" lon="2.706">
        <ele>1045</ele>
        <time>2022-01-28T00:54:17Z</time>
      </trkpt>
      <trkpt lat="45.02247" lon="2.70602">
        <ele>1045</ele>
        <time>2022-01-28T00:54:18Z</time>
      </trkpt>
      <trkpt lat="45.02245" lon="2.70587">
        <ele>1044</ele>
        <time>2022-01-28T00:54:20Z</time>
      </trkpt>
      <trkpt lat="45.02245" lon="2.7055">
        <ele>1039</ele>
        <time>2022-01-28T00:54:25Z</time>
      </trkpt>
      <trkpt lat="45.02249" lon="2.70515">
        <ele>1033</ele>
        <time>2022-01-28T00:54:29Z</time>
      </trkpt>
      <trkpt lat="45.02251" lon="2.70449">
        <ele>1029</ele>
        <time>2022-01-28T00:54:38Z</time>
      </trkpt>
      <trkpt lat="45.02256" lon="2.70423">
        <ele>1027</ele>
        <time>2022-01-28T00:54:41Z</time>
      </trkpt>
      <trkpt lat="45.02258" lon="2.70396">
        <ele>1024</ele>
        <time>2022-01-28T00:54:44Z</time>
      </trkpt>
      <trkpt lat="45.02255" lon="2.70366">
        <ele>1020</ele>
        <time>2022-01-28T00:54:48Z</time>
      </trkpt>
      <trkpt lat="45.02245" lon="2.70346">
        <ele>1018</ele>
        <time>2022-01-28T00:54:51Z</time>
      </trkpt>
      <trkpt lat="45.02232" lon="2.70328">
        <ele>1018</ele>
        <time>2022-01-28T00:54:54Z</time>
      </trkpt>
      <trkpt lat="45.02204" lon="2.70306">
        <ele>1020</ele>
        <time>2022-01-28T00:55:00Z</time>
      </trkpt>
      <trkpt lat="45.02175" lon="2.7028">
        <ele>1020</ele>
        <time>2022-01-28T00:55:06Z</time>
      </trkpt>
      <trkpt lat="45.02156" lon="2.70251">
        <ele>1017</ele>
        <time>2022-01-28T00:55:11Z</time>
      </trkpt>
      <trkpt lat="45.02128" lon="2.70219">
        <ele>1019</ele>
        <time>2022-01-28T00:55:18Z</time>
      </trkpt>
      <trkpt lat="45.02114" lon="2.70192">
        <ele>1019</ele>
        <time>2022-01-28T00:55:22Z</time>
      </trkpt>
      <trkpt lat="45.02113" lon="2.70151">
        <ele>1015</ele>
        <time>2022-01-28T00:55:27Z</time>
      </trkpt>
      <trkpt lat="45.02122" lon="2.70108">
        <ele>1011</ele>
        <time>2022-01-28T00:55:33Z</time>
      </trkpt>
      <trkpt lat="45.02125" lon="2.70081">
        <ele>1009</ele>
        <time>2022-01-28T00:55:36Z</time>
      </trkpt>
      <trkpt lat="45.02116" lon="2.70031">
        <ele>1006</ele>
        <time>2022-01-28T00:55:43Z</time>
      </trkpt>
      <trkpt lat="45.02111" lon="2.70012">
        <ele>1005</ele>
        <time>2022-01-28T00:55:45Z</time>
      </trkpt>
      <trkpt lat="45.02101" lon="2.69991">
        <ele>1005</ele>
        <time>2022-01-28T00:55:48Z</time>
      </trkpt>
      <trkpt lat="45.0209" lon="2.6998">
        <ele>1005</ele>
        <time>2022-01-28T00:55:51Z</time>
      </trkpt>
      <trkpt lat="45.02074" lon="2.69975">
        <ele>1006</ele>
        <time>2022-01-28T00:55:54Z</time>
      </trkpt>
      <trkpt lat="45.02051" lon="2.69979">
        <ele>1009</ele>
        <time>2022-01-28T00:55:58Z</time>
      </trkpt>
      <trkpt lat="45.02035" lon="2.69988">
        <ele>1013</ele>
        <time>2022-01-28T00:56:01Z</time>
      </trkpt>
      <trkpt lat="45.02004" lon="2.69994">
        <ele>1019</ele>
        <time>2022-01-28T00:56:06Z</time>
      </trkpt>
      <trkpt lat="45.01989" lon="2.6999">
        <ele>1020</ele>
        <time>2022-01-28T00:56:09Z</time>
      </trkpt>
      <trkpt lat="45.01983" lon="2.69976">
        <ele>1017</ele>
        <time>2022-01-28T00:56:11Z</time>
      </trkpt>
      <trkpt lat="45.01967" lon="2.69947">
        <ele>1010</ele>
        <time>2022-01-28T00:56:16Z</time>
      </trkpt>
      <trkpt lat="45.01952" lon="2.69909">
        <ele>1001</ele>
        <time>2022-01-28T00:56:21Z</time>
      </trkpt>
      <trkpt lat="45.01944" lon="2.69894">
        <ele>999</ele>
        <time>2022-01-28T00:56:24Z</time>
      </trkpt>
      <trkpt lat="45.01848" lon="2.69787">
        <ele>987</ele>
        <time>2022-01-28T00:56:45Z</time>
      </trkpt>
      <trkpt lat="45.01833" lon="2.69783">
        <ele>987</ele>
        <time>2022-01-28T00:56:48Z</time>
      </trkpt>
      <trkpt lat="45.01803" lon="2.69783">
        <ele>987</ele>
        <time>2022-01-28T00:56:53Z</time>
      </trkpt>
      <trkpt lat="45.0177" lon="2.69779">
        <ele>987</ele>
        <time>2022-01-28T00:56:59Z</time>
      </trkpt>
      <trkpt lat="45.01752" lon="2.69771">
        <ele>986</ele>
        <time>2022-01-28T00:57:03Z</time>
      </trkpt>
      <trkpt lat="45.01745" lon="2.69763">
        <ele>985</ele>
        <time>2022-01-28T00:57:04Z</time>
      </trkpt>
      <trkpt lat="45.01724" lon="2.69717">
        <ele>980</ele>
        <time>2022-01-28T00:57:11Z</time>
      </trkpt>
      <trkpt lat="45.01702" lon="2.69692">
        <ele>979</ele>
        <time>2022-01-28T00:57:16Z</time>
      </trkpt>
      <trkpt lat="45.01679" lon="2.69674">
        <ele>981</ele>
        <time>2022-01-28T00:57:21Z</time>
      </trkpt>
      <trkpt lat="45.01643" lon="2.6966">
        <ele>983</ele>
        <time>2022-01-28T00:57:28Z</time>
      </trkpt>
      <trkpt lat="45.01632" lon="2.69648">
        <ele>981</ele>
        <time>2022-01-28T00:57:30Z</time>
      </trkpt>
      <trkpt lat="45.0162" lon="2.69643">
        <ele>981</ele>
        <time>2022-01-28T00:57:32Z</time>
      </trkpt>
      <trkpt lat="45.01599" lon="2.69645">
        <ele>984</ele>
        <time>2022-01-28T00:57:36Z</time>
      </trkpt>
      <trkpt lat="45.01589" lon="2.69635">
        <ele>983</ele>
        <time>2022-01-28T00:57:38Z</time>
      </trkpt>
      <trkpt lat="45.01569" lon="2.69605">
        <ele>981</ele>
        <time>2022-01-28T00:57:43Z</time>
      </trkpt>
      <trkpt lat="45.01567" lon="2.69598">
        <ele>980</ele>
        <time>2022-01-28T00:57:44Z</time>
      </trkpt>
      <trkpt lat="45.01568" lon="2.69587">
        <ele>978</ele>
        <time>2022-01-28T00:57:46Z</time>
      </trkpt>
      <trkpt lat="45.01579" lon="2.69574">
        <ele>974</ele>
        <time>2022-01-28T00:57:48Z</time>
      </trkpt>
      <trkpt lat="45.01589" lon="2.69568">
        <ele>972</ele>
        <time>2022-01-28T00:57:50Z</time>
      </trkpt>
      <trkpt lat="45.01616" lon="2.69568">
        <ele>969</ele>
        <time>2022-01-28T00:57:55Z</time>
      </trkpt>
      <trkpt lat="45.01635" lon="2.69572">
        <ele>967</ele>
        <time>2022-01-28T00:57:58Z</time>
      </trkpt>
      <trkpt lat="45.01667" lon="2.69598">
        <ele>967</ele>
        <time>2022-01-28T00:58:05Z</time>
      </trkpt>
      <trkpt lat="45.0171" lon="2.69623">
        <ele>965</ele>
        <time>2022-01-28T00:58:13Z</time>
      </trkpt>
      <trkpt lat="45.01737" lon="2.69627">
        <ele>961</ele>
        <time>2022-01-28T00:58:18Z</time>
      </trkpt>
      <trkpt lat="45.01753" lon="2.69627">
        <ele>959</ele>
        <time>2022-01-28T00:58:21Z</time>
      </trkpt>
      <trkpt lat="45.01766" lon="2.69622">
        <ele>957</ele>
        <time>2022-01-28T00:58:23Z</time>
      </trkpt>
      <trkpt lat="45.01778" lon="2.69613">
        <ele>955</ele>
        <time>2022-01-28T00:58:26Z</time>
      </trkpt>
      <trkpt lat="45.01785" lon="2.69603">
        <ele>953</ele>
        <time>2022-01-28T00:58:27Z</time>
      </trkpt>
      <trkpt lat="45.01794" lon="2.69579">
        <ele>949</ele>
        <time>2022-01-28T00:58:31Z</time>
      </trkpt>
      <trkpt lat="45.01797" lon="2.69558">
        <ele>947</ele>
        <time>2022-01-28T00:58:34Z</time>
      </trkpt>
      <trkpt lat="45.01791" lon="2.69535">
        <ele>946</ele>
        <time>2022-01-28T00:58:37Z</time>
      </trkpt>
      <trkpt lat="45.01769" lon="2.69493">
        <ele>946</ele>
        <time>2022-01-28T00:58:43Z</time>
      </trkpt>
      <trkpt lat="45.0175" lon="2.69477">
        <ele>946</ele>
        <time>2022-01-28T00:58:47Z</time>
      </trkpt>
      <trkpt lat="45.01734" lon="2.69461">
        <ele>947</ele>
        <time>2022-01-28T00:58:51Z</time>
      </trkpt>
      <trkpt lat="45.01729" lon="2.69419">
        <ele>946</ele>
        <time>2022-01-28T00:58:56Z</time>
      </trkpt>
      <trkpt lat="45.01734" lon="2.69403">
        <ele>945</ele>
        <time>2022-01-28T00:58:58Z</time>
      </trkpt>
      <trkpt lat="45.01763" lon="2.69337">
        <ele>939</ele>
        <time>2022-01-28T00:59:08Z</time>
      </trkpt>
      <trkpt lat="45.01772" lon="2.69313">
        <ele>937</ele>
        <time>2022-01-28T00:59:11Z</time>
      </trkpt>
      <trkpt lat="45.01769" lon="2.69288">
        <ele>937</ele>
        <time>2022-01-28T00:59:15Z</time>
      </trkpt>
      <trkpt lat="45.01762" lon="2.6926">
        <ele>938</ele>
        <time>2022-01-28T00:59:18Z</time>
      </trkpt>
      <trkpt lat="45.01751" lon="2.69238">
        <ele>940</ele>
        <time>2022-01-28T00:59:22Z</time>
      </trkpt>
      <trkpt lat="45.01744" lon="2.69216">
        <ele>939</ele>
        <time>2022-01-28T00:59:25Z</time>
      </trkpt>
      <trkpt lat="45.01728" lon="2.69134">
        <ele>935</ele>
        <time>2022-01-28T00:59:35Z</time>
      </trkpt>
      <trkpt lat="45.01727" lon="2.6911">
        <ele>934</ele>
        <time>2022-01-28T00:59:39Z</time>
      </trkpt>
      <trkpt lat="45.01732" lon="2.69094">
        <ele>934</ele>
        <time>2022-01-28T00:59:41Z</time>
      </trkpt>
      <trkpt lat="45.01741" lon="2.6908">
        <ele>933</ele>
        <time>2022-01-28T00:59:43Z</time>
      </trkpt>
      <trkpt lat="45.01761" lon="2.69071">
        <ele>929</ele>
        <time>2022-01-28T00:59:47Z</time>
      </trkpt>
      <trkpt lat="45.0177" lon="2.6906">
        <ele>926</ele>
        <time>2022-01-28T00:59:49Z</time>
      </trkpt>
      <trkpt lat="45.01772" lon="2.69005">
        <ele>920</ele>
        <time>2022-01-28T00:59:56Z</time>
      </trkpt>
      <trkpt lat="45.0178" lon="2.68963">
        <ele>913</ele>
        <time>2022-01-28T01:00:01Z</time>
      </trkpt>
      <trkpt lat="45.01777" lon="2.68932">
        <ele>910</ele>
        <time>2022-01-28T01:00:05Z</time>
      </trkpt>
      <trkpt lat="45.01751" lon="2.68843">
        <ele>907</ele>
        <time>2022-01-28T01:00:17Z</time>
      </trkpt>
      <trkpt lat="45.0174" lon="2.68815">
        <ele>903</ele>
        <time>2022-01-28T01:00:21Z</time>
      </trkpt>
      <trkpt lat="45.01708" lon="2.6875">
        <ele>894</ele>
        <time>2022-01-28T01:00:31Z</time>
      </trkpt>
      <trkpt lat="45.01696" lon="2.6874">
        <ele>894</ele>
        <time>2022-01-28T01:00:34Z</time>
      </trkpt>
      <trkpt lat="45.0168" lon="2.68734">
        <ele>896</ele>
        <time>2022-01-28T01:00:37Z</time>
      </trkpt>
      <trkpt lat="45.01668" lon="2.68723">
        <ele>896</ele>
        <time>2022-01-28T01:00:39Z</time>
      </trkpt>
      <trkpt lat="45.01657" lon="2.68703">
        <ele>892</ele>
        <time>2022-01-28T01:00:43Z</time>
      </trkpt>
      <trkpt lat="45.0164" lon="2.68688">
        <ele>890</ele>
        <time>2022-01-28T01:00:46Z</time>
      </trkpt>
      <trkpt lat="45.01618" lon="2.68673">
        <ele>888</ele>
        <time>2022-01-28T01:00:50Z</time>
      </trkpt>
      <trkpt lat="45.01601" lon="2.68665">
        <ele>888</ele>
        <time>2022-01-28T01:00:54Z</time>
      </trkpt>
      <trkpt lat="45.01585" lon="2.68661">
        <ele>889</ele>
        <time>2022-01-28T01:00:57Z</time>
      </trkpt>
      <trkpt lat="45.01553" lon="2.68659">
        <ele>892</ele>
        <time>2022-01-28T01:01:02Z</time>
      </trkpt>
      <trkpt lat="45.01543" lon="2.68654">
        <ele>892</ele>
        <time>2022-01-28T01:01:04Z</time>
      </trkpt>
      <trkpt lat="45.01524" lon="2.6862">
        <ele>886</ele>
        <time>2022-01-28T01:01:10Z</time>
      </trkpt>
      <trkpt lat="45.015" lon="2.68586">
        <ele>881</ele>
        <time>2022-01-28T01:01:16Z</time>
      </trkpt>
      <trkpt lat="45.01484" lon="2.68557">
        <ele>880</ele>
        <time>2022-01-28T01:01:20Z</time>
      </trkpt>
      <trkpt lat="45.01471" lon="2.6854">
        <ele>879</ele>
        <time>2022-01-28T01:01:23Z</time>
      </trkpt>
      <trkpt lat="45.01474" lon="2.68532">
        <ele>877</ele>
        <time>2022-01-28T01:01:25Z</time>
      </trkpt>
      <trkpt lat="45.01487" lon="2.68509">
        <ele>868</ele>
        <time>2022-01-28T01:01:28Z</time>
      </trkpt>
      <trkpt lat="45.01496" lon="2.68474">
        <ele>861</ele>
        <time>2022-01-28T01:01:33Z</time>
      </trkpt>
      <trkpt lat="45.01493" lon="2.68461">
        <ele>860</ele>
        <time>2022-01-28T01:01:35Z</time>
      </trkpt>
      <trkpt lat="45.01497" lon="2.68447">
        <ele>857</ele>
        <time>2022-01-28T01:01:37Z</time>
      </trkpt>
      <trkpt lat="45.01514" lon="2.68435">
        <ele>854</ele>
        <time>2022-01-28T01:01:40Z</time>
      </trkpt>
      <trkpt lat="45.01532" lon="2.68419">
        <ele>851</ele>
        <time>2022-01-28T01:01:44Z</time>
      </trkpt>
      <trkpt lat="45.0154" lon="2.68401">
        <ele>849</ele>
        <time>2022-01-28T01:01:46Z</time>
      </trkpt>
      <trkpt lat="45.01544" lon="2.68387">
        <ele>848</ele>
        <time>2022-01-28T01:01:48Z</time>
      </trkpt>
      <trkpt lat="45.01546" lon="2.68355">
        <ele>846</ele>
        <time>2022-01-28T01:01:52Z</time>
      </trkpt>
      <trkpt lat="45.01534" lon="2.68306">
        <ele>843</ele>
        <time>2022-01-28T01:01:59Z</time>
      </trkpt>
      <trkpt lat="45.01509" lon="2.68241">
        <ele>840</ele>
        <time>2022-01-28T01:02:08Z</time>
      </trkpt>
      <trkpt lat="45.01503" lon="2.68216">
        <ele>840</ele>
        <time>2022-01-28T01:02:11Z</time>
      </trkpt>
      <trkpt lat="45.01496" lon="2.68195">
        <ele>841</ele>
        <time>2022-01-28T01:02:14Z</time>
      </trkpt>
      <trkpt lat="45.01493" lon="2.68171">
        <ele>841</ele>
        <time>2022-01-28T01:02:17Z</time>
      </trkpt>
      <trkpt lat="45.015" lon="2.68146">
        <ele>840</ele>
        <time>2022-01-28T01:02:21Z</time>
      </trkpt>
      <trkpt lat="45.01501" lon="2.68135">
        <ele>840</ele>
        <time>2022-01-28T01:02:22Z</time>
      </trkpt>
      <trkpt lat="45.01498" lon="2.68107">
        <ele>839</ele>
        <time>2022-01-28T01:02:26Z</time>
      </trkpt>
      <trkpt lat="45.01483" lon="2.68054">
        <ele>836</ele>
        <time>2022-01-28T01:02:33Z</time>
      </trkpt>
      <trkpt lat="45.01477" lon="2.68011">
        <ele>832</ele>
        <time>2022-01-28T01:02:38Z</time>
      </trkpt>
      <trkpt lat="45.0147" lon="2.67935">
        <ele>824</ele>
        <time>2022-01-28T01:02:48Z</time>
      </trkpt>
      <trkpt lat="45.0142" lon="2.67887">
        <ele>821</ele>
        <time>2022-01-28T01:02:59Z</time>
      </trkpt>
      <trkpt lat="45.01411" lon="2.67871">
        <ele>819</ele>
        <time>2022-01-28T01:03:01Z</time>
      </trkpt>
      <trkpt lat="45.01381" lon="2.67797">
        <ele>813</ele>
        <time>2022-01-28T01:03:12Z</time>
      </trkpt>
      <trkpt lat="45.01357" lon="2.67759">
        <ele>811</ele>
        <time>2022-01-28T01:03:19Z</time>
      </trkpt>
      <trkpt lat="45.01341" lon="2.67739">
        <ele>810</ele>
        <time>2022-01-28T01:03:22Z</time>
      </trkpt>
      <trkpt lat="45.01327" lon="2.6771">
        <ele>807</ele>
        <time>2022-01-28T01:03:27Z</time>
      </trkpt>
      <trkpt lat="45.01314" lon="2.67693">
        <ele>806</ele>
        <time>2022-01-28T01:03:30Z</time>
      </trkpt>
      <trkpt lat="45.01305" lon="2.67667">
        <ele>803</ele>
        <time>2022-01-28T01:03:34Z</time>
      </trkpt>
      <trkpt lat="45.01295" lon="2.67616">
        <ele>797</ele>
        <time>2022-01-28T01:03:40Z</time>
      </trkpt>
      <trkpt lat="45.01287" lon="2.6761">
        <ele>796</ele>
        <time>2022-01-28T01:03:42Z</time>
      </trkpt>
      <trkpt lat="45.01269" lon="2.67602">
        <ele>795</ele>
        <time>2022-01-28T01:03:45Z</time>
      </trkpt>
      <trkpt lat="45.01261" lon="2.67593">
        <ele>794</ele>
        <time>2022-01-28T01:03:47Z</time>
      </trkpt>
      <trkpt lat="45.01262" lon="2.67585">
        <ele>793</ele>
        <time>2022-01-28T01:03:48Z</time>
      </trkpt>
      <trkpt lat="45.01275" lon="2.67568">
        <ele>791</ele>
        <time>2022-01-28T01:03:51Z</time>
      </trkpt>
      <trkpt lat="45.01283" lon="2.67561">
        <ele>790</ele>
        <time>2022-01-28T01:03:53Z</time>
      </trkpt>
      <trkpt lat="45.01306" lon="2.67522">
        <ele>785</ele>
        <time>2022-01-28T01:03:59Z</time>
      </trkpt>
      <trkpt lat="45.01324" lon="2.67503">
        <ele>783</ele>
        <time>2022-01-28T01:04:03Z</time>
      </trkpt>
      <trkpt lat="45.01347" lon="2.67498">
        <ele>782</ele>
        <time>2022-01-28T01:04:07Z</time>
      </trkpt>
      <trkpt lat="45.01355" lon="2.67488">
        <ele>781</ele>
        <time>2022-01-28T01:04:09Z</time>
      </trkpt>
      <trkpt lat="45.01351" lon="2.67471">
        <ele>780</ele>
        <time>2022-01-28T01:04:12Z</time>
      </trkpt>
      <trkpt lat="45.01349" lon="2.67449">
        <ele>778</ele>
        <time>2022-01-28T01:04:14Z</time>
      </trkpt>
      <trkpt lat="45.01351" lon="2.67425">
        <ele>776</ele>
        <time>2022-01-28T01:04:17Z</time>
      </trkpt>
      <trkpt lat="45.01366" lon="2.67412">
        <ele>774</ele>
        <time>2022-01-28T01:04:21Z</time>
      </trkpt>
      <trkpt lat="45.01386" lon="2.67413">
        <ele>773</ele>
        <time>2022-01-28T01:04:24Z</time>
      </trkpt>
      <trkpt lat="45.01398" lon="2.67416">
        <ele>773</ele>
        <time>2022-01-28T01:04:26Z</time>
      </trkpt>
      <trkpt lat="45.01411" lon="2.67412">
        <ele>772</ele>
        <time>2022-01-28T01:04:29Z</time>
      </trkpt>
      <trkpt lat="45.01422" lon="2.67395">
        <ele>771</ele>
        <time>2022-01-28T01:04:32Z</time>
      </trkpt>
      <trkpt lat="45.01428" lon="2.67372">
        <ele>769</ele>
        <time>2022-01-28T01:04:35Z</time>
      </trkpt>
      <trkpt lat="45.01427" lon="2.67333">
        <ele>768</ele>
        <time>2022-01-28T01:04:39Z</time>
      </trkpt>
      <trkpt lat="45.01416" lon="2.67176">
        <ele>766</ele>
        <time>2022-01-28T01:04:59Z</time>
      </trkpt>
      <trkpt lat="45.01411" lon="2.67166">
        <ele>766</ele>
        <time>2022-01-28T01:05:01Z</time>
      </trkpt>
      <trkpt lat="45.01374" lon="2.67137">
        <ele>765</ele>
        <time>2022-01-28T01:05:08Z</time>
      </trkpt>
      <trkpt lat="45.01349" lon="2.67098">
        <ele>764</ele>
        <time>2022-01-28T01:05:15Z</time>
      </trkpt>
      <trkpt lat="45.01327" lon="2.67058">
        <ele>764</ele>
        <time>2022-01-28T01:05:21Z</time>
      </trkpt>
      <trkpt lat="45.01316" lon="2.67031">
        <ele>764</ele>
        <time>2022-01-28T01:05:25Z</time>
      </trkpt>
      <trkpt lat="45.01264" lon="2.66987">
        <ele>762</ele>
        <time>2022-01-28T01:05:36Z</time>
      </trkpt>
      <trkpt lat="45.01252" lon="2.66966">
        <ele>762</ele>
        <time>2022-01-28T01:05:40Z</time>
      </trkpt>
      <trkpt lat="45.01203" lon="2.66843">
        <ele>763</ele>
        <time>2022-01-28T01:05:57Z</time>
      </trkpt>
      <trkpt lat="45.01189" lon="2.66814">
        <ele>763</ele>
        <time>2022-01-28T01:06:02Z</time>
      </trkpt>
      <trkpt lat="45.01164" lon="2.6675">
        <ele>762</ele>
        <time>2022-01-28T01:06:11Z</time>
      </trkpt>
      <trkpt lat="45.0113" lon="2.66691">
        <ele>761</ele>
        <time>2022-01-28T01:06:20Z</time>
      </trkpt>
      <trkpt lat="45.01127" lon="2.66688">
        <ele>761</ele>
        <time>2022-01-28T01:06:21Z</time>
      </trkpt>
      <trkpt lat="45.01096" lon="2.66715">
        <ele>763</ele>
        <time>2022-01-28T01:06:28Z</time>
      </trkpt>
      <trkpt lat="45.01065" lon="2.66759">
        <ele>766</ele>
        <time>2022-01-28T01:06:35Z</time>
      </trkpt>
      <trkpt lat="45.01048" lon="2.66769">
        <ele>767</ele>
        <time>2022-01-28T01:06:39Z</time>
      </trkpt>
      <trkpt lat="45.01026" lon="2.66769">
        <ele>768</ele>
        <time>2022-01-28T01:06:43Z</time>
      </trkpt>
      <trkpt lat="45.0094" lon="2.66701">
        <ele>766</ele>
        <time>2022-01-28T01:07:00Z</time>
      </trkpt>
      <trkpt lat="45.00918" lon="2.66687">
        <ele>766</ele>
        <time>2022-01-28T01:07:04Z</time>
      </trkpt>
      <trkpt lat="45.00903" lon="2.66682">
        <ele>766</ele>
        <time>2022-01-28T01:07:07Z</time>
      </trkpt>
      <trkpt lat="45.00881" lon="2.66692">
        <ele>770</ele>
        <time>2022-01-28T01:07:11Z</time>
      </trkpt>
      <trkpt lat="45.00854" lon="2.66712">
        <ele>775</ele>
        <time>2022-01-28T01:07:17Z</time>
      </trkpt>
      <trkpt lat="45.0083" lon="2.66735">
        <ele>779</ele>
        <time>2022-01-28T01:07:22Z</time>
      </trkpt>
      <trkpt lat="45.008" lon="2.66753">
        <ele>781</ele>
        <time>2022-01-28T01:07:28Z</time>
      </trkpt>
      <trkpt lat="45.00786" lon="2.66753">
        <ele>782</ele>
        <time>2022-01-28T01:07:30Z</time>
      </trkpt>
      <trkpt lat="45.0077" lon="2.66746">
        <ele>781</ele>
        <time>2022-01-28T01:07:33Z</time>
      </trkpt>
      <trkpt lat="45.00756" lon="2.66748">
        <ele>782</ele>
        <time>2022-01-28T01:07:36Z</time>
      </trkpt>
      <trkpt lat="45.00704" lon="2.66778">
        <ele>796</ele>
        <time>2022-01-28T01:07:46Z</time>
      </trkpt>
      <trkpt lat="45.00671" lon="2.66773">
        <ele>801</ele>
        <time>2022-01-28T01:07:52Z</time>
      </trkpt>
      <trkpt lat="45.00619" lon="2.6675">
        <ele>804</ele>
        <time>2022-01-28T01:08:01Z</time>
      </trkpt>
      <trkpt lat="45.00545" lon="2.66708">
        <ele>806</ele>
        <time>2022-01-28T01:08:15Z</time>
      </trkpt>
      <trkpt lat="45.00534" lon="2.66714">
        <ele>808</ele>
        <time>2022-01-28T01:08:17Z</time>
      </trkpt>
      <trkpt lat="45.00522" lon="2.66715">
        <ele>810</ele>
        <time>2022-01-28T01:08:20Z</time>
      </trkpt>
      <trkpt lat="45.00494" lon="2.66697">
        <ele>809</ele>
        <time>2022-01-28T01:08:25Z</time>
      </trkpt>
      <trkpt lat="45.00449" lon="2.66694">
        <ele>812</ele>
        <time>2022-01-28T01:08:33Z</time>
      </trkpt>
      <trkpt lat="45.00414" lon="2.66707">
        <ele>816</ele>
        <time>2022-01-28T01:08:40Z</time>
      </trkpt>
      <trkpt lat="45.00381" lon="2.66729">
        <ele>820</ele>
        <time>2022-01-28T01:08:46Z</time>
      </trkpt>
      <trkpt lat="45.00359" lon="2.66728">
        <ele>821</ele>
        <time>2022-01-28T01:08:50Z</time>
      </trkpt>
      <trkpt lat="45.00346" lon="2.66694">
        <ele>819</ele>
        <time>2022-01-28T01:08:55Z</time>
      </trkpt>
      <trkpt lat="45.0034" lon="2.66651">
        <ele>818</ele>
        <time>2022-01-28T01:09:00Z</time>
      </trkpt>
      <trkpt lat="45.00302" lon="2.66559">
        <ele>825</ele>
        <time>2022-01-28T01:09:14Z</time>
      </trkpt>
      <trkpt lat="45.00295" lon="2.66519">
        <ele>828</ele>
        <time>2022-01-28T01:09:19Z</time>
      </trkpt>
      <trkpt lat="45.00314" lon="2.66448">
        <ele>834</ele>
        <time>2022-01-28T01:09:28Z</time>
      </trkpt>
      <trkpt lat="45.00316" lon="2.66418">
        <ele>840</ele>
        <time>2022-01-28T01:09:32Z</time>
      </trkpt>
      <trkpt lat="45.00342" lon="2.6637">
        <ele>837</ele>
        <time>2022-01-28T01:09:40Z</time>
      </trkpt>
      <trkpt lat="45.00354" lon="2.66336">
        <ele>838</ele>
        <time>2022-01-28T01:09:45Z</time>
      </trkpt>
      <trkpt lat="45.0037" lon="2.66269">
        <ele>842</ele>
        <time>2022-01-28T01:09:54Z</time>
      </trkpt>
      <trkpt lat="45.00385" lon="2.66249">
        <ele>842</ele>
        <time>2022-01-28T01:09:57Z</time>
      </trkpt>
      <trkpt lat="45.00409" lon="2.66234">
        <ele>839</ele>
        <time>2022-01-28T01:10:02Z</time>
      </trkpt>
      <trkpt lat="45.0043" lon="2.66226">
        <ele>836</ele>
        <time>2022-01-28T01:10:06Z</time>
      </trkpt>
      <trkpt lat="45.00446" lon="2.66202">
        <ele>836</ele>
        <time>2022-01-28T01:10:10Z</time>
      </trkpt>
      <trkpt lat="45.0045" lon="2.66176">
        <ele>839</ele>
        <time>2022-01-28T01:10:13Z</time>
      </trkpt>
      <trkpt lat="45.00452" lon="2.66107">
        <ele>838</ele>
        <time>2022-01-28T01:10:22Z</time>
      </trkpt>
      <trkpt lat="45.00431" lon="2.66022">
        <ele>842</ele>
        <time>2022-01-28T01:10:33Z</time>
      </trkpt>
      <trkpt lat="45.00421" lon="2.65941">
        <ele>844</ele>
        <time>2022-01-28T01:10:44Z</time>
      </trkpt>
      <trkpt lat="45.00411" lon="2.65918">
        <ele>845</ele>
        <time>2022-01-28T01:10:47Z</time>
      </trkpt>
      <trkpt lat="45.00401" lon="2.65903">
        <ele>844</ele>
        <time>2022-01-28T01:10:50Z</time>
      </trkpt>
      <trkpt lat="45.00385" lon="2.65893">
        <ele>844</ele>
        <time>2022-01-28T01:10:53Z</time>
      </trkpt>
      <trkpt lat="45.00373" lon="2.65894">
        <ele>845</ele>
        <time>2022-01-28T01:10:55Z</time>
      </trkpt>
      <trkpt lat="45.00363" lon="2.65897">
        <ele>846</ele>
        <time>2022-01-28T01:10:57Z</time>
      </trkpt>
      <trkpt lat="45.00292" lon="2.65954">
        <ele>848</ele>
        <time>2022-01-28T01:11:11Z</time>
      </trkpt>
      <trkpt lat="45.00277" lon="2.6597">
        <ele>849</ele>
        <time>2022-01-28T01:11:15Z</time>
      </trkpt>
      <trkpt lat="45.00267" lon="2.65988">
        <ele>851</ele>
        <time>2022-01-28T01:11:17Z</time>
      </trkpt>
      <trkpt lat="45.00252" lon="2.66025">
        <ele>853</ele>
        <time>2022-01-28T01:11:23Z</time>
      </trkpt>
      <trkpt lat="45.00242" lon="2.66036">
        <ele>854</ele>
        <time>2022-01-28T01:11:25Z</time>
      </trkpt>
      <trkpt lat="45.00232" lon="2.66036">
        <ele>854</ele>
        <time>2022-01-28T01:11:27Z</time>
      </trkpt>
      <trkpt lat="45.0022" lon="2.66029">
        <ele>854</ele>
        <time>2022-01-28T01:11:29Z</time>
      </trkpt>
      <trkpt lat="45.0015" lon="2.65964">
        <ele>849</ele>
        <time>2022-01-28T01:11:44Z</time>
      </trkpt>
      <trkpt lat="45.00113" lon="2.65916">
        <ele>850</ele>
        <time>2022-01-28T01:11:53Z</time>
      </trkpt>
      <trkpt lat="45.00098" lon="2.65914">
        <ele>852</ele>
        <time>2022-01-28T01:11:56Z</time>
      </trkpt>
      <trkpt lat="45.00089" lon="2.65909">
        <ele>854</ele>
        <time>2022-01-28T01:11:57Z</time>
      </trkpt>
      <trkpt lat="45.0008" lon="2.65897">
        <ele>855</ele>
        <time>2022-01-28T01:12:00Z</time>
      </trkpt>
      <trkpt lat="45.0008" lon="2.6588">
        <ele>855</ele>
        <time>2022-01-28T01:12:02Z</time>
      </trkpt>
      <trkpt lat="45.00089" lon="2.65863">
        <ele>853</ele>
        <time>2022-01-28T01:12:04Z</time>
      </trkpt>
      <trkpt lat="45.00104" lon="2.65849">
        <ele>850</ele>
        <time>2022-01-28T01:12:08Z</time>
      </trkpt>
      <trkpt lat="45.00111" lon="2.65828">
        <ele>848</ele>
        <time>2022-01-28T01:12:11Z</time>
      </trkpt>
      <trkpt lat="45.00113" lon="2.65798">
        <ele>847</ele>
        <time>2022-01-28T01:12:14Z</time>
      </trkpt>
      <trkpt lat="45.0011" lon="2.65761">
        <ele>847</ele>
        <time>2022-01-28T01:12:19Z</time>
      </trkpt>
      <trkpt lat="45.00105" lon="2.65745">
        <ele>848</ele>
        <time>2022-01-28T01:12:21Z</time>
      </trkpt>
      <trkpt lat="45.00064" lon="2.65684">
        <ele>849</ele>
        <time>2022-01-28T01:12:32Z</time>
      </trkpt>
      <trkpt lat="45.00047" lon="2.65662">
        <ele>848</ele>
        <time>2022-01-28T01:12:36Z</time>
      </trkpt>
      <trkpt lat="45.00032" lon="2.65657">
        <ele>849</ele>
        <time>2022-01-28T01:12:39Z</time>
      </trkpt>
      <trkpt lat="45.00017" lon="2.65658">
        <ele>850</ele>
        <time>2022-01-28T01:12:41Z</time>
      </trkpt>
      <trkpt lat="44.99989" lon="2.65678">
        <ele>853</ele>
        <time>2022-01-28T01:12:47Z</time>
      </trkpt>
      <trkpt lat="44.99942" lon="2.65693">
        <ele>857</ele>
        <time>2022-01-28T01:12:55Z</time>
      </trkpt>
      <trkpt lat="44.99927" lon="2.65687">
        <ele>857</ele>
        <time>2022-01-28T01:12:58Z</time>
      </trkpt>
      <trkpt lat="44.99903" lon="2.65649">
        <ele>852</ele>
        <time>2022-01-28T01:13:05Z</time>
      </trkpt>
      <trkpt lat="44.99876" lon="2.65619">
        <ele>850</ele>
        <time>2022-01-28T01:13:11Z</time>
      </trkpt>
      <trkpt lat="44.99862" lon="2.65608">
        <ele>849</ele>
        <time>2022-01-28T01:13:14Z</time>
      </trkpt>
      <trkpt lat="44.9984" lon="2.65604">
        <ele>850</ele>
        <time>2022-01-28T01:13:18Z</time>
      </trkpt>
      <trkpt lat="44.99829" lon="2.65606">
        <ele>851</ele>
        <time>2022-01-28T01:13:20Z</time>
      </trkpt>
      <trkpt lat="44.9981" lon="2.6563">
        <ele>858</ele>
        <time>2022-01-28T01:13:24Z</time>
      </trkpt>
      <trkpt lat="44.99792" lon="2.65647">
        <ele>862</ele>
        <time>2022-01-28T01:13:28Z</time>
      </trkpt>
      <trkpt lat="44.99768" lon="2.65654">
        <ele>864</ele>
        <time>2022-01-28T01:13:32Z</time>
      </trkpt>
      <trkpt lat="44.99729" lon="2.65654">
        <ele>866</ele>
        <time>2022-01-28T01:13:39Z</time>
      </trkpt>
      <trkpt lat="44.99697" lon="2.65639">
        <ele>864</ele>
        <time>2022-01-28T01:13:45Z</time>
      </trkpt>
      <trkpt lat="44.99663" lon="2.65647">
        <ele>870</ele>
        <time>2022-01-28T01:13:51Z</time>
      </trkpt>
      <trkpt lat="44.99523" lon="2.65649">
        <ele>876</ele>
        <time>2022-01-28T01:14:16Z</time>
      </trkpt>
      <trkpt lat="44.99445" lon="2.65659">
        <ele>875</ele>
        <time>2022-01-28T01:14:30Z</time>
      </trkpt>
      <trkpt lat="44.99383" lon="2.65719">
        <ele>885</ele>
        <time>2022-01-28T01:14:44Z</time>
      </trkpt>
      <trkpt lat="44.9931" lon="2.65745">
        <ele>886</ele>
        <time>2022-01-28T01:14:57Z</time>
      </trkpt>
      <trkpt lat="44.99264" lon="2.65768">
        <ele>887</ele>
        <time>2022-01-28T01:15:06Z</time>
      </trkpt>
      <trkpt lat="44.99186" lon="2.65814">
        <ele>891</ele>
        <time>2022-01-28T01:15:21Z</time>
      </trkpt>
      <trkpt lat="44.99146" lon="2.65811">
        <ele>889</ele>
        <time>2022-01-28T01:15:28Z</time>
      </trkpt>
      <trkpt lat="44.99126" lon="2.65817">
        <ele>891</ele>
        <time>2022-01-28T01:15:31Z</time>
      </trkpt>
      <trkpt lat="44.99118" lon="2.65834">
        <ele>893</ele>
        <time>2022-01-28T01:15:34Z</time>
      </trkpt>
      <trkpt lat="44.99108" lon="2.65885">
        <ele>901</ele>
        <time>2022-01-28T01:15:41Z</time>
      </trkpt>
      <trkpt lat="44.991" lon="2.65892">
        <ele>902</ele>
        <time>2022-01-28T01:15:42Z</time>
      </trkpt>
      <trkpt lat="44.99092" lon="2.65891">
        <ele>902</ele>
        <time>2022-01-28T01:15:44Z</time>
      </trkpt>
      <trkpt lat="44.99083" lon="2.6588">
        <ele>900</ele>
        <time>2022-01-28T01:15:46Z</time>
      </trkpt>
      <trkpt lat="44.99079" lon="2.65869">
        <ele>899</ele>
        <time>2022-01-28T01:15:47Z</time>
      </trkpt>
      <trkpt lat="44.99073" lon="2.65861">
        <ele>899</ele>
        <time>2022-01-28T01:15:49Z</time>
      </trkpt>
      <trkpt lat="44.99043" lon="2.65844">
        <ele>900</ele>
        <time>2022-01-28T01:15:55Z</time>
      </trkpt>
      <trkpt lat="44.99037" lon="2.65822">
        <ele>899</ele>
        <time>2022-01-28T01:15:58Z</time>
      </trkpt>
      <trkpt lat="44.99008" lon="2.65814">
        <ele>903</ele>
        <time>2022-01-28T01:16:03Z</time>
      </trkpt>
      <trkpt lat="44.99007" lon="2.65779">
        <ele>904</ele>
        <time>2022-01-28T01:16:07Z</time>
      </trkpt>
      <trkpt lat="44.99009" lon="2.65712">
        <ele>912</ele>
        <time>2022-01-28T01:16:16Z</time>
      </trkpt>
      <trkpt lat="44.99033" lon="2.65667">
        <ele>914</ele>
        <time>2022-01-28T01:16:23Z</time>
      </trkpt>
      <trkpt lat="44.99034" lon="2.65634">
        <ele>921</ele>
        <time>2022-01-28T01:16:27Z</time>
      </trkpt>
      <trkpt lat="44.99063" lon="2.65605">
        <ele>915</ele>
        <time>2022-01-28T01:16:33Z</time>
      </trkpt>
      <trkpt lat="44.99079" lon="2.65585">
        <ele>912</ele>
        <time>2022-01-28T01:16:37Z</time>
      </trkpt>
      <trkpt lat="44.99076" lon="2.6556">
        <ele>915</ele>
        <time>2022-01-28T01:16:40Z</time>
      </trkpt>
      <trkpt lat="44.99079" lon="2.65521">
        <ele>916</ele>
        <time>2022-01-28T01:16:45Z</time>
      </trkpt>
      <trkpt lat="44.99096" lon="2.65487">
        <ele>912</ele>
        <time>2022-01-28T01:16:50Z</time>
      </trkpt>
      <trkpt lat="44.99104" lon="2.6546">
        <ele>909</ele>
        <time>2022-01-28T01:16:54Z</time>
      </trkpt>
      <trkpt lat="44.99104" lon="2.65429">
        <ele>909</ele>
        <time>2022-01-28T01:16:58Z</time>
      </trkpt>
      <trkpt lat="44.99094" lon="2.65399">
        <ele>910</ele>
        <time>2022-01-28T01:17:02Z</time>
      </trkpt>
      <trkpt lat="44.99039" lon="2.65279">
        <ele>917</ele>
        <time>2022-01-28T01:17:20Z</time>
      </trkpt>
      <trkpt lat="44.99035" lon="2.65259">
        <ele>916</ele>
        <time>2022-01-28T01:17:23Z</time>
      </trkpt>
      <trkpt lat="44.99036" lon="2.65232">
        <ele>914</ele>
        <time>2022-01-28T01:17:26Z</time>
      </trkpt>
      <trkpt lat="44.99022" lon="2.65215">
        <ele>914</ele>
        <time>2022-01-28T01:17:29Z</time>
      </trkpt>
      <trkpt lat="44.98971" lon="2.65207">
        <ele>919</ele>
        <time>2022-01-28T01:17:39Z</time>
      </trkpt>
      <trkpt lat="44.98933" lon="2.65214">
        <ele>926</ele>
        <time>2022-01-28T01:17:45Z</time>
      </trkpt>
      <trkpt lat="44.98893" lon="2.65211">
        <ele>933</ele>
        <time>2022-01-28T01:17:53Z</time>
      </trkpt>
      <trkpt lat="44.98756" lon="2.65182">
        <ele>947</ele>
        <time>2022-01-28T01:18:17Z</time>
      </trkpt>
      <trkpt lat="44.98697" lon="2.65153">
        <ele>943</ele>
        <time>2022-01-28T01:18:28Z</time>
      </trkpt>
      <trkpt lat="44.98651" lon="2.65158">
        <ele>948</ele>
        <time>2022-01-28T01:18:37Z</time>
      </trkpt>
      <trkpt lat="44.9859" lon="2.65181">
        <ele>950</ele>
        <time>2022-01-28T01:18:48Z</time>
      </trkpt>
      <trkpt lat="44.98556" lon="2.65187">
        <ele>946</ele>
        <time>2022-01-28T01:18:54Z</time>
      </trkpt>
      <trkpt lat="44.98543" lon="2.65177">
        <ele>941</ele>
        <time>2022-01-28T01:18:57Z</time>
      </trkpt>
      <trkpt lat="44.98525" lon="2.65183">
        <ele>939</ele>
        <time>2022-01-28T01:19:00Z</time>
      </trkpt>
      <trkpt lat="44.98517" lon="2.65216">
        <ele>944</ele>
        <time>2022-01-28T01:19:04Z</time>
      </trkpt>
      <trkpt lat="44.9851" lon="2.65261">
        <ele>950</ele>
        <time>2022-01-28T01:19:10Z</time>
      </trkpt>
      <trkpt lat="44.98485" lon="2.65296">
        <ele>950</ele>
        <time>2022-01-28T01:19:16Z</time>
      </trkpt>
      <trkpt lat="44.98446" lon="2.65324">
        <ele>949</ele>
        <time>2022-01-28T01:19:24Z</time>
      </trkpt>
      <trkpt lat="44.98422" lon="2.65358">
        <ele>952</ele>
        <time>2022-01-28T01:19:30Z</time>
      </trkpt>
      <trkpt lat="44.98409" lon="2.65371">
        <ele>955</ele>
        <time>2022-01-28T01:19:33Z</time>
      </trkpt>
      <trkpt lat="44.98399" lon="2.65371">
        <ele>956</ele>
        <time>2022-01-28T01:19:35Z</time>
      </trkpt>
      <trkpt lat="44.9838" lon="2.65354">
        <ele>954</ele>
        <time>2022-01-28T01:19:39Z</time>
      </trkpt>
      <trkpt lat="44.98355" lon="2.6535">
        <ele>956</ele>
        <time>2022-01-28T01:19:43Z</time>
      </trkpt>
      <trkpt lat="44.98335" lon="2.65339">
        <ele>957</ele>
        <time>2022-01-28T01:19:47Z</time>
      </trkpt>
      <trkpt lat="44.98315" lon="2.65299">
        <ele>960</ele>
        <time>2022-01-28T01:19:53Z</time>
      </trkpt>
      <trkpt lat="44.983" lon="2.65257">
        <ele>961</ele>
        <time>2022-01-28T01:19:59Z</time>
      </trkpt>
      <trkpt lat="44.98288" lon="2.65229">
        <ele>962</ele>
        <time>2022-01-28T01:20:03Z</time>
      </trkpt>
      <trkpt lat="44.98281" lon="2.65198">
        <ele>960</ele>
        <time>2022-01-28T01:20:07Z</time>
      </trkpt>
      <trkpt lat="44.9828" lon="2.65172">
        <ele>956</ele>
        <time>2022-01-28T01:20:11Z</time>
      </trkpt>
      <trkpt lat="44.98269" lon="2.6516">
        <ele>958</ele>
        <time>2022-01-28T01:20:13Z</time>
      </trkpt>
      <trkpt lat="44.98249" lon="2.65147">
        <ele>961</ele>
        <time>2022-01-28T01:20:17Z</time>
      </trkpt>
      <trkpt lat="44.98226" lon="2.65142">
        <ele>966</ele>
        <time>2022-01-28T01:20:21Z</time>
      </trkpt>
      <trkpt lat="44.98205" lon="2.65091">
        <ele>960</ele>
        <time>2022-01-28T01:20:29Z</time>
      </trkpt>
      <trkpt lat="44.98198" lon="2.6507">
        <ele>956</ele>
        <time>2022-01-28T01:20:31Z</time>
      </trkpt>
      <trkpt lat="44.98173" lon="2.65068">
        <ele>961</ele>
        <time>2022-01-28T01:20:36Z</time>
      </trkpt>
      <trkpt lat="44.98084" lon="2.65114">
        <ele>966</ele>
        <time>2022-01-28T01:20:53Z</time>
      </trkpt>
      <trkpt lat="44.98024" lon="2.65155">
        <ele>973</ele>
        <time>2022-01-28T01:21:05Z</time>
      </trkpt>
      <trkpt lat="44.97983" lon="2.65181">
        <ele>982</ele>
        <time>2022-01-28T01:21:13Z</time>
      </trkpt>
      <trkpt lat="44.97959" lon="2.6518">
        <ele>988</ele>
        <time>2022-01-28T01:21:17Z</time>
      </trkpt>
      <trkpt lat="44.97918" lon="2.65092">
        <ele>983</ele>
        <time>2022-01-28T01:21:30Z</time>
      </trkpt>
      <trkpt lat="44.979" lon="2.65066">
        <ele>981</ele>
        <time>2022-01-28T01:21:35Z</time>
      </trkpt>
      <trkpt lat="44.97877" lon="2.65056">
        <ele>982</ele>
        <time>2022-01-28T01:21:39Z</time>
      </trkpt>
      <trkpt lat="44.9781" lon="2.65056">
        <ele>990</ele>
        <time>2022-01-28T01:21:51Z</time>
      </trkpt>
      <trkpt lat="44.97796" lon="2.65046">
        <ele>991</ele>
        <time>2022-01-28T01:21:54Z</time>
      </trkpt>
      <trkpt lat="44.97766" lon="2.64962">
        <ele>990</ele>
        <time>2022-01-28T01:22:06Z</time>
      </trkpt>
      <trkpt lat="44.97748" lon="2.64947">
        <ele>992</ele>
        <time>2022-01-28T01:22:09Z</time>
      </trkpt>
      <trkpt lat="44.97575" lon="2.6483">
        <ele>995</ele>
        <time>2022-01-28T01:22:43Z</time>
      </trkpt>
      <trkpt lat="44.97523" lon="2.64784">
        <ele>1003</ele>
        <time>2022-01-28T01:22:54Z</time>
      </trkpt>
      <trkpt lat="44.97502" lon="2.64742">
        <ele>1007</ele>
        <time>2022-01-28T01:23:01Z</time>
      </trkpt>
      <trkpt lat="44.97495" lon="2.64697">
        <ele>1009</ele>
        <time>2022-01-28T01:23:07Z</time>
      </trkpt>
      <trkpt lat="44.97499" lon="2.64655">
        <ele>1008</ele>
        <time>2022-01-28T01:23:12Z</time>
      </trkpt>
      <trkpt lat="44.97525" lon="2.64584">
        <ele>1005</ele>
        <time>2022-01-28T01:23:22Z</time>
      </trkpt>
      <trkpt lat="44.97545" lon="2.64518">
        <ele>1000</ele>
        <time>2022-01-28T01:23:31Z</time>
      </trkpt>
      <trkpt lat="44.97537" lon="2.6449">
        <ele>1000</ele>
        <time>2022-01-28T01:23:35Z</time>
      </trkpt>
      <trkpt lat="44.97514" lon="2.64468">
        <ele>1002</ele>
        <time>2022-01-28T01:23:40Z</time>
      </trkpt>
      <trkpt lat="44.97469" lon="2.64462">
        <ele>1004</ele>
        <time>2022-01-28T01:23:48Z</time>
      </trkpt>
      <trkpt lat="44.97318" lon="2.64467">
        <ele>1001</ele>
        <time>2022-01-28T01:24:15Z</time>
      </trkpt>
      <trkpt lat="44.97275" lon="2.64464">
        <ele>998</ele>
        <time>2022-01-28T01:24:22Z</time>
      </trkpt>
      <trkpt lat="44.97203" lon="2.64448">
        <ele>997</ele>
        <time>2022-01-28T01:24:35Z</time>
      </trkpt>
      <trkpt lat="44.97008" lon="2.6439">
        <ele>995</ele>
        <time>2022-01-28T01:25:11Z</time>
      </trkpt>
      <trkpt lat="44.96951" lon="2.6438">
        <ele>996</ele>
        <time>2022-01-28T01:25:21Z</time>
      </trkpt>
      <trkpt lat="44.96868" lon="2.6438">
        <ele>998</ele>
        <time>2022-01-28T01:25:36Z</time>
      </trkpt>
      <trkpt lat="44.96833" lon="2.6437">
        <ele>998</ele>
        <time>2022-01-28T01:25:42Z</time>
      </trkpt>
      <trkpt lat="44.96827" lon="2.64381">
        <ele>997</ele>
        <time>2022-01-28T01:25:44Z</time>
      </trkpt>
      <trkpt lat="44.96787" lon="2.6441">
        <ele>992</ele>
        <time>2022-01-28T01:25:52Z</time>
      </trkpt>
      <trkpt lat="44.96761" lon="2.6444">
        <ele>990</ele>
        <time>2022-01-28T01:25:58Z</time>
      </trkpt>
      <trkpt lat="44.96747" lon="2.6447">
        <ele>988</ele>
        <time>2022-01-28T01:26:02Z</time>
      </trkpt>
      <trkpt lat="44.96685" lon="2.64536">
        <ele>981</ele>
        <time>2022-01-28T01:26:16Z</time>
      </trkpt>
      <trkpt lat="44.96633" lon="2.64614">
        <ele>975</ele>
        <time>2022-01-28T01:26:30Z</time>
      </trkpt>
      <trkpt lat="44.96628" lon="2.6463">
        <ele>975</ele>
        <time>2022-01-28T01:26:32Z</time>
      </trkpt>
      <trkpt lat="44.96626" lon="2.64649">
        <ele>975</ele>
        <time>2022-01-28T01:26:34Z</time>
      </trkpt>
      <trkpt lat="44.96629" lon="2.64674">
        <ele>975</ele>
        <time>2022-01-28T01:26:37Z</time>
      </trkpt>
      <trkpt lat="44.96635" lon="2.6471">
        <ele>974</ele>
        <time>2022-01-28T01:26:42Z</time>
      </trkpt>
      <trkpt lat="44.96636" lon="2.64733">
        <ele>974</ele>
        <time>2022-01-28T01:26:45Z</time>
      </trkpt>
      <trkpt lat="44.96631" lon="2.64748">
        <ele>972</ele>
        <time>2022-01-28T01:26:47Z</time>
      </trkpt>
      <trkpt lat="44.96622" lon="2.64758">
        <ele>971</ele>
        <time>2022-01-28T01:26:49Z</time>
      </trkpt>
      <trkpt lat="44.96609" lon="2.64759">
        <ele>969</ele>
        <time>2022-01-28T01:26:51Z</time>
      </trkpt>
      <trkpt lat="44.96598" lon="2.64754">
        <ele>968</ele>
        <time>2022-01-28T01:26:54Z</time>
      </trkpt>
      <trkpt lat="44.96587" lon="2.64745">
        <ele>967</ele>
        <time>2022-01-28T01:26:56Z</time>
      </trkpt>
      <trkpt lat="44.96533" lon="2.6466">
        <ele>965</ele>
        <time>2022-01-28T01:27:10Z</time>
      </trkpt>
      <trkpt lat="44.96524" lon="2.64656">
        <ele>964</ele>
        <time>2022-01-28T01:27:12Z</time>
      </trkpt>
      <trkpt lat="44.96517" lon="2.64658">
        <ele>963</ele>
        <time>2022-01-28T01:27:13Z</time>
      </trkpt>
      <trkpt lat="44.96509" lon="2.64664">
        <ele>962</ele>
        <time>2022-01-28T01:27:15Z</time>
      </trkpt>
      <trkpt lat="44.96505" lon="2.64679">
        <ele>961</ele>
        <time>2022-01-28T01:27:17Z</time>
      </trkpt>
      <trkpt lat="44.96521" lon="2.6486">
        <ele>951</ele>
        <time>2022-01-28T01:27:40Z</time>
      </trkpt>
      <trkpt lat="44.96529" lon="2.64921">
        <ele>948</ele>
        <time>2022-01-28T01:27:48Z</time>
      </trkpt>
      <trkpt lat="44.96543" lon="2.64957">
        <ele>946</ele>
        <time>2022-01-28T01:27:53Z</time>
      </trkpt>
      <trkpt lat="44.96578" lon="2.65005">
        <ele>947</ele>
        <time>2022-01-28T01:28:01Z</time>
      </trkpt>
      <trkpt lat="44.96588" lon="2.6503">
        <ele>948</ele>
        <time>2022-01-28T01:28:05Z</time>
      </trkpt>
      <trkpt lat="44.96588" lon="2.65045">
        <ele>948</ele>
        <time>2022-01-28T01:28:07Z</time>
      </trkpt>
      <trkpt lat="44.96583" lon="2.65059">
        <ele>948</ele>
        <time>2022-01-28T01:28:09Z</time>
      </trkpt>
      <trkpt lat="44.96562" lon="2.65066">
        <ele>945</ele>
        <time>2022-01-28T01:28:13Z</time>
      </trkpt>
      <trkpt lat="44.96537" lon="2.65073">
        <ele>942</ele>
        <time>2022-01-28T01:28:17Z</time>
      </trkpt>
      <trkpt lat="44.96462" lon="2.65122">
        <ele>938</ele>
        <time>2022-01-28T01:28:32Z</time>
      </trkpt>
      <trkpt lat="44.96427" lon="2.65129">
        <ele>934</ele>
        <time>2022-01-28T01:28:38Z</time>
      </trkpt>
      <trkpt lat="44.9639" lon="2.65153">
        <ele>932</ele>
        <time>2022-01-28T01:28:45Z</time>
      </trkpt>
      <trkpt lat="44.9635" lon="2.65181">
        <ele>929</ele>
        <time>2022-01-28T01:28:53Z</time>
      </trkpt>
      <trkpt lat="44.96305" lon="2.65222">
        <ele>928</ele>
        <time>2022-01-28T01:29:03Z</time>
      </trkpt>
      <trkpt lat="44.96263" lon="2.6525">
        <ele>922</ele>
        <time>2022-01-28T01:29:11Z</time>
      </trkpt>
      <trkpt lat="44.9619" lon="2.65279">
        <ele>915</ele>
        <time>2022-01-28T01:29:25Z</time>
      </trkpt>
      <trkpt lat="44.96177" lon="2.65292">
        <ele>914</ele>
        <time>2022-01-28T01:29:28Z</time>
      </trkpt>
      <trkpt lat="44.9617" lon="2.65305">
        <ele>914</ele>
        <time>2022-01-28T01:29:30Z</time>
      </trkpt>
      <trkpt lat="44.96152" lon="2.65405">
        <ele>916</ele>
        <time>2022-01-28T01:29:43Z</time>
      </trkpt>
      <trkpt lat="44.96146" lon="2.65426">
        <ele>917</ele>
        <time>2022-01-28T01:29:45Z</time>
      </trkpt>
      <trkpt lat="44.96128" lon="2.65444">
        <ele>916</ele>
        <time>2022-01-28T01:29:49Z</time>
      </trkpt>
      <trkpt lat="44.9611" lon="2.65446">
        <ele>913</ele>
        <time>2022-01-28T01:29:53Z</time>
      </trkpt>
      <trkpt lat="44.96089" lon="2.65457">
        <ele>910</ele>
        <time>2022-01-28T01:29:57Z</time>
      </trkpt>
      <trkpt lat="44.96079" lon="2.65471">
        <ele>911</ele>
        <time>2022-01-28T01:29:59Z</time>
      </trkpt>
      <trkpt lat="44.96059" lon="2.65507">
        <ele>914</ele>
        <time>2022-01-28T01:30:05Z</time>
      </trkpt>
      <trkpt lat="44.96" lon="2.65532">
        <ele>911</ele>
        <time>2022-01-28T01:30:16Z</time>
      </trkpt>
      <trkpt lat="44.95972" lon="2.65524">
        <ele>905</ele>
        <time>2022-01-28T01:30:21Z</time>
      </trkpt>
      <trkpt lat="44.95943" lon="2.6553">
        <ele>904</ele>
        <time>2022-01-28T01:30:26Z</time>
      </trkpt>
      <trkpt lat="44.95893" lon="2.6555">
        <ele>902</ele>
        <time>2022-01-28T01:30:35Z</time>
      </trkpt>
      <trkpt lat="44.95786" lon="2.65604">
        <ele>887</ele>
        <time>2022-01-28T01:30:56Z</time>
      </trkpt>
      <trkpt lat="44.95746" lon="2.65646">
        <ele>882</ele>
        <time>2022-01-28T01:31:04Z</time>
      </trkpt>
      <trkpt lat="44.95723" lon="2.65696">
        <ele>877</ele>
        <time>2022-01-28T01:31:12Z</time>
      </trkpt>
      <trkpt lat="44.95725" lon="2.65738">
        <ele>877</ele>
        <time>2022-01-28T01:31:17Z</time>
      </trkpt>
      <trkpt lat="44.9574" lon="2.65785">
        <ele>878</ele>
        <time>2022-01-28T01:31:24Z</time>
      </trkpt>
      <trkpt lat="44.9576" lon="2.65822">
        <ele>877</ele>
        <time>2022-01-28T01:31:30Z</time>
      </trkpt>
      <trkpt lat="44.95795" lon="2.65833">
        <ele>880</ele>
        <time>2022-01-28T01:31:36Z</time>
      </trkpt>
      <trkpt lat="44.95813" lon="2.65858">
        <ele>878</ele>
        <time>2022-01-28T01:31:40Z</time>
      </trkpt>
      <trkpt lat="44.95853" lon="2.65924">
        <ele>872</ele>
        <time>2022-01-28T01:31:51Z</time>
      </trkpt>
      <trkpt lat="44.95923" lon="2.6602">
        <ele>867</ele>
        <time>2022-01-28T01:32:09Z</time>
      </trkpt>
      <trkpt lat="44.95972" lon="2.66108">
        <ele>862</ele>
        <time>2022-01-28T01:32:23Z</time>
      </trkpt>
      <trkpt lat="44.96006" lon="2.66142">
        <ele>863</ele>
        <time>2022-01-28T01:32:30Z</time>
      </trkpt>
      <trkpt lat="44.96016" lon="2.66156">
        <ele>863</ele>
        <time>2022-01-28T01:32:33Z</time>
      </trkpt>
      <trkpt lat="44.96017" lon="2.66169">
        <ele>862</ele>
        <time>2022-01-28T01:32:34Z</time>
      </trkpt>
      <trkpt lat="44.96015" lon="2.66183">
        <ele>860</ele>
        <time>2022-01-28T01:32:36Z</time>
      </trkpt>
      <trkpt lat="44.96005" lon="2.66197">
        <ele>858</ele>
        <time>2022-01-28T01:32:39Z</time>
      </trkpt>
      <trkpt lat="44.95994" lon="2.6622">
        <ele>854</ele>
        <time>2022-01-28T01:32:42Z</time>
      </trkpt>
      <trkpt lat="44.95987" lon="2.66244">
        <ele>852</ele>
        <time>2022-01-28T01:32:45Z</time>
      </trkpt>
      <trkpt lat="44.95976" lon="2.66304">
        <ele>851</ele>
        <time>2022-01-28T01:32:53Z</time>
      </trkpt>
      <trkpt lat="44.95977" lon="2.66335">
        <ele>852</ele>
        <time>2022-01-28T01:32:57Z</time>
      </trkpt>
      <trkpt lat="44.96001" lon="2.6639">
        <ele>852</ele>
        <time>2022-01-28T01:33:05Z</time>
      </trkpt>
      <trkpt lat="44.96003" lon="2.66402">
        <ele>852</ele>
        <time>2022-01-28T01:33:07Z</time>
      </trkpt>
      <trkpt lat="44.95997" lon="2.66427">
        <ele>852</ele>
        <time>2022-01-28T01:33:10Z</time>
      </trkpt>
      <trkpt lat="44.95984" lon="2.66436">
        <ele>852</ele>
        <time>2022-01-28T01:33:13Z</time>
      </trkpt>
      <trkpt lat="44.95968" lon="2.66435">
        <ele>852</ele>
        <time>2022-01-28T01:33:16Z</time>
      </trkpt>
      <trkpt lat="44.95945" lon="2.664">
        <ele>851</ele>
        <time>2022-01-28T01:33:22Z</time>
      </trkpt>
      <trkpt lat="44.95918" lon="2.66281">
        <ele>844</ele>
        <time>2022-01-28T01:33:37Z</time>
      </trkpt>
      <trkpt lat="44.9588" lon="2.66254">
        <ele>841</ele>
        <time>2022-01-28T01:33:45Z</time>
      </trkpt>
      <trkpt lat="44.95839" lon="2.66216">
        <ele>837</ele>
        <time>2022-01-28T01:33:54Z</time>
      </trkpt>
      <trkpt lat="44.958" lon="2.66185">
        <ele>834</ele>
        <time>2022-01-28T01:34:02Z</time>
      </trkpt>
      <trkpt lat="44.95743" lon="2.66174">
        <ele>831</ele>
        <time>2022-01-28T01:34:12Z</time>
      </trkpt>
      <trkpt lat="44.95698" lon="2.66126">
        <ele>825</ele>
        <time>2022-01-28T01:34:22Z</time>
      </trkpt>
      <trkpt lat="44.95682" lon="2.66117">
        <ele>822</ele>
        <time>2022-01-28T01:34:25Z</time>
      </trkpt>
      <trkpt lat="44.95661" lon="2.66131">
        <ele>821</ele>
        <time>2022-01-28T01:34:29Z</time>
      </trkpt>
      <trkpt lat="44.95626" lon="2.66157">
        <ele>821</ele>
        <time>2022-01-28T01:34:36Z</time>
      </trkpt>
      <trkpt lat="44.95602" lon="2.66152">
        <ele>818</ele>
        <time>2022-01-28T01:34:40Z</time>
      </trkpt>
      <trkpt lat="44.95581" lon="2.66152">
        <ele>816</ele>
        <time>2022-01-28T01:34:44Z</time>
      </trkpt>
      <trkpt lat="44.95566" lon="2.66162">
        <ele>815</ele>
        <time>2022-01-28T01:34:47Z</time>
      </trkpt>
      <trkpt lat="44.95554" lon="2.6618">
        <ele>814</ele>
        <time>2022-01-28T01:34:50Z</time>
      </trkpt>
      <trkpt lat="44.95552" lon="2.66194">
        <ele>813</ele>
        <time>2022-01-28T01:34:52Z</time>
      </trkpt>
      <trkpt lat="44.95552" lon="2.66208">
        <ele>813</ele>
        <time>2022-01-28T01:34:54Z</time>
      </trkpt>
      <trkpt lat="44.95558" lon="2.66228">
        <ele>813</ele>
        <time>2022-01-28T01:34:56Z</time>
      </trkpt>
      <trkpt lat="44.95577" lon="2.66271">
        <ele>817</ele>
        <time>2022-01-28T01:35:03Z</time>
      </trkpt>
      <trkpt lat="44.9558" lon="2.66301">
        <ele>819</ele>
        <time>2022-01-28T01:35:07Z</time>
      </trkpt>
      <trkpt lat="44.95576" lon="2.66317">
        <ele>819</ele>
        <time>2022-01-28T01:35:09Z</time>
      </trkpt>
      <trkpt lat="44.95566" lon="2.66341">
        <ele>820</ele>
        <time>2022-01-28T01:35:12Z</time>
      </trkpt>
      <trkpt lat="44.9551" lon="2.66381">
        <ele>815</ele>
        <time>2022-01-28T01:35:23Z</time>
      </trkpt>
      <trkpt lat="44.95495" lon="2.66395">
        <ele>814</ele>
        <time>2022-01-28T01:35:27Z</time>
      </trkpt>
      <trkpt lat="44.95484" lon="2.66445">
        <ele>818</ele>
        <time>2022-01-28T01:35:33Z</time>
      </trkpt>
      <trkpt lat="44.95485" lon="2.66504">
        <ele>825</ele>
        <time>2022-01-28T01:35:41Z</time>
      </trkpt>
      <trkpt lat="44.95489" lon="2.66572">
        <ele>826</ele>
        <time>2022-01-28T01:35:49Z</time>
      </trkpt>
      <trkpt lat="44.95505" lon="2.66641">
        <ele>826</ele>
        <time>2022-01-28T01:35:58Z</time>
      </trkpt>
      <trkpt lat="44.95506" lon="2.66659">
        <ele>826</ele>
        <time>2022-01-28T01:36:01Z</time>
      </trkpt>
      <trkpt lat="44.95504" lon="2.66675">
        <ele>824</ele>
        <time>2022-01-28T01:36:03Z</time>
      </trkpt>
      <trkpt lat="44.95497" lon="2.66688">
        <ele>823</ele>
        <time>2022-01-28T01:36:05Z</time>
      </trkpt>
      <trkpt lat="44.95488" lon="2.66697">
        <ele>824</ele>
        <time>2022-01-28T01:36:07Z</time>
      </trkpt>
      <trkpt lat="44.95481" lon="2.66697">
        <ele>825</ele>
        <time>2022-01-28T01:36:08Z</time>
      </trkpt>
      <trkpt lat="44.95473" lon="2.66694">
        <ele>826</ele>
        <time>2022-01-28T01:36:10Z</time>
      </trkpt>
      <trkpt lat="44.95464" lon="2.66684">
        <ele>826</ele>
        <time>2022-01-28T01:36:12Z</time>
      </trkpt>
      <trkpt lat="44.95446" lon="2.6664">
        <ele>825</ele>
        <time>2022-01-28T01:36:18Z</time>
      </trkpt>
      <trkpt lat="44.95384" lon="2.66531">
        <ele>821</ele>
        <time>2022-01-28T01:36:36Z</time>
      </trkpt>
      <trkpt lat="44.95303" lon="2.66419">
        <ele>824</ele>
        <time>2022-01-28T01:36:56Z</time>
      </trkpt>
      <trkpt lat="44.95255" lon="2.66386">
        <ele>831</ele>
        <time>2022-01-28T01:37:05Z</time>
      </trkpt>
      <trkpt lat="44.95233" lon="2.66358">
        <ele>836</ele>
        <time>2022-01-28T01:37:10Z</time>
      </trkpt>
      <trkpt lat="44.952" lon="2.66305">
        <ele>843</ele>
        <time>2022-01-28T01:37:19Z</time>
      </trkpt>
      <trkpt lat="44.95167" lon="2.6626">
        <ele>847</ele>
        <time>2022-01-28T01:37:28Z</time>
      </trkpt>
      <trkpt lat="44.95146" lon="2.6624">
        <ele>848</ele>
        <time>2022-01-28T01:37:32Z</time>
      </trkpt>
      <trkpt lat="44.95115" lon="2.66225">
        <ele>853</ele>
        <time>2022-01-28T01:37:38Z</time>
      </trkpt>
      <trkpt lat="44.95083" lon="2.66217">
        <ele>859</ele>
        <time>2022-01-28T01:37:44Z</time>
      </trkpt>
      <trkpt lat="44.95057" lon="2.66217">
        <ele>859</ele>
        <time>2022-01-28T01:37:48Z</time>
      </trkpt>
      <trkpt lat="44.9502" lon="2.66222">
        <ele>860</ele>
        <time>2022-01-28T01:37:55Z</time>
      </trkpt>
      <trkpt lat="44.94966" lon="2.66234">
        <ele>862</ele>
        <time>2022-01-28T01:38:05Z</time>
      </trkpt>
      <trkpt lat="44.94942" lon="2.66247">
        <ele>865</ele>
        <time>2022-01-28T01:38:09Z</time>
      </trkpt>
      <trkpt lat="44.94922" lon="2.66253">
        <ele>865</ele>
        <time>2022-01-28T01:38:13Z</time>
      </trkpt>
      <trkpt lat="44.94899" lon="2.66244">
        <ele>864</ele>
        <time>2022-01-28T01:38:17Z</time>
      </trkpt>
      <trkpt lat="44.94877" lon="2.66232">
        <ele>862</ele>
        <time>2022-01-28T01:38:21Z</time>
      </trkpt>
      <trkpt lat="44.94857" lon="2.66224">
        <ele>862</ele>
        <time>2022-01-28T01:38:25Z</time>
      </trkpt>
      <trkpt lat="44.94841" lon="2.66224">
        <ele>864</ele>
        <time>2022-01-28T01:38:28Z</time>
      </trkpt>
      <trkpt lat="44.9483" lon="2.66234">
        <ele>867</ele>
        <time>2022-01-28T01:38:30Z</time>
      </trkpt>
      <trkpt lat="44.94789" lon="2.66297">
        <ele>877</ele>
        <time>2022-01-28T01:38:41Z</time>
      </trkpt>
      <trkpt lat="44.94771" lon="2.66333">
        <ele>879</ele>
        <time>2022-01-28T01:38:46Z</time>
      </trkpt>
      <trkpt lat="44.94764" lon="2.66342">
        <ele>879</ele>
        <time>2022-01-28T01:38:48Z</time>
      </trkpt>
      <trkpt lat="44.9476" lon="2.6636">
        <ele>881</ele>
        <time>2022-01-28T01:38:51Z</time>
      </trkpt>
      <trkpt lat="44.94721" lon="2.66503">
        <ele>894</ele>
        <time>2022-01-28T01:39:10Z</time>
      </trkpt>
      <trkpt lat="44.94707" lon="2.66544">
        <ele>901</ele>
        <time>2022-01-28T01:39:16Z</time>
      </trkpt>
      <trkpt lat="44.94688" lon="2.66558">
        <ele>901</ele>
        <time>2022-01-28T01:39:19Z</time>
      </trkpt>
      <trkpt lat="44.94667" lon="2.66561">
        <ele>897</ele>
        <time>2022-01-28T01:39:23Z</time>
      </trkpt>
      <trkpt lat="44.94647" lon="2.66574">
        <ele>900</ele>
        <time>2022-01-28T01:39:27Z</time>
      </trkpt>
      <trkpt lat="44.94615" lon="2.66623">
        <ele>913</ele>
        <time>2022-01-28T01:39:35Z</time>
      </trkpt>
      <trkpt lat="44.94587" lon="2.66631">
        <ele>912</ele>
        <time>2022-01-28T01:39:41Z</time>
      </trkpt>
      <trkpt lat="44.94561" lon="2.66634">
        <ele>909</ele>
        <time>2022-01-28T01:39:45Z</time>
      </trkpt>
      <trkpt lat="44.94537" lon="2.66633">
        <ele>905</ele>
        <time>2022-01-28T01:39:49Z</time>
      </trkpt>
      <trkpt lat="44.94515" lon="2.66652">
        <ele>904</ele>
        <time>2022-01-28T01:39:54Z</time>
      </trkpt>
      <trkpt lat="44.94509" lon="2.66669">
        <ele>906</ele>
        <time>2022-01-28T01:39:56Z</time>
      </trkpt>
      <trkpt lat="44.94518" lon="2.66697">
        <ele>913</ele>
        <time>2022-01-28T01:40:00Z</time>
      </trkpt>
      <trkpt lat="44.94522" lon="2.66727">
        <ele>919</ele>
        <time>2022-01-28T01:40:04Z</time>
      </trkpt>
      <trkpt lat="44.94513" lon="2.66762">
        <ele>921</ele>
        <time>2022-01-28T01:40:09Z</time>
      </trkpt>
      <trkpt lat="44.94498" lon="2.66838">
        <ele>928</ele>
        <time>2022-01-28T01:40:19Z</time>
      </trkpt>
      <trkpt lat="44.94482" lon="2.66867">
        <ele>930</ele>
        <time>2022-01-28T01:40:23Z</time>
      </trkpt>
      <trkpt lat="44.94415" lon="2.66922">
        <ele>929</ele>
        <time>2022-01-28T01:40:37Z</time>
      </trkpt>
      <trkpt lat="44.94402" lon="2.66933">
        <ele>928</ele>
        <time>2022-01-28T01:40:40Z</time>
      </trkpt>
      <trkpt lat="44.94389" lon="2.66939">
        <ele>926</ele>
        <time>2022-01-28T01:40:42Z</time>
      </trkpt>
      <trkpt lat="44.94383" lon="2.66961">
        <ele>926</ele>
        <time>2022-01-28T01:40:45Z</time>
      </trkpt>
      <trkpt lat="44.94392" lon="2.66982">
        <ele>928</ele>
        <time>2022-01-28T01:40:48Z</time>
      </trkpt>
      <trkpt lat="44.94417" lon="2.66983">
        <ele>932</ele>
        <time>2022-01-28T01:40:53Z</time>
      </trkpt>
      <trkpt lat="44.94465" lon="2.67">
        <ele>939</ele>
        <time>2022-01-28T01:41:02Z</time>
      </trkpt>
      <trkpt lat="44.94503" lon="2.67004">
        <ele>943</ele>
        <time>2022-01-28T01:41:08Z</time>
      </trkpt>
      <trkpt lat="44.94523" lon="2.6701">
        <ele>947</ele>
        <time>2022-01-28T01:41:12Z</time>
      </trkpt>
      <trkpt lat="44.94537" lon="2.67018">
        <ele>949</ele>
        <time>2022-01-28T01:41:15Z</time>
      </trkpt>
      <trkpt lat="44.9455" lon="2.67038">
        <ele>951</ele>
        <time>2022-01-28T01:41:18Z</time>
      </trkpt>
      <trkpt lat="44.94565" lon="2.67067">
        <ele>952</ele>
        <time>2022-01-28T01:41:23Z</time>
      </trkpt>
      <trkpt lat="44.94572" lon="2.67093">
        <ele>952</ele>
        <time>2022-01-28T01:41:26Z</time>
      </trkpt>
      <trkpt lat="44.9457" lon="2.67125">
        <ele>952</ele>
        <time>2022-01-28T01:41:30Z</time>
      </trkpt>
      <trkpt lat="44.94575" lon="2.67148">
        <ele>953</ele>
        <time>2022-01-28T01:41:33Z</time>
      </trkpt>
      <trkpt lat="44.94616" lon="2.67172">
        <ele>958</ele>
        <time>2022-01-28T01:41:41Z</time>
      </trkpt>
      <trkpt lat="44.94642" lon="2.6719">
        <ele>963</ele>
        <time>2022-01-28T01:41:46Z</time>
      </trkpt>
      <trkpt lat="44.9466" lon="2.67209">
        <ele>966</ele>
        <time>2022-01-28T01:41:50Z</time>
      </trkpt>
      <trkpt lat="44.94673" lon="2.67229">
        <ele>968</ele>
        <time>2022-01-28T01:41:54Z</time>
      </trkpt>
      <trkpt lat="44.94668" lon="2.67244">
        <ele>967</ele>
        <time>2022-01-28T01:41:56Z</time>
      </trkpt>
      <trkpt lat="44.94662" lon="2.67252">
        <ele>967</ele>
        <time>2022-01-28T01:41:57Z</time>
      </trkpt>
      <trkpt lat="44.94626" lon="2.67272">
        <ele>968</ele>
        <time>2022-01-28T01:42:04Z</time>
      </trkpt>
      <trkpt lat="44.94613" lon="2.67294">
        <ele>972</ele>
        <time>2022-01-28T01:42:08Z</time>
      </trkpt>
      <trkpt lat="44.94599" lon="2.6731">
        <ele>974</ele>
        <time>2022-01-28T01:42:11Z</time>
      </trkpt>
      <trkpt lat="44.94578" lon="2.67317">
        <ele>974</ele>
        <time>2022-01-28T01:42:15Z</time>
      </trkpt>
      <trkpt lat="44.94557" lon="2.6732">
        <ele>975</ele>
        <time>2022-01-28T01:42:19Z</time>
      </trkpt>
      <trkpt lat="44.94541" lon="2.6731">
        <ele>974</ele>
        <time>2022-01-28T01:42:22Z</time>
      </trkpt>
      <trkpt lat="44.94518" lon="2.67299">
        <ele>972</ele>
        <time>2022-01-28T01:42:26Z</time>
      </trkpt>
      <trkpt lat="44.94494" lon="2.67299">
        <ele>972</ele>
        <time>2022-01-28T01:42:30Z</time>
      </trkpt>
      <trkpt lat="44.94489" lon="2.67313">
        <ele>974</ele>
        <time>2022-01-28T01:42:32Z</time>
      </trkpt>
      <trkpt lat="44.94494" lon="2.67333">
        <ele>977</ele>
        <time>2022-01-28T01:42:35Z</time>
      </trkpt>
      <trkpt lat="44.94505" lon="2.67344">
        <ele>979</ele>
        <time>2022-01-28T01:42:37Z</time>
      </trkpt>
      <trkpt lat="44.9453" lon="2.6736">
        <ele>982</ele>
        <time>2022-01-28T01:42:42Z</time>
      </trkpt>
      <trkpt lat="44.94566" lon="2.67375">
        <ele>985</ele>
        <time>2022-01-28T01:42:49Z</time>
      </trkpt>
      <trkpt lat="44.94594" lon="2.6738">
        <ele>987</ele>
        <time>2022-01-28T01:42:54Z</time>
      </trkpt>
      <trkpt lat="44.94635" lon="2.6738">
        <ele>990</ele>
        <time>2022-01-28T01:43:01Z</time>
      </trkpt>
      <trkpt lat="44.94723" lon="2.67369">
        <ele>995</ele>
        <time>2022-01-28T01:43:17Z</time>
      </trkpt>
      <trkpt lat="44.94749" lon="2.67371">
        <ele>998</ele>
        <time>2022-01-28T01:43:22Z</time>
      </trkpt>
      <trkpt lat="44.94776" lon="2.67379">
        <ele>1001</ele>
        <time>2022-01-28T01:43:26Z</time>
      </trkpt>
      <trkpt lat="44.948" lon="2.67396">
        <ele>1005</ele>
        <time>2022-01-28T01:43:31Z</time>
      </trkpt>
      <trkpt lat="44.9482" lon="2.67394">
        <ele>1006</ele>
        <time>2022-01-28T01:43:35Z</time>
      </trkpt>
      <trkpt lat="44.9483" lon="2.67388">
        <ele>1007</ele>
        <time>2022-01-28T01:43:37Z</time>
      </trkpt>
      <trkpt lat="44.94839" lon="2.67375">
        <ele>1007</ele>
        <time>2022-01-28T01:43:39Z</time>
      </trkpt>
      <trkpt lat="44.94841" lon="2.67361">
        <ele>1006</ele>
        <time>2022-01-28T01:43:41Z</time>
      </trkpt>
      <trkpt lat="44.94842" lon="2.67278">
        <ele>1003</ele>
        <time>2022-01-28T01:43:51Z</time>
      </trkpt>
      <trkpt lat="44.94847" lon="2.67261">
        <ele>1004</ele>
        <time>2022-01-28T01:43:54Z</time>
      </trkpt>
      <trkpt lat="44.94854" lon="2.67246">
        <ele>1005</ele>
        <time>2022-01-28T01:43:56Z</time>
      </trkpt>
      <trkpt lat="44.94882" lon="2.67219">
        <ele>1008</ele>
        <time>2022-01-28T01:44:02Z</time>
      </trkpt>
      <trkpt lat="44.94905" lon="2.67214">
        <ele>1012</ele>
        <time>2022-01-28T01:44:06Z</time>
      </trkpt>
      <trkpt lat="44.94932" lon="2.67217">
        <ele>1015</ele>
        <time>2022-01-28T01:44:11Z</time>
      </trkpt>
      <trkpt lat="44.94951" lon="2.67235">
        <ele>1016</ele>
        <time>2022-01-28T01:44:15Z</time>
      </trkpt>
      <trkpt lat="44.9496" lon="2.67264">
        <ele>1018</ele>
        <time>2022-01-28T01:44:19Z</time>
      </trkpt>
      <trkpt lat="44.94983" lon="2.67398">
        <ele>1023</ele>
        <time>2022-01-28T01:44:36Z</time>
      </trkpt>
      <trkpt lat="44.94998" lon="2.67518">
        <ele>1030</ele>
        <time>2022-01-28T01:44:52Z</time>
      </trkpt>
      <trkpt lat="44.95012" lon="2.6758">
        <ele>1034</ele>
        <time>2022-01-28T01:45:00Z</time>
      </trkpt>
      <trkpt lat="44.95026" lon="2.67614">
        <ele>1037</ele>
        <time>2022-01-28T01:45:05Z</time>
      </trkpt>
      <trkpt lat="44.95048" lon="2.67652">
        <ele>1040</ele>
        <time>2022-01-28T01:45:11Z</time>
      </trkpt>
      <trkpt lat="44.95064" lon="2.67684">
        <ele>1042</ele>
        <time>2022-01-28T01:45:16Z</time>
      </trkpt>
      <trkpt lat="44.95081" lon="2.67726">
        <ele>1043</ele>
        <time>2022-01-28T01:45:22Z</time>
      </trkpt>
      <trkpt lat="44.95109" lon="2.67803">
        <ele>1044</ele>
        <time>2022-01-28T01:45:33Z</time>
      </trkpt>
      <trkpt lat="44.95131" lon="2.67887">
        <ele>1045</ele>
        <time>2022-01-28T01:45:44Z</time>
      </trkpt>
      <trkpt lat="44.95135" lon="2.67922">
        <ele>1045</ele>
        <time>2022-01-28T01:45:49Z</time>
      </trkpt>
      <trkpt lat="44.95134" lon="2.6796">
        <ele>1045</ele>
        <time>2022-01-28T01:45:53Z</time>
      </trkpt>
      <trkpt lat="44.95128" lon="2.68027">
        <ele>1044</ele>
        <time>2022-01-28T01:46:02Z</time>
      </trkpt>
      <trkpt lat="44.95117" lon="2.68062">
        <ele>1043</ele>
        <time>2022-01-28T01:46:07Z</time>
      </trkpt>
      <trkpt lat="44.95041" lon="2.68261">
        <ele>1040</ele>
        <time>2022-01-28T01:46:35Z</time>
      </trkpt>
      <trkpt lat="44.95035" lon="2.68373">
        <ele>1037</ele>
        <time>2022-01-28T01:46:49Z</time>
      </trkpt>
      <trkpt lat="44.95035" lon="2.68406">
        <ele>1036</ele>
        <time>2022-01-28T01:46:54Z</time>
      </trkpt>
      <trkpt lat="44.95036" lon="2.68419">
        <ele>1036</ele>
        <time>2022-01-28T01:46:55Z</time>
      </trkpt>
      <trkpt lat="44.9504" lon="2.68431">
        <ele>1036</ele>
        <time>2022-01-28T01:46:57Z</time>
      </trkpt>
      <trkpt lat="44.95048" lon="2.68445">
        <ele>1036</ele>
        <time>2022-01-28T01:46:59Z</time>
      </trkpt>
      <trkpt lat="44.9506" lon="2.6846">
        <ele>1036</ele>
        <time>2022-01-28T01:47:02Z</time>
      </trkpt>
      <trkpt lat="44.95095" lon="2.68491">
        <ele>1036</ele>
        <time>2022-01-28T01:47:09Z</time>
      </trkpt>
      <trkpt lat="44.95115" lon="2.68504">
        <ele>1036</ele>
        <time>2022-01-28T01:47:13Z</time>
      </trkpt>
      <trkpt lat="44.95146" lon="2.68519">
        <ele>1036</ele>
        <time>2022-01-28T01:47:19Z</time>
      </trkpt>
      <trkpt lat="44.95207" lon="2.68534">
        <ele>1038</ele>
        <time>2022-01-28T01:47:30Z</time>
      </trkpt>
      <trkpt lat="44.95223" lon="2.68543">
        <ele>1038</ele>
        <time>2022-01-28T01:47:33Z</time>
      </trkpt>
      <trkpt lat="44.95231" lon="2.68553">
        <ele>1038</ele>
        <time>2022-01-28T01:47:35Z</time>
      </trkpt>
      <trkpt lat="44.9524" lon="2.6857">
        <ele>1039</ele>
        <time>2022-01-28T01:47:38Z</time>
      </trkpt>
      <trkpt lat="44.95278" lon="2.68725">
        <ele>1038</ele>
        <time>2022-01-28T01:47:58Z</time>
      </trkpt>
      <trkpt lat="44.95286" lon="2.68774">
        <ele>1037</ele>
        <time>2022-01-28T01:48:05Z</time>
      </trkpt>
      <trkpt lat="44.95292" lon="2.68849">
        <ele>1036</ele>
        <time>2022-01-28T01:48:14Z</time>
      </trkpt>
      <trkpt lat="44.9529" lon="2.68874">
        <ele>1036</ele>
        <time>2022-01-28T01:48:17Z</time>
      </trkpt>
      <trkpt lat="44.95261" lon="2.69002">
        <ele>1031</ele>
        <time>2022-01-28T01:48:34Z</time>
      </trkpt>
      <trkpt lat="44.95277" lon="2.69054">
        <ele>1031</ele>
        <time>2022-01-28T01:48:41Z</time>
      </trkpt>
      <trkpt lat="44.95298" lon="2.69103">
        <ele>1032</ele>
        <time>2022-01-28T01:48:49Z</time>
      </trkpt>
      <trkpt lat="44.95329" lon="2.69157">
        <ele>1035</ele>
        <time>2022-01-28T01:48:57Z</time>
      </trkpt>
      <trkpt lat="44.95333" lon="2.69175">
        <ele>1035</ele>
        <time>2022-01-28T01:49:00Z</time>
      </trkpt>
      <trkpt lat="44.95329" lon="2.69202">
        <ele>1035</ele>
        <time>2022-01-28T01:49:03Z</time>
      </trkpt>
      <trkpt lat="44.95324" lon="2.69226">
        <ele>1034</ele>
        <time>2022-01-28T01:49:06Z</time>
      </trkpt>
      <trkpt lat="44.95326" lon="2.69247">
        <ele>1035</ele>
        <time>2022-01-28T01:49:09Z</time>
      </trkpt>
      <trkpt lat="44.95336" lon="2.69267">
        <ele>1035</ele>
        <time>2022-01-28T01:49:12Z</time>
      </trkpt>
      <trkpt lat="44.95353" lon="2.69279">
        <ele>1037</ele>
        <time>2022-01-28T01:49:16Z</time>
      </trkpt>
      <trkpt lat="44.95381" lon="2.69293">
        <ele>1039</ele>
        <time>2022-01-28T01:49:21Z</time>
      </trkpt>
      <trkpt lat="44.95388" lon="2.69314">
        <ele>1039</ele>
        <time>2022-01-28T01:49:24Z</time>
      </trkpt>
      <trkpt lat="44.95386" lon="2.69339">
        <ele>1039</ele>
        <time>2022-01-28T01:49:27Z</time>
      </trkpt>
      <trkpt lat="44.95375" lon="2.69363">
        <ele>1041</ele>
        <time>2022-01-28T01:49:30Z</time>
      </trkpt>
      <trkpt lat="44.95362" lon="2.69369">
        <ele>1041</ele>
        <time>2022-01-28T01:49:33Z</time>
      </trkpt>
      <trkpt lat="44.95213" lon="2.69397">
        <ele>1049</ele>
        <time>2022-01-28T01:50:00Z</time>
      </trkpt>
      <trkpt lat="44.95154" lon="2.69426">
        <ele>1053</ele>
        <time>2022-01-28T01:50:11Z</time>
      </trkpt>
      <trkpt lat="44.95132" lon="2.69434">
        <ele>1054</ele>
        <time>2022-01-28T01:50:15Z</time>
      </trkpt>
      <trkpt lat="44.95107" lon="2.69436">
        <ele>1054</ele>
        <time>2022-01-28T01:50:19Z</time>
      </trkpt>
      <trkpt lat="44.95068" lon="2.69434">
        <ele>1054</ele>
        <time>2022-01-28T01:50:26Z</time>
      </trkpt>
      <trkpt lat="44.95035" lon="2.6945">
        <ele>1056</ele>
        <time>2022-01-28T01:50:32Z</time>
      </trkpt>
      <trkpt lat="44.94989" lon="2.69459">
        <ele>1056</ele>
        <time>2022-01-28T01:50:41Z</time>
      </trkpt>
      <trkpt lat="44.94971" lon="2.69475">
        <ele>1056</ele>
        <time>2022-01-28T01:50:44Z</time>
      </trkpt>
      <trkpt lat="44.94956" lon="2.69492">
        <ele>1057</ele>
        <time>2022-01-28T01:50:48Z</time>
      </trkpt>
      <trkpt lat="44.9489" lon="2.69613">
        <ele>1059</ele>
        <time>2022-01-28T01:51:07Z</time>
      </trkpt>
      <trkpt lat="44.9481" lon="2.69669">
        <ele>1059</ele>
        <time>2022-01-28T01:51:23Z</time>
      </trkpt>
      <trkpt lat="44.94801" lon="2.69686">
        <ele>1059</ele>
        <time>2022-01-28T01:51:26Z</time>
      </trkpt>
      <trkpt lat="44.9479" lon="2.69731">
        <ele>1061</ele>
        <time>2022-01-28T01:51:32Z</time>
      </trkpt>
      <trkpt lat="44.94819" lon="2.6989">
        <ele>1062</ele>
        <time>2022-01-28T01:51:52Z</time>
      </trkpt>
      <trkpt lat="44.94828" lon="2.69919">
        <ele>1062</ele>
        <time>2022-01-28T01:51:56Z</time>
      </trkpt>
      <trkpt lat="44.94848" lon="2.69955">
        <ele>1062</ele>
        <time>2022-01-28T01:52:02Z</time>
      </trkpt>
      <trkpt lat="44.9485" lon="2.69984">
        <ele>1060</ele>
        <time>2022-01-28T01:52:06Z</time>
      </trkpt>
      <trkpt lat="44.94844" lon="2.7">
        <ele>1059</ele>
        <time>2022-01-28T01:52:08Z</time>
      </trkpt>
      <trkpt lat="44.94839" lon="2.70036">
        <ele>1056</ele>
        <time>2022-01-28T01:52:13Z</time>
      </trkpt>
      <trkpt lat="44.94849" lon="2.70065">
        <ele>1056</ele>
        <time>2022-01-28T01:52:17Z</time>
      </trkpt>
      <trkpt lat="44.94878" lon="2.70111">
        <ele>1057</ele>
        <time>2022-01-28T01:52:25Z</time>
      </trkpt>
      <trkpt lat="44.94887" lon="2.70139">
        <ele>1057</ele>
        <time>2022-01-28T01:52:28Z</time>
      </trkpt>
      <trkpt lat="44.94886" lon="2.7017">
        <ele>1055</ele>
        <time>2022-01-28T01:52:32Z</time>
      </trkpt>
      <trkpt lat="44.94888" lon="2.70195">
        <ele>1054</ele>
        <time>2022-01-28T01:52:35Z</time>
      </trkpt>
      <trkpt lat="44.94903" lon="2.7023">
        <ele>1053</ele>
        <time>2022-01-28T01:52:41Z</time>
      </trkpt>
      <trkpt lat="44.9496" lon="2.70306">
        <ele>1053</ele>
        <time>2022-01-28T01:52:55Z</time>
      </trkpt>
      <trkpt lat="44.94974" lon="2.70344">
        <ele>1052</ele>
        <time>2022-01-28T01:53:00Z</time>
      </trkpt>
      <trkpt lat="44.95" lon="2.70476">
        <ele>1051</ele>
        <time>2022-01-28T01:53:17Z</time>
      </trkpt>
      <trkpt lat="44.95" lon="2.70507">
        <ele>1050</ele>
        <time>2022-01-28T01:53:21Z</time>
      </trkpt>
      <trkpt lat="44.94995" lon="2.70541">
        <ele>1051</ele>
        <time>2022-01-28T01:53:25Z</time>
      </trkpt>
      <trkpt lat="44.94987" lon="2.70567">
        <ele>1052</ele>
        <time>2022-01-28T01:53:29Z</time>
      </trkpt>
      <trkpt lat="44.94971" lon="2.70588">
        <ele>1052</ele>
        <time>2022-01-28T01:53:33Z</time>
      </trkpt>
      <trkpt lat="44.94938" lon="2.70612">
        <ele>1054</ele>
        <time>2022-01-28T01:53:40Z</time>
      </trkpt>
      <trkpt lat="44.94921" lon="2.7063">
        <ele>1054</ele>
        <time>2022-01-28T01:53:43Z</time>
      </trkpt>
      <trkpt lat="44.94911" lon="2.70646">
        <ele>1055</ele>
        <time>2022-01-28T01:53:46Z</time>
      </trkpt>
      <trkpt lat="44.949" lon="2.70673">
        <ele>1056</ele>
        <time>2022-01-28T01:53:50Z</time>
      </trkpt>
      <trkpt lat="44.94887" lon="2.70696">
        <ele>1057</ele>
        <time>2022-01-28T01:53:54Z</time>
      </trkpt>
      <trkpt lat="44.94877" lon="2.70708">
        <ele>1057</ele>
        <time>2022-01-28T01:53:56Z</time>
      </trkpt>
      <trkpt lat="44.94865" lon="2.70714">
        <ele>1058</ele>
        <time>2022-01-28T01:53:58Z</time>
      </trkpt>
      <trkpt lat="44.94845" lon="2.70716">
        <ele>1058</ele>
        <time>2022-01-28T01:54:02Z</time>
      </trkpt>
      <trkpt lat="44.94819" lon="2.70724">
        <ele>1059</ele>
        <time>2022-01-28T01:54:07Z</time>
      </trkpt>
      <trkpt lat="44.94794" lon="2.70744">
        <ele>1061</ele>
        <time>2022-01-28T01:54:12Z</time>
      </trkpt>
      <trkpt lat="44.94751" lon="2.70785">
        <ele>1064</ele>
        <time>2022-01-28T01:54:21Z</time>
      </trkpt>
      <trkpt lat="44.94739" lon="2.70811">
        <ele>1065</ele>
        <time>2022-01-28T01:54:25Z</time>
      </trkpt>
      <trkpt lat="44.94736" lon="2.70836">
        <ele>1065</ele>
        <time>2022-01-28T01:54:28Z</time>
      </trkpt>
      <trkpt lat="44.94743" lon="2.70886">
        <ele>1065</ele>
        <time>2022-01-28T01:54:34Z</time>
      </trkpt>
      <trkpt lat="44.94738" lon="2.70907">
        <ele>1065</ele>
        <time>2022-01-28T01:54:37Z</time>
      </trkpt>
      <trkpt lat="44.94716" lon="2.70939">
        <ele>1064</ele>
        <time>2022-01-28T01:54:43Z</time>
      </trkpt>
      <trkpt lat="44.94699" lon="2.70961">
        <ele>1063</ele>
        <time>2022-01-28T01:54:47Z</time>
      </trkpt>
      <trkpt lat="44.94685" lon="2.70997">
        <ele>1061</ele>
        <time>2022-01-28T01:54:52Z</time>
      </trkpt>
      <trkpt lat="44.94678" lon="2.71024">
        <ele>1061</ele>
        <time>2022-01-28T01:54:56Z</time>
      </trkpt>
      <trkpt lat="44.9468" lon="2.71073">
        <ele>1061</ele>
        <time>2022-01-28T01:55:02Z</time>
      </trkpt>
      <trkpt lat="44.94674" lon="2.71091">
        <ele>1062</ele>
        <time>2022-01-28T01:55:04Z</time>
      </trkpt>
      <trkpt lat="44.94662" lon="2.71109">
        <ele>1062</ele>
        <time>2022-01-28T01:55:07Z</time>
      </trkpt>
      <trkpt lat="44.94601" lon="2.71146">
        <ele>1061</ele>
        <time>2022-01-28T01:55:19Z</time>
      </trkpt>
      <trkpt lat="44.94571" lon="2.71173">
        <ele>1061</ele>
        <time>2022-01-28T01:55:26Z</time>
      </trkpt>
      <trkpt lat="44.94553" lon="2.71199">
        <ele>1062</ele>
        <time>2022-01-28T01:55:30Z</time>
      </trkpt>
      <trkpt lat="44.94543" lon="2.71251">
        <ele>1064</ele>
        <time>2022-01-28T01:55:37Z</time>
      </trkpt>
      <trkpt lat="44.94537" lon="2.71297">
        <ele>1066</ele>
        <time>2022-01-28T01:55:43Z</time>
      </trkpt>
      <trkpt lat="44.94541" lon="2.71332">
        <ele>1067</ele>
        <time>2022-01-28T01:55:47Z</time>
      </trkpt>
      <trkpt lat="44.94593" lon="2.71453">
        <ele>1072</ele>
        <time>2022-01-28T01:56:05Z</time>
      </trkpt>
      <trkpt lat="44.94596" lon="2.71484">
        <ele>1073</ele>
        <time>2022-01-28T01:56:09Z</time>
      </trkpt>
      <trkpt lat="44.94587" lon="2.71514">
        <ele>1073</ele>
        <time>2022-01-28T01:56:13Z</time>
      </trkpt>
      <trkpt lat="44.94569" lon="2.7153">
        <ele>1072</ele>
        <time>2022-01-28T01:56:17Z</time>
      </trkpt>
      <trkpt lat="44.9455" lon="2.7154">
        <ele>1072</ele>
        <time>2022-01-28T01:56:21Z</time>
      </trkpt>
      <trkpt lat="44.94533" lon="2.71562">
        <ele>1070</ele>
        <time>2022-01-28T01:56:25Z</time>
      </trkpt>
      <trkpt lat="44.94524" lon="2.71596">
        <ele>1069</ele>
        <time>2022-01-28T01:56:29Z</time>
      </trkpt>
      <trkpt lat="44.94525" lon="2.71772">
        <ele>1064</ele>
        <time>2022-01-28T01:56:51Z</time>
      </trkpt>
      <trkpt lat="44.94524" lon="2.71808">
        <ele>1064</ele>
        <time>2022-01-28T01:56:56Z</time>
      </trkpt>
      <trkpt lat="44.94518" lon="2.71824">
        <ele>1064</ele>
        <time>2022-01-28T01:56:58Z</time>
      </trkpt>
      <trkpt lat="44.94488" lon="2.71859">
        <ele>1063</ele>
        <time>2022-01-28T01:57:05Z</time>
      </trkpt>
      <trkpt lat="44.94481" lon="2.71875">
        <ele>1062</ele>
        <time>2022-01-28T01:57:08Z</time>
      </trkpt>
      <trkpt lat="44.94438" lon="2.71894">
        <ele>1059</ele>
        <time>2022-01-28T01:57:16Z</time>
      </trkpt>
      <trkpt lat="44.94397" lon="2.71908">
        <ele>1056</ele>
        <time>2022-01-28T01:57:23Z</time>
      </trkpt>
      <trkpt lat="44.94361" lon="2.71932">
        <ele>1054</ele>
        <time>2022-01-28T01:57:30Z</time>
      </trkpt>
      <trkpt lat="44.94295" lon="2.72008">
        <ele>1047</ele>
        <time>2022-01-28T01:57:45Z</time>
      </trkpt>
      <trkpt lat="44.94265" lon="2.72021">
        <ele>1046</ele>
        <time>2022-01-28T01:57:51Z</time>
      </trkpt>
      <trkpt lat="44.94199" lon="2.72023">
        <ele>1048</ele>
        <time>2022-01-28T01:58:03Z</time>
      </trkpt>
      <trkpt lat="44.94167" lon="2.7204">
        <ele>1047</ele>
        <time>2022-01-28T01:58:09Z</time>
      </trkpt>
      <trkpt lat="44.94107" lon="2.72095">
        <ele>1043</ele>
        <time>2022-01-28T01:58:21Z</time>
      </trkpt>
      <trkpt lat="44.94083" lon="2.7211">
        <ele>1041</ele>
        <time>2022-01-28T01:58:26Z</time>
      </trkpt>
      <trkpt lat="44.94065" lon="2.72115">
        <ele>1039</ele>
        <time>2022-01-28T01:58:29Z</time>
      </trkpt>
      <trkpt lat="44.94011" lon="2.72097">
        <ele>1037</ele>
        <time>2022-01-28T01:58:39Z</time>
      </trkpt>
      <trkpt lat="44.93992" lon="2.72097">
        <ele>1036</ele>
        <time>2022-01-28T01:58:43Z</time>
      </trkpt>
      <trkpt lat="44.93944" lon="2.72104">
        <ele>1034</ele>
        <time>2022-01-28T01:58:51Z</time>
      </trkpt>
      <trkpt lat="44.93919" lon="2.72102">
        <ele>1033</ele>
        <time>2022-01-28T01:58:56Z</time>
      </trkpt>
      <trkpt lat="44.93902" lon="2.72109">
        <ele>1032</ele>
        <time>2022-01-28T01:58:59Z</time>
      </trkpt>
      <trkpt lat="44.93866" lon="2.72135">
        <ele>1030</ele>
        <time>2022-01-28T01:59:06Z</time>
      </trkpt>
      <trkpt lat="44.93789" lon="2.72165">
        <ele>1029</ele>
        <time>2022-01-28T01:59:20Z</time>
      </trkpt>
      <trkpt lat="44.93759" lon="2.72188">
        <ele>1027</ele>
        <time>2022-01-28T01:59:26Z</time>
      </trkpt>
      <trkpt lat="44.93657" lon="2.72283">
        <ele>1019</ele>
        <time>2022-01-28T01:59:48Z</time>
      </trkpt>
      <trkpt lat="44.93641" lon="2.72293">
        <ele>1017</ele>
        <time>2022-01-28T01:59:51Z</time>
      </trkpt>
      <trkpt lat="44.93623" lon="2.72297">
        <ele>1016</ele>
        <time>2022-01-28T01:59:54Z</time>
      </trkpt>
      <trkpt lat="44.93567" lon="2.72293">
        <ele>1014</ele>
        <time>2022-01-28T02:00:04Z</time>
      </trkpt>
      <trkpt lat="44.93497" lon="2.72265">
        <ele>1011</ele>
        <time>2022-01-28T02:00:17Z</time>
      </trkpt>
      <trkpt lat="44.9348" lon="2.72267">
        <ele>1010</ele>
        <time>2022-01-28T02:00:20Z</time>
      </trkpt>
      <trkpt lat="44.9352" lon="2.72373">
        <ele>1005</ele>
        <time>2022-01-28T02:00:35Z</time>
      </trkpt>
      <trkpt lat="44.93538" lon="2.7241">
        <ele>1003</ele>
        <time>2022-01-28T02:00:41Z</time>
      </trkpt>
      <trkpt lat="44.93557" lon="2.72426">
        <ele>1002</ele>
        <time>2022-01-28T02:00:45Z</time>
      </trkpt>
      <trkpt lat="44.93644" lon="2.7249">
        <ele>998</ele>
        <time>2022-01-28T02:01:03Z</time>
      </trkpt>
      <trkpt lat="44.93665" lon="2.7251">
        <ele>996</ele>
        <time>2022-01-28T02:01:07Z</time>
      </trkpt>
      <trkpt lat="44.93679" lon="2.72532">
        <ele>995</ele>
        <time>2022-01-28T02:01:11Z</time>
      </trkpt>
      <trkpt lat="44.93683" lon="2.72561">
        <ele>993</ele>
        <time>2022-01-28T02:01:14Z</time>
      </trkpt>
      <trkpt lat="44.93682" lon="2.72599">
        <ele>992</ele>
        <time>2022-01-28T02:01:19Z</time>
      </trkpt>
      <trkpt lat="44.93664" lon="2.72782">
        <ele>983</ele>
        <time>2022-01-28T02:01:43Z</time>
      </trkpt>
      <trkpt lat="44.93661" lon="2.72811">
        <ele>982</ele>
        <time>2022-01-28T02:01:46Z</time>
      </trkpt>
      <trkpt lat="44.93659" lon="2.72823">
        <ele>982</ele>
        <time>2022-01-28T02:01:48Z</time>
      </trkpt>
      <trkpt lat="44.93654" lon="2.72835">
        <ele>982</ele>
        <time>2022-01-28T02:01:50Z</time>
      </trkpt>
      <trkpt lat="44.93646" lon="2.72846">
        <ele>984</ele>
        <time>2022-01-28T02:01:52Z</time>
      </trkpt>
      <trkpt lat="44.93636" lon="2.72852">
        <ele>984</ele>
        <time>2022-01-28T02:01:53Z</time>
      </trkpt>
      <trkpt lat="44.9356" lon="2.72857">
        <ele>987</ele>
        <time>2022-01-28T02:02:07Z</time>
      </trkpt>
      <trkpt lat="44.93544" lon="2.72855">
        <ele>988</ele>
        <time>2022-01-28T02:02:10Z</time>
      </trkpt>
      <trkpt lat="44.93531" lon="2.72849">
        <ele>988</ele>
        <time>2022-01-28T02:02:12Z</time>
      </trkpt>
      <trkpt lat="44.93426" lon="2.72787">
        <ele>985</ele>
        <time>2022-01-28T02:02:33Z</time>
      </trkpt>
      <trkpt lat="44.93407" lon="2.72785">
        <ele>984</ele>
        <time>2022-01-28T02:02:36Z</time>
      </trkpt>
      <trkpt lat="44.93394" lon="2.7279">
        <ele>983</ele>
        <time>2022-01-28T02:02:38Z</time>
      </trkpt>
      <trkpt lat="44.93385" lon="2.72805">
        <ele>983</ele>
        <time>2022-01-28T02:02:41Z</time>
      </trkpt>
      <trkpt lat="44.9338" lon="2.72822">
        <ele>983</ele>
        <time>2022-01-28T02:02:43Z</time>
      </trkpt>
      <trkpt lat="44.93378" lon="2.72839">
        <ele>984</ele>
        <time>2022-01-28T02:02:45Z</time>
      </trkpt>
      <trkpt lat="44.9338" lon="2.72914">
        <ele>985</ele>
        <time>2022-01-28T02:02:55Z</time>
      </trkpt>
      <trkpt lat="44.93388" lon="2.72947">
        <ele>985</ele>
        <time>2022-01-28T02:02:59Z</time>
      </trkpt>
      <trkpt lat="44.93395" lon="2.72962">
        <ele>985</ele>
        <time>2022-01-28T02:03:01Z</time>
      </trkpt>
      <trkpt lat="44.9346" lon="2.73051">
        <ele>988</ele>
        <time>2022-01-28T02:03:18Z</time>
      </trkpt>
      <trkpt lat="44.93466" lon="2.73068">
        <ele>987</ele>
        <time>2022-01-28T02:03:20Z</time>
      </trkpt>
      <trkpt lat="44.93482" lon="2.73134">
        <ele>987</ele>
        <time>2022-01-28T02:03:29Z</time>
      </trkpt>
      <trkpt lat="44.93495" lon="2.73166">
        <ele>988</ele>
        <time>2022-01-28T02:03:33Z</time>
      </trkpt>
      <trkpt lat="44.93517" lon="2.73194">
        <ele>987</ele>
        <time>2022-01-28T02:03:39Z</time>
      </trkpt>
      <trkpt lat="44.93543" lon="2.73213">
        <ele>988</ele>
        <time>2022-01-28T02:03:44Z</time>
      </trkpt>
      <trkpt lat="44.93695" lon="2.73274">
        <ele>994</ele>
        <time>2022-01-28T02:04:12Z</time>
      </trkpt>
      <trkpt lat="44.93717" lon="2.73295">
        <ele>995</ele>
        <time>2022-01-28T02:04:17Z</time>
      </trkpt>
      <trkpt lat="44.93735" lon="2.73326">
        <ele>994</ele>
        <time>2022-01-28T02:04:22Z</time>
      </trkpt>
      <trkpt lat="44.93743" lon="2.73358">
        <ele>994</ele>
        <time>2022-01-28T02:04:26Z</time>
      </trkpt>
      <trkpt lat="44.93746" lon="2.73396">
        <ele>994</ele>
        <time>2022-01-28T02:04:31Z</time>
      </trkpt>
      <trkpt lat="44.93742" lon="2.73446">
        <ele>994</ele>
        <time>2022-01-28T02:04:37Z</time>
      </trkpt>
      <trkpt lat="44.93731" lon="2.73473">
        <ele>994</ele>
        <time>2022-01-28T02:04:41Z</time>
      </trkpt>
      <trkpt lat="44.93615" lon="2.73703">
        <ele>996</ele>
        <time>2022-01-28T02:05:17Z</time>
      </trkpt>
      <trkpt lat="44.9357" lon="2.73796">
        <ele>995</ele>
        <time>2022-01-28T02:05:31Z</time>
      </trkpt>
      <trkpt lat="44.9355" lon="2.73878">
        <ele>994</ele>
        <time>2022-01-28T02:05:42Z</time>
      </trkpt>
      <trkpt lat="44.93527" lon="2.74001">
        <ele>991</ele>
        <time>2022-01-28T02:05:58Z</time>
      </trkpt>
      <trkpt lat="44.93515" lon="2.74107">
        <ele>990</ele>
        <time>2022-01-28T02:06:11Z</time>
      </trkpt>
      <trkpt lat="44.93504" lon="2.74284">
        <ele>987</ele>
        <time>2022-01-28T02:06:34Z</time>
      </trkpt>
      <trkpt lat="44.93503" lon="2.74298">
        <ele>987</ele>
        <time>2022-01-28T02:06:35Z</time>
      </trkpt>
      <trkpt lat="44.93498" lon="2.74338">
        <ele>988</ele>
        <time>2022-01-28T02:06:41Z</time>
      </trkpt>
      <trkpt lat="44.93489" lon="2.74363">
        <ele>989</ele>
        <time>2022-01-28T02:06:44Z</time>
      </trkpt>
      <trkpt lat="44.93476" lon="2.74371">
        <ele>989</ele>
        <time>2022-01-28T02:06:47Z</time>
      </trkpt>
      <trkpt lat="44.93459" lon="2.74377">
        <ele>990</ele>
        <time>2022-01-28T02:06:50Z</time>
      </trkpt>
      <trkpt lat="44.93435" lon="2.7438">
        <ele>990</ele>
        <time>2022-01-28T02:06:54Z</time>
      </trkpt>
      <trkpt lat="44.93437" lon="2.74418">
        <ele>992</ele>
        <time>2022-01-28T02:06:59Z</time>
      </trkpt>
      <trkpt lat="44.93436" lon="2.74446">
        <ele>994</ele>
        <time>2022-01-28T02:07:02Z</time>
      </trkpt>
      <trkpt lat="44.93441" lon="2.74464">
        <ele>995</ele>
        <time>2022-01-28T02:07:05Z</time>
      </trkpt>
      <trkpt lat="44.93466" lon="2.7452">
        <ele>997</ele>
        <time>2022-01-28T02:07:13Z</time>
      </trkpt>
      <trkpt lat="44.93515" lon="2.74638">
        <ele>1003</ele>
        <time>2022-01-28T02:07:30Z</time>
      </trkpt>
      <trkpt lat="44.93529" lon="2.74663">
        <ele>1005</ele>
        <time>2022-01-28T02:07:34Z</time>
      </trkpt>
      <trkpt lat="44.93557" lon="2.74687">
        <ele>1007</ele>
        <time>2022-01-28T02:07:40Z</time>
      </trkpt>
      <trkpt lat="44.93591" lon="2.7471">
        <ele>1010</ele>
        <time>2022-01-28T02:07:47Z</time>
      </trkpt>
      <trkpt lat="44.93625" lon="2.74724">
        <ele>1012</ele>
        <time>2022-01-28T02:07:53Z</time>
      </trkpt>
      <trkpt lat="44.93652" lon="2.74731">
        <ele>1014</ele>
        <time>2022-01-28T02:07:58Z</time>
      </trkpt>
      <trkpt lat="44.93708" lon="2.74732">
        <ele>1017</ele>
        <time>2022-01-28T02:08:08Z</time>
      </trkpt>
      <trkpt lat="44.93734" lon="2.74724">
        <ele>1018</ele>
        <time>2022-01-28T02:08:13Z</time>
      </trkpt>
      <trkpt lat="44.93777" lon="2.74706">
        <ele>1019</ele>
        <time>2022-01-28T02:08:21Z</time>
      </trkpt>
      <trkpt lat="44.9379" lon="2.74705">
        <ele>1020</ele>
        <time>2022-01-28T02:08:23Z</time>
      </trkpt>
      <trkpt lat="44.93804" lon="2.74709">
        <ele>1021</ele>
        <time>2022-01-28T02:08:26Z</time>
      </trkpt>
      <trkpt lat="44.93848" lon="2.74739">
        <ele>1024</ele>
        <time>2022-01-28T02:08:34Z</time>
      </trkpt>
      <trkpt lat="44.93889" lon="2.74775">
        <ele>1027</ele>
        <time>2022-01-28T02:08:43Z</time>
      </trkpt>
      <trkpt lat="44.93912" lon="2.74797">
        <ele>1028</ele>
        <time>2022-01-28T02:08:48Z</time>
      </trkpt>
      <trkpt lat="44.93952" lon="2.74849">
        <ele>1030</ele>
        <time>2022-01-28T02:08:58Z</time>
      </trkpt>
      <trkpt lat="44.94029" lon="2.75021">
        <ele>1036</ele>
        <time>2022-01-28T02:09:23Z</time>
      </trkpt>
      <trkpt lat="44.94066" lon="2.75109">
        <ele>1039</ele>
        <time>2022-01-28T02:09:36Z</time>
      </trkpt>
      <trkpt lat="44.94087" lon="2.75163">
        <ele>1040</ele>
        <time>2022-01-28T02:09:44Z</time>
      </trkpt>
      <trkpt lat="44.94102" lon="2.7521">
        <ele>1041</ele>
        <time>2022-01-28T02:09:50Z</time>
      </trkpt>
      <trkpt lat="44.94123" lon="2.75313">
        <ele>1043</ele>
        <time>2022-01-28T02:10:04Z</time>
      </trkpt>
      <trkpt lat="44.94131" lon="2.75343">
        <ele>1044</ele>
        <time>2022-01-28T02:10:08Z</time>
      </trkpt>
      <trkpt lat="44.94143" lon="2.75366">
        <ele>1044</ele>
        <time>2022-01-28T02:10:11Z</time>
      </trkpt>
      <trkpt lat="44.94185" lon="2.75401">
        <ele>1046</ele>
        <time>2022-01-28T02:10:20Z</time>
      </trkpt>
      <trkpt lat="44.94229" lon="2.75445">
        <ele>1048</ele>
        <time>2022-01-28T02:10:30Z</time>
      </trkpt>
      <trkpt lat="44.94266" lon="2.75489">
        <ele>1051</ele>
        <time>2022-01-28T02:10:38Z</time>
      </trkpt>
      <trkpt lat="44.94295" lon="2.75533">
        <ele>1052</ele>
        <time>2022-01-28T02:10:46Z</time>
      </trkpt>
      <trkpt lat="44.94312" lon="2.75568">
        <ele>1053</ele>
        <time>2022-01-28T02:10:51Z</time>
      </trkpt>
      <trkpt lat="44.94325" lon="2.75606">
        <ele>1054</ele>
        <time>2022-01-28T02:10:57Z</time>
      </trkpt>
      <trkpt lat="44.94334" lon="2.75724">
        <ele>1051</ele>
        <time>2022-01-28T02:11:11Z</time>
      </trkpt>
      <trkpt lat="44.94346" lon="2.75816">
        <ele>1051</ele>
        <time>2022-01-28T02:11:23Z</time>
      </trkpt>
      <trkpt lat="44.94367" lon="2.75865">
        <ele>1052</ele>
        <time>2022-01-28T02:11:30Z</time>
      </trkpt>
      <trkpt lat="44.94435" lon="2.75968">
        <ele>1053</ele>
        <time>2022-01-28T02:11:48Z</time>
      </trkpt>
      <trkpt lat="44.94494" lon="2.76071">
        <ele>1054</ele>
        <time>2022-01-28T02:12:05Z</time>
      </trkpt>
      <trkpt lat="44.94507" lon="2.761">
        <ele>1054</ele>
        <time>2022-01-28T02:12:09Z</time>
      </trkpt>
      <trkpt lat="44.9456" lon="2.76278">
        <ele>1055</ele>
        <time>2022-01-28T02:12:34Z</time>
      </trkpt>
      <trkpt lat="44.94613" lon="2.76467">
        <ele>1049</ele>
        <time>2022-01-28T02:12:59Z</time>
      </trkpt>
      <trkpt lat="44.94667" lon="2.76592">
        <ele>1048</ele>
        <time>2022-01-28T02:13:18Z</time>
      </trkpt>
      <trkpt lat="44.94685" lon="2.76638">
        <ele>1050</ele>
        <time>2022-01-28T02:13:24Z</time>
      </trkpt>
      <trkpt lat="44.94692" lon="2.76696">
        <ele>1052</ele>
        <time>2022-01-28T02:13:32Z</time>
      </trkpt>
      <trkpt lat="44.94709" lon="2.76802">
        <ele>1055</ele>
        <time>2022-01-28T02:13:45Z</time>
      </trkpt>
      <trkpt lat="44.94742" lon="2.76943">
        <ele>1062</ele>
        <time>2022-01-28T02:14:04Z</time>
      </trkpt>
      <trkpt lat="44.94782" lon="2.7716">
        <ele>1072</ele>
        <time>2022-01-28T02:14:32Z</time>
      </trkpt>
      <trkpt lat="44.94794" lon="2.77207">
        <ele>1072</ele>
        <time>2022-01-28T02:14:39Z</time>
      </trkpt>
      <trkpt lat="44.94875" lon="2.77476">
        <ele>1070</ele>
        <time>2022-01-28T02:15:15Z</time>
      </trkpt>
      <trkpt lat="44.94879" lon="2.7751">
        <ele>1070</ele>
        <time>2022-01-28T02:15:20Z</time>
      </trkpt>
      <trkpt lat="44.94885" lon="2.77868">
        <ele>1063</ele>
        <time>2022-01-28T02:16:05Z</time>
      </trkpt>
      <trkpt lat="44.94884" lon="2.77916">
        <ele>1063</ele>
        <time>2022-01-28T02:16:11Z</time>
      </trkpt>
      <trkpt lat="44.94885" lon="2.78012">
        <ele>1059</ele>
        <time>2022-01-28T02:16:23Z</time>
      </trkpt>
      <trkpt lat="44.94918" lon="2.78127">
        <ele>1056</ele>
        <time>2022-01-28T02:16:39Z</time>
      </trkpt>
      <trkpt lat="44.94949" lon="2.78167">
        <ele>1053</ele>
        <time>2022-01-28T02:16:46Z</time>
      </trkpt>
      <trkpt lat="44.94973" lon="2.78181">
        <ele>1051</ele>
        <time>2022-01-28T02:16:51Z</time>
      </trkpt>
      <trkpt lat="44.95002" lon="2.78181">
        <ele>1050</ele>
        <time>2022-01-28T02:16:56Z</time>
      </trkpt>
      <trkpt lat="44.95031" lon="2.78172">
        <ele>1048</ele>
        <time>2022-01-28T02:17:01Z</time>
      </trkpt>
      <trkpt lat="44.95046" lon="2.78164">
        <ele>1047</ele>
        <time>2022-01-28T02:17:04Z</time>
      </trkpt>
      <trkpt lat="44.95082" lon="2.78097">
        <ele>1049</ele>
        <time>2022-01-28T02:17:15Z</time>
      </trkpt>
      <trkpt lat="44.9511" lon="2.78042">
        <ele>1050</ele>
        <time>2022-01-28T02:17:23Z</time>
      </trkpt>
      <trkpt lat="44.95126" lon="2.78027">
        <ele>1050</ele>
        <time>2022-01-28T02:17:26Z</time>
      </trkpt>
      <trkpt lat="44.95151" lon="2.78027">
        <ele>1048</ele>
        <time>2022-01-28T02:17:31Z</time>
      </trkpt>
      <trkpt lat="44.9518" lon="2.78042">
        <ele>1045</ele>
        <time>2022-01-28T02:17:36Z</time>
      </trkpt>
      <trkpt lat="44.95215" lon="2.78054">
        <ele>1043</ele>
        <time>2022-01-28T02:17:43Z</time>
      </trkpt>
      <trkpt lat="44.95234" lon="2.78072">
        <ele>1041</ele>
        <time>2022-01-28T02:17:47Z</time>
      </trkpt>
      <trkpt lat="44.95251" lon="2.78105">
        <ele>1039</ele>
        <time>2022-01-28T02:17:52Z</time>
      </trkpt>
      <trkpt lat="44.9526" lon="2.78138">
        <ele>1039</ele>
        <time>2022-01-28T02:17:57Z</time>
      </trkpt>
      <trkpt lat="44.95265" lon="2.78206">
        <ele>1038</ele>
        <time>2022-01-28T02:18:05Z</time>
      </trkpt>
      <trkpt lat="44.95266" lon="2.78227">
        <ele>1038</ele>
        <time>2022-01-28T02:18:08Z</time>
      </trkpt>
      <trkpt lat="44.95273" lon="2.78331">
        <ele>1040</ele>
        <time>2022-01-28T02:18:21Z</time>
      </trkpt>
      <trkpt lat="44.95269" lon="2.78373">
        <ele>1041</ele>
        <time>2022-01-28T02:18:26Z</time>
      </trkpt>
      <trkpt lat="44.95269" lon="2.78403">
        <ele>1042</ele>
        <time>2022-01-28T02:18:30Z</time>
      </trkpt>
      <trkpt lat="44.95271" lon="2.78419">
        <ele>1043</ele>
        <time>2022-01-28T02:18:32Z</time>
      </trkpt>
      <trkpt lat="44.95284" lon="2.78443">
        <ele>1045</ele>
        <time>2022-01-28T02:18:36Z</time>
      </trkpt>
      <trkpt lat="44.95289" lon="2.78462">
        <ele>1046</ele>
        <time>2022-01-28T02:18:38Z</time>
      </trkpt>
      <trkpt lat="44.95287" lon="2.78484">
        <ele>1047</ele>
        <time>2022-01-28T02:18:41Z</time>
      </trkpt>
      <trkpt lat="44.95277" lon="2.78501">
        <ele>1047</ele>
        <time>2022-01-28T02:18:44Z</time>
      </trkpt>
      <trkpt lat="44.95261" lon="2.78513">
        <ele>1047</ele>
        <time>2022-01-28T02:18:47Z</time>
      </trkpt>
      <trkpt lat="44.95244" lon="2.7853">
        <ele>1048</ele>
        <time>2022-01-28T02:18:51Z</time>
      </trkpt>
      <trkpt lat="44.95224" lon="2.78567">
        <ele>1050</ele>
        <time>2022-01-28T02:18:57Z</time>
      </trkpt>
      <trkpt lat="44.952" lon="2.78632">
        <ele>1053</ele>
        <time>2022-01-28T02:19:06Z</time>
      </trkpt>
      <trkpt lat="44.95188" lon="2.7867">
        <ele>1056</ele>
        <time>2022-01-28T02:19:11Z</time>
      </trkpt>
      <trkpt lat="44.95177" lon="2.78691">
        <ele>1057</ele>
        <time>2022-01-28T02:19:15Z</time>
      </trkpt>
      <trkpt lat="44.95159" lon="2.78712">
        <ele>1058</ele>
        <time>2022-01-28T02:19:19Z</time>
      </trkpt>
      <trkpt lat="44.95143" lon="2.78726">
        <ele>1059</ele>
        <time>2022-01-28T02:19:22Z</time>
      </trkpt>
      <trkpt lat="44.95125" lon="2.78746">
        <ele>1061</ele>
        <time>2022-01-28T02:19:26Z</time>
      </trkpt>
      <trkpt lat="44.95111" lon="2.78774">
        <ele>1062</ele>
        <time>2022-01-28T02:19:30Z</time>
      </trkpt>
      <trkpt lat="44.95104" lon="2.78807">
        <ele>1063</ele>
        <time>2022-01-28T02:19:35Z</time>
      </trkpt>
      <trkpt lat="44.951" lon="2.78839">
        <ele>1064</ele>
        <time>2022-01-28T02:19:39Z</time>
      </trkpt>
      <trkpt lat="44.95098" lon="2.78902">
        <ele>1067</ele>
        <time>2022-01-28T02:19:47Z</time>
      </trkpt>
      <trkpt lat="44.95098" lon="2.78991">
        <ele>1069</ele>
        <time>2022-01-28T02:19:58Z</time>
      </trkpt>
      <trkpt lat="44.95101" lon="2.79021">
        <ele>1069</ele>
        <time>2022-01-28T02:20:02Z</time>
      </trkpt>
      <trkpt lat="44.95116" lon="2.79086">
        <ele>1068</ele>
        <time>2022-01-28T02:20:10Z</time>
      </trkpt>
      <trkpt lat="44.95129" lon="2.79132">
        <ele>1069</ele>
        <time>2022-01-28T02:20:17Z</time>
      </trkpt>
      <trkpt lat="44.95134" lon="2.79156">
        <ele>1069</ele>
        <time>2022-01-28T02:20:20Z</time>
      </trkpt>
      <trkpt lat="44.95134" lon="2.79178">
        <ele>1069</ele>
        <time>2022-01-28T02:20:23Z</time>
      </trkpt>
      <trkpt lat="44.9513" lon="2.79224">
        <ele>1070</ele>
        <time>2022-01-28T02:20:28Z</time>
      </trkpt>
      <trkpt lat="44.95121" lon="2.79268">
        <ele>1071</ele>
        <time>2022-01-28T02:20:34Z</time>
      </trkpt>
      <trkpt lat="44.95107" lon="2.79358">
        <ele>1074</ele>
        <time>2022-01-28T02:20:46Z</time>
      </trkpt>
      <trkpt lat="44.95104" lon="2.79393">
        <ele>1075</ele>
        <time>2022-01-28T02:20:50Z</time>
      </trkpt>
      <trkpt lat="44.95103" lon="2.79424">
        <ele>1075</ele>
        <time>2022-01-28T02:20:54Z</time>
      </trkpt>
      <trkpt lat="44.95136" lon="2.79633">
        <ele>1069</ele>
        <time>2022-01-28T02:21:21Z</time>
      </trkpt>
      <trkpt lat="44.9514" lon="2.79666">
        <ele>1067</ele>
        <time>2022-01-28T02:21:25Z</time>
      </trkpt>
      <trkpt lat="44.9514" lon="2.79684">
        <ele>1067</ele>
        <time>2022-01-28T02:21:28Z</time>
      </trkpt>
      <trkpt lat="44.95144" lon="2.79744">
        <ele>1067</ele>
        <time>2022-01-28T02:21:35Z</time>
      </trkpt>
      <trkpt lat="44.95143" lon="2.79779">
        <ele>1066</ele>
        <time>2022-01-28T02:21:40Z</time>
      </trkpt>
      <trkpt lat="44.95145" lon="2.79795">
        <ele>1066</ele>
        <time>2022-01-28T02:21:42Z</time>
      </trkpt>
      <trkpt lat="44.95157" lon="2.7984">
        <ele>1065</ele>
        <time>2022-01-28T02:21:48Z</time>
      </trkpt>
      <trkpt lat="44.95161" lon="2.79862">
        <ele>1064</ele>
        <time>2022-01-28T02:21:51Z</time>
      </trkpt>
      <trkpt lat="44.95165" lon="2.79911">
        <ele>1061</ele>
        <time>2022-01-28T02:21:57Z</time>
      </trkpt>
      <trkpt lat="44.95169" lon="2.79937">
        <ele>1060</ele>
        <time>2022-01-28T02:22:00Z</time>
      </trkpt>
      <trkpt lat="44.95181" lon="2.79968">
        <ele>1058</ele>
        <time>2022-01-28T02:22:05Z</time>
      </trkpt>
      <trkpt lat="44.95187" lon="2.79975">
        <ele>1058</ele>
        <time>2022-01-28T02:22:06Z</time>
      </trkpt>
      <trkpt lat="44.95211" lon="2.79977">
        <ele>1057</ele>
        <time>2022-01-28T02:22:10Z</time>
      </trkpt>
      <trkpt lat="44.95227" lon="2.79982">
        <ele>1056</ele>
        <time>2022-01-28T02:22:13Z</time>
      </trkpt>
      <trkpt lat="44.95247" lon="2.80002">
        <ele>1054</ele>
        <time>2022-01-28T02:22:18Z</time>
      </trkpt>
      <trkpt lat="44.95265" lon="2.80042">
        <ele>1052</ele>
        <time>2022-01-28T02:22:23Z</time>
      </trkpt>
      <trkpt lat="44.95272" lon="2.80053">
        <ele>1051</ele>
        <time>2022-01-28T02:22:25Z</time>
      </trkpt>
      <trkpt lat="44.95293" lon="2.80065">
        <ele>1049</ele>
        <time>2022-01-28T02:22:29Z</time>
      </trkpt>
      <trkpt lat="44.95328" lon="2.80077">
        <ele>1046</ele>
        <time>2022-01-28T02:22:36Z</time>
      </trkpt>
      <trkpt lat="44.95364" lon="2.80072">
        <ele>1043</ele>
        <time>2022-01-28T02:22:42Z</time>
      </trkpt>
      <trkpt lat="44.9538" lon="2.80067">
        <ele>1042</ele>
        <time>2022-01-28T02:22:45Z</time>
      </trkpt>
      <trkpt lat="44.95396" lon="2.80051">
        <ele>1043</ele>
        <time>2022-01-28T02:22:49Z</time>
      </trkpt>
      <trkpt lat="44.95415" lon="2.80036">
        <ele>1043</ele>
        <time>2022-01-28T02:22:53Z</time>
      </trkpt>
      <trkpt lat="44.95434" lon="2.80026">
        <ele>1044</ele>
        <time>2022-01-28T02:22:56Z</time>
      </trkpt>
      <trkpt lat="44.9546" lon="2.80032">
        <ele>1042</ele>
        <time>2022-01-28T02:23:01Z</time>
      </trkpt>
      <trkpt lat="44.95488" lon="2.8004">
        <ele>1039</ele>
        <time>2022-01-28T02:23:06Z</time>
      </trkpt>
      <trkpt lat="44.9559" lon="2.80028">
        <ele>1038</ele>
        <time>2022-01-28T02:23:24Z</time>
      </trkpt>
      <trkpt lat="44.95646" lon="2.80016">
        <ele>1034</ele>
        <time>2022-01-28T02:23:34Z</time>
      </trkpt>
      <trkpt lat="44.95676" lon="2.80004">
        <ele>1033</ele>
        <time>2022-01-28T02:23:40Z</time>
      </trkpt>
      <trkpt lat="44.95773" lon="2.79947">
        <ele>1029</ele>
        <time>2022-01-28T02:23:58Z</time>
      </trkpt>
      <trkpt lat="44.95793" lon="2.79947">
        <ele>1026</ele>
        <time>2022-01-28T02:24:02Z</time>
      </trkpt>
      <trkpt lat="44.95829" lon="2.79964">
        <ele>1016</ele>
        <time>2022-01-28T02:24:09Z</time>
      </trkpt>
      <trkpt lat="44.95853" lon="2.79984">
        <ele>1011</ele>
        <time>2022-01-28T02:24:14Z</time>
      </trkpt>
      <trkpt lat="44.95876" lon="2.79994">
        <ele>1008</ele>
        <time>2022-01-28T02:24:18Z</time>
      </trkpt>
      <trkpt lat="44.95891" lon="2.79998">
        <ele>1007</ele>
        <time>2022-01-28T02:24:21Z</time>
      </trkpt>
      <trkpt lat="44.95946" lon="2.80004">
        <ele>1005</ele>
        <time>2022-01-28T02:24:30Z</time>
      </trkpt>
      <trkpt lat="44.95971" lon="2.8001">
        <ele>1003</ele>
        <time>2022-01-28T02:24:35Z</time>
      </trkpt>
      <trkpt lat="44.95995" lon="2.80019">
        <ele>1000</ele>
        <time>2022-01-28T02:24:39Z</time>
      </trkpt>
      <trkpt lat="44.96021" lon="2.80023">
        <ele>999</ele>
        <time>2022-01-28T02:24:44Z</time>
      </trkpt>
      <trkpt lat="44.96043" lon="2.80023">
        <ele>999</ele>
        <time>2022-01-28T02:24:48Z</time>
      </trkpt>
      <trkpt lat="44.96066" lon="2.80028">
        <ele>997</ele>
        <time>2022-01-28T02:24:52Z</time>
      </trkpt>
      <trkpt lat="44.96093" lon="2.80038">
        <ele>994</ele>
        <time>2022-01-28T02:24:57Z</time>
      </trkpt>
      <trkpt lat="44.96115" lon="2.8004">
        <ele>994</ele>
        <time>2022-01-28T02:25:01Z</time>
      </trkpt>
      <trkpt lat="44.96219" lon="2.80078">
        <ele>985</ele>
        <time>2022-01-28T02:25:20Z</time>
      </trkpt>
      <trkpt lat="44.96244" lon="2.80081">
        <ele>985</ele>
        <time>2022-01-28T02:25:25Z</time>
      </trkpt>
      <trkpt lat="44.96343" lon="2.80089">
        <ele>981</ele>
        <time>2022-01-28T02:25:42Z</time>
      </trkpt>
      <trkpt lat="44.96369" lon="2.80089">
        <ele>979</ele>
        <time>2022-01-28T02:25:47Z</time>
      </trkpt>
      <trkpt lat="44.96404" lon="2.80077">
        <ele>980</ele>
        <time>2022-01-28T02:25:53Z</time>
      </trkpt>
      <trkpt lat="44.96478" lon="2.80084">
        <ele>973</ele>
        <time>2022-01-28T02:26:06Z</time>
      </trkpt>
      <trkpt lat="44.96509" lon="2.80092">
        <ele>967</ele>
        <time>2022-01-28T02:26:12Z</time>
      </trkpt>
      <trkpt lat="44.96521" lon="2.80092">
        <ele>966</ele>
        <time>2022-01-28T02:26:14Z</time>
      </trkpt>
      <trkpt lat="44.96556" lon="2.80072">
        <ele>972</ele>
        <time>2022-01-28T02:26:21Z</time>
      </trkpt>
      <trkpt lat="44.96578" lon="2.80066">
        <ele>973</ele>
        <time>2022-01-28T02:26:25Z</time>
      </trkpt>
      <trkpt lat="44.96592" lon="2.80066">
        <ele>972</ele>
        <time>2022-01-28T02:26:27Z</time>
      </trkpt>
      <trkpt lat="44.96604" lon="2.80078">
        <ele>966</ele>
        <time>2022-01-28T02:26:30Z</time>
      </trkpt>
      <trkpt lat="44.96616" lon="2.80095">
        <ele>959</ele>
        <time>2022-01-28T02:26:33Z</time>
      </trkpt>
      <trkpt lat="44.96631" lon="2.80106">
        <ele>954</ele>
        <time>2022-01-28T02:26:36Z</time>
      </trkpt>
      <trkpt lat="44.9665" lon="2.80106">
        <ele>954</ele>
        <time>2022-01-28T02:26:39Z</time>
      </trkpt>
      <trkpt lat="44.96674" lon="2.80099">
        <ele>956</ele>
        <time>2022-01-28T02:26:44Z</time>
      </trkpt>
      <trkpt lat="44.96726" lon="2.80093">
        <ele>954</ele>
        <time>2022-01-28T02:26:53Z</time>
      </trkpt>
      <trkpt lat="44.96749" lon="2.80086">
        <ele>955</ele>
        <time>2022-01-28T02:26:57Z</time>
      </trkpt>
      <trkpt lat="44.96767" lon="2.80085">
        <ele>953</ele>
        <time>2022-01-28T02:27:00Z</time>
      </trkpt>
      <trkpt lat="44.96785" lon="2.80093">
        <ele>948</ele>
        <time>2022-01-28T02:27:04Z</time>
      </trkpt>
      <trkpt lat="44.96805" lon="2.80105">
        <ele>941</ele>
        <time>2022-01-28T02:27:08Z</time>
      </trkpt>
      <trkpt lat="44.96839" lon="2.80109">
        <ele>935</ele>
        <time>2022-01-28T02:27:14Z</time>
      </trkpt>
      <trkpt lat="44.96853" lon="2.80107">
        <ele>934</ele>
        <time>2022-01-28T02:27:16Z</time>
      </trkpt>
      <trkpt lat="44.96864" lon="2.80089">
        <ele>940</ele>
        <time>2022-01-28T02:27:19Z</time>
      </trkpt>
      <trkpt lat="44.96878" lon="2.80074">
        <ele>945</ele>
        <time>2022-01-28T02:27:22Z</time>
      </trkpt>
      <trkpt lat="44.96887" lon="2.80068">
        <ele>946</ele>
        <time>2022-01-28T02:27:24Z</time>
      </trkpt>
      <trkpt lat="44.96899" lon="2.8007">
        <ele>944</ele>
        <time>2022-01-28T02:27:26Z</time>
      </trkpt>
      <trkpt lat="44.96948" lon="2.80104">
        <ele>938</ele>
        <time>2022-01-28T02:27:36Z</time>
      </trkpt>
      <trkpt lat="44.96955" lon="2.80113">
        <ele>937</ele>
        <time>2022-01-28T02:27:38Z</time>
      </trkpt>
      <trkpt lat="44.9698" lon="2.80177">
        <ele>918</ele>
        <time>2022-01-28T02:27:47Z</time>
      </trkpt>
      <trkpt lat="44.96989" lon="2.80188">
        <ele>915</ele>
        <time>2022-01-28T02:27:49Z</time>
      </trkpt>
      <trkpt lat="44.97048" lon="2.802">
        <ele>925</ele>
        <time>2022-01-28T02:28:00Z</time>
      </trkpt>
      <trkpt lat="44.97065" lon="2.80209">
        <ele>925</ele>
        <time>2022-01-28T02:28:03Z</time>
      </trkpt>
      <trkpt lat="44.9708" lon="2.80221">
        <ele>921</ele>
        <time>2022-01-28T02:28:06Z</time>
      </trkpt>
      <trkpt lat="44.97103" lon="2.80256">
        <ele>910</ele>
        <time>2022-01-28T02:28:12Z</time>
      </trkpt>
      <trkpt lat="44.97174" lon="2.80313">
        <ele>905</ele>
        <time>2022-01-28T02:28:26Z</time>
      </trkpt>
      <trkpt lat="44.97197" lon="2.80325">
        <ele>901</ele>
        <time>2022-01-28T02:28:31Z</time>
      </trkpt>
      <trkpt lat="44.97271" lon="2.80352">
        <ele>896</ele>
        <time>2022-01-28T02:28:44Z</time>
      </trkpt>
      <trkpt lat="44.97294" lon="2.80347">
        <ele>898</ele>
        <time>2022-01-28T02:28:49Z</time>
      </trkpt>
      <trkpt lat="44.97324" lon="2.80322">
        <ele>906</ele>
        <time>2022-01-28T02:28:55Z</time>
      </trkpt>
      <trkpt lat="44.97341" lon="2.80316">
        <ele>910</ele>
        <time>2022-01-28T02:28:58Z</time>
      </trkpt>
      <trkpt lat="44.97373" lon="2.80317">
        <ele>917</ele>
        <time>2022-01-28T02:29:04Z</time>
      </trkpt>
      <trkpt lat="44.97378" lon="2.80321">
        <ele>917</ele>
        <time>2022-01-28T02:29:05Z</time>
      </trkpt>
      <trkpt lat="44.97379" lon="2.80331">
        <ele>915</ele>
        <time>2022-01-28T02:29:06Z</time>
      </trkpt>
      <trkpt lat="44.97377" lon="2.80346">
        <ele>911</ele>
        <time>2022-01-28T02:29:08Z</time>
      </trkpt>
      <trkpt lat="44.97367" lon="2.80378">
        <ele>899</ele>
        <time>2022-01-28T02:29:12Z</time>
      </trkpt>
      <trkpt lat="44.97367" lon="2.80412">
        <ele>890</ele>
        <time>2022-01-28T02:29:16Z</time>
      </trkpt>
      <trkpt lat="44.97371" lon="2.80445">
        <ele>880</ele>
        <time>2022-01-28T02:29:21Z</time>
      </trkpt>
      <trkpt lat="44.97382" lon="2.80461">
        <ele>878</ele>
        <time>2022-01-28T02:29:24Z</time>
      </trkpt>
      <trkpt lat="44.97408" lon="2.80479">
        <ele>877</ele>
        <time>2022-01-28T02:29:29Z</time>
      </trkpt>
      <trkpt lat="44.97486" lon="2.80506">
        <ele>880</ele>
        <time>2022-01-28T02:29:43Z</time>
      </trkpt>
      <trkpt lat="44.97531" lon="2.80526">
        <ele>879</ele>
        <time>2022-01-28T02:29:51Z</time>
      </trkpt>
      <trkpt lat="44.97565" lon="2.80546">
        <ele>875</ele>
        <time>2022-01-28T02:29:58Z</time>
      </trkpt>
      <trkpt lat="44.97635" lon="2.80593">
        <ele>867</ele>
        <time>2022-01-28T02:30:12Z</time>
      </trkpt>
      <trkpt lat="44.97657" lon="2.80613">
        <ele>864</ele>
        <time>2022-01-28T02:30:16Z</time>
      </trkpt>
      <trkpt lat="44.97678" lon="2.80621">
        <ele>863</ele>
        <time>2022-01-28T02:30:20Z</time>
      </trkpt>
      <trkpt lat="44.97702" lon="2.80624">
        <ele>864</ele>
        <time>2022-01-28T02:30:24Z</time>
      </trkpt>
      <trkpt lat="44.97711" lon="2.80627">
        <ele>863</ele>
        <time>2022-01-28T02:30:26Z</time>
      </trkpt>
      <trkpt lat="44.97716" lon="2.80634">
        <ele>861</ele>
        <time>2022-01-28T02:30:27Z</time>
      </trkpt>
      <trkpt lat="44.97718" lon="2.80642">
        <ele>859</ele>
        <time>2022-01-28T02:30:28Z</time>
      </trkpt>
      <trkpt lat="44.97717" lon="2.80651">
        <ele>856</ele>
        <time>2022-01-28T02:30:30Z</time>
      </trkpt>
      <trkpt lat="44.97712" lon="2.80658">
        <ele>854</ele>
        <time>2022-01-28T02:30:31Z</time>
      </trkpt>
      <trkpt lat="44.97707" lon="2.80662">
        <ele>852</ele>
        <time>2022-01-28T02:30:32Z</time>
      </trkpt>
      <trkpt lat="44.97695" lon="2.80661">
        <ele>852</ele>
        <time>2022-01-28T02:30:34Z</time>
      </trkpt>
      <trkpt lat="44.97668" lon="2.8065">
        <ele>853</ele>
        <time>2022-01-28T02:30:39Z</time>
      </trkpt>
      <trkpt lat="44.97637" lon="2.80646">
        <ele>852</ele>
        <time>2022-01-28T02:30:45Z</time>
      </trkpt>
      <trkpt lat="44.97589" lon="2.8065">
        <ele>847</ele>
        <time>2022-01-28T02:30:53Z</time>
      </trkpt>
      <trkpt lat="44.97565" lon="2.80646">
        <ele>846</ele>
        <time>2022-01-28T02:30:57Z</time>
      </trkpt>
      <trkpt lat="44.97529" lon="2.80637">
        <ele>846</ele>
        <time>2022-01-28T02:31:04Z</time>
      </trkpt>
      <trkpt lat="44.97494" lon="2.80623">
        <ele>846</ele>
        <time>2022-01-28T02:31:10Z</time>
      </trkpt>
      <trkpt lat="44.97422" lon="2.8058">
        <ele>843</ele>
        <time>2022-01-28T02:31:24Z</time>
      </trkpt>
      <trkpt lat="44.97405" lon="2.80573">
        <ele>843</ele>
        <time>2022-01-28T02:31:27Z</time>
      </trkpt>
      <trkpt lat="44.97381" lon="2.80567">
        <ele>843</ele>
        <time>2022-01-28T02:31:32Z</time>
      </trkpt>
      <trkpt lat="44.97336" lon="2.80561">
        <ele>839</ele>
        <time>2022-01-28T02:31:40Z</time>
      </trkpt>
      <trkpt lat="44.97323" lon="2.80564">
        <ele>837</ele>
        <time>2022-01-28T02:31:42Z</time>
      </trkpt>
      <trkpt lat="44.9731" lon="2.80582">
        <ele>832</ele>
        <time>2022-01-28T02:31:45Z</time>
      </trkpt>
      <trkpt lat="44.97303" lon="2.80597">
        <ele>829</ele>
        <time>2022-01-28T02:31:48Z</time>
      </trkpt>
      <trkpt lat="44.97234" lon="2.80771">
        <ele>813</ele>
        <time>2022-01-28T02:32:13Z</time>
      </trkpt>
      <trkpt lat="44.97219" lon="2.80813">
        <ele>813</ele>
        <time>2022-01-28T02:32:19Z</time>
      </trkpt>
      <trkpt lat="44.97209" lon="2.80838">
        <ele>813</ele>
        <time>2022-01-28T02:32:22Z</time>
      </trkpt>
      <trkpt lat="44.97196" lon="2.8087">
        <ele>815</ele>
        <time>2022-01-28T02:32:27Z</time>
      </trkpt>
      <trkpt lat="44.97193" lon="2.8088">
        <ele>815</ele>
        <time>2022-01-28T02:32:28Z</time>
      </trkpt>
      <trkpt lat="44.9722" lon="2.80879">
        <ele>815</ele>
        <time>2022-01-28T02:32:33Z</time>
      </trkpt>
      <trkpt lat="44.97273" lon="2.80892">
        <ele>815</ele>
        <time>2022-01-28T02:32:43Z</time>
      </trkpt>
      <trkpt lat="44.97289" lon="2.80901">
        <ele>816</ele>
        <time>2022-01-28T02:32:46Z</time>
      </trkpt>
      <trkpt lat="44.97319" lon="2.80936">
        <ele>819</ele>
        <time>2022-01-28T02:32:53Z</time>
      </trkpt>
      <trkpt lat="44.97336" lon="2.80949">
        <ele>820</ele>
        <time>2022-01-28T02:32:56Z</time>
      </trkpt>
      <trkpt lat="44.97351" lon="2.80957">
        <ele>820</ele>
        <time>2022-01-28T02:32:59Z</time>
      </trkpt>
      <trkpt lat="44.97381" lon="2.80967">
        <ele>819</ele>
        <time>2022-01-28T02:33:04Z</time>
      </trkpt>
      <trkpt lat="44.97434" lon="2.8098">
        <ele>817</ele>
        <time>2022-01-28T02:33:14Z</time>
      </trkpt>
      <trkpt lat="44.97452" lon="2.80989">
        <ele>818</ele>
        <time>2022-01-28T02:33:17Z</time>
      </trkpt>
      <trkpt lat="44.97468" lon="2.81001">
        <ele>818</ele>
        <time>2022-01-28T02:33:21Z</time>
      </trkpt>
      <trkpt lat="44.9752" lon="2.81032">
        <ele>822</ele>
        <time>2022-01-28T02:33:31Z</time>
      </trkpt>
      <trkpt lat="44.97542" lon="2.81038">
        <ele>822</ele>
        <time>2022-01-28T02:33:35Z</time>
      </trkpt>
      <trkpt lat="44.97567" lon="2.8104">
        <ele>823</ele>
        <time>2022-01-28T02:33:39Z</time>
      </trkpt>
      <trkpt lat="44.97656" lon="2.81029">
        <ele>821</ele>
        <time>2022-01-28T02:33:55Z</time>
      </trkpt>
      <trkpt lat="44.97717" lon="2.81042">
        <ele>823</ele>
        <time>2022-01-28T02:34:06Z</time>
      </trkpt>
      <trkpt lat="44.97752" lon="2.8104">
        <ele>822</ele>
        <time>2022-01-28T02:34:12Z</time>
      </trkpt>
      <trkpt lat="44.97767" lon="2.81041">
        <ele>822</ele>
        <time>2022-01-28T02:34:15Z</time>
      </trkpt>
      <trkpt lat="44.97785" lon="2.81049">
        <ele>823</ele>
        <time>2022-01-28T02:34:18Z</time>
      </trkpt>
      <trkpt lat="44.97813" lon="2.81065">
        <ele>824</ele>
        <time>2022-01-28T02:34:24Z</time>
      </trkpt>
      <trkpt lat="44.97845" lon="2.81078">
        <ele>824</ele>
        <time>2022-01-28T02:34:30Z</time>
      </trkpt>
      <trkpt lat="44.97895" lon="2.81105">
        <ele>829</ele>
        <time>2022-01-28T02:34:39Z</time>
      </trkpt>
      <trkpt lat="44.97914" lon="2.81112">
        <ele>830</ele>
        <time>2022-01-28T02:34:43Z</time>
      </trkpt>
      <trkpt lat="44.97982" lon="2.81121">
        <ele>830</ele>
        <time>2022-01-28T02:34:55Z</time>
      </trkpt>
      <trkpt lat="44.97999" lon="2.81128">
        <ele>831</ele>
        <time>2022-01-28T02:34:58Z</time>
      </trkpt>
      <trkpt lat="44.98029" lon="2.81136">
        <ele>831</ele>
        <time>2022-01-28T02:35:03Z</time>
      </trkpt>
      <trkpt lat="44.98062" lon="2.8114">
        <ele>831</ele>
        <time>2022-01-28T02:35:09Z</time>
      </trkpt>
      <trkpt lat="44.9808" lon="2.8114">
        <ele>830</ele>
        <time>2022-01-28T02:35:12Z</time>
      </trkpt>
      <trkpt lat="44.98135" lon="2.81129">
        <ele>828</ele>
        <time>2022-01-28T02:35:22Z</time>
      </trkpt>
      <trkpt lat="44.98182" lon="2.81138">
        <ele>829</ele>
        <time>2022-01-28T02:35:31Z</time>
      </trkpt>
      <trkpt lat="44.98212" lon="2.81147">
        <ele>831</ele>
        <time>2022-01-28T02:35:36Z</time>
      </trkpt>
      <trkpt lat="44.98246" lon="2.81149">
        <ele>833</ele>
        <time>2022-01-28T02:35:42Z</time>
      </trkpt>
      <trkpt lat="44.98292" lon="2.81132">
        <ele>831</ele>
        <time>2022-01-28T02:35:51Z</time>
      </trkpt>
      <trkpt lat="44.98315" lon="2.81125">
        <ele>831</ele>
        <time>2022-01-28T02:35:55Z</time>
      </trkpt>
      <trkpt lat="44.9836" lon="2.81124">
        <ele>831</ele>
        <time>2022-01-28T02:36:03Z</time>
      </trkpt>
      <trkpt lat="44.98381" lon="2.81121">
        <ele>830</ele>
        <time>2022-01-28T02:36:07Z</time>
      </trkpt>
      <trkpt lat="44.98421" lon="2.81106">
        <ele>829</ele>
        <time>2022-01-28T02:36:14Z</time>
      </trkpt>
      <trkpt lat="44.98436" lon="2.81103">
        <ele>829</ele>
        <time>2022-01-28T02:36:17Z</time>
      </trkpt>
      <trkpt lat="44.9845" lon="2.81101">
        <ele>829</ele>
        <time>2022-01-28T02:36:19Z</time>
      </trkpt>
      <trkpt lat="44.98503" lon="2.81106">
        <ele>831</ele>
        <time>2022-01-28T02:36:29Z</time>
      </trkpt>
      <trkpt lat="44.98562" lon="2.81099">
        <ele>830</ele>
        <time>2022-01-28T02:36:39Z</time>
      </trkpt>
      <trkpt lat="44.98575" lon="2.81093">
        <ele>830</ele>
        <time>2022-01-28T02:36:42Z</time>
      </trkpt>
      <trkpt lat="44.98608" lon="2.81066">
        <ele>830</ele>
        <time>2022-01-28T02:36:48Z</time>
      </trkpt>
      <trkpt lat="44.9862" lon="2.81064">
        <ele>830</ele>
        <time>2022-01-28T02:36:51Z</time>
      </trkpt>
      <trkpt lat="44.98638" lon="2.8107">
        <ele>831</ele>
        <time>2022-01-28T02:36:54Z</time>
      </trkpt>
      <trkpt lat="44.98647" lon="2.81075">
        <ele>832</ele>
        <time>2022-01-28T02:36:56Z</time>
      </trkpt>
      <trkpt lat="44.98662" lon="2.81093">
        <ele>833</ele>
        <time>2022-01-28T02:36:59Z</time>
      </trkpt>
      <trkpt lat="44.98675" lon="2.81116">
        <ele>836</ele>
        <time>2022-01-28T02:37:03Z</time>
      </trkpt>
      <trkpt lat="44.98685" lon="2.81121">
        <ele>836</ele>
        <time>2022-01-28T02:37:05Z</time>
      </trkpt>
      <trkpt lat="44.98771" lon="2.81113">
        <ele>838</ele>
        <time>2022-01-28T02:37:20Z</time>
      </trkpt>
      <trkpt lat="44.98793" lon="2.81101">
        <ele>837</ele>
        <time>2022-01-28T02:37:24Z</time>
      </trkpt>
      <trkpt lat="44.98813" lon="2.81096">
        <ele>837</ele>
        <time>2022-01-28T02:37:28Z</time>
      </trkpt>
      <trkpt lat="44.98834" lon="2.81096">
        <ele>838</ele>
        <time>2022-01-28T02:37:32Z</time>
      </trkpt>
      <trkpt lat="44.98881" lon="2.81103">
        <ele>837</ele>
        <time>2022-01-28T02:37:40Z</time>
      </trkpt>
      <trkpt lat="44.98942" lon="2.81119">
        <ele>838</ele>
        <time>2022-01-28T02:37:51Z</time>
      </trkpt>
      <trkpt lat="44.98994" lon="2.81123">
        <ele>837</ele>
        <time>2022-01-28T02:38:00Z</time>
      </trkpt>
      <trkpt lat="44.99038" lon="2.81134">
        <ele>838</ele>
        <time>2022-01-28T02:38:08Z</time>
      </trkpt>
      <trkpt lat="44.99103" lon="2.81156">
        <ele>841</ele>
        <time>2022-01-28T02:38:20Z</time>
      </trkpt>
      <trkpt lat="44.9916" lon="2.81154">
        <ele>843</ele>
        <time>2022-01-28T02:38:30Z</time>
      </trkpt>
      <trkpt lat="44.99187" lon="2.81151">
        <ele>845</ele>
        <time>2022-01-28T02:38:35Z</time>
      </trkpt>
      <trkpt lat="44.99207" lon="2.81143">
        <ele>846</ele>
        <time>2022-01-28T02:38:39Z</time>
      </trkpt>
      <trkpt lat="44.99315" lon="2.81084">
        <ele>846</ele>
        <time>2022-01-28T02:38:59Z</time>
      </trkpt>
      <trkpt lat="44.99359" lon="2.81066">
        <ele>851</ele>
        <time>2022-01-28T02:39:08Z</time>
      </trkpt>
      <trkpt lat="44.99388" lon="2.8105">
        <ele>853</ele>
        <time>2022-01-28T02:39:13Z</time>
      </trkpt>
      <trkpt lat="44.99426" lon="2.81016">
        <ele>852</ele>
        <time>2022-01-28T02:39:21Z</time>
      </trkpt>
      <trkpt lat="44.99468" lon="2.80986">
        <ele>852</ele>
        <time>2022-01-28T02:39:29Z</time>
      </trkpt>
      <trkpt lat="44.99494" lon="2.80979">
        <ele>854</ele>
        <time>2022-01-28T02:39:34Z</time>
      </trkpt>
      <trkpt lat="44.9953" lon="2.80975">
        <ele>857</ele>
        <time>2022-01-28T02:39:41Z</time>
      </trkpt>
      <trkpt lat="44.99552" lon="2.80958">
        <ele>857</ele>
        <time>2022-01-28T02:39:45Z</time>
      </trkpt>
      <trkpt lat="44.99579" lon="2.8093">
        <ele>855</ele>
        <time>2022-01-28T02:39:51Z</time>
      </trkpt>
      <trkpt lat="44.99595" lon="2.80921">
        <ele>856</ele>
        <time>2022-01-28T02:39:54Z</time>
      </trkpt>
      <trkpt lat="44.99616" lon="2.80916">
        <ele>857</ele>
        <time>2022-01-28T02:39:58Z</time>
      </trkpt>
      <trkpt lat="44.99638" lon="2.80916">
        <ele>859</ele>
        <time>2022-01-28T02:40:02Z</time>
      </trkpt>
      <trkpt lat="44.99663" lon="2.80912">
        <ele>861</ele>
        <time>2022-01-28T02:40:06Z</time>
      </trkpt>
      <trkpt lat="44.99685" lon="2.80897">
        <ele>863</ele>
        <time>2022-01-28T02:40:11Z</time>
      </trkpt>
      <trkpt lat="44.99707" lon="2.80873">
        <ele>865</ele>
        <time>2022-01-28T02:40:16Z</time>
      </trkpt>
      <trkpt lat="44.99728" lon="2.80846">
        <ele>866</ele>
        <time>2022-01-28T02:40:21Z</time>
      </trkpt>
      <trkpt lat="44.99838" lon="2.80748">
        <ele>875</ele>
        <time>2022-01-28T02:40:44Z</time>
      </trkpt>
      <trkpt lat="44.99863" lon="2.80721">
        <ele>876</ele>
        <time>2022-01-28T02:40:49Z</time>
      </trkpt>
      <trkpt lat="44.99891" lon="2.8068">
        <ele>877</ele>
        <time>2022-01-28T02:40:56Z</time>
      </trkpt>
      <trkpt lat="44.99913" lon="2.80655">
        <ele>878</ele>
        <time>2022-01-28T02:41:01Z</time>
      </trkpt>
      <trkpt lat="44.99986" lon="2.80596">
        <ele>881</ele>
        <time>2022-01-28T02:41:16Z</time>
      </trkpt>
      <trkpt lat="45.00009" lon="2.80573">
        <ele>882</ele>
        <time>2022-01-28T02:41:21Z</time>
      </trkpt>
      <trkpt lat="45.00028" lon="2.80547">
        <ele>882</ele>
        <time>2022-01-28T02:41:26Z</time>
      </trkpt>
      <trkpt lat="45.00066" lon="2.80487">
        <ele>879</ele>
        <time>2022-01-28T02:41:36Z</time>
      </trkpt>
      <trkpt lat="45.00103" lon="2.80435">
        <ele>877</ele>
        <time>2022-01-28T02:41:46Z</time>
      </trkpt>
      <trkpt lat="45.00122" lon="2.80415">
        <ele>877</ele>
        <time>2022-01-28T02:41:50Z</time>
      </trkpt>
      <trkpt lat="45.00153" lon="2.80393">
        <ele>879</ele>
        <time>2022-01-28T02:41:56Z</time>
      </trkpt>
      <trkpt lat="45.00161" lon="2.80382">
        <ele>879</ele>
        <time>2022-01-28T02:41:58Z</time>
      </trkpt>
      <trkpt lat="45.00174" lon="2.80353">
        <ele>876</ele>
        <time>2022-01-28T02:42:02Z</time>
      </trkpt>
      <trkpt lat="45.00211" lon="2.80283">
        <ele>877</ele>
        <time>2022-01-28T02:42:13Z</time>
      </trkpt>
      <trkpt lat="45.00233" lon="2.80237">
        <ele>876</ele>
        <time>2022-01-28T02:42:20Z</time>
      </trkpt>
      <trkpt lat="45.00245" lon="2.80209">
        <ele>877</ele>
        <time>2022-01-28T02:42:24Z</time>
      </trkpt>
      <trkpt lat="45.00254" lon="2.80171">
        <ele>877</ele>
        <time>2022-01-28T02:42:29Z</time>
      </trkpt>
      <trkpt lat="45.00256" lon="2.80148">
        <ele>877</ele>
        <time>2022-01-28T02:42:32Z</time>
      </trkpt>
      <trkpt lat="45.00264" lon="2.80111">
        <ele>878</ele>
        <time>2022-01-28T02:42:37Z</time>
      </trkpt>
      <trkpt lat="45.00277" lon="2.80076">
        <ele>880</ele>
        <time>2022-01-28T02:42:42Z</time>
      </trkpt>
      <trkpt lat="45.00308" lon="2.80002">
        <ele>884</ele>
        <time>2022-01-28T02:42:53Z</time>
      </trkpt>
      <trkpt lat="45.00338" lon="2.79918">
        <ele>891</ele>
        <time>2022-01-28T02:43:05Z</time>
      </trkpt>
      <trkpt lat="45.00381" lon="2.7976">
        <ele>900</ele>
        <time>2022-01-28T02:43:26Z</time>
      </trkpt>
      <trkpt lat="45.00384" lon="2.79737">
        <ele>900</ele>
        <time>2022-01-28T02:43:29Z</time>
      </trkpt>
      <trkpt lat="45.00386" lon="2.79705">
        <ele>899</ele>
        <time>2022-01-28T02:43:33Z</time>
      </trkpt>
      <trkpt lat="45.00392" lon="2.79681">
        <ele>900</ele>
        <time>2022-01-28T02:43:36Z</time>
      </trkpt>
      <trkpt lat="45.00443" lon="2.7959">
        <ele>907</ele>
        <time>2022-01-28T02:43:51Z</time>
      </trkpt>
      <trkpt lat="45.00458" lon="2.79544">
        <ele>909</ele>
        <time>2022-01-28T02:43:57Z</time>
      </trkpt>
      <trkpt lat="45.00469" lon="2.79502">
        <ele>909</ele>
        <time>2022-01-28T02:44:03Z</time>
      </trkpt>
      <trkpt lat="45.0051" lon="2.7941">
        <ele>913</ele>
        <time>2022-01-28T02:44:17Z</time>
      </trkpt>
      <trkpt lat="45.00577" lon="2.79301">
        <ele>915</ele>
        <time>2022-01-28T02:44:35Z</time>
      </trkpt>
      <trkpt lat="45.00627" lon="2.792">
        <ele>918</ele>
        <time>2022-01-28T02:44:50Z</time>
      </trkpt>
      <trkpt lat="45.00679" lon="2.79119">
        <ele>922</ele>
        <time>2022-01-28T02:45:04Z</time>
      </trkpt>
      <trkpt lat="45.0069" lon="2.79098">
        <ele>923</ele>
        <time>2022-01-28T02:45:07Z</time>
      </trkpt>
      <trkpt lat="45.00734" lon="2.78961">
        <ele>921</ele>
        <time>2022-01-28T02:45:26Z</time>
      </trkpt>
      <trkpt lat="45.00749" lon="2.78927">
        <ele>921</ele>
        <time>2022-01-28T02:45:31Z</time>
      </trkpt>
      <trkpt lat="45.00776" lon="2.78874">
        <ele>923</ele>
        <time>2022-01-28T02:45:40Z</time>
      </trkpt>
      <trkpt lat="45.00805" lon="2.78823">
        <ele>924</ele>
        <time>2022-01-28T02:45:48Z</time>
      </trkpt>
      <trkpt lat="45.00827" lon="2.78787">
        <ele>925</ele>
        <time>2022-01-28T02:45:54Z</time>
      </trkpt>
      <trkpt lat="45.00895" lon="2.78695">
        <ele>929</ele>
        <time>2022-01-28T02:46:11Z</time>
      </trkpt>
      <trkpt lat="45.00957" lon="2.78617">
        <ele>931</ele>
        <time>2022-01-28T02:46:25Z</time>
      </trkpt>
      <trkpt lat="45.0101" lon="2.78509">
        <ele>931</ele>
        <time>2022-01-28T02:46:42Z</time>
      </trkpt>
      <trkpt lat="45.01017" lon="2.78493">
        <ele>932</ele>
        <time>2022-01-28T02:46:44Z</time>
      </trkpt>
      <trkpt lat="45.01018" lon="2.78472">
        <ele>931</ele>
        <time>2022-01-28T02:46:47Z</time>
      </trkpt>
      <trkpt lat="45.01016" lon="2.78439">
        <ele>931</ele>
        <time>2022-01-28T02:46:51Z</time>
      </trkpt>
      <trkpt lat="45.01023" lon="2.78247">
        <ele>929</ele>
        <time>2022-01-28T02:47:15Z</time>
      </trkpt>
      <trkpt lat="45.01033" lon="2.7823">
        <ele>930</ele>
        <time>2022-01-28T02:47:18Z</time>
      </trkpt>
      <trkpt lat="45.0105" lon="2.78165">
        <ele>932</ele>
        <time>2022-01-28T02:47:27Z</time>
      </trkpt>
      <trkpt lat="45.0106" lon="2.78153">
        <ele>932</ele>
        <time>2022-01-28T02:47:29Z</time>
      </trkpt>
      <trkpt lat="45.01091" lon="2.781">
        <ele>933</ele>
        <time>2022-01-28T02:47:38Z</time>
      </trkpt>
      <trkpt lat="45.01116" lon="2.78074">
        <ele>935</ele>
        <time>2022-01-28T02:47:43Z</time>
      </trkpt>
      <trkpt lat="45.01191" lon="2.78013">
        <ele>944</ele>
        <time>2022-01-28T02:47:59Z</time>
      </trkpt>
      <trkpt lat="45.01212" lon="2.77965">
        <ele>945</ele>
        <time>2022-01-28T02:48:06Z</time>
      </trkpt>
      <trkpt lat="45.0127" lon="2.77905">
        <ele>950</ele>
        <time>2022-01-28T02:48:18Z</time>
      </trkpt>
      <trkpt lat="45.01274" lon="2.77885">
        <ele>949</ele>
        <time>2022-01-28T02:48:21Z</time>
      </trkpt>
      <trkpt lat="45.0128" lon="2.77869">
        <ele>949</ele>
        <time>2022-01-28T02:48:23Z</time>
      </trkpt>
      <trkpt lat="45.01298" lon="2.7786">
        <ele>950</ele>
        <time>2022-01-28T02:48:27Z</time>
      </trkpt>
      <trkpt lat="45.01311" lon="2.77846">
        <ele>951</ele>
        <time>2022-01-28T02:48:30Z</time>
      </trkpt>
      <trkpt lat="45.01323" lon="2.77838">
        <ele>952</ele>
        <time>2022-01-28T02:48:32Z</time>
      </trkpt>
      <trkpt lat="45.01345" lon="2.7783">
        <ele>954</ele>
        <time>2022-01-28T02:48:36Z</time>
      </trkpt>
      <trkpt lat="45.0136" lon="2.77828">
        <ele>955</ele>
        <time>2022-01-28T02:48:39Z</time>
      </trkpt>
      <trkpt lat="45.01371" lon="2.77831">
        <ele>957</ele>
        <time>2022-01-28T02:48:41Z</time>
      </trkpt>
      <trkpt lat="45.01386" lon="2.77844">
        <ele>961</ele>
        <time>2022-01-28T02:48:44Z</time>
      </trkpt>
      <trkpt lat="45.01386" lon="2.77864">
        <ele>964</ele>
        <time>2022-01-28T02:48:46Z</time>
      </trkpt>
      <trkpt lat="45.0138" lon="2.77876">
        <ele>964</ele>
        <time>2022-01-28T02:48:48Z</time>
      </trkpt>
      <trkpt lat="45.01346" lon="2.7793">
        <ele>964</ele>
        <time>2022-01-28T02:48:57Z</time>
      </trkpt>
      <trkpt lat="45.01331" lon="2.77964">
        <ele>965</ele>
        <time>2022-01-28T02:49:02Z</time>
      </trkpt>
      <trkpt lat="45.01326" lon="2.77984">
        <ele>967</ele>
        <time>2022-01-28T02:49:05Z</time>
      </trkpt>
      <trkpt lat="45.01325" lon="2.78025">
        <ele>971</ele>
        <time>2022-01-28T02:49:10Z</time>
      </trkpt>
      <trkpt lat="45.01318" lon="2.78055">
        <ele>973</ele>
        <time>2022-01-28T02:49:14Z</time>
      </trkpt>
      <trkpt lat="45.01299" lon="2.78115">
        <ele>976</ele>
        <time>2022-01-28T02:49:22Z</time>
      </trkpt>
      <trkpt lat="45.01253" lon="2.78313">
        <ele>989</ele>
        <time>2022-01-28T02:49:49Z</time>
      </trkpt>
      <trkpt lat="45.01241" lon="2.78347">
        <ele>989</ele>
        <time>2022-01-28T02:49:53Z</time>
      </trkpt>
      <trkpt lat="45.01236" lon="2.78373">
        <ele>990</ele>
        <time>2022-01-28T02:49:57Z</time>
      </trkpt>
      <trkpt lat="45.01235" lon="2.78392">
        <ele>991</ele>
        <time>2022-01-28T02:49:59Z</time>
      </trkpt>
      <trkpt lat="45.01221" lon="2.78493">
        <ele>995</ele>
        <time>2022-01-28T02:50:12Z</time>
      </trkpt>
      <trkpt lat="45.0122" lon="2.78515">
        <ele>997</ele>
        <time>2022-01-28T02:50:15Z</time>
      </trkpt>
      <trkpt lat="45.01225" lon="2.78551">
        <ele>1003</ele>
        <time>2022-01-28T02:50:20Z</time>
      </trkpt>
      <trkpt lat="45.01195" lon="2.78621">
        <ele>1005</ele>
        <time>2022-01-28T02:50:30Z</time>
      </trkpt>
      <trkpt lat="45.01176" lon="2.78657">
        <ele>1009</ele>
        <time>2022-01-28T02:50:35Z</time>
      </trkpt>
      <trkpt lat="45.01123" lon="2.78746">
        <ele>1012</ele>
        <time>2022-01-28T02:50:50Z</time>
      </trkpt>
      <trkpt lat="45.01101" lon="2.78786">
        <ele>1014</ele>
        <time>2022-01-28T02:50:57Z</time>
      </trkpt>
      <trkpt lat="45.01089" lon="2.78814">
        <ele>1017</ele>
        <time>2022-01-28T02:51:01Z</time>
      </trkpt>
      <trkpt lat="45.01038" lon="2.78984">
        <ele>1027</ele>
        <time>2022-01-28T02:51:24Z</time>
      </trkpt>
      <trkpt lat="45.01032" lon="2.79018">
        <ele>1030</ele>
        <time>2022-01-28T02:51:28Z</time>
      </trkpt>
      <trkpt lat="45.01006" lon="2.79125">
        <ele>1037</ele>
        <time>2022-01-28T02:51:43Z</time>
      </trkpt>
      <trkpt lat="45.00997" lon="2.79152">
        <ele>1038</ele>
        <time>2022-01-28T02:51:46Z</time>
      </trkpt>
      <trkpt lat="45.00989" lon="2.79183">
        <ele>1040</ele>
        <time>2022-01-28T02:51:50Z</time>
      </trkpt>
      <trkpt lat="45.00976" lon="2.79219">
        <ele>1042</ele>
        <time>2022-01-28T02:51:55Z</time>
      </trkpt>
      <trkpt lat="45.00949" lon="2.79302">
        <ele>1045</ele>
        <time>2022-01-28T02:52:07Z</time>
      </trkpt>
      <trkpt lat="45.00927" lon="2.79389">
        <ele>1050</ele>
        <time>2022-01-28T02:52:19Z</time>
      </trkpt>
      <trkpt lat="45.00907" lon="2.79495">
        <ele>1058</ele>
        <time>2022-01-28T02:52:32Z</time>
      </trkpt>
      <trkpt lat="45.00901" lon="2.79519">
        <ele>1060</ele>
        <time>2022-01-28T02:52:36Z</time>
      </trkpt>
      <trkpt lat="45.00886" lon="2.79549">
        <ele>1060</ele>
        <time>2022-01-28T02:52:40Z</time>
      </trkpt>
      <trkpt lat="45.00874" lon="2.79581">
        <ele>1061</ele>
        <time>2022-01-28T02:52:45Z</time>
      </trkpt>
      <trkpt lat="45.00858" lon="2.79638">
        <ele>1065</ele>
        <time>2022-01-28T02:52:53Z</time>
      </trkpt>
      <trkpt lat="45.00842" lon="2.79702">
        <ele>1069</ele>
        <time>2022-01-28T02:53:01Z</time>
      </trkpt>
      <trkpt lat="45.00839" lon="2.79724">
        <ele>1072</ele>
        <time>2022-01-28T02:53:04Z</time>
      </trkpt>
      <trkpt lat="45.00837" lon="2.79778">
        <ele>1078</ele>
        <time>2022-01-28T02:53:11Z</time>
      </trkpt>
      <trkpt lat="45.00829" lon="2.79824">
        <ele>1079</ele>
        <time>2022-01-28T02:53:17Z</time>
      </trkpt>
      <trkpt lat="45.0083" lon="2.79867">
        <ele>1084</ele>
        <time>2022-01-28T02:53:22Z</time>
      </trkpt>
      <trkpt lat="45.00825" lon="2.79893">
        <ele>1084</ele>
        <time>2022-01-28T02:53:25Z</time>
      </trkpt>
      <trkpt lat="45.0082" lon="2.79949">
        <ele>1084</ele>
        <time>2022-01-28T02:53:33Z</time>
      </trkpt>
      <trkpt lat="45.0082" lon="2.79973">
        <ele>1084</ele>
        <time>2022-01-28T02:53:36Z</time>
      </trkpt>
      <trkpt lat="45.00824" lon="2.80004">
        <ele>1086</ele>
        <time>2022-01-28T02:53:40Z</time>
      </trkpt>
      <trkpt lat="45.0084" lon="2.80043">
        <ele>1087</ele>
        <time>2022-01-28T02:53:45Z</time>
      </trkpt>
      <trkpt lat="45.00855" lon="2.80072">
        <ele>1089</ele>
        <time>2022-01-28T02:53:50Z</time>
      </trkpt>
      <trkpt lat="45.00869" lon="2.80084">
        <ele>1093</ele>
        <time>2022-01-28T02:53:53Z</time>
      </trkpt>
      <trkpt lat="45.00881" lon="2.80091">
        <ele>1096</ele>
        <time>2022-01-28T02:53:55Z</time>
      </trkpt>
      <trkpt lat="45.00921" lon="2.80104">
        <ele>1107</ele>
        <time>2022-01-28T02:54:02Z</time>
      </trkpt>
      <trkpt lat="45.00941" lon="2.80117">
        <ele>1107</ele>
        <time>2022-01-28T02:54:06Z</time>
      </trkpt>
      <trkpt lat="45.00986" lon="2.80151">
        <ele>1105</ele>
        <time>2022-01-28T02:54:15Z</time>
      </trkpt>
      <trkpt lat="45.01042" lon="2.8018">
        <ele>1110</ele>
        <time>2022-01-28T02:54:26Z</time>
      </trkpt>
      <trkpt lat="45.0106" lon="2.80194">
        <ele>1111</ele>
        <time>2022-01-28T02:54:29Z</time>
      </trkpt>
      <trkpt lat="45.0108" lon="2.80225">
        <ele>1108</ele>
        <time>2022-01-28T02:54:35Z</time>
      </trkpt>
      <trkpt lat="45.01095" lon="2.80236">
        <ele>1107</ele>
        <time>2022-01-28T02:54:38Z</time>
      </trkpt>
      <trkpt lat="45.01107" lon="2.8024">
        <ele>1107</ele>
        <time>2022-01-28T02:54:40Z</time>
      </trkpt>
      <trkpt lat="45.01124" lon="2.80234">
        <ele>1110</ele>
        <time>2022-01-28T02:54:43Z</time>
      </trkpt>
      <trkpt lat="45.01236" lon="2.80166">
        <ele>1131</ele>
        <time>2022-01-28T02:55:05Z</time>
      </trkpt>
      <trkpt lat="45.01261" lon="2.80159">
        <ele>1134</ele>
        <time>2022-01-28T02:55:09Z</time>
      </trkpt>
      <trkpt lat="45.01307" lon="2.80161">
        <ele>1136</ele>
        <time>2022-01-28T02:55:17Z</time>
      </trkpt>
      <trkpt lat="45.01354" lon="2.80186">
        <ele>1136</ele>
        <time>2022-01-28T02:55:26Z</time>
      </trkpt>
      <trkpt lat="45.014" lon="2.80218">
        <ele>1137</ele>
        <time>2022-01-28T02:55:36Z</time>
      </trkpt>
      <trkpt lat="45.01455" lon="2.80229">
        <ele>1144</ele>
        <time>2022-01-28T02:55:45Z</time>
      </trkpt>
      <trkpt lat="45.01472" lon="2.80235">
        <ele>1146</ele>
        <time>2022-01-28T02:55:49Z</time>
      </trkpt>
      <trkpt lat="45.01486" lon="2.80241">
        <ele>1147</ele>
        <time>2022-01-28T02:55:51Z</time>
      </trkpt>
      <trkpt lat="45.01515" lon="2.80264">
        <ele>1147</ele>
        <time>2022-01-28T02:55:57Z</time>
      </trkpt>
      <trkpt lat="45.01525" lon="2.80267">
        <ele>1148</ele>
        <time>2022-01-28T02:55:59Z</time>
      </trkpt>
      <trkpt lat="45.01536" lon="2.80266">
        <ele>1149</ele>
        <time>2022-01-28T02:56:01Z</time>
      </trkpt>
      <trkpt lat="45.01559" lon="2.80256">
        <ele>1151</ele>
        <time>2022-01-28T02:56:05Z</time>
      </trkpt>
      <trkpt lat="45.01612" lon="2.80243">
        <ele>1158</ele>
        <time>2022-01-28T02:56:15Z</time>
      </trkpt>
      <trkpt lat="45.01669" lon="2.80234">
        <ele>1167</ele>
        <time>2022-01-28T02:56:25Z</time>
      </trkpt>
      <trkpt lat="45.0169" lon="2.80228">
        <ele>1171</ele>
        <time>2022-01-28T02:56:29Z</time>
      </trkpt>
      <trkpt lat="45.01701" lon="2.80231">
        <ele>1171</ele>
        <time>2022-01-28T02:56:31Z</time>
      </trkpt>
      <trkpt lat="45.01711" lon="2.80239">
        <ele>1171</ele>
        <time>2022-01-28T02:56:33Z</time>
      </trkpt>
      <trkpt lat="45.01715" lon="2.80253">
        <ele>1169</ele>
        <time>2022-01-28T02:56:35Z</time>
      </trkpt>
      <trkpt lat="45.01715" lon="2.80271">
        <ele>1171</ele>
        <time>2022-01-28T02:56:37Z</time>
      </trkpt>
      <trkpt lat="45.01709" lon="2.80286">
        <ele>1172</ele>
        <time>2022-01-28T02:56:39Z</time>
      </trkpt>
      <trkpt lat="45.01674" lon="2.80328">
        <ele>1168</ele>
        <time>2022-01-28T02:56:47Z</time>
      </trkpt>
      <trkpt lat="45.01621" lon="2.80378">
        <ele>1174</ele>
        <time>2022-01-28T02:56:59Z</time>
      </trkpt>
      <trkpt lat="45.01583" lon="2.80406">
        <ele>1176</ele>
        <time>2022-01-28T02:57:06Z</time>
      </trkpt>
      <trkpt lat="45.01536" lon="2.80431">
        <ele>1178</ele>
        <time>2022-01-28T02:57:15Z</time>
      </trkpt>
      <trkpt lat="45.01502" lon="2.80452">
        <ele>1181</ele>
        <time>2022-01-28T02:57:22Z</time>
      </trkpt>
      <trkpt lat="45.01477" lon="2.80472">
        <ele>1186</ele>
        <time>2022-01-28T02:57:27Z</time>
      </trkpt>
      <trkpt lat="45.01417" lon="2.80497">
        <ele>1188</ele>
        <time>2022-01-28T02:57:38Z</time>
      </trkpt>
      <trkpt lat="45.01371" lon="2.80531">
        <ele>1193</ele>
        <time>2022-01-28T02:57:47Z</time>
      </trkpt>
      <trkpt lat="45.0135" lon="2.80555">
        <ele>1197</ele>
        <time>2022-01-28T02:57:52Z</time>
      </trkpt>
      <trkpt lat="45.01327" lon="2.80592">
        <ele>1202</ele>
        <time>2022-01-28T02:57:58Z</time>
      </trkpt>
      <trkpt lat="45.01303" lon="2.8064">
        <ele>1204</ele>
        <time>2022-01-28T02:58:06Z</time>
      </trkpt>
      <trkpt lat="45.01271" lon="2.80717">
        <ele>1204</ele>
        <time>2022-01-28T02:58:17Z</time>
      </trkpt>
      <trkpt lat="45.01254" lon="2.80776">
        <ele>1201</ele>
        <time>2022-01-28T02:58:25Z</time>
      </trkpt>
      <trkpt lat="45.01254" lon="2.80794">
        <ele>1201</ele>
        <time>2022-01-28T02:58:27Z</time>
      </trkpt>
      <trkpt lat="45.01263" lon="2.80825">
        <ele>1206</ele>
        <time>2022-01-28T02:58:31Z</time>
      </trkpt>
      <trkpt lat="45.01279" lon="2.80857">
        <ele>1210</ele>
        <time>2022-01-28T02:58:36Z</time>
      </trkpt>
      <trkpt lat="45.01289" lon="2.80872">
        <ele>1212</ele>
        <time>2022-01-28T02:58:39Z</time>
      </trkpt>
      <trkpt lat="45.01323" lon="2.80892">
        <ele>1222</ele>
        <time>2022-01-28T02:58:45Z</time>
      </trkpt>
      <trkpt lat="45.01333" lon="2.80902">
        <ele>1224</ele>
        <time>2022-01-28T02:58:48Z</time>
      </trkpt>
      <trkpt lat="45.01373" lon="2.8096">
        <ele>1229</ele>
        <time>2022-01-28T02:58:58Z</time>
      </trkpt>
      <trkpt lat="45.01378" lon="2.80973">
        <ele>1230</ele>
        <time>2022-01-28T02:59:00Z</time>
      </trkpt>
      <trkpt lat="45.01379" lon="2.81">
        <ele>1228</ele>
        <time>2022-01-28T02:59:03Z</time>
      </trkpt>
      <trkpt lat="45.0137" lon="2.81053">
        <ele>1228</ele>
        <time>2022-01-28T02:59:10Z</time>
      </trkpt>
      <trkpt lat="45.0137" lon="2.81082">
        <ele>1230</ele>
        <time>2022-01-28T02:59:14Z</time>
      </trkpt>
      <trkpt lat="45.01378" lon="2.81207">
        <ele>1239</ele>
        <time>2022-01-28T02:59:29Z</time>
      </trkpt>
      <trkpt lat="45.01378" lon="2.8123">
        <ele>1240</ele>
        <time>2022-01-28T02:59:32Z</time>
      </trkpt>
      <trkpt lat="45.01374" lon="2.81248">
        <ele>1240</ele>
        <time>2022-01-28T02:59:35Z</time>
      </trkpt>
      <trkpt lat="45.01351" lon="2.81315">
        <ele>1246</ele>
        <time>2022-01-28T02:59:44Z</time>
      </trkpt>
      <trkpt lat="45.0134" lon="2.81331">
        <ele>1247</ele>
        <time>2022-01-28T02:59:47Z</time>
      </trkpt>
      <trkpt lat="45.01328" lon="2.81334">
        <ele>1247</ele>
        <time>2022-01-28T02:59:49Z</time>
      </trkpt>
      <trkpt lat="45.01289" lon="2.81329">
        <ele>1249</ele>
        <time>2022-01-28T02:59:56Z</time>
      </trkpt>
      <trkpt lat="45.01254" lon="2.8133">
        <ele>1252</ele>
        <time>2022-01-28T03:00:02Z</time>
      </trkpt>
      <trkpt lat="45.01235" lon="2.8132">
        <ele>1252</ele>
        <time>2022-01-28T03:00:06Z</time>
      </trkpt>
      <trkpt lat="45.01219" lon="2.81306">
        <ele>1252</ele>
        <time>2022-01-28T03:00:09Z</time>
      </trkpt>
      <trkpt lat="45.01201" lon="2.81297">
        <ele>1253</ele>
        <time>2022-01-28T03:00:13Z</time>
      </trkpt>
      <trkpt lat="45.01192" lon="2.81296">
        <ele>1254</ele>
        <time>2022-01-28T03:00:14Z</time>
      </trkpt>
      <trkpt lat="45.01183" lon="2.81299">
        <ele>1256</ele>
        <time>2022-01-28T03:00:16Z</time>
      </trkpt>
      <trkpt lat="45.01152" lon="2.81319">
        <ele>1262</ele>
        <time>2022-01-28T03:00:22Z</time>
      </trkpt>
      <trkpt lat="45.01137" lon="2.81318">
        <ele>1263</ele>
        <time>2022-01-28T03:00:24Z</time>
      </trkpt>
      <trkpt lat="45.011" lon="2.81302">
        <ele>1264</ele>
        <time>2022-01-28T03:00:31Z</time>
      </trkpt>
      <trkpt lat="45.01079" lon="2.81304">
        <ele>1266</ele>
        <time>2022-01-28T03:00:35Z</time>
      </trkpt>
      <trkpt lat="45.01061" lon="2.81321">
        <ele>1268</ele>
        <time>2022-01-28T03:00:39Z</time>
      </trkpt>
      <trkpt lat="45.0105" lon="2.81343">
        <ele>1271</ele>
        <time>2022-01-28T03:00:42Z</time>
      </trkpt>
      <trkpt lat="45.01048" lon="2.81362">
        <ele>1273</ele>
        <time>2022-01-28T03:00:45Z</time>
      </trkpt>
      <trkpt lat="45.01048" lon="2.81376">
        <ele>1274</ele>
        <time>2022-01-28T03:00:47Z</time>
      </trkpt>
      <trkpt lat="45.01062" lon="2.81418">
        <ele>1277</ele>
        <time>2022-01-28T03:00:52Z</time>
      </trkpt>
      <trkpt lat="45.01064" lon="2.81441">
        <ele>1279</ele>
        <time>2022-01-28T03:00:55Z</time>
      </trkpt>
      <trkpt lat="45.01063" lon="2.8147">
        <ele>1282</ele>
        <time>2022-01-28T03:00:59Z</time>
      </trkpt>
      <trkpt lat="45.01069" lon="2.81493">
        <ele>1283</ele>
        <time>2022-01-28T03:01:02Z</time>
      </trkpt>
      <trkpt lat="45.01081" lon="2.81518">
        <ele>1284</ele>
        <time>2022-01-28T03:01:06Z</time>
      </trkpt>
      <trkpt lat="45.01105" lon="2.81545">
        <ele>1286</ele>
        <time>2022-01-28T03:01:11Z</time>
      </trkpt>
      <trkpt lat="45.01136" lon="2.81595">
        <ele>1289</ele>
        <time>2022-01-28T03:01:20Z</time>
      </trkpt>
      <trkpt lat="45.0117" lon="2.81664">
        <ele>1294</ele>
        <time>2022-01-28T03:01:30Z</time>
      </trkpt>
      <trkpt lat="45.01188" lon="2.81692">
        <ele>1296</ele>
        <time>2022-01-28T03:01:35Z</time>
      </trkpt>
      <trkpt lat="45.01205" lon="2.81703">
        <ele>1297</ele>
        <time>2022-01-28T03:01:38Z</time>
      </trkpt>
      <trkpt lat="45.01227" lon="2.81711">
        <ele>1299</ele>
        <time>2022-01-28T03:01:42Z</time>
      </trkpt>
      <trkpt lat="45.01286" lon="2.81724">
        <ele>1303</ele>
        <time>2022-01-28T03:01:53Z</time>
      </trkpt>
      <trkpt lat="45.01317" lon="2.81726">
        <ele>1306</ele>
        <time>2022-01-28T03:01:59Z</time>
      </trkpt>
      <trkpt lat="45.01421" lon="2.81722">
        <ele>1312</ele>
        <time>2022-01-28T03:02:17Z</time>
      </trkpt>
      <trkpt lat="45.01461" lon="2.81725">
        <ele>1314</ele>
        <time>2022-01-28T03:02:24Z</time>
      </trkpt>
      <trkpt lat="45.01518" lon="2.81741">
        <ele>1318</ele>
        <time>2022-01-28T03:02:34Z</time>
      </trkpt>
      <trkpt lat="45.01532" lon="2.81751">
        <ele>1319</ele>
        <time>2022-01-28T03:02:37Z</time>
      </trkpt>
      <trkpt lat="45.0157" lon="2.81796">
        <ele>1324</ele>
        <time>2022-01-28T03:02:46Z</time>
      </trkpt>
      <trkpt lat="45.01586" lon="2.8181">
        <ele>1326</ele>
        <time>2022-01-28T03:02:49Z</time>
      </trkpt>
      <trkpt lat="45.01605" lon="2.81814">
        <ele>1327</ele>
        <time>2022-01-28T03:02:53Z</time>
      </trkpt>
      <trkpt lat="45.01621" lon="2.81813">
        <ele>1328</ele>
        <time>2022-01-28T03:02:56Z</time>
      </trkpt>
      <trkpt lat="45.01662" lon="2.81799">
        <ele>1329</ele>
        <time>2022-01-28T03:03:03Z</time>
      </trkpt>
      <trkpt lat="45.01682" lon="2.81795">
        <ele>1330</ele>
        <time>2022-01-28T03:03:07Z</time>
      </trkpt>
      <trkpt lat="45.01744" lon="2.81791">
        <ele>1333</ele>
        <time>2022-01-28T03:03:18Z</time>
      </trkpt>
      <trkpt lat="45.0178" lon="2.81781">
        <ele>1335</ele>
        <time>2022-01-28T03:03:24Z</time>
      </trkpt>
      <trkpt lat="45.01793" lon="2.81783">
        <ele>1336</ele>
        <time>2022-01-28T03:03:27Z</time>
      </trkpt>
      <trkpt lat="45.01856" lon="2.81808">
        <ele>1338</ele>
        <time>2022-01-28T03:03:38Z</time>
      </trkpt>
      <trkpt lat="45.01878" lon="2.81814">
        <ele>1338</ele>
        <time>2022-01-28T03:03:42Z</time>
      </trkpt>
      <trkpt lat="45.01926" lon="2.81821">
        <ele>1337</ele>
        <time>2022-01-28T03:03:51Z</time>
      </trkpt>
      <trkpt lat="45.01948" lon="2.81828">
        <ele>1337</ele>
        <time>2022-01-28T03:03:55Z</time>
      </trkpt>
      <trkpt lat="45.01974" lon="2.81841">
        <ele>1337</ele>
        <time>2022-01-28T03:04:00Z</time>
      </trkpt>
      <trkpt lat="45.02002" lon="2.81859">
        <ele>1336</ele>
        <time>2022-01-28T03:04:05Z</time>
      </trkpt>
      <trkpt lat="45.02026" lon="2.81877">
        <ele>1336</ele>
        <time>2022-01-28T03:04:10Z</time>
      </trkpt>
      <trkpt lat="45.02043" lon="2.81896">
        <ele>1336</ele>
        <time>2022-01-28T03:04:14Z</time>
      </trkpt>
      <trkpt lat="45.02055" lon="2.81905">
        <ele>1337</ele>
        <time>2022-01-28T03:04:16Z</time>
      </trkpt>
      <trkpt lat="45.02065" lon="2.81908">
        <ele>1337</ele>
        <time>2022-01-28T03:04:18Z</time>
      </trkpt>
      <trkpt lat="45.02116" lon="2.81912">
        <ele>1340</ele>
        <time>2022-01-28T03:04:27Z</time>
      </trkpt>
      <trkpt lat="45.02165" lon="2.81936">
        <ele>1344</ele>
        <time>2022-01-28T03:04:37Z</time>
      </trkpt>
      <trkpt lat="45.02261" lon="2.81968">
        <ele>1352</ele>
        <time>2022-01-28T03:04:54Z</time>
      </trkpt>
      <trkpt lat="45.02299" lon="2.81983">
        <ele>1355</ele>
        <time>2022-01-28T03:05:01Z</time>
      </trkpt>
      <trkpt lat="45.02313" lon="2.81986">
        <ele>1356</ele>
        <time>2022-01-28T03:05:04Z</time>
      </trkpt>
      <trkpt lat="45.0235" lon="2.8198">
        <ele>1359</ele>
        <time>2022-01-28T03:05:10Z</time>
      </trkpt>
      <trkpt lat="45.02389" lon="2.81972">
        <ele>1360</ele>
        <time>2022-01-28T03:05:17Z</time>
      </trkpt>
      <trkpt lat="45.02431" lon="2.8196">
        <ele>1362</ele>
        <time>2022-01-28T03:05:25Z</time>
      </trkpt>
      <trkpt lat="45.0245" lon="2.8196">
        <ele>1363</ele>
        <time>2022-01-28T03:05:28Z</time>
      </trkpt>
      <trkpt lat="45.02466" lon="2.81964">
        <ele>1364</ele>
        <time>2022-01-28T03:05:31Z</time>
      </trkpt>
      <trkpt lat="45.02482" lon="2.81975">
        <ele>1365</ele>
        <time>2022-01-28T03:05:34Z</time>
      </trkpt>
      <trkpt lat="45.02497" lon="2.81992">
        <ele>1366</ele>
        <time>2022-01-28T03:05:38Z</time>
      </trkpt>
      <trkpt lat="45.02558" lon="2.82104">
        <ele>1366</ele>
        <time>2022-01-28T03:05:56Z</time>
      </trkpt>
      <trkpt lat="45.02648" lon="2.82204">
        <ele>1361</ele>
        <time>2022-01-28T03:06:16Z</time>
      </trkpt>
      <trkpt lat="45.02663" lon="2.82228">
        <ele>1359</ele>
        <time>2022-01-28T03:06:20Z</time>
      </trkpt>
      <trkpt lat="45.02669" lon="2.82262">
        <ele>1358</ele>
        <time>2022-01-28T03:06:24Z</time>
      </trkpt>
      <trkpt lat="45.0267" lon="2.8229">
        <ele>1356</ele>
        <time>2022-01-28T03:06:28Z</time>
      </trkpt>
      <trkpt lat="45.02663" lon="2.8234">
        <ele>1354</ele>
        <time>2022-01-28T03:06:34Z</time>
      </trkpt>
      <trkpt lat="45.02649" lon="2.82389">
        <ele>1351</ele>
        <time>2022-01-28T03:06:41Z</time>
      </trkpt>
      <trkpt lat="45.02647" lon="2.82428">
        <ele>1348</ele>
        <time>2022-01-28T03:06:46Z</time>
      </trkpt>
      <trkpt lat="45.02653" lon="2.82497">
        <ele>1344</ele>
        <time>2022-01-28T03:06:55Z</time>
      </trkpt>
      <trkpt lat="45.02653" lon="2.82525">
        <ele>1342</ele>
        <time>2022-01-28T03:06:58Z</time>
      </trkpt>
      <trkpt lat="45.02649" lon="2.82567">
        <ele>1339</ele>
        <time>2022-01-28T03:07:03Z</time>
      </trkpt>
      <trkpt lat="45.02637" lon="2.82605">
        <ele>1338</ele>
        <time>2022-01-28T03:07:09Z</time>
      </trkpt>
      <trkpt lat="45.02613" lon="2.82671">
        <ele>1336</ele>
        <time>2022-01-28T03:07:18Z</time>
      </trkpt>
      <trkpt lat="45.0257" lon="2.82805">
        <ele>1330</ele>
        <time>2022-01-28T03:07:36Z</time>
      </trkpt>
      <trkpt lat="45.02541" lon="2.82904">
        <ele>1325</ele>
        <time>2022-01-28T03:07:50Z</time>
      </trkpt>
      <trkpt lat="45.02532" lon="2.82955">
        <ele>1320</ele>
        <time>2022-01-28T03:07:57Z</time>
      </trkpt>
      <trkpt lat="45.0252" lon="2.82977">
        <ele>1318</ele>
        <time>2022-01-28T03:08:00Z</time>
      </trkpt>
      <trkpt lat="45.02499" lon="2.83">
        <ele>1318</ele>
        <time>2022-01-28T03:08:05Z</time>
      </trkpt>
      <trkpt lat="45.02475" lon="2.83054">
        <ele>1317</ele>
        <time>2022-01-28T03:08:13Z</time>
      </trkpt>
      <trkpt lat="45.02452" lon="2.8311">
        <ele>1315</ele>
        <time>2022-01-28T03:08:21Z</time>
      </trkpt>
      <trkpt lat="45.02431" lon="2.83216">
        <ele>1311</ele>
        <time>2022-01-28T03:08:35Z</time>
      </trkpt>
      <trkpt lat="45.02429" lon="2.8325">
        <ele>1309</ele>
        <time>2022-01-28T03:08:39Z</time>
      </trkpt>
      <trkpt lat="45.02431" lon="2.83258">
        <ele>1308</ele>
        <time>2022-01-28T03:08:40Z</time>
      </trkpt>
      <trkpt lat="45.02437" lon="2.83264">
        <ele>1306</ele>
        <time>2022-01-28T03:08:41Z</time>
      </trkpt>
      <trkpt lat="45.02449" lon="2.83266">
        <ele>1304</ele>
        <time>2022-01-28T03:08:44Z</time>
      </trkpt>
      <trkpt lat="45.02469" lon="2.83261">
        <ele>1301</ele>
        <time>2022-01-28T03:08:47Z</time>
      </trkpt>
      <trkpt lat="45.02493" lon="2.83247">
        <ele>1299</ele>
        <time>2022-01-28T03:08:52Z</time>
      </trkpt>
      <trkpt lat="45.02503" lon="2.83235">
        <ele>1298</ele>
        <time>2022-01-28T03:08:54Z</time>
      </trkpt>
      <trkpt lat="45.02572" lon="2.83142">
        <ele>1287</ele>
        <time>2022-01-28T03:09:11Z</time>
      </trkpt>
      <trkpt lat="45.02645" lon="2.83017">
        <ele>1281</ele>
        <time>2022-01-28T03:09:32Z</time>
      </trkpt>
      <trkpt lat="45.02672" lon="2.82962">
        <ele>1281</ele>
        <time>2022-01-28T03:09:40Z</time>
      </trkpt>
      <trkpt lat="45.02715" lon="2.82859">
        <ele>1278</ele>
        <time>2022-01-28T03:09:55Z</time>
      </trkpt>
      <trkpt lat="45.02734" lon="2.82831">
        <ele>1276</ele>
        <time>2022-01-28T03:10:00Z</time>
      </trkpt>
      <trkpt lat="45.02794" lon="2.82793">
        <ele>1265</ele>
        <time>2022-01-28T03:10:12Z</time>
      </trkpt>
      <trkpt lat="45.02877" lon="2.8271">
        <ele>1257</ele>
        <time>2022-01-28T03:10:30Z</time>
      </trkpt>
      <trkpt lat="45.02942" lon="2.82622">
        <ele>1247</ele>
        <time>2022-01-28T03:10:46Z</time>
      </trkpt>
      <trkpt lat="45.03002" lon="2.82552">
        <ele>1238</ele>
        <time>2022-01-28T03:11:00Z</time>
      </trkpt>
      <trkpt lat="45.03042" lon="2.82527">
        <ele>1236</ele>
        <time>2022-01-28T03:11:07Z</time>
      </trkpt>
      <trkpt lat="45.03108" lon="2.82502">
        <ele>1228</ele>
        <time>2022-01-28T03:11:19Z</time>
      </trkpt>
      <trkpt lat="45.03169" lon="2.82487">
        <ele>1221</ele>
        <time>2022-01-28T03:11:30Z</time>
      </trkpt>
      <trkpt lat="45.03188" lon="2.82484">
        <ele>1218</ele>
        <time>2022-01-28T03:11:34Z</time>
      </trkpt>
      <trkpt lat="45.03209" lon="2.82474">
        <ele>1216</ele>
        <time>2022-01-28T03:11:38Z</time>
      </trkpt>
      <trkpt lat="45.03231" lon="2.82451">
        <ele>1216</ele>
        <time>2022-01-28T03:11:43Z</time>
      </trkpt>
      <trkpt lat="45.03279" lon="2.82389">
        <ele>1217</ele>
        <time>2022-01-28T03:11:54Z</time>
      </trkpt>
      <trkpt lat="45.03319" lon="2.8236">
        <ele>1212</ele>
        <time>2022-01-28T03:12:02Z</time>
      </trkpt>
      <trkpt lat="45.03386" lon="2.82323">
        <ele>1205</ele>
        <time>2022-01-28T03:12:15Z</time>
      </trkpt>
      <trkpt lat="45.03404" lon="2.82317">
        <ele>1202</ele>
        <time>2022-01-28T03:12:18Z</time>
      </trkpt>
      <trkpt lat="45.03411" lon="2.8232">
        <ele>1201</ele>
        <time>2022-01-28T03:12:20Z</time>
      </trkpt>
      <trkpt lat="45.03414" lon="2.82324">
        <ele>1201</ele>
        <time>2022-01-28T03:12:20Z</time>
      </trkpt>
      <trkpt lat="45.03421" lon="2.8232">
        <ele>1201</ele>
        <time>2022-01-28T03:12:22Z</time>
      </trkpt>
      <trkpt lat="45.03439" lon="2.82322">
        <ele>1201</ele>
        <time>2022-01-28T03:12:25Z</time>
      </trkpt>
      <trkpt lat="45.03447" lon="2.82324">
        <ele>1201</ele>
        <time>2022-01-28T03:12:26Z</time>
      </trkpt>
      <trkpt lat="45.03464" lon="2.82324">
        <ele>1201</ele>
        <time>2022-01-28T03:12:29Z</time>
      </trkpt>
      <trkpt lat="45.03487" lon="2.82318">
        <ele>1202</ele>
        <time>2022-01-28T03:12:34Z</time>
      </trkpt>
      <trkpt lat="45.03597" lon="2.8225">
        <ele>1214</ele>
        <time>2022-01-28T03:12:55Z</time>
      </trkpt>
      <trkpt lat="45.03666" lon="2.82164">
        <ele>1223</ele>
        <time>2022-01-28T03:13:11Z</time>
      </trkpt>
      <trkpt lat="45.03878" lon="2.81965">
        <ele>1238</ele>
        <time>2022-01-28T03:13:57Z</time>
      </trkpt>
      <trkpt lat="45.0398" lon="2.81881">
        <ele>1246</ele>
        <time>2022-01-28T03:14:18Z</time>
      </trkpt>
      <trkpt lat="45.04078" lon="2.81744">
        <ele>1255</ele>
        <time>2022-01-28T03:14:42Z</time>
      </trkpt>
      <trkpt lat="45.04186" lon="2.81623">
        <ele>1264</ele>
        <time>2022-01-28T03:15:07Z</time>
      </trkpt>
      <trkpt lat="45.043" lon="2.81433">
        <ele>1277</ele>
        <time>2022-01-28T03:15:38Z</time>
      </trkpt>
      <trkpt lat="45.04386" lon="2.81263">
        <ele>1288</ele>
        <time>2022-01-28T03:16:04Z</time>
      </trkpt>
      <trkpt lat="45.04514" lon="2.80955">
        <ele>1306</ele>
        <time>2022-01-28T03:16:49Z</time>
      </trkpt>
      <trkpt lat="45.04552" lon="2.8086">
        <ele>1313</ele>
        <time>2022-01-28T03:17:03Z</time>
      </trkpt>
      <trkpt lat="45.0467" lon="2.80616">
        <ele>1326</ele>
        <time>2022-01-28T03:17:40Z</time>
      </trkpt>
      <trkpt lat="45.04722" lon="2.80482">
        <ele>1334</ele>
        <time>2022-01-28T03:17:59Z</time>
      </trkpt>
      <trkpt lat="45.04769" lon="2.80374">
        <ele>1340</ele>
        <time>2022-01-28T03:18:15Z</time>
      </trkpt>
      <trkpt lat="45.04809" lon="2.80292">
        <ele>1347</ele>
        <time>2022-01-28T03:18:28Z</time>
      </trkpt>
      <trkpt lat="45.04823" lon="2.80259">
        <ele>1348</ele>
        <time>2022-01-28T03:18:33Z</time>
      </trkpt>
      <trkpt lat="45.04834" lon="2.80226">
        <ele>1348</ele>
        <time>2022-01-28T03:18:37Z</time>
      </trkpt>
      <trkpt lat="45.04885" lon="2.80044">
        <ele>1353</ele>
        <time>2022-01-28T03:19:02Z</time>
      </trkpt>
      <trkpt lat="45.04894" lon="2.80021">
        <ele>1354</ele>
        <time>2022-01-28T03:19:05Z</time>
      </trkpt>
      <trkpt lat="45.04951" lon="2.79925">
        <ele>1362</ele>
        <time>2022-01-28T03:19:21Z</time>
      </trkpt>
      <trkpt lat="45.05062" lon="2.79746">
        <ele>1377</ele>
        <time>2022-01-28T03:19:51Z</time>
      </trkpt>
      <trkpt lat="45.05122" lon="2.79608">
        <ele>1384</ele>
        <time>2022-01-28T03:20:11Z</time>
      </trkpt>
      <trkpt lat="45.05144" lon="2.79556">
        <ele>1386</ele>
        <time>2022-01-28T03:20:19Z</time>
      </trkpt>
      <trkpt lat="45.0515" lon="2.79527">
        <ele>1388</ele>
        <time>2022-01-28T03:20:23Z</time>
      </trkpt>
      <trkpt lat="45.05155" lon="2.79464">
        <ele>1391</ele>
        <time>2022-01-28T03:20:30Z</time>
      </trkpt>
      <trkpt lat="45.05161" lon="2.79438">
        <ele>1391</ele>
        <time>2022-01-28T03:20:34Z</time>
      </trkpt>
      <trkpt lat="45.0517" lon="2.79424">
        <ele>1392</ele>
        <time>2022-01-28T03:20:36Z</time>
      </trkpt>
      <trkpt lat="45.0518" lon="2.79415">
        <ele>1392</ele>
        <time>2022-01-28T03:20:38Z</time>
      </trkpt>
      <trkpt lat="45.05192" lon="2.79411">
        <ele>1392</ele>
        <time>2022-01-28T03:20:41Z</time>
      </trkpt>
      <trkpt lat="45.05213" lon="2.79417">
        <ele>1392</ele>
        <time>2022-01-28T03:20:44Z</time>
      </trkpt>
      <trkpt lat="45.05226" lon="2.79417">
        <ele>1392</ele>
        <time>2022-01-28T03:20:47Z</time>
      </trkpt>
      <trkpt lat="45.05235" lon="2.79414">
        <ele>1392</ele>
        <time>2022-01-28T03:20:48Z</time>
      </trkpt>
      <trkpt lat="45.05244" lon="2.79408">
        <ele>1392</ele>
        <time>2022-01-28T03:20:50Z</time>
      </trkpt>
      <trkpt lat="45.0528" lon="2.79365">
        <ele>1389</ele>
        <time>2022-01-28T03:20:59Z</time>
      </trkpt>
      <trkpt lat="45.05288" lon="2.79359">
        <ele>1388</ele>
        <time>2022-01-28T03:21:00Z</time>
      </trkpt>
      <trkpt lat="45.05298" lon="2.79356">
        <ele>1387</ele>
        <time>2022-01-28T03:21:02Z</time>
      </trkpt>
      <trkpt lat="45.05312" lon="2.79357">
        <ele>1385</ele>
        <time>2022-01-28T03:21:04Z</time>
      </trkpt>
      <trkpt lat="45.05324" lon="2.79365">
        <ele>1385</ele>
        <time>2022-01-28T03:21:07Z</time>
      </trkpt>
      <trkpt lat="45.05346" lon="2.79392">
        <ele>1384</ele>
        <time>2022-01-28T03:21:12Z</time>
      </trkpt>
      <trkpt lat="45.05359" lon="2.79398">
        <ele>1384</ele>
        <time>2022-01-28T03:21:14Z</time>
      </trkpt>
      <trkpt lat="45.05375" lon="2.79402">
        <ele>1383</ele>
        <time>2022-01-28T03:21:17Z</time>
      </trkpt>
      <trkpt lat="45.05392" lon="2.79399">
        <ele>1381</ele>
        <time>2022-01-28T03:21:20Z</time>
      </trkpt>
      <trkpt lat="45.05443" lon="2.79381">
        <ele>1375</ele>
        <time>2022-01-28T03:21:30Z</time>
      </trkpt>
      <trkpt lat="45.05456" lon="2.79381">
        <ele>1373</ele>
        <time>2022-01-28T03:21:32Z</time>
      </trkpt>
      <trkpt lat="45.05475" lon="2.79388">
        <ele>1372</ele>
        <time>2022-01-28T03:21:36Z</time>
      </trkpt>
      <trkpt lat="45.05482" lon="2.79396">
        <ele>1371</ele>
        <time>2022-01-28T03:21:37Z</time>
      </trkpt>
      <trkpt lat="45.05503" lon="2.7943">
        <ele>1370</ele>
        <time>2022-01-28T03:21:43Z</time>
      </trkpt>
      <trkpt lat="45.05539" lon="2.79501">
        <ele>1367</ele>
        <time>2022-01-28T03:21:54Z</time>
      </trkpt>
      <trkpt lat="45.05572" lon="2.79591">
        <ele>1362</ele>
        <time>2022-01-28T03:22:07Z</time>
      </trkpt>
      <trkpt lat="45.0558" lon="2.79606">
        <ele>1360</ele>
        <time>2022-01-28T03:22:09Z</time>
      </trkpt>
      <trkpt lat="45.05617" lon="2.79666">
        <ele>1354</ele>
        <time>2022-01-28T03:22:19Z</time>
      </trkpt>
      <trkpt lat="45.05692" lon="2.79771">
        <ele>1345</ele>
        <time>2022-01-28T03:22:38Z</time>
      </trkpt>
      <trkpt lat="45.05787" lon="2.79858">
        <ele>1337</ele>
        <time>2022-01-28T03:22:58Z</time>
      </trkpt>
      <trkpt lat="45.05918" lon="2.79964">
        <ele>1322</ele>
        <time>2022-01-28T03:23:25Z</time>
      </trkpt>
      <trkpt lat="45.05989" lon="2.80045">
        <ele>1313</ele>
        <time>2022-01-28T03:23:41Z</time>
      </trkpt>
      <trkpt lat="45.06051" lon="2.80153">
        <ele>1308</ele>
        <time>2022-01-28T03:23:58Z</time>
      </trkpt>
      <trkpt lat="45.06137" lon="2.80355">
        <ele>1300</ele>
        <time>2022-01-28T03:24:28Z</time>
      </trkpt>
      <trkpt lat="45.06159" lon="2.8044">
        <ele>1295</ele>
        <time>2022-01-28T03:24:39Z</time>
      </trkpt>
      <trkpt lat="45.06161" lon="2.80492">
        <ele>1293</ele>
        <time>2022-01-28T03:24:46Z</time>
      </trkpt>
      <trkpt lat="45.06164" lon="2.80515">
        <ele>1292</ele>
        <time>2022-01-28T03:24:49Z</time>
      </trkpt>
      <trkpt lat="45.0617" lon="2.80532">
        <ele>1289</ele>
        <time>2022-01-28T03:24:51Z</time>
      </trkpt>
      <trkpt lat="45.06182" lon="2.80546">
        <ele>1286</ele>
        <time>2022-01-28T03:24:54Z</time>
      </trkpt>
      <trkpt lat="45.06192" lon="2.80548">
        <ele>1284</ele>
        <time>2022-01-28T03:24:56Z</time>
      </trkpt>
      <trkpt lat="45.06205" lon="2.80547">
        <ele>1282</ele>
        <time>2022-01-28T03:24:58Z</time>
      </trkpt>
      <trkpt lat="45.06217" lon="2.80541">
        <ele>1280</ele>
        <time>2022-01-28T03:25:00Z</time>
      </trkpt>
      <trkpt lat="45.06226" lon="2.80523">
        <ele>1279</ele>
        <time>2022-01-28T03:25:03Z</time>
      </trkpt>
      <trkpt lat="45.0623" lon="2.80502">
        <ele>1278</ele>
        <time>2022-01-28T03:25:06Z</time>
      </trkpt>
      <trkpt lat="45.06231" lon="2.80476">
        <ele>1279</ele>
        <time>2022-01-28T03:25:09Z</time>
      </trkpt>
      <trkpt lat="45.06236" lon="2.8045">
        <ele>1279</ele>
        <time>2022-01-28T03:25:13Z</time>
      </trkpt>
      <trkpt lat="45.06244" lon="2.80434">
        <ele>1278</ele>
        <time>2022-01-28T03:25:15Z</time>
      </trkpt>
      <trkpt lat="45.06256" lon="2.80421">
        <ele>1277</ele>
        <time>2022-01-28T03:25:18Z</time>
      </trkpt>
      <trkpt lat="45.06267" lon="2.80415">
        <ele>1277</ele>
        <time>2022-01-28T03:25:20Z</time>
      </trkpt>
      <trkpt lat="45.06279" lon="2.80411">
        <ele>1277</ele>
        <time>2022-01-28T03:25:22Z</time>
      </trkpt>
      <trkpt lat="45.06298" lon="2.80411">
        <ele>1278</ele>
        <time>2022-01-28T03:25:25Z</time>
      </trkpt>
      <trkpt lat="45.06313" lon="2.80416">
        <ele>1278</ele>
        <time>2022-01-28T03:25:28Z</time>
      </trkpt>
      <trkpt lat="45.06327" lon="2.80427">
        <ele>1277</ele>
        <time>2022-01-28T03:25:31Z</time>
      </trkpt>
      <trkpt lat="45.06337" lon="2.80442">
        <ele>1276</ele>
        <time>2022-01-28T03:25:34Z</time>
      </trkpt>
      <trkpt lat="45.06395" lon="2.80642">
        <ele>1263</ele>
        <time>2022-01-28T03:26:01Z</time>
      </trkpt>
      <trkpt lat="45.06429" lon="2.80712">
        <ele>1259</ele>
        <time>2022-01-28T03:26:11Z</time>
      </trkpt>
      <trkpt lat="45.06494" lon="2.80827">
        <ele>1252</ele>
        <time>2022-01-28T03:26:30Z</time>
      </trkpt>
      <trkpt lat="45.06501" lon="2.80845">
        <ele>1251</ele>
        <time>2022-01-28T03:26:33Z</time>
      </trkpt>
      <trkpt lat="45.06587" lon="2.81197">
        <ele>1230</ele>
        <time>2022-01-28T03:27:19Z</time>
      </trkpt>
      <trkpt lat="45.06656" lon="2.81397">
        <ele>1220</ele>
        <time>2022-01-28T03:27:47Z</time>
      </trkpt>
      <trkpt lat="45.06876" lon="2.81743">
        <ele>1202</ele>
        <time>2022-01-28T03:28:46Z</time>
      </trkpt>
      <trkpt lat="45.07028" lon="2.81957">
        <ele>1185</ele>
        <time>2022-01-28T03:29:24Z</time>
      </trkpt>
      <trkpt lat="45.07174" lon="2.8222">
        <ele>1168</ele>
        <time>2022-01-28T03:30:06Z</time>
      </trkpt>
      <trkpt lat="45.07218" lon="2.82317">
        <ele>1159</ele>
        <time>2022-01-28T03:30:20Z</time>
      </trkpt>
      <trkpt lat="45.07252" lon="2.82399">
        <ele>1153</ele>
        <time>2022-01-28T03:30:32Z</time>
      </trkpt>
      <trkpt lat="45.07257" lon="2.82423">
        <ele>1151</ele>
        <time>2022-01-28T03:30:36Z</time>
      </trkpt>
      <trkpt lat="45.07264" lon="2.82467">
        <ele>1148</ele>
        <time>2022-01-28T03:30:41Z</time>
      </trkpt>
      <trkpt lat="45.07272" lon="2.82536">
        <ele>1144</ele>
        <time>2022-01-28T03:30:50Z</time>
      </trkpt>
      <trkpt lat="45.07274" lon="2.82579">
        <ele>1141</ele>
        <time>2022-01-28T03:30:55Z</time>
      </trkpt>
      <trkpt lat="45.07273" lon="2.82632">
        <ele>1137</ele>
        <time>2022-01-28T03:31:02Z</time>
      </trkpt>
      <trkpt lat="45.07276" lon="2.82669">
        <ele>1134</ele>
        <time>2022-01-28T03:31:07Z</time>
      </trkpt>
      <trkpt lat="45.07281" lon="2.82694">
        <ele>1131</ele>
        <time>2022-01-28T03:31:10Z</time>
      </trkpt>
      <trkpt lat="45.07287" lon="2.82717">
        <ele>1129</ele>
        <time>2022-01-28T03:31:13Z</time>
      </trkpt>
      <trkpt lat="45.07297" lon="2.82736">
        <ele>1127</ele>
        <time>2022-01-28T03:31:16Z</time>
      </trkpt>
      <trkpt lat="45.07373" lon="2.82837">
        <ele>1116</ele>
        <time>2022-01-28T03:31:35Z</time>
      </trkpt>
      <trkpt lat="45.07386" lon="2.8286">
        <ele>1115</ele>
        <time>2022-01-28T03:31:38Z</time>
      </trkpt>
      <trkpt lat="45.07403" lon="2.82921">
        <ele>1113</ele>
        <time>2022-01-28T03:31:47Z</time>
      </trkpt>
      <trkpt lat="45.07409" lon="2.8295">
        <ele>1112</ele>
        <time>2022-01-28T03:31:50Z</time>
      </trkpt>
      <trkpt lat="45.07408" lon="2.82969">
        <ele>1111</ele>
        <time>2022-01-28T03:31:53Z</time>
      </trkpt>
      <trkpt lat="45.07392" lon="2.83076">
        <ele>1104</ele>
        <time>2022-01-28T03:32:07Z</time>
      </trkpt>
      <trkpt lat="45.0739" lon="2.83098">
        <ele>1102</ele>
        <time>2022-01-28T03:32:09Z</time>
      </trkpt>
      <trkpt lat="45.07391" lon="2.8312">
        <ele>1100</ele>
        <time>2022-01-28T03:32:12Z</time>
      </trkpt>
      <trkpt lat="45.07398" lon="2.83166">
        <ele>1098</ele>
        <time>2022-01-28T03:32:18Z</time>
      </trkpt>
      <trkpt lat="45.0741" lon="2.83205">
        <ele>1095</ele>
        <time>2022-01-28T03:32:23Z</time>
      </trkpt>
      <trkpt lat="45.07428" lon="2.83237">
        <ele>1093</ele>
        <time>2022-01-28T03:32:28Z</time>
      </trkpt>
      <trkpt lat="45.07468" lon="2.8328">
        <ele>1084</ele>
        <time>2022-01-28T03:32:37Z</time>
      </trkpt>
      <trkpt lat="45.07504" lon="2.83304">
        <ele>1078</ele>
        <time>2022-01-28T03:32:44Z</time>
      </trkpt>
      <trkpt lat="45.07526" lon="2.83313">
        <ele>1075</ele>
        <time>2022-01-28T03:32:49Z</time>
      </trkpt>
      <trkpt lat="45.07547" lon="2.83314">
        <ele>1072</ele>
        <time>2022-01-28T03:32:52Z</time>
      </trkpt>
      <trkpt lat="45.07565" lon="2.83307">
        <ele>1071</ele>
        <time>2022-01-28T03:32:56Z</time>
      </trkpt>
      <trkpt lat="45.0758" lon="2.83294">
        <ele>1071</ele>
        <time>2022-01-28T03:32:59Z</time>
      </trkpt>
      <trkpt lat="45.076" lon="2.83263">
        <ele>1069</ele>
        <time>2022-01-28T03:33:04Z</time>
      </trkpt>
      <trkpt lat="45.07628" lon="2.83186">
        <ele>1069</ele>
        <time>2022-01-28T03:33:15Z</time>
      </trkpt>
      <trkpt lat="45.07643" lon="2.83157">
        <ele>1068</ele>
        <time>2022-01-28T03:33:19Z</time>
      </trkpt>
      <trkpt lat="45.07653" lon="2.83145">
        <ele>1067</ele>
        <time>2022-01-28T03:33:22Z</time>
      </trkpt>
      <trkpt lat="45.07699" lon="2.83091">
        <ele>1064</ele>
        <time>2022-01-28T03:33:32Z</time>
      </trkpt>
      <trkpt lat="45.0772" lon="2.83079">
        <ele>1060</ele>
        <time>2022-01-28T03:33:36Z</time>
      </trkpt>
      <trkpt lat="45.07731" lon="2.83067">
        <ele>1059</ele>
        <time>2022-01-28T03:33:39Z</time>
      </trkpt>
      <trkpt lat="45.07743" lon="2.83044">
        <ele>1057</ele>
        <time>2022-01-28T03:33:42Z</time>
      </trkpt>
      <trkpt lat="45.07751" lon="2.83035">
        <ele>1056</ele>
        <time>2022-01-28T03:33:44Z</time>
      </trkpt>
      <trkpt lat="45.07756" lon="2.83033">
        <ele>1055</ele>
        <time>2022-01-28T03:33:45Z</time>
      </trkpt>
      <trkpt lat="45.07762" lon="2.83034">
        <ele>1054</ele>
        <time>2022-01-28T03:33:46Z</time>
      </trkpt>
      <trkpt lat="45.07773" lon="2.83041">
        <ele>1053</ele>
        <time>2022-01-28T03:33:48Z</time>
      </trkpt>
      <trkpt lat="45.07808" lon="2.83112">
        <ele>1048</ele>
        <time>2022-01-28T03:33:59Z</time>
      </trkpt>
      <trkpt lat="45.0782" lon="2.83156">
        <ele>1048</ele>
        <time>2022-01-28T03:34:05Z</time>
      </trkpt>
      <trkpt lat="45.07826" lon="2.83215">
        <ele>1050</ele>
        <time>2022-01-28T03:34:13Z</time>
      </trkpt>
      <trkpt lat="45.07816" lon="2.83271">
        <ele>1049</ele>
        <time>2022-01-28T03:34:20Z</time>
      </trkpt>
      <trkpt lat="45.07814" lon="2.8328">
        <ele>1049</ele>
        <time>2022-01-28T03:34:21Z</time>
      </trkpt>
      <trkpt lat="45.0781" lon="2.83284">
        <ele>1048</ele>
        <time>2022-01-28T03:34:22Z</time>
      </trkpt>
      <trkpt lat="45.07803" lon="2.83284">
        <ele>1048</ele>
        <time>2022-01-28T03:34:23Z</time>
      </trkpt>
      <trkpt lat="45.078" lon="2.83282">
        <ele>1047</ele>
        <time>2022-01-28T03:34:24Z</time>
      </trkpt>
      <trkpt lat="45.07789" lon="2.8326">
        <ele>1047</ele>
        <time>2022-01-28T03:34:27Z</time>
      </trkpt>
      <trkpt lat="45.07782" lon="2.83254">
        <ele>1047</ele>
        <time>2022-01-28T03:34:29Z</time>
      </trkpt>
      <trkpt lat="45.07773" lon="2.83252">
        <ele>1047</ele>
        <time>2022-01-28T03:34:30Z</time>
      </trkpt>
      <trkpt lat="45.07754" lon="2.83253">
        <ele>1045</ele>
        <time>2022-01-28T03:34:34Z</time>
      </trkpt>
      <trkpt lat="45.07746" lon="2.83258">
        <ele>1045</ele>
        <time>2022-01-28T03:34:35Z</time>
      </trkpt>
      <trkpt lat="45.0774" lon="2.83265">
        <ele>1045</ele>
        <time>2022-01-28T03:34:37Z</time>
      </trkpt>
      <trkpt lat="45.07736" lon="2.8327">
        <ele>1045</ele>
        <time>2022-01-28T03:34:38Z</time>
      </trkpt>
      <trkpt lat="45.07727" lon="2.83312">
        <ele>1043</ele>
        <time>2022-01-28T03:34:43Z</time>
      </trkpt>
      <trkpt lat="45.07674" lon="2.83498">
        <ele>1032</ele>
        <time>2022-01-28T03:35:08Z</time>
      </trkpt>
      <trkpt lat="45.07656" lon="2.83554">
        <ele>1029</ele>
        <time>2022-01-28T03:35:16Z</time>
      </trkpt>
      <trkpt lat="45.07661" lon="2.83568">
        <ele>1028</ele>
        <time>2022-01-28T03:35:18Z</time>
      </trkpt>
      <trkpt lat="45.07686" lon="2.83617">
        <ele>1025</ele>
        <time>2022-01-28T03:35:26Z</time>
      </trkpt>
      <trkpt lat="45.07767" lon="2.83768">
        <ele>1022</ele>
        <time>2022-01-28T03:35:49Z</time>
      </trkpt>
      <trkpt lat="45.0778" lon="2.83802">
        <ele>1022</ele>
        <time>2022-01-28T03:35:54Z</time>
      </trkpt>
      <trkpt lat="45.07796" lon="2.83877">
        <ele>1021</ele>
        <time>2022-01-28T03:36:04Z</time>
      </trkpt>
      <trkpt lat="45.07802" lon="2.83928">
        <ele>1020</ele>
        <time>2022-01-28T03:36:11Z</time>
      </trkpt>
      <trkpt lat="45.0782" lon="2.84003">
        <ele>1018</ele>
        <time>2022-01-28T03:36:21Z</time>
      </trkpt>
      <trkpt lat="45.07836" lon="2.84054">
        <ele>1017</ele>
        <time>2022-01-28T03:36:28Z</time>
      </trkpt>
      <trkpt lat="45.07847" lon="2.84093">
        <ele>1018</ele>
        <time>2022-01-28T03:36:33Z</time>
      </trkpt>
      <trkpt lat="45.07865" lon="2.84141">
        <ele>1019</ele>
        <time>2022-01-28T03:36:40Z</time>
      </trkpt>
      <trkpt lat="45.07876" lon="2.84181">
        <ele>1017</ele>
        <time>2022-01-28T03:36:45Z</time>
      </trkpt>
      <trkpt lat="45.07891" lon="2.84231">
        <ele>1016</ele>
        <time>2022-01-28T03:36:52Z</time>
      </trkpt>
      <trkpt lat="45.07903" lon="2.84282">
        <ele>1014</ele>
        <time>2022-01-28T03:36:59Z</time>
      </trkpt>
      <trkpt lat="45.07914" lon="2.84385">
        <ele>1013</ele>
        <time>2022-01-28T03:37:12Z</time>
      </trkpt>
      <trkpt lat="45.07917" lon="2.84432">
        <ele>1011</ele>
        <time>2022-01-28T03:37:18Z</time>
      </trkpt>
      <trkpt lat="45.07922" lon="2.84456">
        <ele>1010</ele>
        <time>2022-01-28T03:37:21Z</time>
      </trkpt>
      <trkpt lat="45.0794" lon="2.84505">
        <ele>1009</ele>
        <time>2022-01-28T03:37:28Z</time>
      </trkpt>
      <trkpt lat="45.07971" lon="2.84555">
        <ele>1009</ele>
        <time>2022-01-28T03:37:36Z</time>
      </trkpt>
      <trkpt lat="45.08008" lon="2.8461">
        <ele>1009</ele>
        <time>2022-01-28T03:37:46Z</time>
      </trkpt>
      <trkpt lat="45.08052" lon="2.84657">
        <ele>1012</ele>
        <time>2022-01-28T03:37:56Z</time>
      </trkpt>
      <trkpt lat="45.08068" lon="2.84681">
        <ele>1012</ele>
        <time>2022-01-28T03:38:00Z</time>
      </trkpt>
      <trkpt lat="45.08084" lon="2.84709">
        <ele>1012</ele>
        <time>2022-01-28T03:38:04Z</time>
      </trkpt>
      <trkpt lat="45.08102" lon="2.84786">
        <ele>1012</ele>
        <time>2022-01-28T03:38:14Z</time>
      </trkpt>
      <trkpt lat="45.08106" lon="2.84812">
        <ele>1012</ele>
        <time>2022-01-28T03:38:18Z</time>
      </trkpt>
      <trkpt lat="45.08123" lon="2.84848">
        <ele>1012</ele>
        <time>2022-01-28T03:38:23Z</time>
      </trkpt>
      <trkpt lat="45.08129" lon="2.84881">
        <ele>1011</ele>
        <time>2022-01-28T03:38:27Z</time>
      </trkpt>
      <trkpt lat="45.08149" lon="2.84953">
        <ele>1008</ele>
        <time>2022-01-28T03:38:37Z</time>
      </trkpt>
      <trkpt lat="45.08169" lon="2.84982">
        <ele>1007</ele>
        <time>2022-01-28T03:38:42Z</time>
      </trkpt>
      <trkpt lat="45.08217" lon="2.85089">
        <ele>1015</ele>
        <time>2022-01-28T03:38:58Z</time>
      </trkpt>
      <trkpt lat="45.08229" lon="2.85123">
        <ele>1015</ele>
        <time>2022-01-28T03:39:03Z</time>
      </trkpt>
      <trkpt lat="45.08256" lon="2.85239">
        <ele>1013</ele>
        <time>2022-01-28T03:39:18Z</time>
      </trkpt>
      <trkpt lat="45.08277" lon="2.85318">
        <ele>1017</ele>
        <time>2022-01-28T03:39:29Z</time>
      </trkpt>
      <trkpt lat="45.08289" lon="2.85391">
        <ele>1018</ele>
        <time>2022-01-28T03:39:38Z</time>
      </trkpt>
      <trkpt lat="45.08303" lon="2.8553">
        <ele>1016</ele>
        <time>2022-01-28T03:39:56Z</time>
      </trkpt>
      <trkpt lat="45.08303" lon="2.85573">
        <ele>1016</ele>
        <time>2022-01-28T03:40:01Z</time>
      </trkpt>
      <trkpt lat="45.08309" lon="2.85623">
        <ele>1016</ele>
        <time>2022-01-28T03:40:08Z</time>
      </trkpt>
      <trkpt lat="45.08319" lon="2.85662">
        <ele>1016</ele>
        <time>2022-01-28T03:40:13Z</time>
      </trkpt>
      <trkpt lat="45.08323" lon="2.85698">
        <ele>1016</ele>
        <time>2022-01-28T03:40:18Z</time>
      </trkpt>
      <trkpt lat="45.0833" lon="2.85809">
        <ele>1014</ele>
        <time>2022-01-28T03:40:32Z</time>
      </trkpt>
      <trkpt lat="45.08332" lon="2.85908">
        <ele>1009</ele>
        <time>2022-01-28T03:40:44Z</time>
      </trkpt>
      <trkpt lat="45.08337" lon="2.85946">
        <ele>1009</ele>
        <time>2022-01-28T03:40:49Z</time>
      </trkpt>
      <trkpt lat="45.08345" lon="2.85971">
        <ele>1010</ele>
        <time>2022-01-28T03:40:52Z</time>
      </trkpt>
      <trkpt lat="45.08403" lon="2.86102">
        <ele>1010</ele>
        <time>2022-01-28T03:41:12Z</time>
      </trkpt>
      <trkpt lat="45.08417" lon="2.86125">
        <ele>1011</ele>
        <time>2022-01-28T03:41:16Z</time>
      </trkpt>
      <trkpt lat="45.08458" lon="2.86182">
        <ele>1017</ele>
        <time>2022-01-28T03:41:26Z</time>
      </trkpt>
      <trkpt lat="45.08471" lon="2.86203">
        <ele>1018</ele>
        <time>2022-01-28T03:41:29Z</time>
      </trkpt>
      <trkpt lat="45.08484" lon="2.86242">
        <ele>1013</ele>
        <time>2022-01-28T03:41:35Z</time>
      </trkpt>
      <trkpt lat="45.08509" lon="2.86273">
        <ele>1013</ele>
        <time>2022-01-28T03:41:41Z</time>
      </trkpt>
      <trkpt lat="45.08517" lon="2.86292">
        <ele>1012</ele>
        <time>2022-01-28T03:41:43Z</time>
      </trkpt>
      <trkpt lat="45.08521" lon="2.86311">
        <ele>1010</ele>
        <time>2022-01-28T03:41:46Z</time>
      </trkpt>
      <trkpt lat="45.08528" lon="2.86365">
        <ele>1006</ele>
        <time>2022-01-28T03:41:53Z</time>
      </trkpt>
      <trkpt lat="45.08534" lon="2.86385">
        <ele>1006</ele>
        <time>2022-01-28T03:41:55Z</time>
      </trkpt>
      <trkpt lat="45.08561" lon="2.86438">
        <ele>1006</ele>
        <time>2022-01-28T03:42:04Z</time>
      </trkpt>
      <trkpt lat="45.08748" lon="2.86783">
        <ele>1002</ele>
        <time>2022-01-28T03:42:58Z</time>
      </trkpt>
      <trkpt lat="45.0876" lon="2.86803">
        <ele>1002</ele>
        <time>2022-01-28T03:43:02Z</time>
      </trkpt>
      <trkpt lat="45.08827" lon="2.86868">
        <ele>1003</ele>
        <time>2022-01-28T03:43:16Z</time>
      </trkpt>
      <trkpt lat="45.08888" lon="2.86935">
        <ele>1005</ele>
        <time>2022-01-28T03:43:30Z</time>
      </trkpt>
      <trkpt lat="45.08911" lon="2.86964">
        <ele>1006</ele>
        <time>2022-01-28T03:43:35Z</time>
      </trkpt>
      <trkpt lat="45.08934" lon="2.87002">
        <ele>1006</ele>
        <time>2022-01-28T03:43:42Z</time>
      </trkpt>
      <trkpt lat="45.0899" lon="2.87083">
        <ele>1007</ele>
        <time>2022-01-28T03:43:56Z</time>
      </trkpt>
      <trkpt lat="45.08996" lon="2.87093">
        <ele>1007</ele>
        <time>2022-01-28T03:43:57Z</time>
      </trkpt>
      <trkpt lat="45.09033" lon="2.87247">
        <ele>1005</ele>
        <time>2022-01-28T03:44:18Z</time>
      </trkpt>
      <trkpt lat="45.09043" lon="2.87297">
        <ele>1004</ele>
        <time>2022-01-28T03:44:24Z</time>
      </trkpt>
      <trkpt lat="45.09044" lon="2.87325">
        <ele>1003</ele>
        <time>2022-01-28T03:44:28Z</time>
      </trkpt>
      <trkpt lat="45.09032" lon="2.87623">
        <ele>997</ele>
        <time>2022-01-28T03:45:05Z</time>
      </trkpt>
      <trkpt lat="45.0903" lon="2.87637">
        <ele>997</ele>
        <time>2022-01-28T03:45:07Z</time>
      </trkpt>
      <trkpt lat="45.0903" lon="2.87655">
        <ele>998</ele>
        <time>2022-01-28T03:45:09Z</time>
      </trkpt>
      <trkpt lat="45.09037" lon="2.87682">
        <ele>998</ele>
        <time>2022-01-28T03:45:13Z</time>
      </trkpt>
      <trkpt lat="45.09058" lon="2.87725">
        <ele>998</ele>
        <time>2022-01-28T03:45:20Z</time>
      </trkpt>
      <trkpt lat="45.09065" lon="2.87745">
        <ele>998</ele>
        <time>2022-01-28T03:45:22Z</time>
      </trkpt>
      <trkpt lat="45.09069" lon="2.87762">
        <ele>998</ele>
        <time>2022-01-28T03:45:25Z</time>
      </trkpt>
      <trkpt lat="45.09133" lon="2.88276">
        <ele>1026</ele>
        <time>2022-01-28T03:46:30Z</time>
      </trkpt>
      <trkpt lat="45.09134" lon="2.88302">
        <ele>1028</ele>
        <time>2022-01-28T03:46:34Z</time>
      </trkpt>
      <trkpt lat="45.09129" lon="2.8837">
        <ele>1033</ele>
        <time>2022-01-28T03:46:42Z</time>
      </trkpt>
      <trkpt lat="45.09124" lon="2.88411">
        <ele>1035</ele>
        <time>2022-01-28T03:46:47Z</time>
      </trkpt>
      <trkpt lat="45.09115" lon="2.88445">
        <ele>1039</ele>
        <time>2022-01-28T03:46:52Z</time>
      </trkpt>
      <trkpt lat="45.09102" lon="2.88487">
        <ele>1042</ele>
        <time>2022-01-28T03:46:58Z</time>
      </trkpt>
      <trkpt lat="45.09104" lon="2.88501">
        <ele>1042</ele>
        <time>2022-01-28T03:46:59Z</time>
      </trkpt>
      <trkpt lat="45.09109" lon="2.88515">
        <ele>1044</ele>
        <time>2022-01-28T03:47:01Z</time>
      </trkpt>
      <trkpt lat="45.09122" lon="2.88529">
        <ele>1045</ele>
        <time>2022-01-28T03:47:04Z</time>
      </trkpt>
      <trkpt lat="45.09173" lon="2.88575">
        <ele>1049</ele>
        <time>2022-01-28T03:47:15Z</time>
      </trkpt>
      <trkpt lat="45.09258" lon="2.88643">
        <ele>1059</ele>
        <time>2022-01-28T03:47:32Z</time>
      </trkpt>
      <trkpt lat="45.09262" lon="2.88649">
        <ele>1060</ele>
        <time>2022-01-28T03:47:34Z</time>
      </trkpt>
      <trkpt lat="45.09263" lon="2.88657">
        <ele>1062</ele>
        <time>2022-01-28T03:47:35Z</time>
      </trkpt>
      <trkpt lat="45.09176" lon="2.88633">
        <ele>1065</ele>
        <time>2022-01-28T03:47:50Z</time>
      </trkpt>
      <trkpt lat="45.09162" lon="2.88631">
        <ele>1066</ele>
        <time>2022-01-28T03:47:53Z</time>
      </trkpt>
      <trkpt lat="45.09142" lon="2.88632">
        <ele>1067</ele>
        <time>2022-01-28T03:47:56Z</time>
      </trkpt>
      <trkpt lat="45.09115" lon="2.88638">
        <ele>1070</ele>
        <time>2022-01-28T03:48:01Z</time>
      </trkpt>
      <trkpt lat="45.09067" lon="2.88661">
        <ele>1076</ele>
        <time>2022-01-28T03:48:10Z</time>
      </trkpt>
      <trkpt lat="45.09017" lon="2.88687">
        <ele>1080</ele>
        <time>2022-01-28T03:48:20Z</time>
      </trkpt>
      <trkpt lat="45.08994" lon="2.88694">
        <ele>1082</ele>
        <time>2022-01-28T03:48:24Z</time>
      </trkpt>
      <trkpt lat="45.08976" lon="2.88699">
        <ele>1084</ele>
        <time>2022-01-28T03:48:27Z</time>
      </trkpt>
      <trkpt lat="45.08959" lon="2.88697">
        <ele>1085</ele>
        <time>2022-01-28T03:48:30Z</time>
      </trkpt>
      <trkpt lat="45.08933" lon="2.88686">
        <ele>1085</ele>
        <time>2022-01-28T03:48:35Z</time>
      </trkpt>
      <trkpt lat="45.08921" lon="2.88686">
        <ele>1085</ele>
        <time>2022-01-28T03:48:37Z</time>
      </trkpt>
      <trkpt lat="45.08793" lon="2.88714">
        <ele>1098</ele>
        <time>2022-01-28T03:49:00Z</time>
      </trkpt>
      <trkpt lat="45.08704" lon="2.88741">
        <ele>1101</ele>
        <time>2022-01-28T03:49:16Z</time>
      </trkpt>
      <trkpt lat="45.08687" lon="2.88752">
        <ele>1101</ele>
        <time>2022-01-28T03:49:20Z</time>
      </trkpt>
      <trkpt lat="45.08661" lon="2.88781">
        <ele>1101</ele>
        <time>2022-01-28T03:49:26Z</time>
      </trkpt>
      <trkpt lat="45.08649" lon="2.88804">
        <ele>1102</ele>
        <time>2022-01-28T03:49:29Z</time>
      </trkpt>
      <trkpt lat="45.08633" lon="2.88826">
        <ele>1102</ele>
        <time>2022-01-28T03:49:33Z</time>
      </trkpt>
      <trkpt lat="45.08616" lon="2.88844">
        <ele>1101</ele>
        <time>2022-01-28T03:49:37Z</time>
      </trkpt>
      <trkpt lat="45.08587" lon="2.88863">
        <ele>1101</ele>
        <time>2022-01-28T03:49:43Z</time>
      </trkpt>
      <trkpt lat="45.08552" lon="2.88882">
        <ele>1104</ele>
        <time>2022-01-28T03:49:49Z</time>
      </trkpt>
      <trkpt lat="45.0853" lon="2.88897">
        <ele>1105</ele>
        <time>2022-01-28T03:49:54Z</time>
      </trkpt>
      <trkpt lat="45.08519" lon="2.88912">
        <ele>1106</ele>
        <time>2022-01-28T03:49:56Z</time>
      </trkpt>
      <trkpt lat="45.08505" lon="2.88937">
        <ele>1107</ele>
        <time>2022-01-28T03:50:00Z</time>
      </trkpt>
      <trkpt lat="45.08492" lon="2.88953">
        <ele>1108</ele>
        <time>2022-01-28T03:50:03Z</time>
      </trkpt>
      <trkpt lat="45.0848" lon="2.88963">
        <ele>1108</ele>
        <time>2022-01-28T03:50:06Z</time>
      </trkpt>
      <trkpt lat="45.08461" lon="2.88971">
        <ele>1109</ele>
        <time>2022-01-28T03:50:09Z</time>
      </trkpt>
      <trkpt lat="45.08416" lon="2.88995">
        <ele>1110</ele>
        <time>2022-01-28T03:50:18Z</time>
      </trkpt>
      <trkpt lat="45.084" lon="2.88995">
        <ele>1111</ele>
        <time>2022-01-28T03:50:21Z</time>
      </trkpt>
      <trkpt lat="45.08383" lon="2.88989">
        <ele>1111</ele>
        <time>2022-01-28T03:50:24Z</time>
      </trkpt>
      <trkpt lat="45.08363" lon="2.8898">
        <ele>1112</ele>
        <time>2022-01-28T03:50:28Z</time>
      </trkpt>
      <trkpt lat="45.08317" lon="2.88941">
        <ele>1116</ele>
        <time>2022-01-28T03:50:37Z</time>
      </trkpt>
      <trkpt lat="45.08305" lon="2.88936">
        <ele>1116</ele>
        <time>2022-01-28T03:50:39Z</time>
      </trkpt>
      <trkpt lat="45.08293" lon="2.88936">
        <ele>1115</ele>
        <time>2022-01-28T03:50:42Z</time>
      </trkpt>
      <trkpt lat="45.0828" lon="2.88939">
        <ele>1114</ele>
        <time>2022-01-28T03:50:44Z</time>
      </trkpt>
      <trkpt lat="45.08261" lon="2.88939">
        <ele>1113</ele>
        <time>2022-01-28T03:50:47Z</time>
      </trkpt>
      <trkpt lat="45.08249" lon="2.88936">
        <ele>1113</ele>
        <time>2022-01-28T03:50:50Z</time>
      </trkpt>
      <trkpt lat="45.08231" lon="2.8892">
        <ele>1113</ele>
        <time>2022-01-28T03:50:53Z</time>
      </trkpt>
      <trkpt lat="45.08228" lon="2.88909">
        <ele>1114</ele>
        <time>2022-01-28T03:50:55Z</time>
      </trkpt>
      <trkpt lat="45.08227" lon="2.88896">
        <ele>1114</ele>
        <time>2022-01-28T03:50:56Z</time>
      </trkpt>
      <trkpt lat="45.08233" lon="2.88852">
        <ele>1117</ele>
        <time>2022-01-28T03:51:02Z</time>
      </trkpt>
      <trkpt lat="45.08228" lon="2.88835">
        <ele>1118</ele>
        <time>2022-01-28T03:51:04Z</time>
      </trkpt>
      <trkpt lat="45.08218" lon="2.88822">
        <ele>1117</ele>
        <time>2022-01-28T03:51:07Z</time>
      </trkpt>
      <trkpt lat="45.08199" lon="2.88808">
        <ele>1115</ele>
        <time>2022-01-28T03:51:11Z</time>
      </trkpt>
      <trkpt lat="45.08159" lon="2.88784">
        <ele>1112</ele>
        <time>2022-01-28T03:51:18Z</time>
      </trkpt>
      <trkpt lat="45.08142" lon="2.88773">
        <ele>1112</ele>
        <time>2022-01-28T03:51:22Z</time>
      </trkpt>
      <trkpt lat="45.08076" lon="2.88705">
        <ele>1113</ele>
        <time>2022-01-28T03:51:36Z</time>
      </trkpt>
      <trkpt lat="45.08072" lon="2.88703">
        <ele>1113</ele>
        <time>2022-01-28T03:51:37Z</time>
      </trkpt>
      <trkpt lat="45.08054" lon="2.887">
        <ele>1113</ele>
        <time>2022-01-28T03:51:40Z</time>
      </trkpt>
      <trkpt lat="45.0804" lon="2.88702">
        <ele>1113</ele>
        <time>2022-01-28T03:51:43Z</time>
      </trkpt>
      <trkpt lat="45.07997" lon="2.88746">
        <ele>1110</ele>
        <time>2022-01-28T03:51:52Z</time>
      </trkpt>
      <trkpt lat="45.07967" lon="2.8878">
        <ele>1110</ele>
        <time>2022-01-28T03:51:59Z</time>
      </trkpt>
      <trkpt lat="45.07945" lon="2.88802">
        <ele>1109</ele>
        <time>2022-01-28T03:52:04Z</time>
      </trkpt>
      <trkpt lat="45.07927" lon="2.88805">
        <ele>1109</ele>
        <time>2022-01-28T03:52:07Z</time>
      </trkpt>
      <trkpt lat="45.07883" lon="2.8879">
        <ele>1114</ele>
        <time>2022-01-28T03:52:15Z</time>
      </trkpt>
      <trkpt lat="45.07866" lon="2.88789">
        <ele>1116</ele>
        <time>2022-01-28T03:52:18Z</time>
      </trkpt>
      <trkpt lat="45.07849" lon="2.88793">
        <ele>1117</ele>
        <time>2022-01-28T03:52:21Z</time>
      </trkpt>
      <trkpt lat="45.07832" lon="2.88811">
        <ele>1116</ele>
        <time>2022-01-28T03:52:25Z</time>
      </trkpt>
      <trkpt lat="45.07819" lon="2.88837">
        <ele>1115</ele>
        <time>2022-01-28T03:52:29Z</time>
      </trkpt>
      <trkpt lat="45.07811" lon="2.88879">
        <ele>1112</ele>
        <time>2022-01-28T03:52:34Z</time>
      </trkpt>
      <trkpt lat="45.07798" lon="2.8897">
        <ele>1109</ele>
        <time>2022-01-28T03:52:46Z</time>
      </trkpt>
      <trkpt lat="45.07785" lon="2.89047">
        <ele>1110</ele>
        <time>2022-01-28T03:52:56Z</time>
      </trkpt>
      <trkpt lat="45.07778" lon="2.89137">
        <ele>1114</ele>
        <time>2022-01-28T03:53:07Z</time>
      </trkpt>
      <trkpt lat="45.07771" lon="2.89202">
        <ele>1114</ele>
        <time>2022-01-28T03:53:16Z</time>
      </trkpt>
      <trkpt lat="45.07767" lon="2.89268">
        <ele>1113</ele>
        <time>2022-01-28T03:53:24Z</time>
      </trkpt>
      <trkpt lat="45.07758" lon="2.89395">
        <ele>1111</ele>
        <time>2022-01-28T03:53:40Z</time>
      </trkpt>
      <trkpt lat="45.07758" lon="2.89555">
        <ele>1108</ele>
        <time>2022-01-28T03:54:00Z</time>
      </trkpt>
      <trkpt lat="45.07755" lon="2.89587">
        <ele>1108</ele>
        <time>2022-01-28T03:54:04Z</time>
      </trkpt>
      <trkpt lat="45.07752" lon="2.89617">
        <ele>1107</ele>
        <time>2022-01-28T03:54:08Z</time>
      </trkpt>
      <trkpt lat="45.07723" lon="2.89738">
        <ele>1106</ele>
        <time>2022-01-28T03:54:24Z</time>
      </trkpt>
      <trkpt lat="45.07717" lon="2.89769">
        <ele>1105</ele>
        <time>2022-01-28T03:54:28Z</time>
      </trkpt>
      <trkpt lat="45.07695" lon="2.89908">
        <ele>1107</ele>
        <time>2022-01-28T03:54:46Z</time>
      </trkpt>
      <trkpt lat="45.07681" lon="2.90035">
        <ele>1107</ele>
        <time>2022-01-28T03:55:02Z</time>
      </trkpt>
      <trkpt lat="45.07678" lon="2.90177">
        <ele>1105</ele>
        <time>2022-01-28T03:55:20Z</time>
      </trkpt>
      <trkpt lat="45.07671" lon="2.90202">
        <ele>1104</ele>
        <time>2022-01-28T03:55:23Z</time>
      </trkpt>
      <trkpt lat="45.07663" lon="2.90218">
        <ele>1105</ele>
        <time>2022-01-28T03:55:26Z</time>
      </trkpt>
      <trkpt lat="45.07599" lon="2.90321">
        <ele>1109</ele>
        <time>2022-01-28T03:55:43Z</time>
      </trkpt>
      <trkpt lat="45.0758" lon="2.90345">
        <ele>1109</ele>
        <time>2022-01-28T03:55:48Z</time>
      </trkpt>
      <trkpt lat="45.07561" lon="2.9036">
        <ele>1108</ele>
        <time>2022-01-28T03:55:51Z</time>
      </trkpt>
      <trkpt lat="45.07542" lon="2.90369">
        <ele>1107</ele>
        <time>2022-01-28T03:55:55Z</time>
      </trkpt>
      <trkpt lat="45.07503" lon="2.90368">
        <ele>1107</ele>
        <time>2022-01-28T03:56:02Z</time>
      </trkpt>
      <trkpt lat="45.07453" lon="2.9035">
        <ele>1107</ele>
        <time>2022-01-28T03:56:11Z</time>
      </trkpt>
      <trkpt lat="45.07433" lon="2.90345">
        <ele>1108</ele>
        <time>2022-01-28T03:56:15Z</time>
      </trkpt>
      <trkpt lat="45.07413" lon="2.90345">
        <ele>1108</ele>
        <time>2022-01-28T03:56:18Z</time>
      </trkpt>
      <trkpt lat="45.0735" lon="2.90351">
        <ele>1108</ele>
        <time>2022-01-28T03:56:29Z</time>
      </trkpt>
      <trkpt lat="45.07324" lon="2.90356">
        <ele>1108</ele>
        <time>2022-01-28T03:56:34Z</time>
      </trkpt>
      <trkpt lat="45.07245" lon="2.90379">
        <ele>1108</ele>
        <time>2022-01-28T03:56:48Z</time>
      </trkpt>
      <trkpt lat="45.07197" lon="2.90388">
        <ele>1107</ele>
        <time>2022-01-28T03:56:57Z</time>
      </trkpt>
      <trkpt lat="45.07144" lon="2.90394">
        <ele>1106</ele>
        <time>2022-01-28T03:57:07Z</time>
      </trkpt>
      <trkpt lat="45.07125" lon="2.90404">
        <ele>1105</ele>
        <time>2022-01-28T03:57:10Z</time>
      </trkpt>
      <trkpt lat="45.07114" lon="2.90415">
        <ele>1104</ele>
        <time>2022-01-28T03:57:13Z</time>
      </trkpt>
      <trkpt lat="45.07107" lon="2.90426">
        <ele>1104</ele>
        <time>2022-01-28T03:57:14Z</time>
      </trkpt>
      <trkpt lat="45.07097" lon="2.90438">
        <ele>1104</ele>
        <time>2022-01-28T03:57:17Z</time>
      </trkpt>
      <trkpt lat="45.07078" lon="2.90446">
        <ele>1104</ele>
        <time>2022-01-28T03:57:20Z</time>
      </trkpt>
      <trkpt lat="45.06976" lon="2.90451">
        <ele>1106</ele>
        <time>2022-01-28T03:57:38Z</time>
      </trkpt>
      <trkpt lat="45.0694" lon="2.90444">
        <ele>1107</ele>
        <time>2022-01-28T03:57:45Z</time>
      </trkpt>
      <trkpt lat="45.06832" lon="2.90416">
        <ele>1111</ele>
        <time>2022-01-28T03:58:04Z</time>
      </trkpt>
      <trkpt lat="45.06819" lon="2.90415">
        <ele>1112</ele>
        <time>2022-01-28T03:58:07Z</time>
      </trkpt>
      <trkpt lat="45.06742" lon="2.90421">
        <ele>1115</ele>
        <time>2022-01-28T03:58:20Z</time>
      </trkpt>
      <trkpt lat="45.06719" lon="2.90427">
        <ele>1115</ele>
        <time>2022-01-28T03:58:25Z</time>
      </trkpt>
      <trkpt lat="45.06704" lon="2.90436">
        <ele>1115</ele>
        <time>2022-01-28T03:58:28Z</time>
      </trkpt>
      <trkpt lat="45.06667" lon="2.90466">
        <ele>1115</ele>
        <time>2022-01-28T03:58:35Z</time>
      </trkpt>
      <trkpt lat="45.06653" lon="2.90478">
        <ele>1115</ele>
        <time>2022-01-28T03:58:38Z</time>
      </trkpt>
      <trkpt lat="45.0664" lon="2.90496">
        <ele>1114</ele>
        <time>2022-01-28T03:58:41Z</time>
      </trkpt>
      <trkpt lat="45.06567" lon="2.90637">
        <ele>1108</ele>
        <time>2022-01-28T03:59:03Z</time>
      </trkpt>
      <trkpt lat="45.06559" lon="2.90645">
        <ele>1107</ele>
        <time>2022-01-28T03:59:05Z</time>
      </trkpt>
      <trkpt lat="45.0653" lon="2.90666">
        <ele>1105</ele>
        <time>2022-01-28T03:59:11Z</time>
      </trkpt>
      <trkpt lat="45.06523" lon="2.90675">
        <ele>1105</ele>
        <time>2022-01-28T03:59:12Z</time>
      </trkpt>
      <trkpt lat="45.06516" lon="2.90695">
        <ele>1104</ele>
        <time>2022-01-28T03:59:15Z</time>
      </trkpt>
      <trkpt lat="45.06516" lon="2.90727">
        <ele>1102</ele>
        <time>2022-01-28T03:59:19Z</time>
      </trkpt>
      <trkpt lat="45.06517" lon="2.90741">
        <ele>1102</ele>
        <time>2022-01-28T03:59:21Z</time>
      </trkpt>
      <trkpt lat="45.06527" lon="2.90791">
        <ele>1099</ele>
        <time>2022-01-28T03:59:28Z</time>
      </trkpt>
      <trkpt lat="45.06558" lon="2.9098">
        <ele>1090</ele>
        <time>2022-01-28T03:59:52Z</time>
      </trkpt>
      <trkpt lat="45.06558" lon="2.91015">
        <ele>1088</ele>
        <time>2022-01-28T03:59:56Z</time>
      </trkpt>
      <trkpt lat="45.06555" lon="2.91031">
        <ele>1087</ele>
        <time>2022-01-28T03:59:58Z</time>
      </trkpt>
      <trkpt lat="45.06548" lon="2.91051">
        <ele>1085</ele>
        <time>2022-01-28T04:00:01Z</time>
      </trkpt>
      <trkpt lat="45.06501" lon="2.91129">
        <ele>1080</ele>
        <time>2022-01-28T04:00:14Z</time>
      </trkpt>
      <trkpt lat="45.06448" lon="2.91211">
        <ele>1080</ele>
        <time>2022-01-28T04:00:28Z</time>
      </trkpt>
      <trkpt lat="45.06421" lon="2.9126">
        <ele>1080</ele>
        <time>2022-01-28T04:00:36Z</time>
      </trkpt>
      <trkpt lat="45.06408" lon="2.91292">
        <ele>1079</ele>
        <time>2022-01-28T04:00:41Z</time>
      </trkpt>
      <trkpt lat="45.06348" lon="2.91462">
        <ele>1082</ele>
        <time>2022-01-28T04:01:04Z</time>
      </trkpt>
      <trkpt lat="45.06277" lon="2.91692">
        <ele>1087</ele>
        <time>2022-01-28T04:01:36Z</time>
      </trkpt>
      <trkpt lat="45.06219" lon="2.91812">
        <ele>1086</ele>
        <time>2022-01-28T04:01:54Z</time>
      </trkpt>
      <trkpt lat="45.062" lon="2.91862">
        <ele>1085</ele>
        <time>2022-01-28T04:02:01Z</time>
      </trkpt>
      <trkpt lat="45.06193" lon="2.91893">
        <ele>1084</ele>
        <time>2022-01-28T04:02:06Z</time>
      </trkpt>
      <trkpt lat="45.06177" lon="2.91927">
        <ele>1083</ele>
        <time>2022-01-28T04:02:11Z</time>
      </trkpt>
      <trkpt lat="45.06155" lon="2.91957">
        <ele>1082</ele>
        <time>2022-01-28T04:02:16Z</time>
      </trkpt>
      <trkpt lat="45.06103" lon="2.91999">
        <ele>1080</ele>
        <time>2022-01-28T04:02:27Z</time>
      </trkpt>
      <trkpt lat="45.06008" lon="2.92086">
        <ele>1077</ele>
        <time>2022-01-28T04:02:47Z</time>
      </trkpt>
      <trkpt lat="45.05986" lon="2.92118">
        <ele>1075</ele>
        <time>2022-01-28T04:02:52Z</time>
      </trkpt>
      <trkpt lat="45.05946" lon="2.92207">
        <ele>1070</ele>
        <time>2022-01-28T04:03:06Z</time>
      </trkpt>
      <trkpt lat="45.05904" lon="2.92326">
        <ele>1063</ele>
        <time>2022-01-28T04:03:22Z</time>
      </trkpt>
      <trkpt lat="45.05896" lon="2.92358">
        <ele>1062</ele>
        <time>2022-01-28T04:03:27Z</time>
      </trkpt>
      <trkpt lat="45.05883" lon="2.92384">
        <ele>1061</ele>
        <time>2022-01-28T04:03:31Z</time>
      </trkpt>
      <trkpt lat="45.05746" lon="2.92553">
        <ele>1051</ele>
        <time>2022-01-28T04:04:03Z</time>
      </trkpt>
      <trkpt lat="45.05739" lon="2.92563">
        <ele>1051</ele>
        <time>2022-01-28T04:04:05Z</time>
      </trkpt>
      <trkpt lat="45.05735" lon="2.92568">
        <ele>1051</ele>
        <time>2022-01-28T04:04:06Z</time>
      </trkpt>
      <trkpt lat="45.05717" lon="2.92602">
        <ele>1051</ele>
        <time>2022-01-28T04:04:11Z</time>
      </trkpt>
      <trkpt lat="45.05698" lon="2.9265">
        <ele>1049</ele>
        <time>2022-01-28T04:04:18Z</time>
      </trkpt>
      <trkpt lat="45.05664" lon="2.92847">
        <ele>1057</ele>
        <time>2022-01-28T04:04:44Z</time>
      </trkpt>
      <trkpt lat="45.05656" lon="2.92871">
        <ele>1058</ele>
        <time>2022-01-28T04:04:47Z</time>
      </trkpt>
      <trkpt lat="45.05617" lon="2.92957">
        <ele>1063</ele>
        <time>2022-01-28T04:05:00Z</time>
      </trkpt>
      <trkpt lat="45.05612" lon="2.92972">
        <ele>1063</ele>
        <time>2022-01-28T04:05:02Z</time>
      </trkpt>
      <trkpt lat="45.05595" lon="2.93037">
        <ele>1064</ele>
        <time>2022-01-28T04:05:10Z</time>
      </trkpt>
      <trkpt lat="45.05586" lon="2.93061">
        <ele>1064</ele>
        <time>2022-01-28T04:05:14Z</time>
      </trkpt>
      <trkpt lat="45.05532" lon="2.93166">
        <ele>1064</ele>
        <time>2022-01-28T04:05:30Z</time>
      </trkpt>
      <trkpt lat="45.05506" lon="2.932">
        <ele>1065</ele>
        <time>2022-01-28T04:05:37Z</time>
      </trkpt>
      <trkpt lat="45.05378" lon="2.93352">
        <ele>1063</ele>
        <time>2022-01-28T04:06:06Z</time>
      </trkpt>
      <trkpt lat="45.05374" lon="2.93362">
        <ele>1063</ele>
        <time>2022-01-28T04:06:08Z</time>
      </trkpt>
      <trkpt lat="45.05342" lon="2.93362">
        <ele>1064</ele>
        <time>2022-01-28T04:06:13Z</time>
      </trkpt>
      <trkpt lat="45.05338" lon="2.93396">
        <ele>1064</ele>
        <time>2022-01-28T04:06:18Z</time>
      </trkpt>
      <trkpt lat="45.05318" lon="2.93475">
        <ele>1062</ele>
        <time>2022-01-28T04:06:28Z</time>
      </trkpt>
      <trkpt lat="45.05307" lon="2.93511">
        <ele>1061</ele>
        <time>2022-01-28T04:06:33Z</time>
      </trkpt>
      <trkpt lat="45.05294" lon="2.93528">
        <ele>1061</ele>
        <time>2022-01-28T04:06:36Z</time>
      </trkpt>
      <trkpt lat="45.05274" lon="2.93541">
        <ele>1061</ele>
        <time>2022-01-28T04:06:40Z</time>
      </trkpt>
      <trkpt lat="45.05247" lon="2.93571">
        <ele>1060</ele>
        <time>2022-01-28T04:06:46Z</time>
      </trkpt>
      <trkpt lat="45.05232" lon="2.93587">
        <ele>1059</ele>
        <time>2022-01-28T04:06:50Z</time>
      </trkpt>
      <trkpt lat="45.05218" lon="2.93614">
        <ele>1058</ele>
        <time>2022-01-28T04:06:54Z</time>
      </trkpt>
      <trkpt lat="45.05139" lon="2.93792">
        <ele>1049</ele>
        <time>2022-01-28T04:07:20Z</time>
      </trkpt>
      <trkpt lat="45.05129" lon="2.93815">
        <ele>1048</ele>
        <time>2022-01-28T04:07:24Z</time>
      </trkpt>
      <trkpt lat="45.05123" lon="2.93839">
        <ele>1047</ele>
        <time>2022-01-28T04:07:27Z</time>
      </trkpt>
      <trkpt lat="45.05116" lon="2.93845">
        <ele>1047</ele>
        <time>2022-01-28T04:07:28Z</time>
      </trkpt>
      <trkpt lat="45.05095" lon="2.93887">
        <ele>1045</ele>
        <time>2022-01-28T04:07:35Z</time>
      </trkpt>
      <trkpt lat="45.05072" lon="2.93941">
        <ele>1043</ele>
        <time>2022-01-28T04:07:43Z</time>
      </trkpt>
      <trkpt lat="45.05003" lon="2.94185">
        <ele>1038</ele>
        <time>2022-01-28T04:08:16Z</time>
      </trkpt>
      <trkpt lat="45.04997" lon="2.94199">
        <ele>1038</ele>
        <time>2022-01-28T04:08:18Z</time>
      </trkpt>
      <trkpt lat="45.0492" lon="2.94286">
        <ele>1034</ele>
        <time>2022-01-28T04:08:35Z</time>
      </trkpt>
      <trkpt lat="45.04684" lon="2.94607">
        <ele>1015</ele>
        <time>2022-01-28T04:09:34Z</time>
      </trkpt>
      <trkpt lat="45.04666" lon="2.94632">
        <ele>1013</ele>
        <time>2022-01-28T04:09:38Z</time>
      </trkpt>
      <trkpt lat="45.04657" lon="2.94649">
        <ele>1012</ele>
        <time>2022-01-28T04:09:41Z</time>
      </trkpt>
      <trkpt lat="45.04648" lon="2.94678">
        <ele>1010</ele>
        <time>2022-01-28T04:09:45Z</time>
      </trkpt>
      <trkpt lat="45.04643" lon="2.94706">
        <ele>1009</ele>
        <time>2022-01-28T04:09:48Z</time>
      </trkpt>
      <trkpt lat="45.04647" lon="2.94766">
        <ele>1009</ele>
        <time>2022-01-28T04:09:56Z</time>
      </trkpt>
      <trkpt lat="45.04645" lon="2.9478">
        <ele>1008</ele>
        <time>2022-01-28T04:09:58Z</time>
      </trkpt>
      <trkpt lat="45.04634" lon="2.94812">
        <ele>1006</ele>
        <time>2022-01-28T04:10:02Z</time>
      </trkpt>
      <trkpt lat="45.04621" lon="2.94899">
        <ele>1002</ele>
        <time>2022-01-28T04:10:13Z</time>
      </trkpt>
      <trkpt lat="45.04625" lon="2.9492">
        <ele>1002</ele>
        <time>2022-01-28T04:10:16Z</time>
      </trkpt>
      <trkpt lat="45.04641" lon="2.9498">
        <ele>1001</ele>
        <time>2022-01-28T04:10:24Z</time>
      </trkpt>
      <trkpt lat="45.04652" lon="2.95044">
        <ele>999</ele>
        <time>2022-01-28T04:10:33Z</time>
      </trkpt>
      <trkpt lat="45.04659" lon="2.95105">
        <ele>996</ele>
        <time>2022-01-28T04:10:40Z</time>
      </trkpt>
      <trkpt lat="45.04659" lon="2.95116">
        <ele>995</ele>
        <time>2022-01-28T04:10:42Z</time>
      </trkpt>
      <trkpt lat="45.04656" lon="2.95124">
        <ele>995</ele>
        <time>2022-01-28T04:10:43Z</time>
      </trkpt>
      <trkpt lat="45.04651" lon="2.95129">
        <ele>994</ele>
        <time>2022-01-28T04:10:44Z</time>
      </trkpt>
      <trkpt lat="45.04486" lon="2.95209">
        <ele>983</ele>
        <time>2022-01-28T04:11:15Z</time>
      </trkpt>
      <trkpt lat="45.04474" lon="2.95217">
        <ele>983</ele>
        <time>2022-01-28T04:11:17Z</time>
      </trkpt>
      <trkpt lat="45.04417" lon="2.9527">
        <ele>982</ele>
        <time>2022-01-28T04:11:29Z</time>
      </trkpt>
      <trkpt lat="45.04338" lon="2.95313">
        <ele>984</ele>
        <time>2022-01-28T04:11:44Z</time>
      </trkpt>
      <trkpt lat="45.04182" lon="2.95345">
        <ele>985</ele>
        <time>2022-01-28T04:12:13Z</time>
      </trkpt>
      <trkpt lat="45.03794" lon="2.95572">
        <ele>992</ele>
        <time>2022-01-28T04:13:27Z</time>
      </trkpt>
      <trkpt lat="45.03768" lon="2.95591">
        <ele>993</ele>
        <time>2022-01-28T04:13:32Z</time>
      </trkpt>
      <trkpt lat="45.0375" lon="2.95607">
        <ele>994</ele>
        <time>2022-01-28T04:13:36Z</time>
      </trkpt>
      <trkpt lat="45.03731" lon="2.95632">
        <ele>994</ele>
        <time>2022-01-28T04:13:41Z</time>
      </trkpt>
      <trkpt lat="45.03714" lon="2.9566">
        <ele>993</ele>
        <time>2022-01-28T04:13:45Z</time>
      </trkpt>
      <trkpt lat="45.03654" lon="2.9577">
        <ele>994</ele>
        <time>2022-01-28T04:14:03Z</time>
      </trkpt>
      <trkpt lat="45.0355" lon="2.95881">
        <ele>997</ele>
        <time>2022-01-28T04:14:26Z</time>
      </trkpt>
      <trkpt lat="45.03522" lon="2.95905">
        <ele>998</ele>
        <time>2022-01-28T04:14:32Z</time>
      </trkpt>
      <trkpt lat="45.03363" lon="2.96015">
        <ele>992</ele>
        <time>2022-01-28T04:15:03Z</time>
      </trkpt>
      <trkpt lat="45.03342" lon="2.96024">
        <ele>990</ele>
        <time>2022-01-28T04:15:07Z</time>
      </trkpt>
      <trkpt lat="45.033" lon="2.96038">
        <ele>990</ele>
        <time>2022-01-28T04:15:15Z</time>
      </trkpt>
      <trkpt lat="45.03288" lon="2.96046">
        <ele>989</ele>
        <time>2022-01-28T04:15:17Z</time>
      </trkpt>
      <trkpt lat="45.03277" lon="2.96064">
        <ele>989</ele>
        <time>2022-01-28T04:15:20Z</time>
      </trkpt>
      <trkpt lat="45.03231" lon="2.96186">
        <ele>990</ele>
        <time>2022-01-28T04:15:38Z</time>
      </trkpt>
      <trkpt lat="45.03216" lon="2.96218">
        <ele>990</ele>
        <time>2022-01-28T04:15:43Z</time>
      </trkpt>
      <trkpt lat="45.03201" lon="2.96238">
        <ele>991</ele>
        <time>2022-01-28T04:15:46Z</time>
      </trkpt>
      <trkpt lat="45.03179" lon="2.96251">
        <ele>993</ele>
        <time>2022-01-28T04:15:51Z</time>
      </trkpt>
      <trkpt lat="45.03107" lon="2.96271">
        <ele>999</ele>
        <time>2022-01-28T04:16:04Z</time>
      </trkpt>
      <trkpt lat="45.03086" lon="2.96281">
        <ele>1001</ele>
        <time>2022-01-28T04:16:08Z</time>
      </trkpt>
      <trkpt lat="45.03064" lon="2.96296">
        <ele>1002</ele>
        <time>2022-01-28T04:16:12Z</time>
      </trkpt>
      <trkpt lat="45.03044" lon="2.96313">
        <ele>1004</ele>
        <time>2022-01-28T04:16:16Z</time>
      </trkpt>
      <trkpt lat="45.02941" lon="2.96422">
        <ele>1010</ele>
        <time>2022-01-28T04:16:39Z</time>
      </trkpt>
      <trkpt lat="45.02892" lon="2.96464">
        <ele>1013</ele>
        <time>2022-01-28T04:16:49Z</time>
      </trkpt>
      <trkpt lat="45.02825" lon="2.96517">
        <ele>1014</ele>
        <time>2022-01-28T04:17:03Z</time>
      </trkpt>
      <trkpt lat="45.02785" lon="2.96539">
        <ele>1012</ele>
        <time>2022-01-28T04:17:10Z</time>
      </trkpt>
      <trkpt lat="45.02776" lon="2.96565">
        <ele>1011</ele>
        <time>2022-01-28T04:17:14Z</time>
      </trkpt>
      <trkpt lat="45.02762" lon="2.96641">
        <ele>1008</ele>
        <time>2022-01-28T04:17:24Z</time>
      </trkpt>
      <trkpt lat="45.02768" lon="2.96686">
        <ele>1006</ele>
        <time>2022-01-28T04:17:30Z</time>
      </trkpt>
      <trkpt lat="45.02768" lon="2.96698">
        <ele>1005</ele>
        <time>2022-01-28T04:17:31Z</time>
      </trkpt>
      <trkpt lat="45.02751" lon="2.96759">
        <ele>1002</ele>
        <time>2022-01-28T04:17:39Z</time>
      </trkpt>
      <trkpt lat="45.0274" lon="2.96808">
        <ele>1002</ele>
        <time>2022-01-28T04:17:46Z</time>
      </trkpt>
      <trkpt lat="45.02736" lon="2.96826">
        <ele>1002</ele>
        <time>2022-01-28T04:17:48Z</time>
      </trkpt>
      <trkpt lat="45.02731" lon="2.96854">
        <ele>1002</ele>
        <time>2022-01-28T04:17:52Z</time>
      </trkpt>
      <trkpt lat="45.0272" lon="2.96888">
        <ele>1004</ele>
        <time>2022-01-28T04:17:57Z</time>
      </trkpt>
      <trkpt lat="45.02702" lon="2.9691">
        <ele>1007</ele>
        <time>2022-01-28T04:18:01Z</time>
      </trkpt>
      <trkpt lat="45.02685" lon="2.96926">
        <ele>1009</ele>
        <time>2022-01-28T04:18:04Z</time>
      </trkpt>
      <trkpt lat="45.02663" lon="2.96955">
        <ele>1011</ele>
        <time>2022-01-28T04:18:10Z</time>
      </trkpt>
      <trkpt lat="45.02639" lon="2.96982">
        <ele>1012</ele>
        <time>2022-01-28T04:18:15Z</time>
      </trkpt>
      <trkpt lat="45.02586" lon="2.97021">
        <ele>1012</ele>
        <time>2022-01-28T04:18:26Z</time>
      </trkpt>
      <trkpt lat="45.02572" lon="2.97035">
        <ele>1013</ele>
        <time>2022-01-28T04:18:29Z</time>
      </trkpt>
      <trkpt lat="45.02558" lon="2.97073">
        <ele>1013</ele>
        <time>2022-01-28T04:18:34Z</time>
      </trkpt>
      <trkpt lat="45.02452" lon="2.97737">
        <ele>1012</ele>
        <time>2022-01-28T04:20:00Z</time>
      </trkpt>
      <trkpt lat="45.0245" lon="2.97781">
        <ele>1013</ele>
        <time>2022-01-28T04:20:05Z</time>
      </trkpt>
      <trkpt lat="45.02452" lon="2.97834">
        <ele>1015</ele>
        <time>2022-01-28T04:20:12Z</time>
      </trkpt>
      <trkpt lat="45.0246" lon="2.97919">
        <ele>1016</ele>
        <time>2022-01-28T04:20:23Z</time>
      </trkpt>
      <trkpt lat="45.02459" lon="2.97947">
        <ele>1016</ele>
        <time>2022-01-28T04:20:26Z</time>
      </trkpt>
      <trkpt lat="45.02436" lon="2.98041">
        <ele>1020</ele>
        <time>2022-01-28T04:20:39Z</time>
      </trkpt>
      <trkpt lat="45.02426" lon="2.9807">
        <ele>1021</ele>
        <time>2022-01-28T04:20:43Z</time>
      </trkpt>
      <trkpt lat="45.02288" lon="2.98371">
        <ele>1032</ele>
        <time>2022-01-28T04:21:28Z</time>
      </trkpt>
      <trkpt lat="45.02266" lon="2.98408">
        <ele>1033</ele>
        <time>2022-01-28T04:21:34Z</time>
      </trkpt>
      <trkpt lat="45.02221" lon="2.98463">
        <ele>1036</ele>
        <time>2022-01-28T04:21:45Z</time>
      </trkpt>
      <trkpt lat="45.02211" lon="2.98477">
        <ele>1037</ele>
        <time>2022-01-28T04:21:47Z</time>
      </trkpt>
      <trkpt lat="45.02206" lon="2.98496">
        <ele>1037</ele>
        <time>2022-01-28T04:21:50Z</time>
      </trkpt>
      <trkpt lat="45.02204" lon="2.98519">
        <ele>1038</ele>
        <time>2022-01-28T04:21:53Z</time>
      </trkpt>
      <trkpt lat="45.02207" lon="2.98545">
        <ele>1039</ele>
        <time>2022-01-28T04:21:56Z</time>
      </trkpt>
      <trkpt lat="45.02252" lon="2.98745">
        <ele>1046</ele>
        <time>2022-01-28T04:22:22Z</time>
      </trkpt>
      <trkpt lat="45.0229" lon="2.98968">
        <ele>1052</ele>
        <time>2022-01-28T04:22:51Z</time>
      </trkpt>
      <trkpt lat="45.02308" lon="2.99093">
        <ele>1059</ele>
        <time>2022-01-28T04:23:07Z</time>
      </trkpt>
      <trkpt lat="45.02317" lon="2.99174">
        <ele>1064</ele>
        <time>2022-01-28T04:23:18Z</time>
      </trkpt>
      <trkpt lat="45.02309" lon="2.99248">
        <ele>1064</ele>
        <time>2022-01-28T04:23:27Z</time>
      </trkpt>
      <trkpt lat="45.02305" lon="2.99324">
        <ele>1063</ele>
        <time>2022-01-28T04:23:37Z</time>
      </trkpt>
      <trkpt lat="45.02302" lon="2.99436">
        <ele>1065</ele>
        <time>2022-01-28T04:23:51Z</time>
      </trkpt>
      <trkpt lat="45.02288" lon="2.99588">
        <ele>1069</ele>
        <time>2022-01-28T04:24:10Z</time>
      </trkpt>
      <trkpt lat="45.0228" lon="2.99667">
        <ele>1073</ele>
        <time>2022-01-28T04:24:20Z</time>
      </trkpt>
      <trkpt lat="45.02271" lon="2.99695">
        <ele>1075</ele>
        <time>2022-01-28T04:24:24Z</time>
      </trkpt>
      <trkpt lat="45.02231" lon="2.99771">
        <ele>1080</ele>
        <time>2022-01-28T04:24:36Z</time>
      </trkpt>
      <trkpt lat="45.02213" lon="2.99797">
        <ele>1082</ele>
        <time>2022-01-28T04:24:40Z</time>
      </trkpt>
      <trkpt lat="45.02202" lon="2.99831">
        <ele>1085</ele>
        <time>2022-01-28T04:24:45Z</time>
      </trkpt>
      <trkpt lat="45.022" lon="2.9986">
        <ele>1086</ele>
        <time>2022-01-28T04:24:49Z</time>
      </trkpt>
      <trkpt lat="45.02196" lon="2.99899">
        <ele>1087</ele>
        <time>2022-01-28T04:24:54Z</time>
      </trkpt>
      <trkpt lat="45.02174" lon="2.99929">
        <ele>1086</ele>
        <time>2022-01-28T04:24:59Z</time>
      </trkpt>
      <trkpt lat="45.02147" lon="2.99978">
        <ele>1081</ele>
        <time>2022-01-28T04:25:07Z</time>
      </trkpt>
      <trkpt lat="45.02143" lon="2.99997">
        <ele>1080</ele>
        <time>2022-01-28T04:25:10Z</time>
      </trkpt>
      <trkpt lat="45.02144" lon="3.00025">
        <ele>1079</ele>
        <time>2022-01-28T04:25:13Z</time>
      </trkpt>
      <trkpt lat="45.02174" lon="3.00102">
        <ele>1078</ele>
        <time>2022-01-28T04:25:24Z</time>
      </trkpt>
      <trkpt lat="45.0219" lon="3.00198">
        <ele>1069</ele>
        <time>2022-01-28T04:25:37Z</time>
      </trkpt>
      <trkpt lat="45.02206" lon="3.00233">
        <ele>1065</ele>
        <time>2022-01-28T04:25:42Z</time>
      </trkpt>
      <trkpt lat="45.02231" lon="3.00259">
        <ele>1064</ele>
        <time>2022-01-28T04:25:47Z</time>
      </trkpt>
      <trkpt lat="45.02325" lon="3.00307">
        <ele>1061</ele>
        <time>2022-01-28T04:26:05Z</time>
      </trkpt>
      <trkpt lat="45.02376" lon="3.00324">
        <ele>1056</ele>
        <time>2022-01-28T04:26:14Z</time>
      </trkpt>
      <trkpt lat="45.02425" lon="3.00345">
        <ele>1050</ele>
        <time>2022-01-28T04:26:24Z</time>
      </trkpt>
      <trkpt lat="45.02437" lon="3.00355">
        <ele>1048</ele>
        <time>2022-01-28T04:26:26Z</time>
      </trkpt>
      <trkpt lat="45.0244" lon="3.00369">
        <ele>1047</ele>
        <time>2022-01-28T04:26:28Z</time>
      </trkpt>
      <trkpt lat="45.02439" lon="3.00393">
        <ele>1045</ele>
        <time>2022-01-28T04:26:31Z</time>
      </trkpt>
      <trkpt lat="45.02431" lon="3.00407">
        <ele>1044</ele>
        <time>2022-01-28T04:26:33Z</time>
      </trkpt>
      <trkpt lat="45.02402" lon="3.00435">
        <ele>1044</ele>
        <time>2022-01-28T04:26:39Z</time>
      </trkpt>
      <trkpt lat="45.02384" lon="3.00457">
        <ele>1043</ele>
        <time>2022-01-28T04:26:44Z</time>
      </trkpt>
      <trkpt lat="45.02372" lon="3.00489">
        <ele>1041</ele>
        <time>2022-01-28T04:26:48Z</time>
      </trkpt>
      <trkpt lat="45.02373" lon="3.00555">
        <ele>1036</ele>
        <time>2022-01-28T04:26:56Z</time>
      </trkpt>
      <trkpt lat="45.02385" lon="3.00588">
        <ele>1034</ele>
        <time>2022-01-28T04:27:01Z</time>
      </trkpt>
      <trkpt lat="45.02407" lon="3.0063">
        <ele>1032</ele>
        <time>2022-01-28T04:27:08Z</time>
      </trkpt>
      <trkpt lat="45.02435" lon="3.00703">
        <ele>1028</ele>
        <time>2022-01-28T04:27:18Z</time>
      </trkpt>
      <trkpt lat="45.0245" lon="3.00782">
        <ele>1025</ele>
        <time>2022-01-28T04:27:28Z</time>
      </trkpt>
      <trkpt lat="45.02453" lon="3.00958">
        <ele>1020</ele>
        <time>2022-01-28T04:27:51Z</time>
      </trkpt>
      <trkpt lat="45.0244" lon="3.01139">
        <ele>1018</ele>
        <time>2022-01-28T04:28:13Z</time>
      </trkpt>
      <trkpt lat="45.0243" lon="3.01217">
        <ele>1015</ele>
        <time>2022-01-28T04:28:23Z</time>
      </trkpt>
      <trkpt lat="45.02412" lon="3.01266">
        <ele>1012</ele>
        <time>2022-01-28T04:28:30Z</time>
      </trkpt>
      <trkpt lat="45.02331" lon="3.01428">
        <ele>1005</ele>
        <time>2022-01-28T04:28:55Z</time>
      </trkpt>
      <trkpt lat="45.02302" lon="3.01519">
        <ele>1001</ele>
        <time>2022-01-28T04:29:08Z</time>
      </trkpt>
      <trkpt lat="45.02271" lon="3.01632">
        <ele>997</ele>
        <time>2022-01-28T04:29:23Z</time>
      </trkpt>
      <trkpt lat="45.02239" lon="3.01724">
        <ele>995</ele>
        <time>2022-01-28T04:29:36Z</time>
      </trkpt>
      <trkpt lat="45.02201" lon="3.01806">
        <ele>995</ele>
        <time>2022-01-28T04:29:48Z</time>
      </trkpt>
      <trkpt lat="45.02185" lon="3.01846">
        <ele>996</ele>
        <time>2022-01-28T04:29:54Z</time>
      </trkpt>
      <trkpt lat="45.02128" lon="3.02011">
        <ele>1004</ele>
        <time>2022-01-28T04:30:17Z</time>
      </trkpt>
      <trkpt lat="45.02076" lon="3.02178">
        <ele>1007</ele>
        <time>2022-01-28T04:30:40Z</time>
      </trkpt>
      <trkpt lat="45.02067" lon="3.02204">
        <ele>1008</ele>
        <time>2022-01-28T04:30:44Z</time>
      </trkpt>
      <trkpt lat="45.02396" lon="3.02819">
        <ele>1007</ele>
        <time>2022-01-28T04:32:21Z</time>
      </trkpt>
      <trkpt lat="45.02402" lon="3.02838">
        <ele>1006</ele>
        <time>2022-01-28T04:32:23Z</time>
      </trkpt>
      <trkpt lat="45.02405" lon="3.02863">
        <ele>1005</ele>
        <time>2022-01-28T04:32:27Z</time>
      </trkpt>
      <trkpt lat="45.024" lon="3.02892">
        <ele>1003</ele>
        <time>2022-01-28T04:32:30Z</time>
      </trkpt>
      <trkpt lat="45.0237" lon="3.02989">
        <ele>999</ele>
        <time>2022-01-28T04:32:44Z</time>
      </trkpt>
      <trkpt lat="45.02366" lon="3.03012">
        <ele>999</ele>
        <time>2022-01-28T04:32:47Z</time>
      </trkpt>
      <trkpt lat="45.02369" lon="3.03041">
        <ele>997</ele>
        <time>2022-01-28T04:32:50Z</time>
      </trkpt>
      <trkpt lat="45.02377" lon="3.03073">
        <ele>996</ele>
        <time>2022-01-28T04:32:55Z</time>
      </trkpt>
      <trkpt lat="45.02409" lon="3.03149">
        <ele>993</ele>
        <time>2022-01-28T04:33:06Z</time>
      </trkpt>
      <trkpt lat="45.02428" lon="3.03186">
        <ele>993</ele>
        <time>2022-01-28T04:33:11Z</time>
      </trkpt>
      <trkpt lat="45.02591" lon="3.03443">
        <ele>995</ele>
        <time>2022-01-28T04:33:55Z</time>
      </trkpt>
      <trkpt lat="45.02684" lon="3.03622">
        <ele>994</ele>
        <time>2022-01-28T04:34:23Z</time>
      </trkpt>
      <trkpt lat="45.02761" lon="3.03767">
        <ele>996</ele>
        <time>2022-01-28T04:34:46Z</time>
      </trkpt>
      <trkpt lat="45.02784" lon="3.03819">
        <ele>996</ele>
        <time>2022-01-28T04:34:53Z</time>
      </trkpt>
      <trkpt lat="45.0282" lon="3.03973">
        <ele>994</ele>
        <time>2022-01-28T04:35:14Z</time>
      </trkpt>
      <trkpt lat="45.02834" lon="3.04012">
        <ele>993</ele>
        <time>2022-01-28T04:35:19Z</time>
      </trkpt>
      <trkpt lat="45.02854" lon="3.04042">
        <ele>991</ele>
        <time>2022-01-28T04:35:24Z</time>
      </trkpt>
      <trkpt lat="45.0296" lon="3.04163">
        <ele>983</ele>
        <time>2022-01-28T04:35:49Z</time>
      </trkpt>
      <trkpt lat="45.02985" lon="3.04201">
        <ele>980</ele>
        <time>2022-01-28T04:35:55Z</time>
      </trkpt>
      <trkpt lat="45.0301" lon="3.04256">
        <ele>976</ele>
        <time>2022-01-28T04:36:03Z</time>
      </trkpt>
      <trkpt lat="45.03029" lon="3.04288">
        <ele>972</ele>
        <time>2022-01-28T04:36:09Z</time>
      </trkpt>
      <trkpt lat="45.03044" lon="3.04301">
        <ele>971</ele>
        <time>2022-01-28T04:36:12Z</time>
      </trkpt>
      <trkpt lat="45.03087" lon="3.04319">
        <ele>970</ele>
        <time>2022-01-28T04:36:20Z</time>
      </trkpt>
      <trkpt lat="45.03117" lon="3.04347">
        <ele>967</ele>
        <time>2022-01-28T04:36:26Z</time>
      </trkpt>
      <trkpt lat="45.0314" lon="3.04359">
        <ele>966</ele>
        <time>2022-01-28T04:36:31Z</time>
      </trkpt>
      <trkpt lat="45.03166" lon="3.04363">
        <ele>965</ele>
        <time>2022-01-28T04:36:35Z</time>
      </trkpt>
      <trkpt lat="45.03225" lon="3.04368">
        <ele>962</ele>
        <time>2022-01-28T04:36:46Z</time>
      </trkpt>
      <trkpt lat="45.03263" lon="3.04368">
        <ele>961</ele>
        <time>2022-01-28T04:36:52Z</time>
      </trkpt>
      <trkpt lat="45.03419" lon="3.04415">
        <ele>949</ele>
        <time>2022-01-28T04:37:21Z</time>
      </trkpt>
      <trkpt lat="45.03431" lon="3.0442">
        <ele>948</ele>
        <time>2022-01-28T04:37:23Z</time>
      </trkpt>
      <trkpt lat="45.03444" lon="3.04436">
        <ele>947</ele>
        <time>2022-01-28T04:37:26Z</time>
      </trkpt>
      <trkpt lat="45.03454" lon="3.04464">
        <ele>946</ele>
        <time>2022-01-28T04:37:30Z</time>
      </trkpt>
      <trkpt lat="45.03453" lon="3.04487">
        <ele>945</ele>
        <time>2022-01-28T04:37:33Z</time>
      </trkpt>
      <trkpt lat="45.0345" lon="3.04502">
        <ele>945</ele>
        <time>2022-01-28T04:37:35Z</time>
      </trkpt>
      <trkpt lat="45.03443" lon="3.04517">
        <ele>945</ele>
        <time>2022-01-28T04:37:37Z</time>
      </trkpt>
      <trkpt lat="45.0338" lon="3.04596">
        <ele>940</ele>
        <time>2022-01-28T04:37:52Z</time>
      </trkpt>
      <trkpt lat="45.0335" lon="3.04641">
        <ele>939</ele>
        <time>2022-01-28T04:38:00Z</time>
      </trkpt>
      <trkpt lat="45.0332" lon="3.04713">
        <ele>938</ele>
        <time>2022-01-28T04:38:10Z</time>
      </trkpt>
      <trkpt lat="45.03288" lon="3.04793">
        <ele>936</ele>
        <time>2022-01-28T04:38:22Z</time>
      </trkpt>
      <trkpt lat="45.03283" lon="3.04812">
        <ele>935</ele>
        <time>2022-01-28T04:38:25Z</time>
      </trkpt>
      <trkpt lat="45.0328" lon="3.04833">
        <ele>934</ele>
        <time>2022-01-28T04:38:27Z</time>
      </trkpt>
      <trkpt lat="45.03279" lon="3.04895">
        <ele>935</ele>
        <time>2022-01-28T04:38:35Z</time>
      </trkpt>
      <trkpt lat="45.03285" lon="3.05006">
        <ele>935</ele>
        <time>2022-01-28T04:38:49Z</time>
      </trkpt>
      <trkpt lat="45.03282" lon="3.05031">
        <ele>934</ele>
        <time>2022-01-28T04:38:52Z</time>
      </trkpt>
      <trkpt lat="45.03263" lon="3.05128">
        <ele>930</ele>
        <time>2022-01-28T04:39:05Z</time>
      </trkpt>
      <trkpt lat="45.0326" lon="3.0515">
        <ele>930</ele>
        <time>2022-01-28T04:39:08Z</time>
      </trkpt>
      <trkpt lat="45.0326" lon="3.05168">
        <ele>930</ele>
        <time>2022-01-28T04:39:10Z</time>
      </trkpt>
      <trkpt lat="45.03262" lon="3.05192">
        <ele>930</ele>
        <time>2022-01-28T04:39:13Z</time>
      </trkpt>
      <trkpt lat="45.03277" lon="3.05303">
        <ele>925</ele>
        <time>2022-01-28T04:39:27Z</time>
      </trkpt>
      <trkpt lat="45.03283" lon="3.05327">
        <ele>924</ele>
        <time>2022-01-28T04:39:30Z</time>
      </trkpt>
      <trkpt lat="45.03309" lon="3.05397">
        <ele>920</ele>
        <time>2022-01-28T04:39:40Z</time>
      </trkpt>
      <trkpt lat="45.03347" lon="3.05484">
        <ele>915</ele>
        <time>2022-01-28T04:39:53Z</time>
      </trkpt>
      <trkpt lat="45.03372" lon="3.05522">
        <ele>913</ele>
        <time>2022-01-28T04:40:00Z</time>
      </trkpt>
      <trkpt lat="45.03415" lon="3.05559">
        <ele>912</ele>
        <time>2022-01-28T04:40:09Z</time>
      </trkpt>
      <trkpt lat="45.03612" lon="3.057">
        <ele>902</ele>
        <time>2022-01-28T04:40:48Z</time>
      </trkpt>
      <trkpt lat="45.03631" lon="3.05718">
        <ele>902</ele>
        <time>2022-01-28T04:40:52Z</time>
      </trkpt>
      <trkpt lat="45.03646" lon="3.05738">
        <ele>902</ele>
        <time>2022-01-28T04:40:56Z</time>
      </trkpt>
      <trkpt lat="45.03667" lon="3.05781">
        <ele>902</ele>
        <time>2022-01-28T04:41:02Z</time>
      </trkpt>
      <trkpt lat="45.03698" lon="3.05874">
        <ele>902</ele>
        <time>2022-01-28T04:41:15Z</time>
      </trkpt>
      <trkpt lat="45.03726" lon="3.05991">
        <ele>903</ele>
        <time>2022-01-28T04:41:31Z</time>
      </trkpt>
      <trkpt lat="45.03735" lon="3.06035">
        <ele>904</ele>
        <time>2022-01-28T04:41:37Z</time>
      </trkpt>
      <trkpt lat="45.03796" lon="3.06311">
        <ele>904</ele>
        <time>2022-01-28T04:42:13Z</time>
      </trkpt>
      <trkpt lat="45.038" lon="3.06346">
        <ele>904</ele>
        <time>2022-01-28T04:42:17Z</time>
      </trkpt>
      <trkpt lat="45.03802" lon="3.06392">
        <ele>905</ele>
        <time>2022-01-28T04:42:23Z</time>
      </trkpt>
      <trkpt lat="45.03804" lon="3.06412">
        <ele>905</ele>
        <time>2022-01-28T04:42:26Z</time>
      </trkpt>
      <trkpt lat="45.03816" lon="3.06438">
        <ele>905</ele>
        <time>2022-01-28T04:42:30Z</time>
      </trkpt>
      <trkpt lat="45.03809" lon="3.06445">
        <ele>906</ele>
        <time>2022-01-28T04:42:31Z</time>
      </trkpt>
      <trkpt lat="45.03806" lon="3.06451">
        <ele>906</ele>
        <time>2022-01-28T04:42:32Z</time>
      </trkpt>
      <trkpt lat="45.03804" lon="3.06466">
        <ele>906</ele>
        <time>2022-01-28T04:42:34Z</time>
      </trkpt>
      <trkpt lat="45.03807" lon="3.0648">
        <ele>907</ele>
        <time>2022-01-28T04:42:36Z</time>
      </trkpt>
      <trkpt lat="45.03813" lon="3.06491">
        <ele>907</ele>
        <time>2022-01-28T04:42:38Z</time>
      </trkpt>
      <trkpt lat="45.03824" lon="3.065">
        <ele>907</ele>
        <time>2022-01-28T04:42:40Z</time>
      </trkpt>
      <trkpt lat="45.03831" lon="3.0653">
        <ele>907</ele>
        <time>2022-01-28T04:42:44Z</time>
      </trkpt>
      <trkpt lat="45.03832" lon="3.06556">
        <ele>908</ele>
        <time>2022-01-28T04:42:47Z</time>
      </trkpt>
      <trkpt lat="45.03811" lon="3.06784">
        <ele>909</ele>
        <time>2022-01-28T04:43:16Z</time>
      </trkpt>
      <trkpt lat="45.03809" lon="3.06852">
        <ele>909</ele>
        <time>2022-01-28T04:43:25Z</time>
      </trkpt>
      <trkpt lat="45.03812" lon="3.06919">
        <ele>910</ele>
        <time>2022-01-28T04:43:33Z</time>
      </trkpt>
      <trkpt lat="45.03819" lon="3.06996">
        <ele>909</ele>
        <time>2022-01-28T04:43:43Z</time>
      </trkpt>
      <trkpt lat="45.03826" lon="3.07036">
        <ele>908</ele>
        <time>2022-01-28T04:43:48Z</time>
      </trkpt>
      <trkpt lat="45.03838" lon="3.07085">
        <ele>908</ele>
        <time>2022-01-28T04:43:54Z</time>
      </trkpt>
      <trkpt lat="45.03847" lon="3.07138">
        <ele>907</ele>
        <time>2022-01-28T04:44:01Z</time>
      </trkpt>
      <trkpt lat="45.03848" lon="3.07154">
        <ele>906</ele>
        <time>2022-01-28T04:44:03Z</time>
      </trkpt>
      <trkpt lat="45.03846" lon="3.0718">
        <ele>905</ele>
        <time>2022-01-28T04:44:07Z</time>
      </trkpt>
      <trkpt lat="45.03819" lon="3.07276">
        <ele>900</ele>
        <time>2022-01-28T04:44:20Z</time>
      </trkpt>
      <trkpt lat="45.03809" lon="3.07304">
        <ele>900</ele>
        <time>2022-01-28T04:44:24Z</time>
      </trkpt>
      <trkpt lat="45.03795" lon="3.07329">
        <ele>900</ele>
        <time>2022-01-28T04:44:28Z</time>
      </trkpt>
      <trkpt lat="45.03769" lon="3.07368">
        <ele>901</ele>
        <time>2022-01-28T04:44:34Z</time>
      </trkpt>
      <trkpt lat="45.03762" lon="3.07374">
        <ele>901</ele>
        <time>2022-01-28T04:44:36Z</time>
      </trkpt>
      <trkpt lat="45.0376" lon="3.07379">
        <ele>901</ele>
        <time>2022-01-28T04:44:36Z</time>
      </trkpt>
      <trkpt lat="45.03758" lon="3.07394">
        <ele>901</ele>
        <time>2022-01-28T04:44:38Z</time>
      </trkpt>
      <trkpt lat="45.03749" lon="3.0742">
        <ele>902</ele>
        <time>2022-01-28T04:44:42Z</time>
      </trkpt>
      <trkpt lat="45.03719" lon="3.07517">
        <ele>899</ele>
        <time>2022-01-28T04:44:55Z</time>
      </trkpt>
      <trkpt lat="45.03714" lon="3.07539">
        <ele>899</ele>
        <time>2022-01-28T04:44:58Z</time>
      </trkpt>
      <trkpt lat="45.03709" lon="3.07561">
        <ele>899</ele>
        <time>2022-01-28T04:45:01Z</time>
      </trkpt>
      <trkpt lat="45.03695" lon="3.07659">
        <ele>900</ele>
        <time>2022-01-28T04:45:14Z</time>
      </trkpt>
      <trkpt lat="45.03685" lon="3.07705">
        <ele>901</ele>
        <time>2022-01-28T04:45:20Z</time>
      </trkpt>
      <trkpt lat="45.03671" lon="3.07741">
        <ele>902</ele>
        <time>2022-01-28T04:45:25Z</time>
      </trkpt>
      <trkpt lat="45.03661" lon="3.07759">
        <ele>902</ele>
        <time>2022-01-28T04:45:28Z</time>
      </trkpt>
      <trkpt lat="45.03644" lon="3.07782">
        <ele>901</ele>
        <time>2022-01-28T04:45:32Z</time>
      </trkpt>
      <trkpt lat="45.03538" lon="3.07912">
        <ele>898</ele>
        <time>2022-01-28T04:45:57Z</time>
      </trkpt>
      <trkpt lat="45.0349" lon="3.07975">
        <ele>896</ele>
        <time>2022-01-28T04:46:09Z</time>
      </trkpt>
      <trkpt lat="45.03468" lon="3.08019">
        <ele>894</ele>
        <time>2022-01-28T04:46:15Z</time>
      </trkpt>
      <trkpt lat="45.03372" lon="3.08243">
        <ele>892</ele>
        <time>2022-01-28T04:46:48Z</time>
      </trkpt>
      <trkpt lat="45.03363" lon="3.08251">
        <ele>891</ele>
        <time>2022-01-28T04:46:50Z</time>
      </trkpt>
      <trkpt lat="45.03359" lon="3.0825">
        <ele>891</ele>
        <time>2022-01-28T04:46:51Z</time>
      </trkpt>
      <trkpt lat="45.03354" lon="3.08253">
        <ele>891</ele>
        <time>2022-01-28T04:46:52Z</time>
      </trkpt>
      <trkpt lat="45.03352" lon="3.08259">
        <ele>890</ele>
        <time>2022-01-28T04:46:53Z</time>
      </trkpt>
      <trkpt lat="45.03355" lon="3.08268">
        <ele>891</ele>
        <time>2022-01-28T04:46:54Z</time>
      </trkpt>
      <trkpt lat="45.03354" lon="3.08286">
        <ele>890</ele>
        <time>2022-01-28T04:46:56Z</time>
      </trkpt>
      <trkpt lat="45.03351" lon="3.08303">
        <ele>890</ele>
        <time>2022-01-28T04:46:58Z</time>
      </trkpt>
      <trkpt lat="45.03333" lon="3.08448">
        <ele>887</ele>
        <time>2022-01-28T04:47:17Z</time>
      </trkpt>
      <trkpt lat="45.03297" lon="3.0878">
        <ele>878</ele>
        <time>2022-01-28T04:47:59Z</time>
      </trkpt>
      <trkpt lat="45.03294" lon="3.08807">
        <ele>878</ele>
        <time>2022-01-28T04:48:03Z</time>
      </trkpt>
      <trkpt lat="45.03289" lon="3.08808">
        <ele>878</ele>
        <time>2022-01-28T04:48:04Z</time>
      </trkpt>
      <trkpt lat="45.03284" lon="3.08816">
        <ele>877</ele>
        <time>2022-01-28T04:48:05Z</time>
      </trkpt>
      <trkpt lat="45.03261" lon="3.08805">
        <ele>875</ele>
        <time>2022-01-28T04:48:09Z</time>
      </trkpt>
      <trkpt lat="45.03256" lon="3.08802">
        <ele>875</ele>
        <time>2022-01-28T04:48:10Z</time>
      </trkpt>
      <trkpt lat="45.03249" lon="3.08791">
        <ele>874</ele>
        <time>2022-01-28T04:48:12Z</time>
      </trkpt>
      <trkpt lat="45.03248" lon="3.08784">
        <ele>874</ele>
        <time>2022-01-28T04:48:13Z</time>
      </trkpt>
      <trkpt lat="45.03249" lon="3.08765">
        <ele>874</ele>
        <time>2022-01-28T04:48:15Z</time>
      </trkpt>
      <trkpt lat="45.03265" lon="3.08718">
        <ele>874</ele>
        <time>2022-01-28T04:48:22Z</time>
      </trkpt>
      <trkpt lat="45.03268" lon="3.08697">
        <ele>873</ele>
        <time>2022-01-28T04:48:25Z</time>
      </trkpt>
      <trkpt lat="45.03267" lon="3.08685">
        <ele>872</ele>
        <time>2022-01-28T04:48:26Z</time>
      </trkpt>
      <trkpt lat="45.03222" lon="3.08416">
        <ele>858</ele>
        <time>2022-01-28T04:49:01Z</time>
      </trkpt>
      <trkpt lat="45.03219" lon="3.08391">
        <ele>857</ele>
        <time>2022-01-28T04:49:04Z</time>
      </trkpt>
      <trkpt lat="45.03214" lon="3.0829">
        <ele>856</ele>
        <time>2022-01-28T04:49:17Z</time>
      </trkpt>
      <trkpt lat="45.0321" lon="3.08282">
        <ele>854</ele>
        <time>2022-01-28T04:49:18Z</time>
      </trkpt>
      <trkpt lat="45.03203" lon="3.08278">
        <ele>851</ele>
        <time>2022-01-28T04:49:19Z</time>
      </trkpt>
      <trkpt lat="45.032" lon="3.08278">
        <ele>850</ele>
        <time>2022-01-28T04:49:20Z</time>
      </trkpt>
      <trkpt lat="45.03197" lon="3.08282">
        <ele>849</ele>
        <time>2022-01-28T04:49:21Z</time>
      </trkpt>
      <trkpt lat="45.03194" lon="3.08291">
        <ele>847</ele>
        <time>2022-01-28T04:49:22Z</time>
      </trkpt>
      <trkpt lat="45.03187" lon="3.08518">
        <ele>843</ele>
        <time>2022-01-28T04:49:50Z</time>
      </trkpt>
      <trkpt lat="45.03182" lon="3.0856">
        <ele>842</ele>
        <time>2022-01-28T04:49:56Z</time>
      </trkpt>
      <trkpt lat="45.03178" lon="3.08576">
        <ele>841</ele>
        <time>2022-01-28T04:49:58Z</time>
      </trkpt>
      <trkpt lat="45.03166" lon="3.0861">
        <ele>837</ele>
        <time>2022-01-28T04:50:03Z</time>
      </trkpt>
      <trkpt lat="45.03114" lon="3.08735">
        <ele>827</ele>
        <time>2022-01-28T04:50:21Z</time>
      </trkpt>
      <trkpt lat="45.03108" lon="3.08754">
        <ele>827</ele>
        <time>2022-01-28T04:50:24Z</time>
      </trkpt>
      <trkpt lat="45.031" lon="3.0879">
        <ele>825</ele>
        <time>2022-01-28T04:50:28Z</time>
      </trkpt>
      <trkpt lat="45.03084" lon="3.08922">
        <ele>814</ele>
        <time>2022-01-28T04:50:45Z</time>
      </trkpt>
      <trkpt lat="45.03076" lon="3.09052">
        <ele>812</ele>
        <time>2022-01-28T04:51:02Z</time>
      </trkpt>
      <trkpt lat="45.03061" lon="3.09152">
        <ele>810</ele>
        <time>2022-01-28T04:51:14Z</time>
      </trkpt>
      <trkpt lat="45.03061" lon="3.09227">
        <ele>807</ele>
        <time>2022-01-28T04:51:24Z</time>
      </trkpt>
      <trkpt lat="45.03064" lon="3.0934">
        <ele>801</ele>
        <time>2022-01-28T04:51:38Z</time>
      </trkpt>
      <trkpt lat="45.03068" lon="3.0939">
        <ele>799</ele>
        <time>2022-01-28T04:51:44Z</time>
      </trkpt>
      <trkpt lat="45.03089" lon="3.09531">
        <ele>791</ele>
        <time>2022-01-28T04:52:03Z</time>
      </trkpt>
      <trkpt lat="45.03095" lon="3.09565">
        <ele>791</ele>
        <time>2022-01-28T04:52:07Z</time>
      </trkpt>
      <trkpt lat="45.03104" lon="3.09596">
        <ele>792</ele>
        <time>2022-01-28T04:52:11Z</time>
      </trkpt>
      <trkpt lat="45.03125" lon="3.0966">
        <ele>792</ele>
        <time>2022-01-28T04:52:20Z</time>
      </trkpt>
      <trkpt lat="45.03148" lon="3.09724">
        <ele>787</ele>
        <time>2022-01-28T04:52:29Z</time>
      </trkpt>
      <trkpt lat="45.03224" lon="3.09966">
        <ele>782</ele>
        <time>2022-01-28T04:53:02Z</time>
      </trkpt>
      <trkpt lat="45.03234" lon="3.09981">
        <ele>781</ele>
        <time>2022-01-28T04:53:05Z</time>
      </trkpt>
      <trkpt lat="45.03249" lon="3.09997">
        <ele>779</ele>
        <time>2022-01-28T04:53:08Z</time>
      </trkpt>
      <trkpt lat="45.03278" lon="3.10024">
        <ele>778</ele>
        <time>2022-01-28T04:53:14Z</time>
      </trkpt>
      <trkpt lat="45.03309" lon="3.10051">
        <ele>776</ele>
        <time>2022-01-28T04:53:21Z</time>
      </trkpt>
      <trkpt lat="45.0333" lon="3.10068">
        <ele>775</ele>
        <time>2022-01-28T04:53:25Z</time>
      </trkpt>
      <trkpt lat="45.03337" lon="3.10067">
        <ele>775</ele>
        <time>2022-01-28T04:53:27Z</time>
      </trkpt>
      <trkpt lat="45.03339" lon="3.10076">
        <ele>775</ele>
        <time>2022-01-28T04:53:28Z</time>
      </trkpt>
      <trkpt lat="45.03345" lon="3.10079">
        <ele>775</ele>
        <time>2022-01-28T04:53:29Z</time>
      </trkpt>
      <trkpt lat="45.0336" lon="3.10336">
        <ele>775</ele>
        <time>2022-01-28T04:54:01Z</time>
      </trkpt>
      <trkpt lat="45.03392" lon="3.1096">
        <ele>774</ele>
        <time>2022-01-28T04:55:20Z</time>
      </trkpt>
      <trkpt lat="45.03392" lon="3.11003">
        <ele>774</ele>
        <time>2022-01-28T04:55:25Z</time>
      </trkpt>
      <trkpt lat="45.03388" lon="3.11036">
        <ele>778</ele>
        <time>2022-01-28T04:55:30Z</time>
      </trkpt>
      <trkpt lat="45.03381" lon="3.11064">
        <ele>780</ele>
        <time>2022-01-28T04:55:33Z</time>
      </trkpt>
      <trkpt lat="45.03373" lon="3.11079">
        <ele>781</ele>
        <time>2022-01-28T04:55:36Z</time>
      </trkpt>
      <trkpt lat="45.03367" lon="3.11085">
        <ele>780</ele>
        <time>2022-01-28T04:55:37Z</time>
      </trkpt>
      <trkpt lat="45.03355" lon="3.11094">
        <ele>780</ele>
        <time>2022-01-28T04:55:39Z</time>
      </trkpt>
      <trkpt lat="45.03325" lon="3.11107">
        <ele>777</ele>
        <time>2022-01-28T04:55:45Z</time>
      </trkpt>
      <trkpt lat="45.03301" lon="3.11122">
        <ele>778</ele>
        <time>2022-01-28T04:55:50Z</time>
      </trkpt>
      <trkpt lat="45.03273" lon="3.11148">
        <ele>778</ele>
        <time>2022-01-28T04:55:56Z</time>
      </trkpt>
      <trkpt lat="45.03254" lon="3.11179">
        <ele>778</ele>
        <time>2022-01-28T04:56:01Z</time>
      </trkpt>
      <trkpt lat="45.03222" lon="3.11247">
        <ele>779</ele>
        <time>2022-01-28T04:56:11Z</time>
      </trkpt>
      <trkpt lat="45.03212" lon="3.11265">
        <ele>779</ele>
        <time>2022-01-28T04:56:14Z</time>
      </trkpt>
      <trkpt lat="45.03125" lon="3.11384">
        <ele>776</ele>
        <time>2022-01-28T04:56:35Z</time>
      </trkpt>
      <trkpt lat="45.03119" lon="3.11394">
        <ele>776</ele>
        <time>2022-01-28T04:56:37Z</time>
      </trkpt>
      <trkpt lat="45.03114" lon="3.11408">
        <ele>776</ele>
        <time>2022-01-28T04:56:39Z</time>
      </trkpt>
      <trkpt lat="45.0311" lon="3.11429">
        <ele>775</ele>
        <time>2022-01-28T04:56:42Z</time>
      </trkpt>
      <trkpt lat="45.03098" lon="3.11431">
        <ele>773</ele>
        <time>2022-01-28T04:56:44Z</time>
      </trkpt>
      <trkpt lat="45.03092" lon="3.11438">
        <ele>772</ele>
        <time>2022-01-28T04:56:45Z</time>
      </trkpt>
      <trkpt lat="45.03069" lon="3.11504">
        <ele>770</ele>
        <time>2022-01-28T04:56:55Z</time>
      </trkpt>
      <trkpt lat="45.03051" lon="3.11543">
        <ele>774</ele>
        <time>2022-01-28T04:57:00Z</time>
      </trkpt>
      <trkpt lat="45.03017" lon="3.11578">
        <ele>777</ele>
        <time>2022-01-28T04:57:08Z</time>
      </trkpt>
      <trkpt lat="45.02995" lon="3.11586">
        <ele>779</ele>
        <time>2022-01-28T04:57:12Z</time>
      </trkpt>
      <trkpt lat="45.02947" lon="3.11575">
        <ele>781</ele>
        <time>2022-01-28T04:57:21Z</time>
      </trkpt>
      <trkpt lat="45.02917" lon="3.11565">
        <ele>782</ele>
        <time>2022-01-28T04:57:26Z</time>
      </trkpt>
      <trkpt lat="45.0278" lon="3.11458">
        <ele>779</ele>
        <time>2022-01-28T04:57:54Z</time>
      </trkpt>
      <trkpt lat="45.02748" lon="3.11422">
        <ele>776</ele>
        <time>2022-01-28T04:58:01Z</time>
      </trkpt>
      <trkpt lat="45.02722" lon="3.11366">
        <ele>771</ele>
        <time>2022-01-28T04:58:10Z</time>
      </trkpt>
      <trkpt lat="45.02702" lon="3.11344">
        <ele>769</ele>
        <time>2022-01-28T04:58:14Z</time>
      </trkpt>
      <trkpt lat="45.02671" lon="3.11331">
        <ele>769</ele>
        <time>2022-01-28T04:58:20Z</time>
      </trkpt>
      <trkpt lat="45.02637" lon="3.11344">
        <ele>770</ele>
        <time>2022-01-28T04:58:26Z</time>
      </trkpt>
      <trkpt lat="45.02614" lon="3.11361">
        <ele>771</ele>
        <time>2022-01-28T04:58:31Z</time>
      </trkpt>
      <trkpt lat="45.02552" lon="3.11418">
        <ele>772</ele>
        <time>2022-01-28T04:58:44Z</time>
      </trkpt>
      <trkpt lat="45.0252" lon="3.1147">
        <ele>771</ele>
        <time>2022-01-28T04:58:53Z</time>
      </trkpt>
      <trkpt lat="45.02495" lon="3.11529">
        <ele>768</ele>
        <time>2022-01-28T04:59:01Z</time>
      </trkpt>
      <trkpt lat="45.02485" lon="3.11557">
        <ele>768</ele>
        <time>2022-01-28T04:59:05Z</time>
      </trkpt>
      <trkpt lat="45.02478" lon="3.11749">
        <ele>769</ele>
        <time>2022-01-28T04:59:29Z</time>
      </trkpt>
      <trkpt lat="45.02465" lon="3.11798">
        <ele>768</ele>
        <time>2022-01-28T04:59:36Z</time>
      </trkpt>
      <trkpt lat="45.02462" lon="3.11809">
        <ele>768</ele>
        <time>2022-01-28T04:59:37Z</time>
      </trkpt>
      <trkpt lat="45.02444" lon="3.11857">
        <ele>767</ele>
        <time>2022-01-28T04:59:44Z</time>
      </trkpt>
      <trkpt lat="45.02425" lon="3.11984">
        <ele>770</ele>
        <time>2022-01-28T05:00:01Z</time>
      </trkpt>
      <trkpt lat="45.02417" lon="3.1202">
        <ele>772</ele>
        <time>2022-01-28T05:00:05Z</time>
      </trkpt>
      <trkpt lat="45.02385" lon="3.12048">
        <ele>772</ele>
        <time>2022-01-28T05:00:12Z</time>
      </trkpt>
      <trkpt lat="45.02352" lon="3.12074">
        <ele>770</ele>
        <time>2022-01-28T05:00:19Z</time>
      </trkpt>
      <trkpt lat="45.02294" lon="3.12143">
        <ele>770</ele>
        <time>2022-01-28T05:00:32Z</time>
      </trkpt>
      <trkpt lat="45.02183" lon="3.12269">
        <ele>771</ele>
        <time>2022-01-28T05:00:58Z</time>
      </trkpt>
      <trkpt lat="45.02161" lon="3.12307">
        <ele>772</ele>
        <time>2022-01-28T05:01:04Z</time>
      </trkpt>
      <trkpt lat="45.02133" lon="3.12351">
        <ele>773</ele>
        <time>2022-01-28T05:01:11Z</time>
      </trkpt>
      <trkpt lat="45.02101" lon="3.12414">
        <ele>771</ele>
        <time>2022-01-28T05:01:21Z</time>
      </trkpt>
      <trkpt lat="45.02059" lon="3.1247">
        <ele>772</ele>
        <time>2022-01-28T05:01:31Z</time>
      </trkpt>
      <trkpt lat="45.01999" lon="3.12511">
        <ele>770</ele>
        <time>2022-01-28T05:01:43Z</time>
      </trkpt>
      <trkpt lat="45.01955" lon="3.12528">
        <ele>769</ele>
        <time>2022-01-28T05:01:51Z</time>
      </trkpt>
      <trkpt lat="45.0191" lon="3.12554">
        <ele>770</ele>
        <time>2022-01-28T05:02:00Z</time>
      </trkpt>
      <trkpt lat="45.01871" lon="3.12571">
        <ele>773</ele>
        <time>2022-01-28T05:02:07Z</time>
      </trkpt>
      <trkpt lat="45.01843" lon="3.12572">
        <ele>772</ele>
        <time>2022-01-28T05:02:12Z</time>
      </trkpt>
      <trkpt lat="45.01805" lon="3.12554">
        <ele>774</ele>
        <time>2022-01-28T05:02:19Z</time>
      </trkpt>
      <trkpt lat="45.01708" lon="3.12461">
        <ele>769</ele>
        <time>2022-01-28T05:02:40Z</time>
      </trkpt>
      <trkpt lat="45.0165" lon="3.12416">
        <ele>759</ele>
        <time>2022-01-28T05:02:52Z</time>
      </trkpt>
      <trkpt lat="45.01634" lon="3.1241">
        <ele>759</ele>
        <time>2022-01-28T05:02:55Z</time>
      </trkpt>
      <trkpt lat="45.01616" lon="3.12415">
        <ele>757</ele>
        <time>2022-01-28T05:02:58Z</time>
      </trkpt>
      <trkpt lat="45.0159" lon="3.12438">
        <ele>758</ele>
        <time>2022-01-28T05:03:03Z</time>
      </trkpt>
      <trkpt lat="45.01567" lon="3.12464">
        <ele>760</ele>
        <time>2022-01-28T05:03:09Z</time>
      </trkpt>
      <trkpt lat="45.01557" lon="3.12477">
        <ele>761</ele>
        <time>2022-01-28T05:03:11Z</time>
      </trkpt>
      <trkpt lat="45.01553" lon="3.12482">
        <ele>762</ele>
        <time>2022-01-28T05:03:12Z</time>
      </trkpt>
      <trkpt lat="45.01553" lon="3.12514">
        <ele>764</ele>
        <time>2022-01-28T05:03:16Z</time>
      </trkpt>
      <trkpt lat="45.01557" lon="3.12555">
        <ele>769</ele>
        <time>2022-01-28T05:03:21Z</time>
      </trkpt>
      <trkpt lat="45.01543" lon="3.12631">
        <ele>778</ele>
        <time>2022-01-28T05:03:31Z</time>
      </trkpt>
      <trkpt lat="45.0152" lon="3.12689">
        <ele>785</ele>
        <time>2022-01-28T05:03:40Z</time>
      </trkpt>
      <trkpt lat="45.01518" lon="3.12692">
        <ele>786</ele>
        <time>2022-01-28T05:03:40Z</time>
      </trkpt>
      <trkpt lat="45.01515" lon="3.12693">
        <ele>787</ele>
        <time>2022-01-28T05:03:41Z</time>
      </trkpt>
      <trkpt lat="45.01514" lon="3.12691">
        <ele>787</ele>
        <time>2022-01-28T05:03:41Z</time>
      </trkpt>
      <trkpt lat="45.01513" lon="3.12685">
        <ele>787</ele>
        <time>2022-01-28T05:03:42Z</time>
      </trkpt>
      <trkpt lat="45.01522" lon="3.12638">
        <ele>783</ele>
        <time>2022-01-28T05:03:48Z</time>
      </trkpt>
      <trkpt lat="45.01526" lon="3.12599">
        <ele>779</ele>
        <time>2022-01-28T05:03:53Z</time>
      </trkpt>
      <trkpt lat="45.01525" lon="3.12584">
        <ele>778</ele>
        <time>2022-01-28T05:03:55Z</time>
      </trkpt>
      <trkpt lat="45.01519" lon="3.1257">
        <ele>776</ele>
        <time>2022-01-28T05:03:57Z</time>
      </trkpt>
      <trkpt lat="45.01511" lon="3.12564">
        <ele>776</ele>
        <time>2022-01-28T05:03:58Z</time>
      </trkpt>
      <trkpt lat="45.015" lon="3.12564">
        <ele>777</ele>
        <time>2022-01-28T05:04:00Z</time>
      </trkpt>
      <trkpt lat="45.01494" lon="3.12568">
        <ele>778</ele>
        <time>2022-01-28T05:04:01Z</time>
      </trkpt>
      <trkpt lat="45.01488" lon="3.12575">
        <ele>779</ele>
        <time>2022-01-28T05:04:03Z</time>
      </trkpt>
      <trkpt lat="45.01464" lon="3.12633">
        <ele>785</ele>
        <time>2022-01-28T05:04:11Z</time>
      </trkpt>
      <trkpt lat="45.01452" lon="3.12691">
        <ele>791</ele>
        <time>2022-01-28T05:04:19Z</time>
      </trkpt>
      <trkpt lat="45.01457" lon="3.12787">
        <ele>800</ele>
        <time>2022-01-28T05:04:31Z</time>
      </trkpt>
      <trkpt lat="45.01454" lon="3.12799">
        <ele>802</ele>
        <time>2022-01-28T05:04:33Z</time>
      </trkpt>
      <trkpt lat="45.01446" lon="3.12818">
        <ele>805</ele>
        <time>2022-01-28T05:04:35Z</time>
      </trkpt>
      <trkpt lat="45.01425" lon="3.12831">
        <ele>808</ele>
        <time>2022-01-28T05:04:39Z</time>
      </trkpt>
      <trkpt lat="45.01418" lon="3.12847">
        <ele>810</ele>
        <time>2022-01-28T05:04:42Z</time>
      </trkpt>
      <trkpt lat="45.01421" lon="3.12858">
        <ele>812</ele>
        <time>2022-01-28T05:04:43Z</time>
      </trkpt>
      <trkpt lat="45.01491" lon="3.12898">
        <ele>818</ele>
        <time>2022-01-28T05:04:57Z</time>
      </trkpt>
      <trkpt lat="45.01511" lon="3.12915">
        <ele>820</ele>
        <time>2022-01-28T05:05:01Z</time>
      </trkpt>
      <trkpt lat="45.01517" lon="3.12942">
        <ele>824</ele>
        <time>2022-01-28T05:05:04Z</time>
      </trkpt>
      <trkpt lat="45.01515" lon="3.13047">
        <ele>839</ele>
        <time>2022-01-28T05:05:18Z</time>
      </trkpt>
      <trkpt lat="45.01509" lon="3.1308">
        <ele>843</ele>
        <time>2022-01-28T05:05:22Z</time>
      </trkpt>
      <trkpt lat="45.01516" lon="3.1309">
        <ele>843</ele>
        <time>2022-01-28T05:05:24Z</time>
      </trkpt>
      <trkpt lat="45.01547" lon="3.13088">
        <ele>841</ele>
        <time>2022-01-28T05:05:29Z</time>
      </trkpt>
      <trkpt lat="45.0155" lon="3.13129">
        <ele>844</ele>
        <time>2022-01-28T05:05:34Z</time>
      </trkpt>
      <trkpt lat="45.01556" lon="3.13172">
        <ele>847</ele>
        <time>2022-01-28T05:05:40Z</time>
      </trkpt>
      <trkpt lat="45.01576" lon="3.13252">
        <ele>852</ele>
        <time>2022-01-28T05:05:51Z</time>
      </trkpt>
      <trkpt lat="45.01589" lon="3.13331">
        <ele>858</ele>
        <time>2022-01-28T05:06:01Z</time>
      </trkpt>
      <trkpt lat="45.01598" lon="3.13466">
        <ele>858</ele>
        <time>2022-01-28T05:06:18Z</time>
      </trkpt>
      <trkpt lat="45.0161" lon="3.13594">
        <ele>859</ele>
        <time>2022-01-28T05:06:34Z</time>
      </trkpt>
      <trkpt lat="45.01647" lon="3.13737">
        <ele>862</ele>
        <time>2022-01-28T05:06:53Z</time>
      </trkpt>
      <trkpt lat="45.01687" lon="3.13846">
        <ele>861</ele>
        <time>2022-01-28T05:07:09Z</time>
      </trkpt>
      <trkpt lat="45.01707" lon="3.13934">
        <ele>861</ele>
        <time>2022-01-28T05:07:20Z</time>
      </trkpt>
      <trkpt lat="45.01708" lon="3.13979">
        <ele>862</ele>
        <time>2022-01-28T05:07:26Z</time>
      </trkpt>
      <trkpt lat="45.01723" lon="3.14136">
        <ele>870</ele>
        <time>2022-01-28T05:07:46Z</time>
      </trkpt>
      <trkpt lat="45.01723" lon="3.14164">
        <ele>871</ele>
        <time>2022-01-28T05:07:49Z</time>
      </trkpt>
      <trkpt lat="45.01698" lon="3.14272">
        <ele>871</ele>
        <time>2022-01-28T05:08:04Z</time>
      </trkpt>
      <trkpt lat="45.01682" lon="3.1433">
        <ele>869</ele>
        <time>2022-01-28T05:08:12Z</time>
      </trkpt>
      <trkpt lat="45.01663" lon="3.14371">
        <ele>867</ele>
        <time>2022-01-28T05:08:18Z</time>
      </trkpt>
      <trkpt lat="45.01619" lon="3.1444">
        <ele>863</ele>
        <time>2022-01-28T05:08:29Z</time>
      </trkpt>
      <trkpt lat="45.01574" lon="3.14496">
        <ele>859</ele>
        <time>2022-01-28T05:08:40Z</time>
      </trkpt>
      <trkpt lat="45.01555" lon="3.14522">
        <ele>858</ele>
        <time>2022-01-28T05:08:45Z</time>
      </trkpt>
      <trkpt lat="45.01511" lon="3.14601">
        <ele>859</ele>
        <time>2022-01-28T05:08:57Z</time>
      </trkpt>
      <trkpt lat="45.01442" lon="3.14729">
        <ele>861</ele>
        <time>2022-01-28T05:09:18Z</time>
      </trkpt>
      <trkpt lat="45.01382" lon="3.14826">
        <ele>863</ele>
        <time>2022-01-28T05:09:34Z</time>
      </trkpt>
      <trkpt lat="45.01373" lon="3.14848">
        <ele>864</ele>
        <time>2022-01-28T05:09:37Z</time>
      </trkpt>
      <trkpt lat="45.01364" lon="3.14885">
        <ele>866</ele>
        <time>2022-01-28T05:09:42Z</time>
      </trkpt>
      <trkpt lat="45.01338" lon="3.14954">
        <ele>870</ele>
        <time>2022-01-28T05:09:52Z</time>
      </trkpt>
      <trkpt lat="45.01297" lon="3.15049">
        <ele>873</ele>
        <time>2022-01-28T05:10:06Z</time>
      </trkpt>
      <trkpt lat="45.01268" lon="3.15155">
        <ele>875</ele>
        <time>2022-01-28T05:10:20Z</time>
      </trkpt>
      <trkpt lat="45.01247" lon="3.15259">
        <ele>877</ele>
        <time>2022-01-28T05:10:34Z</time>
      </trkpt>
      <trkpt lat="45.01225" lon="3.15344">
        <ele>880</ele>
        <time>2022-01-28T05:10:45Z</time>
      </trkpt>
      <trkpt lat="45.01187" lon="3.15476">
        <ele>881</ele>
        <time>2022-01-28T05:11:03Z</time>
      </trkpt>
      <trkpt lat="45.0117" lon="3.15546">
        <ele>882</ele>
        <time>2022-01-28T05:11:12Z</time>
      </trkpt>
      <trkpt lat="45.01154" lon="3.15541">
        <ele>881</ele>
        <time>2022-01-28T05:11:15Z</time>
      </trkpt>
      <trkpt lat="45.01138" lon="3.15543">
        <ele>879</ele>
        <time>2022-01-28T05:11:18Z</time>
      </trkpt>
      <trkpt lat="45.01121" lon="3.15555">
        <ele>878</ele>
        <time>2022-01-28T05:11:22Z</time>
      </trkpt>
      <trkpt lat="45.0111" lon="3.15576">
        <ele>877</ele>
        <time>2022-01-28T05:11:25Z</time>
      </trkpt>
      <trkpt lat="45.01106" lon="3.15592">
        <ele>877</ele>
        <time>2022-01-28T05:11:27Z</time>
      </trkpt>
      <trkpt lat="45.01106" lon="3.15631">
        <ele>879</ele>
        <time>2022-01-28T05:11:32Z</time>
      </trkpt>
      <trkpt lat="45.01103" lon="3.1565">
        <ele>879</ele>
        <time>2022-01-28T05:11:34Z</time>
      </trkpt>
      <trkpt lat="45.01097" lon="3.15664">
        <ele>879</ele>
        <time>2022-01-28T05:11:36Z</time>
      </trkpt>
      <trkpt lat="45.01093" lon="3.15673">
        <ele>880</ele>
        <time>2022-01-28T05:11:38Z</time>
      </trkpt>
      <trkpt lat="45.01078" lon="3.15689">
        <ele>880</ele>
        <time>2022-01-28T05:11:41Z</time>
      </trkpt>
      <trkpt lat="45.00979" lon="3.15781">
        <ele>881</ele>
        <time>2022-01-28T05:12:02Z</time>
      </trkpt>
      <trkpt lat="45.00948" lon="3.15806">
        <ele>881</ele>
        <time>2022-01-28T05:12:09Z</time>
      </trkpt>
      <trkpt lat="45.00833" lon="3.15879">
        <ele>877</ele>
        <time>2022-01-28T05:12:31Z</time>
      </trkpt>
      <trkpt lat="45.00751" lon="3.15919">
        <ele>874</ele>
        <time>2022-01-28T05:12:46Z</time>
      </trkpt>
      <trkpt lat="45.00673" lon="3.15964">
        <ele>871</ele>
        <time>2022-01-28T05:13:01Z</time>
      </trkpt>
      <trkpt lat="45.00552" lon="3.16039">
        <ele>864</ele>
        <time>2022-01-28T05:13:25Z</time>
      </trkpt>
      <trkpt lat="45.00436" lon="3.16122">
        <ele>857</ele>
        <time>2022-01-28T05:13:48Z</time>
      </trkpt>
      <trkpt lat="45.00113" lon="3.16382">
        <ele>852</ele>
        <time>2022-01-28T05:14:54Z</time>
      </trkpt>
      <trkpt lat="45.00057" lon="3.16425">
        <ele>853</ele>
        <time>2022-01-28T05:15:05Z</time>
      </trkpt>
      <trkpt lat="45.00033" lon="3.16442">
        <ele>854</ele>
        <time>2022-01-28T05:15:10Z</time>
      </trkpt>
      <trkpt lat="45.00017" lon="3.16449">
        <ele>855</ele>
        <time>2022-01-28T05:15:13Z</time>
      </trkpt>
      <trkpt lat="44.99994" lon="3.16456">
        <ele>856</ele>
        <time>2022-01-28T05:15:17Z</time>
      </trkpt>
      <trkpt lat="44.99965" lon="3.1646">
        <ele>859</ele>
        <time>2022-01-28T05:15:23Z</time>
      </trkpt>
      <trkpt lat="44.9982" lon="3.16454">
        <ele>868</ele>
        <time>2022-01-28T05:15:48Z</time>
      </trkpt>
      <trkpt lat="44.9935" lon="3.16427">
        <ele>872</ele>
        <time>2022-01-28T05:17:12Z</time>
      </trkpt>
      <trkpt lat="44.99251" lon="3.16419">
        <ele>872</ele>
        <time>2022-01-28T05:17:30Z</time>
      </trkpt>
      <trkpt lat="44.99223" lon="3.16414">
        <ele>871</ele>
        <time>2022-01-28T05:17:35Z</time>
      </trkpt>
      <trkpt lat="44.99082" lon="3.16382">
        <ele>867</ele>
        <time>2022-01-28T05:18:00Z</time>
      </trkpt>
      <trkpt lat="44.99031" lon="3.16377">
        <ele>866</ele>
        <time>2022-01-28T05:18:09Z</time>
      </trkpt>
      <trkpt lat="44.98956" lon="3.16376">
        <ele>866</ele>
        <time>2022-01-28T05:18:23Z</time>
      </trkpt>
      <trkpt lat="44.98913" lon="3.16382">
        <ele>867</ele>
        <time>2022-01-28T05:18:30Z</time>
      </trkpt>
      <trkpt lat="44.9889" lon="3.16388">
        <ele>867</ele>
        <time>2022-01-28T05:18:34Z</time>
      </trkpt>
      <trkpt lat="44.98868" lon="3.16396">
        <ele>868</ele>
        <time>2022-01-28T05:18:39Z</time>
      </trkpt>
      <trkpt lat="44.98833" lon="3.16412">
        <ele>869</ele>
        <time>2022-01-28T05:18:45Z</time>
      </trkpt>
      <trkpt lat="44.98253" lon="3.16812">
        <ele>863</ele>
        <time>2022-01-28T05:20:40Z</time>
      </trkpt>
      <trkpt lat="44.98231" lon="3.16825">
        <ele>863</ele>
        <time>2022-01-28T05:20:44Z</time>
      </trkpt>
      <trkpt lat="44.98158" lon="3.16863">
        <ele>862</ele>
        <time>2022-01-28T05:20:58Z</time>
      </trkpt>
      <trkpt lat="44.98138" lon="3.1687">
        <ele>860</ele>
        <time>2022-01-28T05:21:02Z</time>
      </trkpt>
      <trkpt lat="44.98124" lon="3.16868">
        <ele>859</ele>
        <time>2022-01-28T05:21:04Z</time>
      </trkpt>
      <trkpt lat="44.98113" lon="3.16863">
        <ele>858</ele>
        <time>2022-01-28T05:21:06Z</time>
      </trkpt>
      <trkpt lat="44.981" lon="3.16848">
        <ele>856</ele>
        <time>2022-01-28T05:21:09Z</time>
      </trkpt>
      <trkpt lat="44.98002" lon="3.16685">
        <ele>846</ele>
        <time>2022-01-28T05:21:36Z</time>
      </trkpt>
      <trkpt lat="44.9799" lon="3.16673">
        <ele>843</ele>
        <time>2022-01-28T05:21:39Z</time>
      </trkpt>
      <trkpt lat="44.97978" lon="3.1667">
        <ele>840</ele>
        <time>2022-01-28T05:21:41Z</time>
      </trkpt>
      <trkpt lat="44.97965" lon="3.16671">
        <ele>837</ele>
        <time>2022-01-28T05:21:43Z</time>
      </trkpt>
      <trkpt lat="44.9795" lon="3.16681">
        <ele>834</ele>
        <time>2022-01-28T05:21:46Z</time>
      </trkpt>
      <trkpt lat="44.97943" lon="3.1669">
        <ele>832</ele>
        <time>2022-01-28T05:21:48Z</time>
      </trkpt>
      <trkpt lat="44.97934" lon="3.16718">
        <ele>831</ele>
        <time>2022-01-28T05:21:52Z</time>
      </trkpt>
      <trkpt lat="44.97927" lon="3.16748">
        <ele>830</ele>
        <time>2022-01-28T05:21:56Z</time>
      </trkpt>
      <trkpt lat="44.97923" lon="3.16759">
        <ele>830</ele>
        <time>2022-01-28T05:21:57Z</time>
      </trkpt>
      <trkpt lat="44.97917" lon="3.16769">
        <ele>830</ele>
        <time>2022-01-28T05:21:59Z</time>
      </trkpt>
      <trkpt lat="44.97909" lon="3.16777">
        <ele>830</ele>
        <time>2022-01-28T05:22:01Z</time>
      </trkpt>
      <trkpt lat="44.979" lon="3.16782">
        <ele>829</ele>
        <time>2022-01-28T05:22:02Z</time>
      </trkpt>
      <trkpt lat="44.9789" lon="3.16785">
        <ele>827</ele>
        <time>2022-01-28T05:22:04Z</time>
      </trkpt>
      <trkpt lat="44.97753" lon="3.16803">
        <ele>810</ele>
        <time>2022-01-28T05:22:29Z</time>
      </trkpt>
      <trkpt lat="44.97719" lon="3.16813">
        <ele>807</ele>
        <time>2022-01-28T05:22:35Z</time>
      </trkpt>
      <trkpt lat="44.977" lon="3.16821">
        <ele>805</ele>
        <time>2022-01-28T05:22:38Z</time>
      </trkpt>
      <trkpt lat="44.97638" lon="3.16862">
        <ele>800</ele>
        <time>2022-01-28T05:22:51Z</time>
      </trkpt>
      <trkpt lat="44.97523" lon="3.16946">
        <ele>787</ele>
        <time>2022-01-28T05:23:14Z</time>
      </trkpt>
      <trkpt lat="44.97501" lon="3.16966">
        <ele>786</ele>
        <time>2022-01-28T05:23:18Z</time>
      </trkpt>
      <trkpt lat="44.9748" lon="3.16996">
        <ele>781</ele>
        <time>2022-01-28T05:23:24Z</time>
      </trkpt>
      <trkpt lat="44.97473" lon="3.17002">
        <ele>779</ele>
        <time>2022-01-28T05:23:25Z</time>
      </trkpt>
      <trkpt lat="44.97465" lon="3.17003">
        <ele>777</ele>
        <time>2022-01-28T05:23:26Z</time>
      </trkpt>
      <trkpt lat="44.97459" lon="3.17">
        <ele>775</ele>
        <time>2022-01-28T05:23:28Z</time>
      </trkpt>
      <trkpt lat="44.97454" lon="3.16987">
        <ele>772</ele>
        <time>2022-01-28T05:23:29Z</time>
      </trkpt>
      <trkpt lat="44.97453" lon="3.16978">
        <ele>771</ele>
        <time>2022-01-28T05:23:31Z</time>
      </trkpt>
      <trkpt lat="44.97461" lon="3.16915">
        <ele>769</ele>
        <time>2022-01-28T05:23:39Z</time>
      </trkpt>
      <trkpt lat="44.97466" lon="3.16897">
        <ele>769</ele>
        <time>2022-01-28T05:23:41Z</time>
      </trkpt>
      <trkpt lat="44.97484" lon="3.16849">
        <ele>770</ele>
        <time>2022-01-28T05:23:48Z</time>
      </trkpt>
      <trkpt lat="44.97496" lon="3.16828">
        <ele>771</ele>
        <time>2022-01-28T05:23:51Z</time>
      </trkpt>
      <trkpt lat="44.97513" lon="3.16804">
        <ele>771</ele>
        <time>2022-01-28T05:23:56Z</time>
      </trkpt>
      <trkpt lat="44.97519" lon="3.16794">
        <ele>770</ele>
        <time>2022-01-28T05:23:57Z</time>
      </trkpt>
      <trkpt lat="44.97521" lon="3.16779">
        <ele>768</ele>
        <time>2022-01-28T05:23:59Z</time>
      </trkpt>
      <trkpt lat="44.9752" lon="3.16773">
        <ele>767</ele>
        <time>2022-01-28T05:24:00Z</time>
      </trkpt>
      <trkpt lat="44.97515" lon="3.16766">
        <ele>765</ele>
        <time>2022-01-28T05:24:01Z</time>
      </trkpt>
      <trkpt lat="44.97505" lon="3.16764">
        <ele>764</ele>
        <time>2022-01-28T05:24:03Z</time>
      </trkpt>
      <trkpt lat="44.97499" lon="3.16765">
        <ele>763</ele>
        <time>2022-01-28T05:24:04Z</time>
      </trkpt>
      <trkpt lat="44.97472" lon="3.16781">
        <ele>758</ele>
        <time>2022-01-28T05:24:09Z</time>
      </trkpt>
      <trkpt lat="44.9746" lon="3.16793">
        <ele>756</ele>
        <time>2022-01-28T05:24:12Z</time>
      </trkpt>
      <trkpt lat="44.97452" lon="3.16807">
        <ele>755</ele>
        <time>2022-01-28T05:24:14Z</time>
      </trkpt>
      <trkpt lat="44.9743" lon="3.16864">
        <ele>754</ele>
        <time>2022-01-28T05:24:22Z</time>
      </trkpt>
      <trkpt lat="44.97392" lon="3.16949">
        <ele>751</ele>
        <time>2022-01-28T05:24:35Z</time>
      </trkpt>
      <trkpt lat="44.97382" lon="3.16987">
        <ele>751</ele>
        <time>2022-01-28T05:24:40Z</time>
      </trkpt>
      <trkpt lat="44.97374" lon="3.17076">
        <ele>752</ele>
        <time>2022-01-28T05:24:51Z</time>
      </trkpt>
      <trkpt lat="44.97376" lon="3.17109">
        <ele>751</ele>
        <time>2022-01-28T05:24:56Z</time>
      </trkpt>
      <trkpt lat="44.97383" lon="3.17135">
        <ele>750</ele>
        <time>2022-01-28T05:24:59Z</time>
      </trkpt>
      <trkpt lat="44.97425" lon="3.17225">
        <ele>742</ele>
        <time>2022-01-28T05:25:13Z</time>
      </trkpt>
      <trkpt lat="44.97428" lon="3.17241">
        <ele>740</ele>
        <time>2022-01-28T05:25:15Z</time>
      </trkpt>
      <trkpt lat="44.97427" lon="3.17258">
        <ele>738</ele>
        <time>2022-01-28T05:25:17Z</time>
      </trkpt>
      <trkpt lat="44.97452" lon="3.17274">
        <ele>739</ele>
        <time>2022-01-28T05:25:22Z</time>
      </trkpt>
      <trkpt lat="44.97461" lon="3.17276">
        <ele>739</ele>
        <time>2022-01-28T05:25:23Z</time>
      </trkpt>
      <trkpt lat="44.97466" lon="3.17274">
        <ele>740</ele>
        <time>2022-01-28T05:25:24Z</time>
      </trkpt>
      <trkpt lat="44.97472" lon="3.1727">
        <ele>741</ele>
        <time>2022-01-28T05:25:25Z</time>
      </trkpt>
      <trkpt lat="44.97495" lon="3.17236">
        <ele>748</ele>
        <time>2022-01-28T05:25:31Z</time>
      </trkpt>
      <trkpt lat="44.97511" lon="3.17219">
        <ele>752</ele>
        <time>2022-01-28T05:25:35Z</time>
      </trkpt>
      <trkpt lat="44.97522" lon="3.17211">
        <ele>753</ele>
        <time>2022-01-28T05:25:37Z</time>
      </trkpt>
      <trkpt lat="44.97559" lon="3.17196">
        <ele>755</ele>
        <time>2022-01-28T05:25:44Z</time>
      </trkpt>
      <trkpt lat="44.97575" lon="3.17191">
        <ele>755</ele>
        <time>2022-01-28T05:25:47Z</time>
      </trkpt>
      <trkpt lat="44.97623" lon="3.17196">
        <ele>755</ele>
        <time>2022-01-28T05:25:55Z</time>
      </trkpt>
      <trkpt lat="44.97643" lon="3.17193">
        <ele>756</ele>
        <time>2022-01-28T05:25:59Z</time>
      </trkpt>
      <trkpt lat="44.97683" lon="3.17165">
        <ele>765</ele>
        <time>2022-01-28T05:26:07Z</time>
      </trkpt>
      <trkpt lat="44.97701" lon="3.17161">
        <ele>768</ele>
        <time>2022-01-28T05:26:10Z</time>
      </trkpt>
      <trkpt lat="44.97721" lon="3.1717">
        <ele>767</ele>
        <time>2022-01-28T05:26:14Z</time>
      </trkpt>
      <trkpt lat="44.97757" lon="3.17196">
        <ele>763</ele>
        <time>2022-01-28T05:26:21Z</time>
      </trkpt>
      <trkpt lat="44.97767" lon="3.17235">
        <ele>752</ele>
        <time>2022-01-28T05:26:26Z</time>
      </trkpt>
      <trkpt lat="44.97777" lon="3.17244">
        <ele>751</ele>
        <time>2022-01-28T05:26:28Z</time>
      </trkpt>
      <trkpt lat="44.97832" lon="3.17241">
        <ele>764</ele>
        <time>2022-01-28T05:26:38Z</time>
      </trkpt>
      <trkpt lat="44.97859" lon="3.17262">
        <ele>768</ele>
        <time>2022-01-28T05:26:44Z</time>
      </trkpt>
      <trkpt lat="44.97884" lon="3.17289">
        <ele>769</ele>
        <time>2022-01-28T05:26:49Z</time>
      </trkpt>
      <trkpt lat="44.97921" lon="3.1734">
        <ele>761</ele>
        <time>2022-01-28T05:26:59Z</time>
      </trkpt>
    </trkseg>
  </trk>
</gpx>